<?xml version="1.0" encoding="UTF-8" standalone="no" ?>
<gpx xmlns="http://www.topografix.com/GPX/1/1" xmlns:xsi="http://www.w3.org/2001/XMLSchema-instance" xsi:schemaLocation="http://www.topografix.com/GPX/1/1 http://www.topografix.com/GPX/1/1/gpx.xsd" version="1.1" creator="VisuGPX - https://www.visugpx.com">
  <metadata>
    <name>Pornichet 03/02/2022</name>
    <desc><![CDATA[Sortie jeudi 03 février 2022]]></desc>
  </metadata>
  <trk>
    <name><![CDATA[Pornichet Cyclisme]]></name>
    <trkseg>
      <trkpt lat="47.26407" lon="-2.31573">
        <ele>4</ele>
        <time>2022-02-03T08:18:20.000Z</time>
      </trkpt>
      <trkpt lat="47.26407" lon="-2.31594">
        <ele>4</ele>
        <time>2022-02-03T08:18:24.000Z</time>
      </trkpt>
      <trkpt lat="47.26407" lon="-2.31599">
        <ele>3.5999999046326</ele>
        <time>2022-02-03T08:18:25.000Z</time>
      </trkpt>
      <trkpt lat="47.26407" lon="-2.31605">
        <ele>3.5999999046326</ele>
        <time>2022-02-03T08:18:26.000Z</time>
      </trkpt>
      <trkpt lat="47.26408" lon="-2.31644">
        <ele>3.5999999046326</ele>
        <time>2022-02-03T08:18:33.000Z</time>
      </trkpt>
      <trkpt lat="47.26407" lon="-2.31664">
        <ele>3.5999999046326</ele>
        <time>2022-02-03T08:18:37.000Z</time>
      </trkpt>
      <trkpt lat="47.26404" lon="-2.31666">
        <ele>3.5999999046326</ele>
        <time>2022-02-03T08:18:38.000Z</time>
      </trkpt>
      <trkpt lat="47.26393" lon="-2.31671">
        <ele>3.5999999046326</ele>
        <time>2022-02-03T08:18:41.000Z</time>
      </trkpt>
      <trkpt lat="47.26389" lon="-2.31673">
        <ele>3.5999999046326</ele>
        <time>2022-02-03T08:18:42.000Z</time>
      </trkpt>
      <trkpt lat="47.2636" lon="-2.31689">
        <ele>3.5999999046326</ele>
        <time>2022-02-03T08:18:48.000Z</time>
      </trkpt>
      <trkpt lat="47.26355" lon="-2.31692">
        <ele>3.2000000476837</ele>
        <time>2022-02-03T08:18:49.000Z</time>
      </trkpt>
      <trkpt lat="47.26351" lon="-2.31695">
        <ele>2.7999999523163</ele>
        <time>2022-02-03T08:18:50.000Z</time>
      </trkpt>
      <trkpt lat="47.26345" lon="-2.31697">
        <ele>2.4000000953674</ele>
        <time>2022-02-03T08:18:51.000Z</time>
      </trkpt>
      <trkpt lat="47.2634" lon="-2.31699">
        <ele>2</ele>
        <time>2022-02-03T08:18:52.000Z</time>
      </trkpt>
      <trkpt lat="47.26335" lon="-2.317">
        <ele>1.6000000238419</ele>
        <time>2022-02-03T08:18:53.000Z</time>
      </trkpt>
      <trkpt lat="47.2633" lon="-2.31704">
        <ele>1.6000000238419</ele>
        <time>2022-02-03T08:18:54.000Z</time>
      </trkpt>
      <trkpt lat="47.26305" lon="-2.31718">
        <ele>1.2000000476837</ele>
        <time>2022-02-03T08:18:59.000Z</time>
      </trkpt>
      <trkpt lat="47.26303" lon="-2.31722">
        <ele>0.80000001192093</ele>
        <time>2022-02-03T08:19:00.000Z</time>
      </trkpt>
      <trkpt lat="47.26301" lon="-2.31726">
        <ele>0.40000000596046</ele>
        <time>2022-02-03T08:19:01.000Z</time>
      </trkpt>
      <trkpt lat="47.26302" lon="-2.31732">
        <ele>4</ele>
        <time>2022-02-03T08:19:02.000Z</time>
      </trkpt>
      <trkpt lat="47.26303" lon="-2.31738">
        <ele>-0.40000000596046</ele>
        <time>2022-02-03T08:19:03.000Z</time>
      </trkpt>
      <trkpt lat="47.26306" lon="-2.31755">
        <ele>-0.40000000596046</ele>
        <time>2022-02-03T08:19:06.000Z</time>
      </trkpt>
      <trkpt lat="47.26307" lon="-2.31767">
        <ele>-0.40000000596046</ele>
        <time>2022-02-03T08:19:08.000Z</time>
      </trkpt>
      <trkpt lat="47.26307" lon="-2.31773">
        <ele>-0.40000000596046</ele>
        <time>2022-02-03T08:19:09.000Z</time>
      </trkpt>
      <trkpt lat="47.26308" lon="-2.31778">
        <ele>-0.40000000596046</ele>
        <time>2022-02-03T08:19:10.000Z</time>
      </trkpt>
      <trkpt lat="47.26308" lon="-2.31789">
        <ele>-0.40000000596046</ele>
        <time>2022-02-03T08:19:12.000Z</time>
      </trkpt>
      <trkpt lat="47.26307" lon="-2.31827">
        <ele>-0.40000000596046</ele>
        <time>2022-02-03T08:19:18.000Z</time>
      </trkpt>
      <trkpt lat="47.26304" lon="-2.31865">
        <ele>-0.40000000596046</ele>
        <time>2022-02-03T08:19:24.000Z</time>
      </trkpt>
      <trkpt lat="47.26301" lon="-2.31884">
        <ele>-0.40000000596046</ele>
        <time>2022-02-03T08:19:28.000Z</time>
      </trkpt>
      <trkpt lat="47.26297" lon="-2.31887">
        <ele>-0.40000000596046</ele>
        <time>2022-02-03T08:19:29.000Z</time>
      </trkpt>
      <trkpt lat="47.26279" lon="-2.31906">
        <ele>-0.40000000596046</ele>
        <time>2022-02-03T08:19:35.000Z</time>
      </trkpt>
      <trkpt lat="47.26263" lon="-2.31934">
        <ele>-0.40000000596046</ele>
        <time>2022-02-03T08:19:41.000Z</time>
      </trkpt>
      <trkpt lat="47.26246" lon="-2.31961">
        <ele>-1</ele>
        <time>2022-02-03T08:19:47.000Z</time>
      </trkpt>
      <trkpt lat="47.26243" lon="-2.31966">
        <ele>-1.3999999761581</ele>
        <time>2022-02-03T08:19:48.000Z</time>
      </trkpt>
      <trkpt lat="47.26239" lon="-2.31969">
        <ele>-1.7999999523163</ele>
        <time>2022-02-03T08:19:49.000Z</time>
      </trkpt>
      <trkpt lat="47.26237" lon="-2.31972">
        <ele>-2.2000000476837</ele>
        <time>2022-02-03T08:19:50.000Z</time>
      </trkpt>
      <trkpt lat="47.26235" lon="-2.31975">
        <ele>-2.5999999046326</ele>
        <time>2022-02-03T08:19:51.000Z</time>
      </trkpt>
      <trkpt lat="47.26231" lon="-2.31979">
        <ele>-2.5999999046326</ele>
        <time>2022-02-03T08:19:53.000Z</time>
      </trkpt>
      <trkpt lat="47.26227" lon="-2.31984">
        <ele>-2.5999999046326</ele>
        <time>2022-02-03T08:19:55.000Z</time>
      </trkpt>
      <trkpt lat="47.26217" lon="-2.31994">
        <ele>-2.5999999046326</ele>
        <time>2022-02-03T08:19:59.000Z</time>
      </trkpt>
      <trkpt lat="47.26204" lon="-2.32005">
        <ele>-2.5999999046326</ele>
        <time>2022-02-03T08:20:03.000Z</time>
      </trkpt>
      <trkpt lat="47.26203" lon="-2.32008">
        <ele>-2.5999999046326</ele>
        <time>2022-02-03T08:20:04.000Z</time>
      </trkpt>
      <trkpt lat="47.26197" lon="-2.32021">
        <ele>-2.5999999046326</ele>
        <time>2022-02-03T08:20:09.000Z</time>
      </trkpt>
      <trkpt lat="47.26195" lon="-2.32021">
        <ele>-2.5999999046326</ele>
        <time>2022-02-03T08:20:10.000Z</time>
      </trkpt>
      <trkpt lat="47.26189" lon="-2.3202">
        <ele>-2.5999999046326</ele>
        <time>2022-02-03T08:20:13.000Z</time>
      </trkpt>
      <trkpt lat="47.2618" lon="-2.32022">
        <ele>-2.5999999046326</ele>
        <time>2022-02-03T08:20:16.000Z</time>
      </trkpt>
      <trkpt lat="47.26162" lon="-2.32032">
        <ele>-2.5999999046326</ele>
        <time>2022-02-03T08:20:21.000Z</time>
      </trkpt>
      <trkpt lat="47.26154" lon="-2.32052">
        <ele>-2.5999999046326</ele>
        <time>2022-02-03T08:20:25.000Z</time>
      </trkpt>
      <trkpt lat="47.2614" lon="-2.32099">
        <ele>-2.5999999046326</ele>
        <time>2022-02-03T08:20:33.000Z</time>
      </trkpt>
      <trkpt lat="47.26132" lon="-2.32126">
        <ele>-2.5999999046326</ele>
        <time>2022-02-03T08:20:38.000Z</time>
      </trkpt>
      <trkpt lat="47.2612" lon="-2.32162">
        <ele>-2.5999999046326</ele>
        <time>2022-02-03T08:20:44.000Z</time>
      </trkpt>
      <trkpt lat="47.26115" lon="-2.32173">
        <ele>-2.5999999046326</ele>
        <time>2022-02-03T08:20:46.000Z</time>
      </trkpt>
      <trkpt lat="47.26103" lon="-2.32201">
        <ele>-2.5999999046326</ele>
        <time>2022-02-03T08:20:51.000Z</time>
      </trkpt>
      <trkpt lat="47.26094" lon="-2.32217">
        <ele>-2.5999999046326</ele>
        <time>2022-02-03T08:20:54.000Z</time>
      </trkpt>
      <trkpt lat="47.26085" lon="-2.32231">
        <ele>-2.5999999046326</ele>
        <time>2022-02-03T08:20:57.000Z</time>
      </trkpt>
      <trkpt lat="47.2606" lon="-2.32259">
        <ele>-2.5999999046326</ele>
        <time>2022-02-03T08:21:04.000Z</time>
      </trkpt>
      <trkpt lat="47.26039" lon="-2.32285">
        <ele>-2.5999999046326</ele>
        <time>2022-02-03T08:21:10.000Z</time>
      </trkpt>
      <trkpt lat="47.26036" lon="-2.32289">
        <ele>-2.5999999046326</ele>
        <time>2022-02-03T08:21:11.000Z</time>
      </trkpt>
      <trkpt lat="47.26015" lon="-2.32313">
        <ele>-2.5999999046326</ele>
        <time>2022-02-03T08:21:17.000Z</time>
      </trkpt>
      <trkpt lat="47.25988" lon="-2.32348">
        <ele>-2.5999999046326</ele>
        <time>2022-02-03T08:21:25.000Z</time>
      </trkpt>
      <trkpt lat="47.25964" lon="-2.32379">
        <ele>-2.5999999046326</ele>
        <time>2022-02-03T08:21:32.000Z</time>
      </trkpt>
      <trkpt lat="47.25941" lon="-2.3241">
        <ele>-2.5999999046326</ele>
        <time>2022-02-03T08:21:39.000Z</time>
      </trkpt>
      <trkpt lat="47.25931" lon="-2.32423">
        <ele>-2.5999999046326</ele>
        <time>2022-02-03T08:21:42.000Z</time>
      </trkpt>
      <trkpt lat="47.25919" lon="-2.3244">
        <ele>-2.5999999046326</ele>
        <time>2022-02-03T08:21:46.000Z</time>
      </trkpt>
      <trkpt lat="47.25902" lon="-2.32464">
        <ele>-2.5999999046326</ele>
        <time>2022-02-03T08:21:52.000Z</time>
      </trkpt>
      <trkpt lat="47.25903" lon="-2.32468">
        <ele>-2.5999999046326</ele>
        <time>2022-02-03T08:21:53.000Z</time>
      </trkpt>
      <trkpt lat="47.25909" lon="-2.32475">
        <ele>-2.5999999046326</ele>
        <time>2022-02-03T08:21:55.000Z</time>
      </trkpt>
      <trkpt lat="47.25923" lon="-2.32488">
        <ele>-2.5999999046326</ele>
        <time>2022-02-03T08:21:59.000Z</time>
      </trkpt>
      <trkpt lat="47.25932" lon="-2.32511">
        <ele>-2.5999999046326</ele>
        <time>2022-02-03T08:22:03.000Z</time>
      </trkpt>
      <trkpt lat="47.25943" lon="-2.32545">
        <ele>-2.5999999046326</ele>
        <time>2022-02-03T08:22:09.000Z</time>
      </trkpt>
      <trkpt lat="47.25951" lon="-2.32579">
        <ele>-2.5999999046326</ele>
        <time>2022-02-03T08:22:14.000Z</time>
      </trkpt>
      <trkpt lat="47.25952" lon="-2.32585">
        <ele>-2.5999999046326</ele>
        <time>2022-02-03T08:22:15.000Z</time>
      </trkpt>
      <trkpt lat="47.25954" lon="-2.32591">
        <ele>-2.5999999046326</ele>
        <time>2022-02-03T08:22:16.000Z</time>
      </trkpt>
      <trkpt lat="47.2596" lon="-2.32624">
        <ele>-2.5999999046326</ele>
        <time>2022-02-03T08:22:21.000Z</time>
      </trkpt>
      <trkpt lat="47.25964" lon="-2.32643">
        <ele>-2.5999999046326</ele>
        <time>2022-02-03T08:22:24.000Z</time>
      </trkpt>
      <trkpt lat="47.25968" lon="-2.32659">
        <ele>-2.5999999046326</ele>
        <time>2022-02-03T08:22:28.000Z</time>
      </trkpt>
      <trkpt lat="47.25979" lon="-2.32657">
        <ele>-2.5999999046326</ele>
        <time>2022-02-03T08:22:31.000Z</time>
      </trkpt>
      <trkpt lat="47.25987" lon="-2.32658">
        <ele>-2.5999999046326</ele>
        <time>2022-02-03T08:22:33.000Z</time>
      </trkpt>
      <trkpt lat="47.25995" lon="-2.32658">
        <ele>-2.5999999046326</ele>
        <time>2022-02-03T08:22:35.000Z</time>
      </trkpt>
      <trkpt lat="47.26004" lon="-2.32656">
        <ele>-2.5999999046326</ele>
        <time>2022-02-03T08:22:37.000Z</time>
      </trkpt>
      <trkpt lat="47.26028" lon="-2.32652">
        <ele>-2.2000000476837</ele>
        <time>2022-02-03T08:22:43.000Z</time>
      </trkpt>
      <trkpt lat="47.26032" lon="-2.32652">
        <ele>-1.7999999523163</ele>
        <time>2022-02-03T08:22:44.000Z</time>
      </trkpt>
      <trkpt lat="47.26036" lon="-2.32652">
        <ele>-1.3999999761581</ele>
        <time>2022-02-03T08:22:45.000Z</time>
      </trkpt>
      <trkpt lat="47.26041" lon="-2.32651">
        <ele>-1</ele>
        <time>2022-02-03T08:22:46.000Z</time>
      </trkpt>
      <trkpt lat="47.26045" lon="-2.3265">
        <ele>-0.60000002384186</ele>
        <time>2022-02-03T08:22:47.000Z</time>
      </trkpt>
      <trkpt lat="47.26057" lon="-2.32648">
        <ele>-0.60000002384186</ele>
        <time>2022-02-03T08:22:50.000Z</time>
      </trkpt>
      <trkpt lat="47.26062" lon="-2.32646">
        <ele>-0.60000002384186</ele>
        <time>2022-02-03T08:22:51.000Z</time>
      </trkpt>
      <trkpt lat="47.26087" lon="-2.32641">
        <ele>-0.60000002384186</ele>
        <time>2022-02-03T08:22:57.000Z</time>
      </trkpt>
      <trkpt lat="47.26104" lon="-2.32638">
        <ele>-0.60000002384186</ele>
        <time>2022-02-03T08:23:01.000Z</time>
      </trkpt>
      <trkpt lat="47.26116" lon="-2.32638">
        <ele>-0.60000002384186</ele>
        <time>2022-02-03T08:23:04.000Z</time>
      </trkpt>
      <trkpt lat="47.26137" lon="-2.32641">
        <ele>-0.60000002384186</ele>
        <time>2022-02-03T08:23:09.000Z</time>
      </trkpt>
      <trkpt lat="47.26155" lon="-2.32646">
        <ele>-0.60000002384186</ele>
        <time>2022-02-03T08:23:13.000Z</time>
      </trkpt>
      <trkpt lat="47.26168" lon="-2.32654">
        <ele>-0.60000002384186</ele>
        <time>2022-02-03T08:23:16.000Z</time>
      </trkpt>
      <trkpt lat="47.26185" lon="-2.32666">
        <ele>-0.60000002384186</ele>
        <time>2022-02-03T08:23:20.000Z</time>
      </trkpt>
      <trkpt lat="47.26209" lon="-2.32692">
        <ele>-0.60000002384186</ele>
        <time>2022-02-03T08:23:26.000Z</time>
      </trkpt>
      <trkpt lat="47.26213" lon="-2.32696">
        <ele>-0.60000002384186</ele>
        <time>2022-02-03T08:23:27.000Z</time>
      </trkpt>
      <trkpt lat="47.2623" lon="-2.32716">
        <ele>-0.60000002384186</ele>
        <time>2022-02-03T08:23:31.000Z</time>
      </trkpt>
      <trkpt lat="47.26258" lon="-2.32756">
        <ele>-0.60000002384186</ele>
        <time>2022-02-03T08:23:38.000Z</time>
      </trkpt>
      <trkpt lat="47.26272" lon="-2.32782">
        <ele>-0.60000002384186</ele>
        <time>2022-02-03T08:23:42.000Z</time>
      </trkpt>
      <trkpt lat="47.26279" lon="-2.32796">
        <ele>-0.60000002384186</ele>
        <time>2022-02-03T08:23:44.000Z</time>
      </trkpt>
      <trkpt lat="47.26287" lon="-2.3282">
        <ele>-0.60000002384186</ele>
        <time>2022-02-03T08:23:47.000Z</time>
      </trkpt>
      <trkpt lat="47.2629" lon="-2.32836">
        <ele>-0.60000002384186</ele>
        <time>2022-02-03T08:23:49.000Z</time>
      </trkpt>
      <trkpt lat="47.26291" lon="-2.32844">
        <ele>-0.60000002384186</ele>
        <time>2022-02-03T08:23:50.000Z</time>
      </trkpt>
      <trkpt lat="47.26296" lon="-2.32859">
        <ele>-0.60000002384186</ele>
        <time>2022-02-03T08:23:52.000Z</time>
      </trkpt>
      <trkpt lat="47.26301" lon="-2.32863">
        <ele>-0.60000002384186</ele>
        <time>2022-02-03T08:23:53.000Z</time>
      </trkpt>
      <trkpt lat="47.26312" lon="-2.32866">
        <ele>-0.60000002384186</ele>
        <time>2022-02-03T08:23:55.000Z</time>
      </trkpt>
      <trkpt lat="47.26323" lon="-2.32881">
        <ele>-0.60000002384186</ele>
        <time>2022-02-03T08:23:58.000Z</time>
      </trkpt>
      <trkpt lat="47.26326" lon="-2.32888">
        <ele>-0.60000002384186</ele>
        <time>2022-02-03T08:23:59.000Z</time>
      </trkpt>
      <trkpt lat="47.26335" lon="-2.32916">
        <ele>-0.60000002384186</ele>
        <time>2022-02-03T08:24:03.000Z</time>
      </trkpt>
      <trkpt lat="47.26343" lon="-2.32944">
        <ele>-0.60000002384186</ele>
        <time>2022-02-03T08:24:07.000Z</time>
      </trkpt>
      <trkpt lat="47.26347" lon="-2.32959">
        <ele>-0.60000002384186</ele>
        <time>2022-02-03T08:24:09.000Z</time>
      </trkpt>
      <trkpt lat="47.26357" lon="-2.32977">
        <ele>-0.60000002384186</ele>
        <time>2022-02-03T08:24:12.000Z</time>
      </trkpt>
      <trkpt lat="47.26361" lon="-2.32982">
        <ele>-0.60000002384186</ele>
        <time>2022-02-03T08:24:13.000Z</time>
      </trkpt>
      <trkpt lat="47.26364" lon="-2.32988">
        <ele>-0.60000002384186</ele>
        <time>2022-02-03T08:24:14.000Z</time>
      </trkpt>
      <trkpt lat="47.26368" lon="-2.33001">
        <ele>-0.60000002384186</ele>
        <time>2022-02-03T08:24:16.000Z</time>
      </trkpt>
      <trkpt lat="47.26369" lon="-2.33016">
        <ele>-0.60000002384186</ele>
        <time>2022-02-03T08:24:18.000Z</time>
      </trkpt>
      <trkpt lat="47.26371" lon="-2.33062">
        <ele>-0.60000002384186</ele>
        <time>2022-02-03T08:24:24.000Z</time>
      </trkpt>
      <trkpt lat="47.26376" lon="-2.33136">
        <ele>-0.60000002384186</ele>
        <time>2022-02-03T08:24:34.000Z</time>
      </trkpt>
      <trkpt lat="47.2638" lon="-2.33208">
        <ele>-0.60000002384186</ele>
        <time>2022-02-03T08:24:44.000Z</time>
      </trkpt>
      <trkpt lat="47.26383" lon="-2.33244">
        <ele>-0.60000002384186</ele>
        <time>2022-02-03T08:24:49.000Z</time>
      </trkpt>
      <trkpt lat="47.26384" lon="-2.33251">
        <ele>-0.60000002384186</ele>
        <time>2022-02-03T08:24:50.000Z</time>
      </trkpt>
      <trkpt lat="47.26394" lon="-2.33267">
        <ele>-0.60000002384186</ele>
        <time>2022-02-03T08:24:53.000Z</time>
      </trkpt>
      <trkpt lat="47.26414" lon="-2.33269">
        <ele>-0.60000002384186</ele>
        <time>2022-02-03T08:24:57.000Z</time>
      </trkpt>
      <trkpt lat="47.26454" lon="-2.33274">
        <ele>-0.60000002384186</ele>
        <time>2022-02-03T08:25:05.000Z</time>
      </trkpt>
      <trkpt lat="47.26492" lon="-2.33279">
        <ele>-0.60000002384186</ele>
        <time>2022-02-03T08:25:13.000Z</time>
      </trkpt>
      <trkpt lat="47.26503" lon="-2.33283">
        <ele>-0.60000002384186</ele>
        <time>2022-02-03T08:25:17.000Z</time>
      </trkpt>
      <trkpt lat="47.26513" lon="-2.33293">
        <ele>-0.60000002384186</ele>
        <time>2022-02-03T08:25:21.000Z</time>
      </trkpt>
      <trkpt lat="47.26517" lon="-2.33295">
        <ele>-0.60000002384186</ele>
        <time>2022-02-03T08:25:22.000Z</time>
      </trkpt>
      <trkpt lat="47.26528" lon="-2.33316">
        <ele>-0.60000002384186</ele>
        <time>2022-02-03T08:25:26.000Z</time>
      </trkpt>
      <trkpt lat="47.26528" lon="-2.33346">
        <ele>-0.60000002384186</ele>
        <time>2022-02-03T08:25:30.000Z</time>
      </trkpt>
      <trkpt lat="47.26533" lon="-2.33369">
        <ele>-0.60000002384186</ele>
        <time>2022-02-03T08:25:33.000Z</time>
      </trkpt>
      <trkpt lat="47.26537" lon="-2.33384">
        <ele>-0.60000002384186</ele>
        <time>2022-02-03T08:25:35.000Z</time>
      </trkpt>
      <trkpt lat="47.26542" lon="-2.33406">
        <ele>-0.60000002384186</ele>
        <time>2022-02-03T08:25:38.000Z</time>
      </trkpt>
      <trkpt lat="47.26548" lon="-2.33443">
        <ele>-0.60000002384186</ele>
        <time>2022-02-03T08:25:43.000Z</time>
      </trkpt>
      <trkpt lat="47.26555" lon="-2.33489">
        <ele>-0.60000002384186</ele>
        <time>2022-02-03T08:25:49.000Z</time>
      </trkpt>
      <trkpt lat="47.26558" lon="-2.33502">
        <ele>-0.60000002384186</ele>
        <time>2022-02-03T08:25:51.000Z</time>
      </trkpt>
      <trkpt lat="47.26562" lon="-2.33515">
        <ele>-0.60000002384186</ele>
        <time>2022-02-03T08:25:53.000Z</time>
      </trkpt>
      <trkpt lat="47.26565" lon="-2.33527">
        <ele>-0.60000002384186</ele>
        <time>2022-02-03T08:25:55.000Z</time>
      </trkpt>
      <trkpt lat="47.26568" lon="-2.33555">
        <ele>-0.60000002384186</ele>
        <time>2022-02-03T08:25:59.000Z</time>
      </trkpt>
      <trkpt lat="47.26573" lon="-2.33601">
        <ele>-0.60000002384186</ele>
        <time>2022-02-03T08:26:06.000Z</time>
      </trkpt>
      <trkpt lat="47.26578" lon="-2.33636">
        <ele>-0.60000002384186</ele>
        <time>2022-02-03T08:26:12.000Z</time>
      </trkpt>
      <trkpt lat="47.26578" lon="-2.33641">
        <ele>-0.60000002384186</ele>
        <time>2022-02-03T08:26:13.000Z</time>
      </trkpt>
      <trkpt lat="47.26581" lon="-2.33663">
        <ele>-0.20000000298023</ele>
        <time>2022-02-03T08:26:17.000Z</time>
      </trkpt>
      <trkpt lat="47.26583" lon="-2.33668">
        <ele>0.20000000298023</ele>
        <time>2022-02-03T08:26:18.000Z</time>
      </trkpt>
      <trkpt lat="47.26585" lon="-2.33672">
        <ele>0.80000001192093</ele>
        <time>2022-02-03T08:26:19.000Z</time>
      </trkpt>
      <trkpt lat="47.26587" lon="-2.33677">
        <ele>1.2000000476837</ele>
        <time>2022-02-03T08:26:20.000Z</time>
      </trkpt>
      <trkpt lat="47.2659" lon="-2.33681">
        <ele>1.6000000238419</ele>
        <time>2022-02-03T08:26:21.000Z</time>
      </trkpt>
      <trkpt lat="47.26606" lon="-2.33702">
        <ele>1.6000000238419</ele>
        <time>2022-02-03T08:26:26.000Z</time>
      </trkpt>
      <trkpt lat="47.26625" lon="-2.3373">
        <ele>1.6000000238419</ele>
        <time>2022-02-03T08:26:32.000Z</time>
      </trkpt>
      <trkpt lat="47.26641" lon="-2.33752">
        <ele>1.6000000238419</ele>
        <time>2022-02-03T08:26:37.000Z</time>
      </trkpt>
      <trkpt lat="47.26644" lon="-2.33758">
        <ele>1.6000000238419</ele>
        <time>2022-02-03T08:26:38.000Z</time>
      </trkpt>
      <trkpt lat="47.26659" lon="-2.33782">
        <ele>2</ele>
        <time>2022-02-03T08:26:43.000Z</time>
      </trkpt>
      <trkpt lat="47.26662" lon="-2.33787">
        <ele>2.4000000953674</ele>
        <time>2022-02-03T08:26:44.000Z</time>
      </trkpt>
      <trkpt lat="47.26665" lon="-2.33792">
        <ele>2.7999999523163</ele>
        <time>2022-02-03T08:26:45.000Z</time>
      </trkpt>
      <trkpt lat="47.26667" lon="-2.33796">
        <ele>3.2000000476837</ele>
        <time>2022-02-03T08:26:46.000Z</time>
      </trkpt>
      <trkpt lat="47.2667" lon="-2.33801">
        <ele>3.5999999046326</ele>
        <time>2022-02-03T08:26:47.000Z</time>
      </trkpt>
      <trkpt lat="47.26679" lon="-2.33816">
        <ele>3.5999999046326</ele>
        <time>2022-02-03T08:26:50.000Z</time>
      </trkpt>
      <trkpt lat="47.26688" lon="-2.33831">
        <ele>3.5999999046326</ele>
        <time>2022-02-03T08:26:53.000Z</time>
      </trkpt>
      <trkpt lat="47.26716" lon="-2.33876">
        <ele>3.5999999046326</ele>
        <time>2022-02-03T08:27:02.000Z</time>
      </trkpt>
      <trkpt lat="47.26745" lon="-2.33923">
        <ele>3.5999999046326</ele>
        <time>2022-02-03T08:27:11.000Z</time>
      </trkpt>
      <trkpt lat="47.26766" lon="-2.33958">
        <ele>3.5999999046326</ele>
        <time>2022-02-03T08:27:18.000Z</time>
      </trkpt>
      <trkpt lat="47.26769" lon="-2.33963">
        <ele>3.5999999046326</ele>
        <time>2022-02-03T08:27:19.000Z</time>
      </trkpt>
      <trkpt lat="47.26784" lon="-2.33987">
        <ele>3.5999999046326</ele>
        <time>2022-02-03T08:27:24.000Z</time>
      </trkpt>
      <trkpt lat="47.2681" lon="-2.34028">
        <ele>3.5999999046326</ele>
        <time>2022-02-03T08:27:32.000Z</time>
      </trkpt>
      <trkpt lat="47.26828" lon="-2.34052">
        <ele>3.5999999046326</ele>
        <time>2022-02-03T08:27:38.000Z</time>
      </trkpt>
      <trkpt lat="47.26831" lon="-2.34057">
        <ele>3.5999999046326</ele>
        <time>2022-02-03T08:27:39.000Z</time>
      </trkpt>
      <trkpt lat="47.26842" lon="-2.34077">
        <ele>3.5999999046326</ele>
        <time>2022-02-03T08:27:43.000Z</time>
      </trkpt>
      <trkpt lat="47.26846" lon="-2.34082">
        <ele>3.5999999046326</ele>
        <time>2022-02-03T08:27:44.000Z</time>
      </trkpt>
      <trkpt lat="47.26865" lon="-2.34113">
        <ele>4</ele>
        <time>2022-02-03T08:27:50.000Z</time>
      </trkpt>
      <trkpt lat="47.26868" lon="-2.34118">
        <ele>4.4000000953674</ele>
        <time>2022-02-03T08:27:51.000Z</time>
      </trkpt>
      <trkpt lat="47.2687" lon="-2.34124">
        <ele>4.8000001907349</ele>
        <time>2022-02-03T08:27:52.000Z</time>
      </trkpt>
      <trkpt lat="47.26874" lon="-2.34129">
        <ele>5.1999998092651</ele>
        <time>2022-02-03T08:27:53.000Z</time>
      </trkpt>
      <trkpt lat="47.26877" lon="-2.34134">
        <ele>5.5999999046326</ele>
        <time>2022-02-03T08:27:54.000Z</time>
      </trkpt>
      <trkpt lat="47.2689" lon="-2.34154">
        <ele>5.5999999046326</ele>
        <time>2022-02-03T08:27:58.000Z</time>
      </trkpt>
      <trkpt lat="47.26915" lon="-2.34191">
        <ele>5.5999999046326</ele>
        <time>2022-02-03T08:28:05.000Z</time>
      </trkpt>
      <trkpt lat="47.26936" lon="-2.34225">
        <ele>5.5999999046326</ele>
        <time>2022-02-03T08:28:11.000Z</time>
      </trkpt>
      <trkpt lat="47.26942" lon="-2.34235">
        <ele>5.5999999046326</ele>
        <time>2022-02-03T08:28:13.000Z</time>
      </trkpt>
      <trkpt lat="47.26953" lon="-2.34251">
        <ele>5.5999999046326</ele>
        <time>2022-02-03T08:28:16.000Z</time>
      </trkpt>
      <trkpt lat="47.26973" lon="-2.34285">
        <ele>5.5999999046326</ele>
        <time>2022-02-03T08:28:23.000Z</time>
      </trkpt>
      <trkpt lat="47.26991" lon="-2.34317">
        <ele>5.5999999046326</ele>
        <time>2022-02-03T08:28:30.000Z</time>
      </trkpt>
      <trkpt lat="47.26997" lon="-2.34324">
        <ele>5.5999999046326</ele>
        <time>2022-02-03T08:28:34.000Z</time>
      </trkpt>
      <trkpt lat="47.27006" lon="-2.34327">
        <ele>5.5999999046326</ele>
        <time>2022-02-03T08:28:37.000Z</time>
      </trkpt>
      <trkpt lat="47.27011" lon="-2.34327">
        <ele>5.5999999046326</ele>
        <time>2022-02-03T08:28:38.000Z</time>
      </trkpt>
      <trkpt lat="47.27028" lon="-2.34324">
        <ele>5.5999999046326</ele>
        <time>2022-02-03T08:28:42.000Z</time>
      </trkpt>
      <trkpt lat="47.27032" lon="-2.34325">
        <ele>5.5999999046326</ele>
        <time>2022-02-03T08:28:43.000Z</time>
      </trkpt>
      <trkpt lat="47.27039" lon="-2.34332">
        <ele>5.5999999046326</ele>
        <time>2022-02-03T08:28:45.000Z</time>
      </trkpt>
      <trkpt lat="47.27043" lon="-2.34344">
        <ele>5.5999999046326</ele>
        <time>2022-02-03T08:28:47.000Z</time>
      </trkpt>
      <trkpt lat="47.27046" lon="-2.34358">
        <ele>5.5999999046326</ele>
        <time>2022-02-03T08:28:49.000Z</time>
      </trkpt>
      <trkpt lat="47.27059" lon="-2.34414">
        <ele>5.5999999046326</ele>
        <time>2022-02-03T08:28:57.000Z</time>
      </trkpt>
      <trkpt lat="47.27062" lon="-2.34428">
        <ele>5.5999999046326</ele>
        <time>2022-02-03T08:28:59.000Z</time>
      </trkpt>
      <trkpt lat="47.27068" lon="-2.34455">
        <ele>5.5999999046326</ele>
        <time>2022-02-03T08:29:03.000Z</time>
      </trkpt>
      <trkpt lat="47.27079" lon="-2.34501">
        <ele>5.5999999046326</ele>
        <time>2022-02-03T08:29:10.000Z</time>
      </trkpt>
      <trkpt lat="47.2709" lon="-2.34548">
        <ele>5.5999999046326</ele>
        <time>2022-02-03T08:29:17.000Z</time>
      </trkpt>
      <trkpt lat="47.27097" lon="-2.3458">
        <ele>5.5999999046326</ele>
        <time>2022-02-03T08:29:22.000Z</time>
      </trkpt>
      <trkpt lat="47.27099" lon="-2.34587">
        <ele>5.5999999046326</ele>
        <time>2022-02-03T08:29:23.000Z</time>
      </trkpt>
      <trkpt lat="47.27111" lon="-2.34639">
        <ele>5.5999999046326</ele>
        <time>2022-02-03T08:29:30.000Z</time>
      </trkpt>
      <trkpt lat="47.27125" lon="-2.34702">
        <ele>5.5999999046326</ele>
        <time>2022-02-03T08:29:38.000Z</time>
      </trkpt>
      <trkpt lat="47.2714" lon="-2.34771">
        <ele>5.5999999046326</ele>
        <time>2022-02-03T08:29:47.000Z</time>
      </trkpt>
      <trkpt lat="47.27152" lon="-2.34832">
        <ele>5.5999999046326</ele>
        <time>2022-02-03T08:29:55.000Z</time>
      </trkpt>
      <trkpt lat="47.27164" lon="-2.34883">
        <ele>5.5999999046326</ele>
        <time>2022-02-03T08:30:02.000Z</time>
      </trkpt>
      <trkpt lat="47.27168" lon="-2.34897">
        <ele>6</ele>
        <time>2022-02-03T08:30:04.000Z</time>
      </trkpt>
      <trkpt lat="47.2717" lon="-2.34904">
        <ele>6.4000000953674</ele>
        <time>2022-02-03T08:30:05.000Z</time>
      </trkpt>
      <trkpt lat="47.27172" lon="-2.34911">
        <ele>6.8000001907349</ele>
        <time>2022-02-03T08:30:06.000Z</time>
      </trkpt>
      <trkpt lat="47.27175" lon="-2.34917">
        <ele>7.1999998092651</ele>
        <time>2022-02-03T08:30:07.000Z</time>
      </trkpt>
      <trkpt lat="47.27177" lon="-2.34924">
        <ele>7.5999999046326</ele>
        <time>2022-02-03T08:30:08.000Z</time>
      </trkpt>
      <trkpt lat="47.27182" lon="-2.34937">
        <ele>7.5999999046326</ele>
        <time>2022-02-03T08:30:10.000Z</time>
      </trkpt>
      <trkpt lat="47.27198" lon="-2.34986">
        <ele>7.5999999046326</ele>
        <time>2022-02-03T08:30:17.000Z</time>
      </trkpt>
      <trkpt lat="47.27211" lon="-2.35024">
        <ele>7.5999999046326</ele>
        <time>2022-02-03T08:30:23.000Z</time>
      </trkpt>
      <trkpt lat="47.27234" lon="-2.35084">
        <ele>7.5999999046326</ele>
        <time>2022-02-03T08:30:32.000Z</time>
      </trkpt>
      <trkpt lat="47.27243" lon="-2.35102">
        <ele>7.5999999046326</ele>
        <time>2022-02-03T08:30:35.000Z</time>
      </trkpt>
      <trkpt lat="47.27251" lon="-2.35119">
        <ele>7.5999999046326</ele>
        <time>2022-02-03T08:30:38.000Z</time>
      </trkpt>
      <trkpt lat="47.27258" lon="-2.35125">
        <ele>7.5999999046326</ele>
        <time>2022-02-03T08:30:40.000Z</time>
      </trkpt>
      <trkpt lat="47.27262" lon="-2.35125">
        <ele>7.5999999046326</ele>
        <time>2022-02-03T08:30:41.000Z</time>
      </trkpt>
      <trkpt lat="47.27271" lon="-2.3512">
        <ele>7.5999999046326</ele>
        <time>2022-02-03T08:30:43.000Z</time>
      </trkpt>
      <trkpt lat="47.27282" lon="-2.35114">
        <ele>7.5999999046326</ele>
        <time>2022-02-03T08:30:46.000Z</time>
      </trkpt>
      <trkpt lat="47.27285" lon="-2.35113">
        <ele>8</ele>
        <time>2022-02-03T08:30:47.000Z</time>
      </trkpt>
      <trkpt lat="47.27288" lon="-2.3511">
        <ele>8.3999996185303</ele>
        <time>2022-02-03T08:30:48.000Z</time>
      </trkpt>
      <trkpt lat="47.27291" lon="-2.35109">
        <ele>8.8000001907349</ele>
        <time>2022-02-03T08:30:49.000Z</time>
      </trkpt>
      <trkpt lat="47.27294" lon="-2.35107">
        <ele>9.1999998092651</ele>
        <time>2022-02-03T08:30:50.000Z</time>
      </trkpt>
      <trkpt lat="47.27296" lon="-2.35107">
        <ele>9.6000003814697</ele>
        <time>2022-02-03T08:30:51.000Z</time>
      </trkpt>
      <trkpt lat="47.27303" lon="-2.35106">
        <ele>9.6000003814697</ele>
        <time>2022-02-03T08:30:55.000Z</time>
      </trkpt>
      <trkpt lat="47.27305" lon="-2.35103">
        <ele>9.6000003814697</ele>
        <time>2022-02-03T08:30:56.000Z</time>
      </trkpt>
      <trkpt lat="47.27316" lon="-2.35094">
        <ele>9.6000003814697</ele>
        <time>2022-02-03T08:31:00.000Z</time>
      </trkpt>
      <trkpt lat="47.27319" lon="-2.35093">
        <ele>9.6000003814697</ele>
        <time>2022-02-03T08:31:01.000Z</time>
      </trkpt>
      <trkpt lat="47.27325" lon="-2.3509">
        <ele>10</ele>
        <time>2022-02-03T08:31:03.000Z</time>
      </trkpt>
      <trkpt lat="47.27328" lon="-2.35089">
        <ele>10.60000038147</ele>
        <time>2022-02-03T08:31:04.000Z</time>
      </trkpt>
      <trkpt lat="47.27332" lon="-2.35088">
        <ele>11</ele>
        <time>2022-02-03T08:31:05.000Z</time>
      </trkpt>
      <trkpt lat="47.27334" lon="-2.35087">
        <ele>11.39999961853</ele>
        <time>2022-02-03T08:31:06.000Z</time>
      </trkpt>
      <trkpt lat="47.27337" lon="-2.35085">
        <ele>11.800000190735</ele>
        <time>2022-02-03T08:31:07.000Z</time>
      </trkpt>
      <trkpt lat="47.2734" lon="-2.35084">
        <ele>11.800000190735</ele>
        <time>2022-02-03T08:31:08.000Z</time>
      </trkpt>
      <trkpt lat="47.27349" lon="-2.35076">
        <ele>12.199999809265</ele>
        <time>2022-02-03T08:31:11.000Z</time>
      </trkpt>
      <trkpt lat="47.27353" lon="-2.35074">
        <ele>12.60000038147</ele>
        <time>2022-02-03T08:31:12.000Z</time>
      </trkpt>
      <trkpt lat="47.27356" lon="-2.35072">
        <ele>13</ele>
        <time>2022-02-03T08:31:13.000Z</time>
      </trkpt>
      <trkpt lat="47.2736" lon="-2.3507">
        <ele>13.39999961853</ele>
        <time>2022-02-03T08:31:14.000Z</time>
      </trkpt>
      <trkpt lat="47.27363" lon="-2.35068">
        <ele>13.800000190735</ele>
        <time>2022-02-03T08:31:15.000Z</time>
      </trkpt>
      <trkpt lat="47.27383" lon="-2.35057">
        <ele>13.800000190735</ele>
        <time>2022-02-03T08:31:21.000Z</time>
      </trkpt>
      <trkpt lat="47.2739" lon="-2.35054">
        <ele>14.199999809265</ele>
        <time>2022-02-03T08:31:23.000Z</time>
      </trkpt>
      <trkpt lat="47.27393" lon="-2.35054">
        <ele>14.60000038147</ele>
        <time>2022-02-03T08:31:24.000Z</time>
      </trkpt>
      <trkpt lat="47.27396" lon="-2.35055">
        <ele>15</ele>
        <time>2022-02-03T08:31:25.000Z</time>
      </trkpt>
      <trkpt lat="47.27399" lon="-2.35057">
        <ele>15.60000038147</ele>
        <time>2022-02-03T08:31:26.000Z</time>
      </trkpt>
      <trkpt lat="47.27401" lon="-2.35061">
        <ele>16</ele>
        <time>2022-02-03T08:31:27.000Z</time>
      </trkpt>
      <trkpt lat="47.27407" lon="-2.35076">
        <ele>16</ele>
        <time>2022-02-03T08:31:30.000Z</time>
      </trkpt>
      <trkpt lat="47.27417" lon="-2.35116">
        <ele>16</ele>
        <time>2022-02-03T08:31:37.000Z</time>
      </trkpt>
      <trkpt lat="47.27427" lon="-2.35162">
        <ele>16</ele>
        <time>2022-02-03T08:31:45.000Z</time>
      </trkpt>
      <trkpt lat="47.27436" lon="-2.35176">
        <ele>16</ele>
        <time>2022-02-03T08:31:49.000Z</time>
      </trkpt>
      <trkpt lat="47.2745" lon="-2.35167">
        <ele>16</ele>
        <time>2022-02-03T08:31:53.000Z</time>
      </trkpt>
      <trkpt lat="47.27462" lon="-2.3516">
        <ele>16.39999961853</ele>
        <time>2022-02-03T08:31:56.000Z</time>
      </trkpt>
      <trkpt lat="47.27465" lon="-2.35158">
        <ele>16.799999237061</ele>
        <time>2022-02-03T08:31:57.000Z</time>
      </trkpt>
      <trkpt lat="47.27469" lon="-2.35155">
        <ele>17.200000762939</ele>
        <time>2022-02-03T08:31:58.000Z</time>
      </trkpt>
      <trkpt lat="47.27472" lon="-2.35154">
        <ele>17.60000038147</ele>
        <time>2022-02-03T08:31:59.000Z</time>
      </trkpt>
      <trkpt lat="47.27475" lon="-2.35152">
        <ele>18</ele>
        <time>2022-02-03T08:32:00.000Z</time>
      </trkpt>
      <trkpt lat="47.27479" lon="-2.3515">
        <ele>18</ele>
        <time>2022-02-03T08:32:01.000Z</time>
      </trkpt>
      <trkpt lat="47.27501" lon="-2.35133">
        <ele>18</ele>
        <time>2022-02-03T08:32:08.000Z</time>
      </trkpt>
      <trkpt lat="47.27509" lon="-2.35125">
        <ele>18</ele>
        <time>2022-02-03T08:32:11.000Z</time>
      </trkpt>
      <trkpt lat="47.27513" lon="-2.35126">
        <ele>18.39999961853</ele>
        <time>2022-02-03T08:32:12.000Z</time>
      </trkpt>
      <trkpt lat="47.27516" lon="-2.35128">
        <ele>18.799999237061</ele>
        <time>2022-02-03T08:32:13.000Z</time>
      </trkpt>
      <trkpt lat="47.2752" lon="-2.3513">
        <ele>19.200000762939</ele>
        <time>2022-02-03T08:32:14.000Z</time>
      </trkpt>
      <trkpt lat="47.27524" lon="-2.35132">
        <ele>19.60000038147</ele>
        <time>2022-02-03T08:32:15.000Z</time>
      </trkpt>
      <trkpt lat="47.27527" lon="-2.35134">
        <ele>20</ele>
        <time>2022-02-03T08:32:16.000Z</time>
      </trkpt>
      <trkpt lat="47.27539" lon="-2.35137">
        <ele>20</ele>
        <time>2022-02-03T08:32:19.000Z</time>
      </trkpt>
      <trkpt lat="47.27557" lon="-2.35136">
        <ele>20</ele>
        <time>2022-02-03T08:32:24.000Z</time>
      </trkpt>
      <trkpt lat="47.27581" lon="-2.35132">
        <ele>20</ele>
        <time>2022-02-03T08:32:30.000Z</time>
      </trkpt>
      <trkpt lat="47.27597" lon="-2.3513">
        <ele>20</ele>
        <time>2022-02-03T08:32:34.000Z</time>
      </trkpt>
      <trkpt lat="47.27607" lon="-2.35137">
        <ele>20</ele>
        <time>2022-02-03T08:32:36.000Z</time>
      </trkpt>
      <trkpt lat="47.27614" lon="-2.35154">
        <ele>20</ele>
        <time>2022-02-03T08:32:39.000Z</time>
      </trkpt>
      <trkpt lat="47.27623" lon="-2.35177">
        <ele>20</ele>
        <time>2022-02-03T08:32:43.000Z</time>
      </trkpt>
      <trkpt lat="47.27632" lon="-2.35181">
        <ele>20</ele>
        <time>2022-02-03T08:32:45.000Z</time>
      </trkpt>
      <trkpt lat="47.27642" lon="-2.35183">
        <ele>20</ele>
        <time>2022-02-03T08:32:47.000Z</time>
      </trkpt>
      <trkpt lat="47.27664" lon="-2.3518">
        <ele>20</ele>
        <time>2022-02-03T08:32:51.000Z</time>
      </trkpt>
      <trkpt lat="47.27673" lon="-2.35185">
        <ele>19.60000038147</ele>
        <time>2022-02-03T08:32:53.000Z</time>
      </trkpt>
      <trkpt lat="47.27675" lon="-2.35191">
        <ele>19.200000762939</ele>
        <time>2022-02-03T08:32:54.000Z</time>
      </trkpt>
      <trkpt lat="47.27676" lon="-2.35199">
        <ele>18.799999237061</ele>
        <time>2022-02-03T08:32:55.000Z</time>
      </trkpt>
      <trkpt lat="47.27676" lon="-2.35206">
        <ele>18.39999961853</ele>
        <time>2022-02-03T08:32:56.000Z</time>
      </trkpt>
      <trkpt lat="47.27677" lon="-2.35213">
        <ele>18</ele>
        <time>2022-02-03T08:32:57.000Z</time>
      </trkpt>
      <trkpt lat="47.2768" lon="-2.35222">
        <ele>18</ele>
        <time>2022-02-03T08:32:59.000Z</time>
      </trkpt>
      <trkpt lat="47.27684" lon="-2.35223">
        <ele>17.60000038147</ele>
        <time>2022-02-03T08:33:00.000Z</time>
      </trkpt>
      <trkpt lat="47.27688" lon="-2.35222">
        <ele>17.200000762939</ele>
        <time>2022-02-03T08:33:01.000Z</time>
      </trkpt>
      <trkpt lat="47.27693" lon="-2.3522">
        <ele>16.799999237061</ele>
        <time>2022-02-03T08:33:02.000Z</time>
      </trkpt>
      <trkpt lat="47.27697" lon="-2.35219">
        <ele>16.200000762939</ele>
        <time>2022-02-03T08:33:03.000Z</time>
      </trkpt>
      <trkpt lat="47.27702" lon="-2.35218">
        <ele>15.800000190735</ele>
        <time>2022-02-03T08:33:04.000Z</time>
      </trkpt>
      <trkpt lat="47.27723" lon="-2.35211">
        <ele>15.800000190735</ele>
        <time>2022-02-03T08:33:08.000Z</time>
      </trkpt>
      <trkpt lat="47.2776" lon="-2.352">
        <ele>15.39999961853</ele>
        <time>2022-02-03T08:33:15.000Z</time>
      </trkpt>
      <trkpt lat="47.27765" lon="-2.352">
        <ele>15</ele>
        <time>2022-02-03T08:33:16.000Z</time>
      </trkpt>
      <trkpt lat="47.27768" lon="-2.35201">
        <ele>14.60000038147</ele>
        <time>2022-02-03T08:33:17.000Z</time>
      </trkpt>
      <trkpt lat="47.27772" lon="-2.35204">
        <ele>14.199999809265</ele>
        <time>2022-02-03T08:33:18.000Z</time>
      </trkpt>
      <trkpt lat="47.27774" lon="-2.35208">
        <ele>13.800000190735</ele>
        <time>2022-02-03T08:33:19.000Z</time>
      </trkpt>
      <trkpt lat="47.27779" lon="-2.35225">
        <ele>13.800000190735</ele>
        <time>2022-02-03T08:33:22.000Z</time>
      </trkpt>
      <trkpt lat="47.2778" lon="-2.35232">
        <ele>13.800000190735</ele>
        <time>2022-02-03T08:33:23.000Z</time>
      </trkpt>
      <trkpt lat="47.27782" lon="-2.35239">
        <ele>13.800000190735</ele>
        <time>2022-02-03T08:33:24.000Z</time>
      </trkpt>
      <trkpt lat="47.27787" lon="-2.35268">
        <ele>13.800000190735</ele>
        <time>2022-02-03T08:33:28.000Z</time>
      </trkpt>
      <trkpt lat="47.27798" lon="-2.35325">
        <ele>13.800000190735</ele>
        <time>2022-02-03T08:33:36.000Z</time>
      </trkpt>
      <trkpt lat="47.27805" lon="-2.35352">
        <ele>13.800000190735</ele>
        <time>2022-02-03T08:33:40.000Z</time>
      </trkpt>
      <trkpt lat="47.27812" lon="-2.35361">
        <ele>13.800000190735</ele>
        <time>2022-02-03T08:33:42.000Z</time>
      </trkpt>
      <trkpt lat="47.27825" lon="-2.35365">
        <ele>13.800000190735</ele>
        <time>2022-02-03T08:33:45.000Z</time>
      </trkpt>
      <trkpt lat="47.27829" lon="-2.35365">
        <ele>13.800000190735</ele>
        <time>2022-02-03T08:33:46.000Z</time>
      </trkpt>
      <trkpt lat="47.27839" lon="-2.35365">
        <ele>13.800000190735</ele>
        <time>2022-02-03T08:33:48.000Z</time>
      </trkpt>
      <trkpt lat="47.27856" lon="-2.35361">
        <ele>13.800000190735</ele>
        <time>2022-02-03T08:33:52.000Z</time>
      </trkpt>
      <trkpt lat="47.27874" lon="-2.35362">
        <ele>13.800000190735</ele>
        <time>2022-02-03T08:33:56.000Z</time>
      </trkpt>
      <trkpt lat="47.27882" lon="-2.35366">
        <ele>13.800000190735</ele>
        <time>2022-02-03T08:33:58.000Z</time>
      </trkpt>
      <trkpt lat="47.27896" lon="-2.35384">
        <ele>13.800000190735</ele>
        <time>2022-02-03T08:34:02.000Z</time>
      </trkpt>
      <trkpt lat="47.27923" lon="-2.35425">
        <ele>13.800000190735</ele>
        <time>2022-02-03T08:34:10.000Z</time>
      </trkpt>
      <trkpt lat="47.27941" lon="-2.35447">
        <ele>13.800000190735</ele>
        <time>2022-02-03T08:34:15.000Z</time>
      </trkpt>
      <trkpt lat="47.27949" lon="-2.35453">
        <ele>13.800000190735</ele>
        <time>2022-02-03T08:34:17.000Z</time>
      </trkpt>
      <trkpt lat="47.27958" lon="-2.35459">
        <ele>13.800000190735</ele>
        <time>2022-02-03T08:34:19.000Z</time>
      </trkpt>
      <trkpt lat="47.27975" lon="-2.35474">
        <ele>13.800000190735</ele>
        <time>2022-02-03T08:34:23.000Z</time>
      </trkpt>
      <trkpt lat="47.27992" lon="-2.35501">
        <ele>13.800000190735</ele>
        <time>2022-02-03T08:34:28.000Z</time>
      </trkpt>
      <trkpt lat="47.28005" lon="-2.35531">
        <ele>13.800000190735</ele>
        <time>2022-02-03T08:34:34.000Z</time>
      </trkpt>
      <trkpt lat="47.28007" lon="-2.35546">
        <ele>14.199999809265</ele>
        <time>2022-02-03T08:34:37.000Z</time>
      </trkpt>
      <trkpt lat="47.28009" lon="-2.35549">
        <ele>14.60000038147</ele>
        <time>2022-02-03T08:34:38.000Z</time>
      </trkpt>
      <trkpt lat="47.28012" lon="-2.35552">
        <ele>15</ele>
        <time>2022-02-03T08:34:39.000Z</time>
      </trkpt>
      <trkpt lat="47.28015" lon="-2.35554">
        <ele>15.60000038147</ele>
        <time>2022-02-03T08:34:40.000Z</time>
      </trkpt>
      <trkpt lat="47.28018" lon="-2.35556">
        <ele>16</ele>
        <time>2022-02-03T08:34:41.000Z</time>
      </trkpt>
      <trkpt lat="47.28029" lon="-2.35563">
        <ele>16</ele>
        <time>2022-02-03T08:34:44.000Z</time>
      </trkpt>
      <trkpt lat="47.28035" lon="-2.35571">
        <ele>16</ele>
        <time>2022-02-03T08:34:46.000Z</time>
      </trkpt>
      <trkpt lat="47.28045" lon="-2.35576">
        <ele>16</ele>
        <time>2022-02-03T08:34:49.000Z</time>
      </trkpt>
      <trkpt lat="47.28051" lon="-2.35579">
        <ele>16.39999961853</ele>
        <time>2022-02-03T08:34:51.000Z</time>
      </trkpt>
      <trkpt lat="47.28054" lon="-2.3558">
        <ele>16.799999237061</ele>
        <time>2022-02-03T08:34:52.000Z</time>
      </trkpt>
      <trkpt lat="47.28057" lon="-2.35581">
        <ele>17.200000762939</ele>
        <time>2022-02-03T08:34:53.000Z</time>
      </trkpt>
      <trkpt lat="47.2806" lon="-2.35582">
        <ele>17.60000038147</ele>
        <time>2022-02-03T08:34:54.000Z</time>
      </trkpt>
      <trkpt lat="47.28062" lon="-2.35582">
        <ele>18</ele>
        <time>2022-02-03T08:34:55.000Z</time>
      </trkpt>
      <trkpt lat="47.28071" lon="-2.35592">
        <ele>18</ele>
        <time>2022-02-03T08:34:59.000Z</time>
      </trkpt>
      <trkpt lat="47.28082" lon="-2.35612">
        <ele>18</ele>
        <time>2022-02-03T08:35:06.000Z</time>
      </trkpt>
      <trkpt lat="47.28083" lon="-2.35613">
        <ele>18</ele>
        <time>2022-02-03T08:35:09.000Z</time>
      </trkpt>
      <trkpt lat="47.28079" lon="-2.35608">
        <ele>20</ele>
        <time>2022-02-03T08:39:27.000Z</time>
      </trkpt>
      <trkpt lat="47.28077" lon="-2.35607">
        <ele>20</ele>
        <time>2022-02-03T08:39:28.000Z</time>
      </trkpt>
      <trkpt lat="47.2807" lon="-2.35599">
        <ele>20</ele>
        <time>2022-02-03T08:39:33.000Z</time>
      </trkpt>
      <trkpt lat="47.28069" lon="-2.35596">
        <ele>20</ele>
        <time>2022-02-03T08:39:34.000Z</time>
      </trkpt>
      <trkpt lat="47.28068" lon="-2.35573">
        <ele>20</ele>
        <time>2022-02-03T08:39:40.000Z</time>
      </trkpt>
      <trkpt lat="47.28069" lon="-2.35571">
        <ele>20</ele>
        <time>2022-02-03T08:39:41.000Z</time>
      </trkpt>
      <trkpt lat="47.28077" lon="-2.35565">
        <ele>20</ele>
        <time>2022-02-03T08:39:44.000Z</time>
      </trkpt>
      <trkpt lat="47.28096" lon="-2.3556">
        <ele>20</ele>
        <time>2022-02-03T08:39:50.000Z</time>
      </trkpt>
      <trkpt lat="47.2812" lon="-2.35561">
        <ele>20</ele>
        <time>2022-02-03T08:39:57.000Z</time>
      </trkpt>
      <trkpt lat="47.28139" lon="-2.35564">
        <ele>20</ele>
        <time>2022-02-03T08:40:03.000Z</time>
      </trkpt>
      <trkpt lat="47.28143" lon="-2.35564">
        <ele>20.39999961853</ele>
        <time>2022-02-03T08:40:04.000Z</time>
      </trkpt>
      <trkpt lat="47.28147" lon="-2.35566">
        <ele>21.200000762939</ele>
        <time>2022-02-03T08:40:05.000Z</time>
      </trkpt>
      <trkpt lat="47.28151" lon="-2.35567">
        <ele>21.60000038147</ele>
        <time>2022-02-03T08:40:06.000Z</time>
      </trkpt>
      <trkpt lat="47.28155" lon="-2.35568">
        <ele>22</ele>
        <time>2022-02-03T08:40:07.000Z</time>
      </trkpt>
      <trkpt lat="47.28162" lon="-2.35572">
        <ele>22</ele>
        <time>2022-02-03T08:40:09.000Z</time>
      </trkpt>
      <trkpt lat="47.28187" lon="-2.35588">
        <ele>22</ele>
        <time>2022-02-03T08:40:16.000Z</time>
      </trkpt>
      <trkpt lat="47.28206" lon="-2.35612">
        <ele>22</ele>
        <time>2022-02-03T08:40:22.000Z</time>
      </trkpt>
      <trkpt lat="47.28218" lon="-2.35628">
        <ele>22.60000038147</ele>
        <time>2022-02-03T08:40:26.000Z</time>
      </trkpt>
      <trkpt lat="47.28221" lon="-2.35632">
        <ele>23</ele>
        <time>2022-02-03T08:40:27.000Z</time>
      </trkpt>
      <trkpt lat="47.28225" lon="-2.35637">
        <ele>23.39999961853</ele>
        <time>2022-02-03T08:40:28.000Z</time>
      </trkpt>
      <trkpt lat="47.28228" lon="-2.35641">
        <ele>23.799999237061</ele>
        <time>2022-02-03T08:40:29.000Z</time>
      </trkpt>
      <trkpt lat="47.28231" lon="-2.35645">
        <ele>24.200000762939</ele>
        <time>2022-02-03T08:40:30.000Z</time>
      </trkpt>
      <trkpt lat="47.28246" lon="-2.35666">
        <ele>24.200000762939</ele>
        <time>2022-02-03T08:40:35.000Z</time>
      </trkpt>
      <trkpt lat="47.28264" lon="-2.35695">
        <ele>24.200000762939</ele>
        <time>2022-02-03T08:40:41.000Z</time>
      </trkpt>
      <trkpt lat="47.28267" lon="-2.357">
        <ele>24.60000038147</ele>
        <time>2022-02-03T08:40:42.000Z</time>
      </trkpt>
      <trkpt lat="47.28271" lon="-2.35704">
        <ele>25</ele>
        <time>2022-02-03T08:40:43.000Z</time>
      </trkpt>
      <trkpt lat="47.28274" lon="-2.35707">
        <ele>25.39999961853</ele>
        <time>2022-02-03T08:40:44.000Z</time>
      </trkpt>
      <trkpt lat="47.28278" lon="-2.35711">
        <ele>25.799999237061</ele>
        <time>2022-02-03T08:40:45.000Z</time>
      </trkpt>
      <trkpt lat="47.28282" lon="-2.35714">
        <ele>26.200000762939</ele>
        <time>2022-02-03T08:40:46.000Z</time>
      </trkpt>
      <trkpt lat="47.28285" lon="-2.35717">
        <ele>26.200000762939</ele>
        <time>2022-02-03T08:40:47.000Z</time>
      </trkpt>
      <trkpt lat="47.2831" lon="-2.3574">
        <ele>26.200000762939</ele>
        <time>2022-02-03T08:40:54.000Z</time>
      </trkpt>
      <trkpt lat="47.28336" lon="-2.35758">
        <ele>26.200000762939</ele>
        <time>2022-02-03T08:41:01.000Z</time>
      </trkpt>
      <trkpt lat="47.2834" lon="-2.3576">
        <ele>26.60000038147</ele>
        <time>2022-02-03T08:41:02.000Z</time>
      </trkpt>
      <trkpt lat="47.28344" lon="-2.35762">
        <ele>27.200000762939</ele>
        <time>2022-02-03T08:41:03.000Z</time>
      </trkpt>
      <trkpt lat="47.28347" lon="-2.35763">
        <ele>27.60000038147</ele>
        <time>2022-02-03T08:41:04.000Z</time>
      </trkpt>
      <trkpt lat="47.28351" lon="-2.35764">
        <ele>28</ele>
        <time>2022-02-03T08:41:05.000Z</time>
      </trkpt>
      <trkpt lat="47.28354" lon="-2.35766">
        <ele>28.39999961853</ele>
        <time>2022-02-03T08:41:06.000Z</time>
      </trkpt>
      <trkpt lat="47.28362" lon="-2.35769">
        <ele>28.39999961853</ele>
        <time>2022-02-03T08:41:08.000Z</time>
      </trkpt>
      <trkpt lat="47.28391" lon="-2.35783">
        <ele>28.39999961853</ele>
        <time>2022-02-03T08:41:15.000Z</time>
      </trkpt>
      <trkpt lat="47.28415" lon="-2.35789">
        <ele>28.39999961853</ele>
        <time>2022-02-03T08:41:21.000Z</time>
      </trkpt>
      <trkpt lat="47.28434" lon="-2.35794">
        <ele>28.39999961853</ele>
        <time>2022-02-03T08:41:26.000Z</time>
      </trkpt>
      <trkpt lat="47.28464" lon="-2.35807">
        <ele>28.39999961853</ele>
        <time>2022-02-03T08:41:33.000Z</time>
      </trkpt>
      <trkpt lat="47.28488" lon="-2.35818">
        <ele>28.39999961853</ele>
        <time>2022-02-03T08:41:39.000Z</time>
      </trkpt>
      <trkpt lat="47.28492" lon="-2.3582">
        <ele>28.799999237061</ele>
        <time>2022-02-03T08:41:40.000Z</time>
      </trkpt>
      <trkpt lat="47.28497" lon="-2.35822">
        <ele>29.200000762939</ele>
        <time>2022-02-03T08:41:41.000Z</time>
      </trkpt>
      <trkpt lat="47.28501" lon="-2.35824">
        <ele>29.60000038147</ele>
        <time>2022-02-03T08:41:42.000Z</time>
      </trkpt>
      <trkpt lat="47.28506" lon="-2.35826">
        <ele>30</ele>
        <time>2022-02-03T08:41:43.000Z</time>
      </trkpt>
      <trkpt lat="47.2851" lon="-2.35828">
        <ele>30.39999961853</ele>
        <time>2022-02-03T08:41:44.000Z</time>
      </trkpt>
      <trkpt lat="47.28524" lon="-2.35834">
        <ele>30.39999961853</ele>
        <time>2022-02-03T08:41:47.000Z</time>
      </trkpt>
      <trkpt lat="47.28548" lon="-2.35848">
        <ele>30.39999961853</ele>
        <time>2022-02-03T08:41:53.000Z</time>
      </trkpt>
      <trkpt lat="47.28568" lon="-2.35871">
        <ele>30.39999961853</ele>
        <time>2022-02-03T08:41:59.000Z</time>
      </trkpt>
      <trkpt lat="47.28581" lon="-2.35901">
        <ele>30.799999237061</ele>
        <time>2022-02-03T08:42:05.000Z</time>
      </trkpt>
      <trkpt lat="47.28583" lon="-2.35906">
        <ele>31.39999961853</ele>
        <time>2022-02-03T08:42:06.000Z</time>
      </trkpt>
      <trkpt lat="47.28585" lon="-2.35911">
        <ele>31.799999237061</ele>
        <time>2022-02-03T08:42:07.000Z</time>
      </trkpt>
      <trkpt lat="47.28587" lon="-2.35915">
        <ele>32.200000762939</ele>
        <time>2022-02-03T08:42:08.000Z</time>
      </trkpt>
      <trkpt lat="47.28588" lon="-2.35919">
        <ele>32.599998474121</ele>
        <time>2022-02-03T08:42:09.000Z</time>
      </trkpt>
      <trkpt lat="47.28593" lon="-2.3593">
        <ele>32.599998474121</ele>
        <time>2022-02-03T08:42:12.000Z</time>
      </trkpt>
      <trkpt lat="47.28599" lon="-2.35937">
        <ele>32.599998474121</ele>
        <time>2022-02-03T08:42:16.000Z</time>
      </trkpt>
      <trkpt lat="47.28611" lon="-2.35947">
        <ele>32.599998474121</ele>
        <time>2022-02-03T08:42:22.000Z</time>
      </trkpt>
      <trkpt lat="47.28625" lon="-2.35957">
        <ele>32.599998474121</ele>
        <time>2022-02-03T08:42:29.000Z</time>
      </trkpt>
      <trkpt lat="47.2864" lon="-2.35951">
        <ele>32.599998474121</ele>
        <time>2022-02-03T08:42:33.000Z</time>
      </trkpt>
      <trkpt lat="47.28644" lon="-2.35949">
        <ele>32.599998474121</ele>
        <time>2022-02-03T08:42:34.000Z</time>
      </trkpt>
      <trkpt lat="47.2866" lon="-2.35934">
        <ele>32.599998474121</ele>
        <time>2022-02-03T08:42:38.000Z</time>
      </trkpt>
      <trkpt lat="47.2869" lon="-2.359">
        <ele>32.599998474121</ele>
        <time>2022-02-03T08:42:45.000Z</time>
      </trkpt>
      <trkpt lat="47.28694" lon="-2.35895">
        <ele>32.599998474121</ele>
        <time>2022-02-03T08:42:46.000Z</time>
      </trkpt>
      <trkpt lat="47.28713" lon="-2.35868">
        <ele>32.599998474121</ele>
        <time>2022-02-03T08:42:51.000Z</time>
      </trkpt>
      <trkpt lat="47.28739" lon="-2.3582">
        <ele>32.599998474121</ele>
        <time>2022-02-03T08:42:59.000Z</time>
      </trkpt>
      <trkpt lat="47.28759" lon="-2.35784">
        <ele>32.599998474121</ele>
        <time>2022-02-03T08:43:05.000Z</time>
      </trkpt>
      <trkpt lat="47.28788" lon="-2.35727">
        <ele>32.599998474121</ele>
        <time>2022-02-03T08:43:14.000Z</time>
      </trkpt>
      <trkpt lat="47.28811" lon="-2.35681">
        <ele>32.599998474121</ele>
        <time>2022-02-03T08:43:21.000Z</time>
      </trkpt>
      <trkpt lat="47.28824" lon="-2.35664">
        <ele>32.599998474121</ele>
        <time>2022-02-03T08:43:24.000Z</time>
      </trkpt>
      <trkpt lat="47.28837" lon="-2.35648">
        <ele>32.599998474121</ele>
        <time>2022-02-03T08:43:27.000Z</time>
      </trkpt>
      <trkpt lat="47.2887" lon="-2.35612">
        <ele>32.599998474121</ele>
        <time>2022-02-03T08:43:34.000Z</time>
      </trkpt>
      <trkpt lat="47.28898" lon="-2.35584">
        <ele>32.599998474121</ele>
        <time>2022-02-03T08:43:40.000Z</time>
      </trkpt>
      <trkpt lat="47.28918" lon="-2.3556">
        <ele>32.599998474121</ele>
        <time>2022-02-03T08:43:45.000Z</time>
      </trkpt>
      <trkpt lat="47.28925" lon="-2.35555">
        <ele>32.599998474121</ele>
        <time>2022-02-03T08:43:47.000Z</time>
      </trkpt>
      <trkpt lat="47.28931" lon="-2.3556">
        <ele>32.599998474121</ele>
        <time>2022-02-03T08:43:49.000Z</time>
      </trkpt>
      <trkpt lat="47.28934" lon="-2.35569">
        <ele>32.599998474121</ele>
        <time>2022-02-03T08:43:51.000Z</time>
      </trkpt>
      <trkpt lat="47.28938" lon="-2.35579">
        <ele>32.599998474121</ele>
        <time>2022-02-03T08:43:53.000Z</time>
      </trkpt>
      <trkpt lat="47.28953" lon="-2.35621">
        <ele>33</ele>
        <time>2022-02-03T08:44:00.000Z</time>
      </trkpt>
      <trkpt lat="47.28956" lon="-2.35627">
        <ele>33.400001525879</ele>
        <time>2022-02-03T08:44:01.000Z</time>
      </trkpt>
      <trkpt lat="47.28959" lon="-2.35633">
        <ele>33.799999237061</ele>
        <time>2022-02-03T08:44:02.000Z</time>
      </trkpt>
      <trkpt lat="47.28961" lon="-2.35639">
        <ele>34.200000762939</ele>
        <time>2022-02-03T08:44:03.000Z</time>
      </trkpt>
      <trkpt lat="47.28964" lon="-2.35646">
        <ele>34.599998474121</ele>
        <time>2022-02-03T08:44:04.000Z</time>
      </trkpt>
      <trkpt lat="47.28972" lon="-2.35665">
        <ele>34.599998474121</ele>
        <time>2022-02-03T08:44:07.000Z</time>
      </trkpt>
      <trkpt lat="47.28981" lon="-2.35684">
        <ele>34.599998474121</ele>
        <time>2022-02-03T08:44:10.000Z</time>
      </trkpt>
      <trkpt lat="47.28994" lon="-2.35698">
        <ele>34.599998474121</ele>
        <time>2022-02-03T08:44:13.000Z</time>
      </trkpt>
      <trkpt lat="47.29004" lon="-2.35703">
        <ele>34.599998474121</ele>
        <time>2022-02-03T08:44:15.000Z</time>
      </trkpt>
      <trkpt lat="47.29009" lon="-2.35704">
        <ele>34.599998474121</ele>
        <time>2022-02-03T08:44:16.000Z</time>
      </trkpt>
      <trkpt lat="47.29014" lon="-2.35704">
        <ele>34.599998474121</ele>
        <time>2022-02-03T08:44:17.000Z</time>
      </trkpt>
      <trkpt lat="47.29035" lon="-2.35692">
        <ele>34.599998474121</ele>
        <time>2022-02-03T08:44:21.000Z</time>
      </trkpt>
      <trkpt lat="47.2904" lon="-2.35687">
        <ele>34.599998474121</ele>
        <time>2022-02-03T08:44:22.000Z</time>
      </trkpt>
      <trkpt lat="47.29067" lon="-2.35658">
        <ele>34.599998474121</ele>
        <time>2022-02-03T08:44:28.000Z</time>
      </trkpt>
      <trkpt lat="47.29084" lon="-2.35633">
        <ele>34.599998474121</ele>
        <time>2022-02-03T08:44:34.000Z</time>
      </trkpt>
      <trkpt lat="47.29077" lon="-2.3562">
        <ele>34.599998474121</ele>
        <time>2022-02-03T08:44:37.000Z</time>
      </trkpt>
      <trkpt lat="47.29062" lon="-2.3559">
        <ele>34.599998474121</ele>
        <time>2022-02-03T08:44:42.000Z</time>
      </trkpt>
      <trkpt lat="47.29047" lon="-2.35549">
        <ele>34.599998474121</ele>
        <time>2022-02-03T08:44:48.000Z</time>
      </trkpt>
      <trkpt lat="47.2904" lon="-2.35529">
        <ele>34.599998474121</ele>
        <time>2022-02-03T08:44:51.000Z</time>
      </trkpt>
      <trkpt lat="47.29041" lon="-2.35514">
        <ele>34.599998474121</ele>
        <time>2022-02-03T08:44:53.000Z</time>
      </trkpt>
      <trkpt lat="47.29051" lon="-2.35497">
        <ele>34.599998474121</ele>
        <time>2022-02-03T08:44:56.000Z</time>
      </trkpt>
      <trkpt lat="47.29054" lon="-2.35492">
        <ele>34.599998474121</ele>
        <time>2022-02-03T08:44:57.000Z</time>
      </trkpt>
      <trkpt lat="47.29074" lon="-2.35462">
        <ele>34.599998474121</ele>
        <time>2022-02-03T08:45:03.000Z</time>
      </trkpt>
      <trkpt lat="47.29087" lon="-2.35449">
        <ele>34.599998474121</ele>
        <time>2022-02-03T08:45:07.000Z</time>
      </trkpt>
      <trkpt lat="47.29089" lon="-2.35451">
        <ele>34.599998474121</ele>
        <time>2022-02-03T08:45:08.000Z</time>
      </trkpt>
      <trkpt lat="47.29093" lon="-2.35464">
        <ele>34.599998474121</ele>
        <time>2022-02-03T08:45:11.000Z</time>
      </trkpt>
      <trkpt lat="47.29101" lon="-2.35474">
        <ele>34.599998474121</ele>
        <time>2022-02-03T08:45:15.000Z</time>
      </trkpt>
      <trkpt lat="47.29105" lon="-2.35466">
        <ele>34.599998474121</ele>
        <time>2022-02-03T08:45:18.000Z</time>
      </trkpt>
      <trkpt lat="47.29113" lon="-2.35464">
        <ele>34.599998474121</ele>
        <time>2022-02-03T08:45:21.000Z</time>
      </trkpt>
      <trkpt lat="47.29128" lon="-2.35464">
        <ele>34.599998474121</ele>
        <time>2022-02-03T08:45:25.000Z</time>
      </trkpt>
      <trkpt lat="47.29136" lon="-2.3546">
        <ele>34.599998474121</ele>
        <time>2022-02-03T08:45:27.000Z</time>
      </trkpt>
      <trkpt lat="47.29158" lon="-2.35448">
        <ele>34.599998474121</ele>
        <time>2022-02-03T08:45:32.000Z</time>
      </trkpt>
      <trkpt lat="47.29163" lon="-2.35446">
        <ele>34.599998474121</ele>
        <time>2022-02-03T08:45:33.000Z</time>
      </trkpt>
      <trkpt lat="47.29184" lon="-2.35438">
        <ele>34.599998474121</ele>
        <time>2022-02-03T08:45:37.000Z</time>
      </trkpt>
      <trkpt lat="47.2922" lon="-2.35426">
        <ele>34.599998474121</ele>
        <time>2022-02-03T08:45:44.000Z</time>
      </trkpt>
      <trkpt lat="47.29257" lon="-2.35411">
        <ele>34.599998474121</ele>
        <time>2022-02-03T08:45:51.000Z</time>
      </trkpt>
      <trkpt lat="47.29268" lon="-2.35405">
        <ele>34.599998474121</ele>
        <time>2022-02-03T08:45:53.000Z</time>
      </trkpt>
      <trkpt lat="47.29282" lon="-2.35393">
        <ele>34.599998474121</ele>
        <time>2022-02-03T08:45:56.000Z</time>
      </trkpt>
      <trkpt lat="47.29318" lon="-2.35359">
        <ele>34.599998474121</ele>
        <time>2022-02-03T08:46:03.000Z</time>
      </trkpt>
      <trkpt lat="47.29353" lon="-2.3532">
        <ele>34.599998474121</ele>
        <time>2022-02-03T08:46:10.000Z</time>
      </trkpt>
      <trkpt lat="47.29387" lon="-2.35279">
        <ele>34.599998474121</ele>
        <time>2022-02-03T08:46:16.000Z</time>
      </trkpt>
      <trkpt lat="47.29417" lon="-2.35236">
        <ele>34.599998474121</ele>
        <time>2022-02-03T08:46:21.000Z</time>
      </trkpt>
      <trkpt lat="47.29438" lon="-2.35196">
        <ele>34.200000762939</ele>
        <time>2022-02-03T08:46:25.000Z</time>
      </trkpt>
      <trkpt lat="47.29443" lon="-2.35187">
        <ele>33.799999237061</ele>
        <time>2022-02-03T08:46:26.000Z</time>
      </trkpt>
      <trkpt lat="47.29448" lon="-2.35177">
        <ele>33.400001525879</ele>
        <time>2022-02-03T08:46:27.000Z</time>
      </trkpt>
      <trkpt lat="47.29452" lon="-2.35167">
        <ele>33</ele>
        <time>2022-02-03T08:46:28.000Z</time>
      </trkpt>
      <trkpt lat="47.29456" lon="-2.35156">
        <ele>32.599998474121</ele>
        <time>2022-02-03T08:46:29.000Z</time>
      </trkpt>
      <trkpt lat="47.29469" lon="-2.35117">
        <ele>32.599998474121</ele>
        <time>2022-02-03T08:46:33.000Z</time>
      </trkpt>
      <trkpt lat="47.29484" lon="-2.3506">
        <ele>32.599998474121</ele>
        <time>2022-02-03T08:46:39.000Z</time>
      </trkpt>
      <trkpt lat="47.29497" lon="-2.35018">
        <ele>32</ele>
        <time>2022-02-03T08:46:43.000Z</time>
      </trkpt>
      <trkpt lat="47.29501" lon="-2.35007">
        <ele>31.60000038147</ele>
        <time>2022-02-03T08:46:44.000Z</time>
      </trkpt>
      <trkpt lat="47.29506" lon="-2.34995">
        <ele>31.200000762939</ele>
        <time>2022-02-03T08:46:45.000Z</time>
      </trkpt>
      <trkpt lat="47.29512" lon="-2.34983">
        <ele>30.60000038147</ele>
        <time>2022-02-03T08:46:46.000Z</time>
      </trkpt>
      <trkpt lat="47.29519" lon="-2.34973">
        <ele>30.200000762939</ele>
        <time>2022-02-03T08:46:47.000Z</time>
      </trkpt>
      <trkpt lat="47.29525" lon="-2.34963">
        <ele>29.799999237061</ele>
        <time>2022-02-03T08:46:48.000Z</time>
      </trkpt>
      <trkpt lat="47.29531" lon="-2.34953">
        <ele>29.200000762939</ele>
        <time>2022-02-03T08:46:49.000Z</time>
      </trkpt>
      <trkpt lat="47.29537" lon="-2.34944">
        <ele>28.799999237061</ele>
        <time>2022-02-03T08:46:50.000Z</time>
      </trkpt>
      <trkpt lat="47.29543" lon="-2.34935">
        <ele>28.39999961853</ele>
        <time>2022-02-03T08:46:51.000Z</time>
      </trkpt>
      <trkpt lat="47.29548" lon="-2.34927">
        <ele>27.799999237061</ele>
        <time>2022-02-03T08:46:52.000Z</time>
      </trkpt>
      <trkpt lat="47.29558" lon="-2.34912">
        <ele>27.799999237061</ele>
        <time>2022-02-03T08:46:54.000Z</time>
      </trkpt>
      <trkpt lat="47.29577" lon="-2.34883">
        <ele>28.39999961853</ele>
        <time>2022-02-03T08:46:58.000Z</time>
      </trkpt>
      <trkpt lat="47.29582" lon="-2.34876">
        <ele>28.799999237061</ele>
        <time>2022-02-03T08:46:59.000Z</time>
      </trkpt>
      <trkpt lat="47.29586" lon="-2.34869">
        <ele>29.200000762939</ele>
        <time>2022-02-03T08:47:00.000Z</time>
      </trkpt>
      <trkpt lat="47.2959" lon="-2.34862">
        <ele>29.60000038147</ele>
        <time>2022-02-03T08:47:01.000Z</time>
      </trkpt>
      <trkpt lat="47.29594" lon="-2.34855">
        <ele>30</ele>
        <time>2022-02-03T08:47:02.000Z</time>
      </trkpt>
      <trkpt lat="47.29609" lon="-2.34836">
        <ele>30</ele>
        <time>2022-02-03T08:47:05.000Z</time>
      </trkpt>
      <trkpt lat="47.29614" lon="-2.34832">
        <ele>30</ele>
        <time>2022-02-03T08:47:06.000Z</time>
      </trkpt>
      <trkpt lat="47.29633" lon="-2.34835">
        <ele>30</ele>
        <time>2022-02-03T08:47:09.000Z</time>
      </trkpt>
      <trkpt lat="47.29644" lon="-2.34844">
        <ele>30</ele>
        <time>2022-02-03T08:47:11.000Z</time>
      </trkpt>
      <trkpt lat="47.29654" lon="-2.34856">
        <ele>30</ele>
        <time>2022-02-03T08:47:13.000Z</time>
      </trkpt>
      <trkpt lat="47.29672" lon="-2.34877">
        <ele>29.60000038147</ele>
        <time>2022-02-03T08:47:16.000Z</time>
      </trkpt>
      <trkpt lat="47.29678" lon="-2.34883">
        <ele>29.200000762939</ele>
        <time>2022-02-03T08:47:17.000Z</time>
      </trkpt>
      <trkpt lat="47.29685" lon="-2.34888">
        <ele>28.799999237061</ele>
        <time>2022-02-03T08:47:18.000Z</time>
      </trkpt>
      <trkpt lat="47.29691" lon="-2.3489">
        <ele>28.39999961853</ele>
        <time>2022-02-03T08:47:19.000Z</time>
      </trkpt>
      <trkpt lat="47.29696" lon="-2.3489">
        <ele>28</ele>
        <time>2022-02-03T08:47:20.000Z</time>
      </trkpt>
      <trkpt lat="47.29709" lon="-2.34885">
        <ele>28</ele>
        <time>2022-02-03T08:47:22.000Z</time>
      </trkpt>
      <trkpt lat="47.29715" lon="-2.34882">
        <ele>28</ele>
        <time>2022-02-03T08:47:23.000Z</time>
      </trkpt>
      <trkpt lat="47.29741" lon="-2.3487">
        <ele>28</ele>
        <time>2022-02-03T08:47:27.000Z</time>
      </trkpt>
      <trkpt lat="47.29747" lon="-2.34868">
        <ele>28</ele>
        <time>2022-02-03T08:47:28.000Z</time>
      </trkpt>
      <trkpt lat="47.29792" lon="-2.34858">
        <ele>28</ele>
        <time>2022-02-03T08:47:35.000Z</time>
      </trkpt>
      <trkpt lat="47.29834" lon="-2.34847">
        <ele>28</ele>
        <time>2022-02-03T08:47:42.000Z</time>
      </trkpt>
      <trkpt lat="47.29874" lon="-2.34839">
        <ele>28</ele>
        <time>2022-02-03T08:47:49.000Z</time>
      </trkpt>
      <trkpt lat="47.29906" lon="-2.34832">
        <ele>28.39999961853</ele>
        <time>2022-02-03T08:47:55.000Z</time>
      </trkpt>
      <trkpt lat="47.29911" lon="-2.34831">
        <ele>28.799999237061</ele>
        <time>2022-02-03T08:47:56.000Z</time>
      </trkpt>
      <trkpt lat="47.29916" lon="-2.34831">
        <ele>29.200000762939</ele>
        <time>2022-02-03T08:47:57.000Z</time>
      </trkpt>
      <trkpt lat="47.29921" lon="-2.3483">
        <ele>29.60000038147</ele>
        <time>2022-02-03T08:47:58.000Z</time>
      </trkpt>
      <trkpt lat="47.29927" lon="-2.34829">
        <ele>30</ele>
        <time>2022-02-03T08:47:59.000Z</time>
      </trkpt>
      <trkpt lat="47.29958" lon="-2.34823">
        <ele>30</ele>
        <time>2022-02-03T08:48:05.000Z</time>
      </trkpt>
      <trkpt lat="47.29973" lon="-2.34819">
        <ele>30</ele>
        <time>2022-02-03T08:48:08.000Z</time>
      </trkpt>
      <trkpt lat="47.29979" lon="-2.3481">
        <ele>30</ele>
        <time>2022-02-03T08:48:10.000Z</time>
      </trkpt>
      <trkpt lat="47.29979" lon="-2.34789">
        <ele>30</ele>
        <time>2022-02-03T08:48:13.000Z</time>
      </trkpt>
      <trkpt lat="47.29978" lon="-2.34781">
        <ele>30</ele>
        <time>2022-02-03T08:48:14.000Z</time>
      </trkpt>
      <trkpt lat="47.29972" lon="-2.34737">
        <ele>30</ele>
        <time>2022-02-03T08:48:19.000Z</time>
      </trkpt>
      <trkpt lat="47.29962" lon="-2.34655">
        <ele>30</ele>
        <time>2022-02-03T08:48:28.000Z</time>
      </trkpt>
      <trkpt lat="47.29953" lon="-2.34587">
        <ele>30</ele>
        <time>2022-02-03T08:48:36.000Z</time>
      </trkpt>
      <trkpt lat="47.29949" lon="-2.34547">
        <ele>30</ele>
        <time>2022-02-03T08:48:41.000Z</time>
      </trkpt>
      <trkpt lat="47.29948" lon="-2.34539">
        <ele>30</ele>
        <time>2022-02-03T08:48:42.000Z</time>
      </trkpt>
      <trkpt lat="47.29939" lon="-2.34464">
        <ele>30</ele>
        <time>2022-02-03T08:48:51.000Z</time>
      </trkpt>
      <trkpt lat="47.29931" lon="-2.34393">
        <ele>30</ele>
        <time>2022-02-03T08:48:59.000Z</time>
      </trkpt>
      <trkpt lat="47.29922" lon="-2.34313">
        <ele>30</ele>
        <time>2022-02-03T08:49:08.000Z</time>
      </trkpt>
      <trkpt lat="47.29916" lon="-2.34271">
        <ele>30</ele>
        <time>2022-02-03T08:49:13.000Z</time>
      </trkpt>
      <trkpt lat="47.29916" lon="-2.34263">
        <ele>30</ele>
        <time>2022-02-03T08:49:14.000Z</time>
      </trkpt>
      <trkpt lat="47.29926" lon="-2.34242">
        <ele>30</ele>
        <time>2022-02-03T08:49:17.000Z</time>
      </trkpt>
      <trkpt lat="47.29935" lon="-2.3423">
        <ele>30</ele>
        <time>2022-02-03T08:49:19.000Z</time>
      </trkpt>
      <trkpt lat="47.29952" lon="-2.34208">
        <ele>30</ele>
        <time>2022-02-03T08:49:23.000Z</time>
      </trkpt>
      <trkpt lat="47.29985" lon="-2.34167">
        <ele>30</ele>
        <time>2022-02-03T08:49:30.000Z</time>
      </trkpt>
      <trkpt lat="47.30018" lon="-2.34122">
        <ele>30</ele>
        <time>2022-02-03T08:49:37.000Z</time>
      </trkpt>
      <trkpt lat="47.30057" lon="-2.34073">
        <ele>30</ele>
        <time>2022-02-03T08:49:45.000Z</time>
      </trkpt>
      <trkpt lat="47.30098" lon="-2.34018">
        <ele>30</ele>
        <time>2022-02-03T08:49:53.000Z</time>
      </trkpt>
      <trkpt lat="47.30104" lon="-2.34011">
        <ele>29.60000038147</ele>
        <time>2022-02-03T08:49:54.000Z</time>
      </trkpt>
      <trkpt lat="47.30109" lon="-2.34004">
        <ele>29</ele>
        <time>2022-02-03T08:49:55.000Z</time>
      </trkpt>
      <trkpt lat="47.30114" lon="-2.33998">
        <ele>28.60000038147</ele>
        <time>2022-02-03T08:49:56.000Z</time>
      </trkpt>
      <trkpt lat="47.30119" lon="-2.33993">
        <ele>27.799999237061</ele>
        <time>2022-02-03T08:49:57.000Z</time>
      </trkpt>
      <trkpt lat="47.30133" lon="-2.33978">
        <ele>27.799999237061</ele>
        <time>2022-02-03T08:50:00.000Z</time>
      </trkpt>
      <trkpt lat="47.30161" lon="-2.33953">
        <ele>27.799999237061</ele>
        <time>2022-02-03T08:50:06.000Z</time>
      </trkpt>
      <trkpt lat="47.30178" lon="-2.33937">
        <ele>28.200000762939</ele>
        <time>2022-02-03T08:50:10.000Z</time>
      </trkpt>
      <trkpt lat="47.30182" lon="-2.33932">
        <ele>28.60000038147</ele>
        <time>2022-02-03T08:50:11.000Z</time>
      </trkpt>
      <trkpt lat="47.30186" lon="-2.33928">
        <ele>29</ele>
        <time>2022-02-03T08:50:12.000Z</time>
      </trkpt>
      <trkpt lat="47.30189" lon="-2.33923">
        <ele>29.39999961853</ele>
        <time>2022-02-03T08:50:13.000Z</time>
      </trkpt>
      <trkpt lat="47.30193" lon="-2.33919">
        <ele>29.799999237061</ele>
        <time>2022-02-03T08:50:14.000Z</time>
      </trkpt>
      <trkpt lat="47.3021" lon="-2.33901">
        <ele>29.799999237061</ele>
        <time>2022-02-03T08:50:18.000Z</time>
      </trkpt>
      <trkpt lat="47.30214" lon="-2.33897">
        <ele>29.799999237061</ele>
        <time>2022-02-03T08:50:19.000Z</time>
      </trkpt>
      <trkpt lat="47.30246" lon="-2.33871">
        <ele>29.799999237061</ele>
        <time>2022-02-03T08:50:27.000Z</time>
      </trkpt>
      <trkpt lat="47.30251" lon="-2.33868">
        <ele>30.39999961853</ele>
        <time>2022-02-03T08:50:28.000Z</time>
      </trkpt>
      <trkpt lat="47.30254" lon="-2.33866">
        <ele>30.799999237061</ele>
        <time>2022-02-03T08:50:29.000Z</time>
      </trkpt>
      <trkpt lat="47.30258" lon="-2.33863">
        <ele>31.200000762939</ele>
        <time>2022-02-03T08:50:30.000Z</time>
      </trkpt>
      <trkpt lat="47.30262" lon="-2.33859">
        <ele>31.60000038147</ele>
        <time>2022-02-03T08:50:31.000Z</time>
      </trkpt>
      <trkpt lat="47.30267" lon="-2.33856">
        <ele>32</ele>
        <time>2022-02-03T08:50:32.000Z</time>
      </trkpt>
      <trkpt lat="47.30271" lon="-2.33853">
        <ele>32</ele>
        <time>2022-02-03T08:50:33.000Z</time>
      </trkpt>
      <trkpt lat="47.30296" lon="-2.33833">
        <ele>32</ele>
        <time>2022-02-03T08:50:39.000Z</time>
      </trkpt>
      <trkpt lat="47.30307" lon="-2.33827">
        <ele>32</ele>
        <time>2022-02-03T08:50:41.000Z</time>
      </trkpt>
      <trkpt lat="47.3033" lon="-2.3381">
        <ele>32</ele>
        <time>2022-02-03T08:50:46.000Z</time>
      </trkpt>
      <trkpt lat="47.30338" lon="-2.33801">
        <ele>32</ele>
        <time>2022-02-03T08:50:48.000Z</time>
      </trkpt>
      <trkpt lat="47.30368" lon="-2.33766">
        <ele>32</ele>
        <time>2022-02-03T08:50:55.000Z</time>
      </trkpt>
      <trkpt lat="47.30394" lon="-2.33733">
        <ele>32</ele>
        <time>2022-02-03T08:51:01.000Z</time>
      </trkpt>
      <trkpt lat="47.30397" lon="-2.33727">
        <ele>32</ele>
        <time>2022-02-03T08:51:02.000Z</time>
      </trkpt>
      <trkpt lat="47.3041" lon="-2.33704">
        <ele>32</ele>
        <time>2022-02-03T08:51:06.000Z</time>
      </trkpt>
      <trkpt lat="47.30418" lon="-2.33694">
        <ele>32</ele>
        <time>2022-02-03T08:51:08.000Z</time>
      </trkpt>
      <trkpt lat="47.3043" lon="-2.33688">
        <ele>32</ele>
        <time>2022-02-03T08:51:10.000Z</time>
      </trkpt>
      <trkpt lat="47.30446" lon="-2.3368">
        <ele>32</ele>
        <time>2022-02-03T08:51:13.000Z</time>
      </trkpt>
      <trkpt lat="47.30456" lon="-2.33673">
        <ele>32</ele>
        <time>2022-02-03T08:51:15.000Z</time>
      </trkpt>
      <trkpt lat="47.30462" lon="-2.33671">
        <ele>32</ele>
        <time>2022-02-03T08:51:16.000Z</time>
      </trkpt>
      <trkpt lat="47.30483" lon="-2.33659">
        <ele>32</ele>
        <time>2022-02-03T08:51:20.000Z</time>
      </trkpt>
      <trkpt lat="47.30494" lon="-2.33655">
        <ele>32</ele>
        <time>2022-02-03T08:51:22.000Z</time>
      </trkpt>
      <trkpt lat="47.30511" lon="-2.33649">
        <ele>32</ele>
        <time>2022-02-03T08:51:25.000Z</time>
      </trkpt>
      <trkpt lat="47.30527" lon="-2.33647">
        <ele>32</ele>
        <time>2022-02-03T08:51:28.000Z</time>
      </trkpt>
      <trkpt lat="47.30537" lon="-2.33644">
        <ele>32</ele>
        <time>2022-02-03T08:51:30.000Z</time>
      </trkpt>
      <trkpt lat="47.30553" lon="-2.33655">
        <ele>32</ele>
        <time>2022-02-03T08:51:34.000Z</time>
      </trkpt>
      <trkpt lat="47.30558" lon="-2.33678">
        <ele>32</ele>
        <time>2022-02-03T08:51:38.000Z</time>
      </trkpt>
      <trkpt lat="47.30562" lon="-2.33698">
        <ele>32</ele>
        <time>2022-02-03T08:51:41.000Z</time>
      </trkpt>
      <trkpt lat="47.30565" lon="-2.33711">
        <ele>32</ele>
        <time>2022-02-03T08:51:43.000Z</time>
      </trkpt>
      <trkpt lat="47.30569" lon="-2.33731">
        <ele>32</ele>
        <time>2022-02-03T08:51:46.000Z</time>
      </trkpt>
      <trkpt lat="47.30572" lon="-2.33749">
        <ele>32</ele>
        <time>2022-02-03T08:51:49.000Z</time>
      </trkpt>
      <trkpt lat="47.30575" lon="-2.33775">
        <ele>32</ele>
        <time>2022-02-03T08:51:53.000Z</time>
      </trkpt>
      <trkpt lat="47.30578" lon="-2.33787">
        <ele>32</ele>
        <time>2022-02-03T08:51:55.000Z</time>
      </trkpt>
      <trkpt lat="47.30589" lon="-2.33825">
        <ele>32</ele>
        <time>2022-02-03T08:52:01.000Z</time>
      </trkpt>
      <trkpt lat="47.3059" lon="-2.3383">
        <ele>32</ele>
        <time>2022-02-03T08:52:02.000Z</time>
      </trkpt>
      <trkpt lat="47.30596" lon="-2.33853">
        <ele>32</ele>
        <time>2022-02-03T08:52:07.000Z</time>
      </trkpt>
      <trkpt lat="47.30597" lon="-2.33872">
        <ele>32</ele>
        <time>2022-02-03T08:52:11.000Z</time>
      </trkpt>
      <trkpt lat="47.30596" lon="-2.33877">
        <ele>32</ele>
        <time>2022-02-03T08:52:12.000Z</time>
      </trkpt>
      <trkpt lat="47.30596" lon="-2.33909">
        <ele>32</ele>
        <time>2022-02-03T08:52:17.000Z</time>
      </trkpt>
      <trkpt lat="47.30604" lon="-2.33941">
        <ele>32</ele>
        <time>2022-02-03T08:52:22.000Z</time>
      </trkpt>
      <trkpt lat="47.30613" lon="-2.33953">
        <ele>32</ele>
        <time>2022-02-03T08:52:25.000Z</time>
      </trkpt>
      <trkpt lat="47.30632" lon="-2.33971">
        <ele>32</ele>
        <time>2022-02-03T08:52:30.000Z</time>
      </trkpt>
      <trkpt lat="47.30647" lon="-2.33985">
        <ele>32</ele>
        <time>2022-02-03T08:52:33.000Z</time>
      </trkpt>
      <trkpt lat="47.30657" lon="-2.33989">
        <ele>32</ele>
        <time>2022-02-03T08:52:35.000Z</time>
      </trkpt>
      <trkpt lat="47.30678" lon="-2.3399">
        <ele>32</ele>
        <time>2022-02-03T08:52:39.000Z</time>
      </trkpt>
      <trkpt lat="47.30684" lon="-2.3399">
        <ele>32</ele>
        <time>2022-02-03T08:52:40.000Z</time>
      </trkpt>
      <trkpt lat="47.30723" lon="-2.33984">
        <ele>32</ele>
        <time>2022-02-03T08:52:47.000Z</time>
      </trkpt>
      <trkpt lat="47.30765" lon="-2.33972">
        <ele>32.400001525879</ele>
        <time>2022-02-03T08:52:55.000Z</time>
      </trkpt>
      <trkpt lat="47.3077" lon="-2.33971">
        <ele>32.799999237061</ele>
        <time>2022-02-03T08:52:56.000Z</time>
      </trkpt>
      <trkpt lat="47.30774" lon="-2.33971">
        <ele>33.200000762939</ele>
        <time>2022-02-03T08:52:57.000Z</time>
      </trkpt>
      <trkpt lat="47.30777" lon="-2.33974">
        <ele>33.599998474121</ele>
        <time>2022-02-03T08:52:58.000Z</time>
      </trkpt>
      <trkpt lat="47.3078" lon="-2.33978">
        <ele>34</ele>
        <time>2022-02-03T08:52:59.000Z</time>
      </trkpt>
      <trkpt lat="47.30783" lon="-2.33998">
        <ele>34</ele>
        <time>2022-02-03T08:53:02.000Z</time>
      </trkpt>
      <trkpt lat="47.30783" lon="-2.34027">
        <ele>34</ele>
        <time>2022-02-03T08:53:06.000Z</time>
      </trkpt>
      <trkpt lat="47.30782" lon="-2.34034">
        <ele>34</ele>
        <time>2022-02-03T08:53:07.000Z</time>
      </trkpt>
      <trkpt lat="47.30782" lon="-2.34062">
        <ele>34</ele>
        <time>2022-02-03T08:53:11.000Z</time>
      </trkpt>
      <trkpt lat="47.30781" lon="-2.34076">
        <ele>34</ele>
        <time>2022-02-03T08:53:13.000Z</time>
      </trkpt>
      <trkpt lat="47.30779" lon="-2.34117">
        <ele>34</ele>
        <time>2022-02-03T08:53:19.000Z</time>
      </trkpt>
      <trkpt lat="47.30779" lon="-2.34125">
        <ele>34.400001525879</ele>
        <time>2022-02-03T08:53:20.000Z</time>
      </trkpt>
      <trkpt lat="47.30778" lon="-2.34132">
        <ele>34.799999237061</ele>
        <time>2022-02-03T08:53:21.000Z</time>
      </trkpt>
      <trkpt lat="47.30777" lon="-2.34139">
        <ele>35.200000762939</ele>
        <time>2022-02-03T08:53:22.000Z</time>
      </trkpt>
      <trkpt lat="47.30776" lon="-2.34147">
        <ele>35.599998474121</ele>
        <time>2022-02-03T08:53:23.000Z</time>
      </trkpt>
      <trkpt lat="47.30776" lon="-2.34154">
        <ele>36</ele>
        <time>2022-02-03T08:53:24.000Z</time>
      </trkpt>
      <trkpt lat="47.30775" lon="-2.34193">
        <ele>36</ele>
        <time>2022-02-03T08:53:30.000Z</time>
      </trkpt>
      <trkpt lat="47.30767" lon="-2.34209">
        <ele>36</ele>
        <time>2022-02-03T08:53:33.000Z</time>
      </trkpt>
      <trkpt lat="47.30752" lon="-2.34214">
        <ele>36</ele>
        <time>2022-02-03T08:53:36.000Z</time>
      </trkpt>
      <trkpt lat="47.30748" lon="-2.34216">
        <ele>36</ele>
        <time>2022-02-03T08:53:37.000Z</time>
      </trkpt>
      <trkpt lat="47.30735" lon="-2.34222">
        <ele>36</ele>
        <time>2022-02-03T08:53:40.000Z</time>
      </trkpt>
      <trkpt lat="47.30733" lon="-2.34227">
        <ele>36</ele>
        <time>2022-02-03T08:53:41.000Z</time>
      </trkpt>
      <trkpt lat="47.30731" lon="-2.34251">
        <ele>36</ele>
        <time>2022-02-03T08:53:45.000Z</time>
      </trkpt>
      <trkpt lat="47.30727" lon="-2.34272">
        <ele>36</ele>
        <time>2022-02-03T08:53:48.000Z</time>
      </trkpt>
      <trkpt lat="47.30724" lon="-2.34278">
        <ele>36</ele>
        <time>2022-02-03T08:53:49.000Z</time>
      </trkpt>
      <trkpt lat="47.30721" lon="-2.34285">
        <ele>36</ele>
        <time>2022-02-03T08:53:50.000Z</time>
      </trkpt>
      <trkpt lat="47.30705" lon="-2.34316">
        <ele>36</ele>
        <time>2022-02-03T08:53:55.000Z</time>
      </trkpt>
      <trkpt lat="47.30702" lon="-2.34321">
        <ele>36</ele>
        <time>2022-02-03T08:53:56.000Z</time>
      </trkpt>
      <trkpt lat="47.30688" lon="-2.34349">
        <ele>36</ele>
        <time>2022-02-03T08:54:01.000Z</time>
      </trkpt>
      <trkpt lat="47.30679" lon="-2.34366">
        <ele>36</ele>
        <time>2022-02-03T08:54:04.000Z</time>
      </trkpt>
      <trkpt lat="47.30673" lon="-2.34375">
        <ele>36</ele>
        <time>2022-02-03T08:54:06.000Z</time>
      </trkpt>
      <trkpt lat="47.30653" lon="-2.34402">
        <ele>36</ele>
        <time>2022-02-03T08:54:12.000Z</time>
      </trkpt>
      <trkpt lat="47.30649" lon="-2.34406">
        <ele>36.400001525879</ele>
        <time>2022-02-03T08:54:13.000Z</time>
      </trkpt>
      <trkpt lat="47.30646" lon="-2.34411">
        <ele>36.799999237061</ele>
        <time>2022-02-03T08:54:14.000Z</time>
      </trkpt>
      <trkpt lat="47.30642" lon="-2.34415">
        <ele>37.200000762939</ele>
        <time>2022-02-03T08:54:15.000Z</time>
      </trkpt>
      <trkpt lat="47.30638" lon="-2.34421">
        <ele>37.599998474121</ele>
        <time>2022-02-03T08:54:16.000Z</time>
      </trkpt>
      <trkpt lat="47.30634" lon="-2.34426">
        <ele>38</ele>
        <time>2022-02-03T08:54:17.000Z</time>
      </trkpt>
      <trkpt lat="47.30626" lon="-2.34436">
        <ele>38</ele>
        <time>2022-02-03T08:54:19.000Z</time>
      </trkpt>
      <trkpt lat="47.30601" lon="-2.34478">
        <ele>38</ele>
        <time>2022-02-03T08:54:26.000Z</time>
      </trkpt>
      <trkpt lat="47.3058" lon="-2.34522">
        <ele>38</ele>
        <time>2022-02-03T08:54:32.000Z</time>
      </trkpt>
      <trkpt lat="47.30554" lon="-2.34564">
        <ele>38</ele>
        <time>2022-02-03T08:54:38.000Z</time>
      </trkpt>
      <trkpt lat="47.30526" lon="-2.346">
        <ele>38</ele>
        <time>2022-02-03T08:54:44.000Z</time>
      </trkpt>
      <trkpt lat="47.30512" lon="-2.34625">
        <ele>38</ele>
        <time>2022-02-03T08:54:48.000Z</time>
      </trkpt>
      <trkpt lat="47.30497" lon="-2.3465">
        <ele>38</ele>
        <time>2022-02-03T08:54:52.000Z</time>
      </trkpt>
      <trkpt lat="47.30492" lon="-2.34656">
        <ele>38</ele>
        <time>2022-02-03T08:54:53.000Z</time>
      </trkpt>
      <trkpt lat="47.30474" lon="-2.34677">
        <ele>38</ele>
        <time>2022-02-03T08:54:57.000Z</time>
      </trkpt>
      <trkpt lat="47.30469" lon="-2.34682">
        <ele>38</ele>
        <time>2022-02-03T08:54:58.000Z</time>
      </trkpt>
      <trkpt lat="47.30445" lon="-2.34704">
        <ele>38</ele>
        <time>2022-02-03T08:55:03.000Z</time>
      </trkpt>
      <trkpt lat="47.30426" lon="-2.34723">
        <ele>38</ele>
        <time>2022-02-03T08:55:07.000Z</time>
      </trkpt>
      <trkpt lat="47.30415" lon="-2.34731">
        <ele>38</ele>
        <time>2022-02-03T08:55:09.000Z</time>
      </trkpt>
      <trkpt lat="47.30394" lon="-2.34744">
        <ele>38</ele>
        <time>2022-02-03T08:55:13.000Z</time>
      </trkpt>
      <trkpt lat="47.30384" lon="-2.34751">
        <ele>38</ele>
        <time>2022-02-03T08:55:15.000Z</time>
      </trkpt>
      <trkpt lat="47.30354" lon="-2.34771">
        <ele>38</ele>
        <time>2022-02-03T08:55:21.000Z</time>
      </trkpt>
      <trkpt lat="47.30349" lon="-2.34775">
        <ele>38</ele>
        <time>2022-02-03T08:55:22.000Z</time>
      </trkpt>
      <trkpt lat="47.30333" lon="-2.34799">
        <ele>38</ele>
        <time>2022-02-03T08:55:26.000Z</time>
      </trkpt>
      <trkpt lat="47.30321" lon="-2.34819">
        <ele>38</ele>
        <time>2022-02-03T08:55:29.000Z</time>
      </trkpt>
      <trkpt lat="47.30312" lon="-2.34831">
        <ele>38</ele>
        <time>2022-02-03T08:55:31.000Z</time>
      </trkpt>
      <trkpt lat="47.30298" lon="-2.34846">
        <ele>38</ele>
        <time>2022-02-03T08:55:34.000Z</time>
      </trkpt>
      <trkpt lat="47.30288" lon="-2.34854">
        <ele>38</ele>
        <time>2022-02-03T08:55:36.000Z</time>
      </trkpt>
      <trkpt lat="47.30246" lon="-2.34879">
        <ele>38</ele>
        <time>2022-02-03T08:55:44.000Z</time>
      </trkpt>
      <trkpt lat="47.30236" lon="-2.34887">
        <ele>38</ele>
        <time>2022-02-03T08:55:46.000Z</time>
      </trkpt>
      <trkpt lat="47.30221" lon="-2.349">
        <ele>38</ele>
        <time>2022-02-03T08:55:49.000Z</time>
      </trkpt>
      <trkpt lat="47.30214" lon="-2.34918">
        <ele>38</ele>
        <time>2022-02-03T08:55:52.000Z</time>
      </trkpt>
      <trkpt lat="47.30214" lon="-2.34956">
        <ele>38</ele>
        <time>2022-02-03T08:55:56.000Z</time>
      </trkpt>
      <trkpt lat="47.30213" lon="-2.34965">
        <ele>38</ele>
        <time>2022-02-03T08:55:57.000Z</time>
      </trkpt>
      <trkpt lat="47.30212" lon="-2.35004">
        <ele>37.599998474121</ele>
        <time>2022-02-03T08:56:01.000Z</time>
      </trkpt>
      <trkpt lat="47.30213" lon="-2.35014">
        <ele>36.799999237061</ele>
        <time>2022-02-03T08:56:02.000Z</time>
      </trkpt>
      <trkpt lat="47.30213" lon="-2.35024">
        <ele>36.400001525879</ele>
        <time>2022-02-03T08:56:03.000Z</time>
      </trkpt>
      <trkpt lat="47.30213" lon="-2.35033">
        <ele>36</ele>
        <time>2022-02-03T08:56:04.000Z</time>
      </trkpt>
      <trkpt lat="47.30213" lon="-2.35052">
        <ele>36</ele>
        <time>2022-02-03T08:56:06.000Z</time>
      </trkpt>
      <trkpt lat="47.30213" lon="-2.35087">
        <ele>35.599998474121</ele>
        <time>2022-02-03T08:56:10.000Z</time>
      </trkpt>
      <trkpt lat="47.30212" lon="-2.35096">
        <ele>35.200000762939</ele>
        <time>2022-02-03T08:56:11.000Z</time>
      </trkpt>
      <trkpt lat="47.30211" lon="-2.35104">
        <ele>34.799999237061</ele>
        <time>2022-02-03T08:56:12.000Z</time>
      </trkpt>
      <trkpt lat="47.30211" lon="-2.35112">
        <ele>34.400001525879</ele>
        <time>2022-02-03T08:56:13.000Z</time>
      </trkpt>
      <trkpt lat="47.3021" lon="-2.3512">
        <ele>34</ele>
        <time>2022-02-03T08:56:14.000Z</time>
      </trkpt>
      <trkpt lat="47.3021" lon="-2.35146">
        <ele>34</ele>
        <time>2022-02-03T08:56:17.000Z</time>
      </trkpt>
      <trkpt lat="47.30209" lon="-2.35153">
        <ele>34</ele>
        <time>2022-02-03T08:56:18.000Z</time>
      </trkpt>
      <trkpt lat="47.30206" lon="-2.35164">
        <ele>34</ele>
        <time>2022-02-03T08:56:20.000Z</time>
      </trkpt>
      <trkpt lat="47.30204" lon="-2.35167">
        <ele>33.400001525879</ele>
        <time>2022-02-03T08:56:21.000Z</time>
      </trkpt>
      <trkpt lat="47.30201" lon="-2.35168">
        <ele>33</ele>
        <time>2022-02-03T08:56:22.000Z</time>
      </trkpt>
      <trkpt lat="47.30199" lon="-2.35169">
        <ele>32.599998474121</ele>
        <time>2022-02-03T08:56:23.000Z</time>
      </trkpt>
      <trkpt lat="47.30196" lon="-2.35169">
        <ele>32.200000762939</ele>
        <time>2022-02-03T08:56:24.000Z</time>
      </trkpt>
      <trkpt lat="47.30193" lon="-2.3517">
        <ele>31.799999237061</ele>
        <time>2022-02-03T08:56:25.000Z</time>
      </trkpt>
      <trkpt lat="47.30184" lon="-2.35175">
        <ele>31.799999237061</ele>
        <time>2022-02-03T08:56:28.000Z</time>
      </trkpt>
      <trkpt lat="47.30172" lon="-2.3518">
        <ele>31.799999237061</ele>
        <time>2022-02-03T08:56:33.000Z</time>
      </trkpt>
      <trkpt lat="47.3017" lon="-2.35182">
        <ele>31.799999237061</ele>
        <time>2022-02-03T08:56:35.000Z</time>
      </trkpt>
      <trkpt lat="47.30139" lon="-2.35196">
        <ele>31.799999237061</ele>
        <time>2022-02-03T08:57:27.000Z</time>
      </trkpt>
      <trkpt lat="47.30137" lon="-2.35197">
        <ele>31.799999237061</ele>
        <time>2022-02-03T08:57:28.000Z</time>
      </trkpt>
      <trkpt lat="47.3012" lon="-2.35203">
        <ele>31.799999237061</ele>
        <time>2022-02-03T08:57:33.000Z</time>
      </trkpt>
      <trkpt lat="47.30102" lon="-2.35211">
        <ele>31.799999237061</ele>
        <time>2022-02-03T08:57:38.000Z</time>
      </trkpt>
      <trkpt lat="47.30082" lon="-2.35217">
        <ele>31.799999237061</ele>
        <time>2022-02-03T08:57:43.000Z</time>
      </trkpt>
      <trkpt lat="47.30073" lon="-2.35224">
        <ele>31.799999237061</ele>
        <time>2022-02-03T08:57:47.000Z</time>
      </trkpt>
      <trkpt lat="47.30056" lon="-2.35233">
        <ele>31.799999237061</ele>
        <time>2022-02-03T08:57:52.000Z</time>
      </trkpt>
      <trkpt lat="47.30032" lon="-2.35245">
        <ele>31.799999237061</ele>
        <time>2022-02-03T08:57:59.000Z</time>
      </trkpt>
      <trkpt lat="47.30028" lon="-2.35247">
        <ele>31.799999237061</ele>
        <time>2022-02-03T08:58:01.000Z</time>
      </trkpt>
      <trkpt lat="47.30025" lon="-2.35247">
        <ele>31.799999237061</ele>
        <time>2022-02-03T08:58:03.000Z</time>
      </trkpt>
      <trkpt lat="47.3002" lon="-2.35253">
        <ele>31.799999237061</ele>
        <time>2022-02-03T08:58:06.000Z</time>
      </trkpt>
      <trkpt lat="47.30018" lon="-2.35257">
        <ele>31.799999237061</ele>
        <time>2022-02-03T08:58:08.000Z</time>
      </trkpt>
      <trkpt lat="47.30016" lon="-2.35259">
        <ele>31.799999237061</ele>
        <time>2022-02-03T08:58:10.000Z</time>
      </trkpt>
      <trkpt lat="47.30016" lon="-2.35264">
        <ele>31.799999237061</ele>
        <time>2022-02-03T08:58:12.000Z</time>
      </trkpt>
      <trkpt lat="47.3002" lon="-2.35272">
        <ele>31.799999237061</ele>
        <time>2022-02-03T08:58:17.000Z</time>
      </trkpt>
      <trkpt lat="47.30021" lon="-2.35277">
        <ele>31.799999237061</ele>
        <time>2022-02-03T08:58:44.000Z</time>
      </trkpt>
      <trkpt lat="47.30022" lon="-2.35283">
        <ele>31.799999237061</ele>
        <time>2022-02-03T08:58:46.000Z</time>
      </trkpt>
      <trkpt lat="47.30033" lon="-2.35312">
        <ele>31.799999237061</ele>
        <time>2022-02-03T08:58:52.000Z</time>
      </trkpt>
      <trkpt lat="47.3005" lon="-2.35354">
        <ele>31.799999237061</ele>
        <time>2022-02-03T08:58:59.000Z</time>
      </trkpt>
      <trkpt lat="47.30069" lon="-2.35395">
        <ele>31.799999237061</ele>
        <time>2022-02-03T08:59:06.000Z</time>
      </trkpt>
      <trkpt lat="47.30074" lon="-2.35405">
        <ele>31.799999237061</ele>
        <time>2022-02-03T08:59:08.000Z</time>
      </trkpt>
      <trkpt lat="47.3009" lon="-2.35428">
        <ele>31.799999237061</ele>
        <time>2022-02-03T08:59:13.000Z</time>
      </trkpt>
      <trkpt lat="47.30114" lon="-2.3546">
        <ele>31.799999237061</ele>
        <time>2022-02-03T08:59:20.000Z</time>
      </trkpt>
      <trkpt lat="47.30121" lon="-2.35476">
        <ele>32.200000762939</ele>
        <time>2022-02-03T08:59:23.000Z</time>
      </trkpt>
      <trkpt lat="47.30123" lon="-2.35481">
        <ele>32.599998474121</ele>
        <time>2022-02-03T08:59:24.000Z</time>
      </trkpt>
      <trkpt lat="47.30124" lon="-2.35487">
        <ele>33</ele>
        <time>2022-02-03T08:59:25.000Z</time>
      </trkpt>
      <trkpt lat="47.30125" lon="-2.35494">
        <ele>33.599998474121</ele>
        <time>2022-02-03T08:59:26.000Z</time>
      </trkpt>
      <trkpt lat="47.30126" lon="-2.355">
        <ele>34</ele>
        <time>2022-02-03T08:59:27.000Z</time>
      </trkpt>
      <trkpt lat="47.30126" lon="-2.35507">
        <ele>34</ele>
        <time>2022-02-03T08:59:28.000Z</time>
      </trkpt>
      <trkpt lat="47.30128" lon="-2.3554">
        <ele>34</ele>
        <time>2022-02-03T08:59:33.000Z</time>
      </trkpt>
      <trkpt lat="47.30129" lon="-2.35553">
        <ele>34.400001525879</ele>
        <time>2022-02-03T08:59:35.000Z</time>
      </trkpt>
      <trkpt lat="47.30129" lon="-2.35559">
        <ele>34.799999237061</ele>
        <time>2022-02-03T08:59:36.000Z</time>
      </trkpt>
      <trkpt lat="47.30129" lon="-2.35565">
        <ele>35.200000762939</ele>
        <time>2022-02-03T08:59:37.000Z</time>
      </trkpt>
      <trkpt lat="47.3013" lon="-2.35571">
        <ele>35.599998474121</ele>
        <time>2022-02-03T08:59:38.000Z</time>
      </trkpt>
      <trkpt lat="47.3013" lon="-2.35577">
        <ele>36</ele>
        <time>2022-02-03T08:59:39.000Z</time>
      </trkpt>
      <trkpt lat="47.30131" lon="-2.35583">
        <ele>36</ele>
        <time>2022-02-03T08:59:40.000Z</time>
      </trkpt>
      <trkpt lat="47.30139" lon="-2.35595">
        <ele>36</ele>
        <time>2022-02-03T08:59:43.000Z</time>
      </trkpt>
      <trkpt lat="47.30151" lon="-2.35592">
        <ele>36.400001525879</ele>
        <time>2022-02-03T08:59:46.000Z</time>
      </trkpt>
      <trkpt lat="47.30156" lon="-2.35589">
        <ele>36.799999237061</ele>
        <time>2022-02-03T08:59:47.000Z</time>
      </trkpt>
      <trkpt lat="47.3016" lon="-2.35586">
        <ele>37.200000762939</ele>
        <time>2022-02-03T08:59:48.000Z</time>
      </trkpt>
      <trkpt lat="47.30165" lon="-2.35583">
        <ele>37.599998474121</ele>
        <time>2022-02-03T08:59:49.000Z</time>
      </trkpt>
      <trkpt lat="47.30169" lon="-2.35581">
        <ele>38</ele>
        <time>2022-02-03T08:59:50.000Z</time>
      </trkpt>
      <trkpt lat="47.30179" lon="-2.35576">
        <ele>38</ele>
        <time>2022-02-03T08:59:52.000Z</time>
      </trkpt>
      <trkpt lat="47.30204" lon="-2.35569">
        <ele>38</ele>
        <time>2022-02-03T08:59:57.000Z</time>
      </trkpt>
      <trkpt lat="47.30214" lon="-2.35569">
        <ele>38</ele>
        <time>2022-02-03T08:59:59.000Z</time>
      </trkpt>
      <trkpt lat="47.30248" lon="-2.35575">
        <ele>38</ele>
        <time>2022-02-03T09:00:06.000Z</time>
      </trkpt>
      <trkpt lat="47.30288" lon="-2.35581">
        <ele>38</ele>
        <time>2022-02-03T09:00:13.000Z</time>
      </trkpt>
      <trkpt lat="47.30324" lon="-2.35588">
        <ele>38</ele>
        <time>2022-02-03T09:00:19.000Z</time>
      </trkpt>
      <trkpt lat="47.30364" lon="-2.35593">
        <ele>38</ele>
        <time>2022-02-03T09:00:26.000Z</time>
      </trkpt>
      <trkpt lat="47.30387" lon="-2.35592">
        <ele>38</ele>
        <time>2022-02-03T09:00:30.000Z</time>
      </trkpt>
      <trkpt lat="47.30392" lon="-2.35595">
        <ele>38</ele>
        <time>2022-02-03T09:00:31.000Z</time>
      </trkpt>
      <trkpt lat="47.30403" lon="-2.35613">
        <ele>38</ele>
        <time>2022-02-03T09:00:34.000Z</time>
      </trkpt>
      <trkpt lat="47.3043" lon="-2.3565">
        <ele>38</ele>
        <time>2022-02-03T09:00:40.000Z</time>
      </trkpt>
      <trkpt lat="47.30436" lon="-2.35654">
        <ele>38</ele>
        <time>2022-02-03T09:00:41.000Z</time>
      </trkpt>
      <trkpt lat="47.30461" lon="-2.35676">
        <ele>38</ele>
        <time>2022-02-03T09:00:46.000Z</time>
      </trkpt>
      <trkpt lat="47.30477" lon="-2.35689">
        <ele>38</ele>
        <time>2022-02-03T09:00:49.000Z</time>
      </trkpt>
      <trkpt lat="47.30491" lon="-2.35706">
        <ele>38</ele>
        <time>2022-02-03T09:00:52.000Z</time>
      </trkpt>
      <trkpt lat="47.3053" lon="-2.35758">
        <ele>38</ele>
        <time>2022-02-03T09:01:00.000Z</time>
      </trkpt>
      <trkpt lat="47.30564" lon="-2.35805">
        <ele>38</ele>
        <time>2022-02-03T09:01:07.000Z</time>
      </trkpt>
      <trkpt lat="47.30605" lon="-2.35852">
        <ele>38</ele>
        <time>2022-02-03T09:01:15.000Z</time>
      </trkpt>
      <trkpt lat="47.30634" lon="-2.35884">
        <ele>38</ele>
        <time>2022-02-03T09:01:21.000Z</time>
      </trkpt>
      <trkpt lat="47.30649" lon="-2.35897">
        <ele>38</ele>
        <time>2022-02-03T09:01:24.000Z</time>
      </trkpt>
      <trkpt lat="47.3066" lon="-2.35899">
        <ele>38</ele>
        <time>2022-02-03T09:01:26.000Z</time>
      </trkpt>
      <trkpt lat="47.30674" lon="-2.35886">
        <ele>38</ele>
        <time>2022-02-03T09:01:29.000Z</time>
      </trkpt>
      <trkpt lat="47.30679" lon="-2.35881">
        <ele>38.400001525879</ele>
        <time>2022-02-03T09:01:30.000Z</time>
      </trkpt>
      <trkpt lat="47.30684" lon="-2.35876">
        <ele>38.799999237061</ele>
        <time>2022-02-03T09:01:31.000Z</time>
      </trkpt>
      <trkpt lat="47.30688" lon="-2.35871">
        <ele>39.200000762939</ele>
        <time>2022-02-03T09:01:32.000Z</time>
      </trkpt>
      <trkpt lat="47.30693" lon="-2.35865">
        <ele>39.599998474121</ele>
        <time>2022-02-03T09:01:33.000Z</time>
      </trkpt>
      <trkpt lat="47.30697" lon="-2.3586">
        <ele>40</ele>
        <time>2022-02-03T09:01:34.000Z</time>
      </trkpt>
      <trkpt lat="47.30712" lon="-2.35845">
        <ele>40</ele>
        <time>2022-02-03T09:01:37.000Z</time>
      </trkpt>
      <trkpt lat="47.30749" lon="-2.35804">
        <ele>40</ele>
        <time>2022-02-03T09:01:45.000Z</time>
      </trkpt>
      <trkpt lat="47.30754" lon="-2.358">
        <ele>40</ele>
        <time>2022-02-03T09:01:46.000Z</time>
      </trkpt>
      <trkpt lat="47.30773" lon="-2.35799">
        <ele>40</ele>
        <time>2022-02-03T09:01:49.000Z</time>
      </trkpt>
      <trkpt lat="47.30791" lon="-2.35809">
        <ele>40</ele>
        <time>2022-02-03T09:01:52.000Z</time>
      </trkpt>
      <trkpt lat="47.30797" lon="-2.35813">
        <ele>40</ele>
        <time>2022-02-03T09:01:53.000Z</time>
      </trkpt>
      <trkpt lat="47.3085" lon="-2.35848">
        <ele>40</ele>
        <time>2022-02-03T09:02:02.000Z</time>
      </trkpt>
      <trkpt lat="47.30856" lon="-2.35851">
        <ele>40</ele>
        <time>2022-02-03T09:02:03.000Z</time>
      </trkpt>
      <trkpt lat="47.30882" lon="-2.35863">
        <ele>40</ele>
        <time>2022-02-03T09:02:07.000Z</time>
      </trkpt>
      <trkpt lat="47.30895" lon="-2.35864">
        <ele>40</ele>
        <time>2022-02-03T09:02:09.000Z</time>
      </trkpt>
      <trkpt lat="47.30921" lon="-2.35857">
        <ele>40</ele>
        <time>2022-02-03T09:02:13.000Z</time>
      </trkpt>
      <trkpt lat="47.30928" lon="-2.35854">
        <ele>40</ele>
        <time>2022-02-03T09:02:14.000Z</time>
      </trkpt>
      <trkpt lat="47.30973" lon="-2.35829">
        <ele>40</ele>
        <time>2022-02-03T09:02:21.000Z</time>
      </trkpt>
      <trkpt lat="47.31025" lon="-2.35807">
        <ele>40</ele>
        <time>2022-02-03T09:02:29.000Z</time>
      </trkpt>
      <trkpt lat="47.31069" lon="-2.35792">
        <ele>40</ele>
        <time>2022-02-03T09:02:36.000Z</time>
      </trkpt>
      <trkpt lat="47.31076" lon="-2.35791">
        <ele>40</ele>
        <time>2022-02-03T09:02:37.000Z</time>
      </trkpt>
      <trkpt lat="47.31116" lon="-2.35781">
        <ele>40</ele>
        <time>2022-02-03T09:02:43.000Z</time>
      </trkpt>
      <trkpt lat="47.31154" lon="-2.35772">
        <ele>40</ele>
        <time>2022-02-03T09:02:49.000Z</time>
      </trkpt>
      <trkpt lat="47.3116" lon="-2.35767">
        <ele>40</ele>
        <time>2022-02-03T09:02:50.000Z</time>
      </trkpt>
      <trkpt lat="47.31173" lon="-2.35747">
        <ele>40</ele>
        <time>2022-02-03T09:02:53.000Z</time>
      </trkpt>
      <trkpt lat="47.31181" lon="-2.35713">
        <ele>40</ele>
        <time>2022-02-03T09:02:57.000Z</time>
      </trkpt>
      <trkpt lat="47.31184" lon="-2.35698">
        <ele>40</ele>
        <time>2022-02-03T09:02:59.000Z</time>
      </trkpt>
      <trkpt lat="47.31192" lon="-2.35676">
        <ele>40</ele>
        <time>2022-02-03T09:03:02.000Z</time>
      </trkpt>
      <trkpt lat="47.31211" lon="-2.35651">
        <ele>40</ele>
        <time>2022-02-03T09:03:06.000Z</time>
      </trkpt>
      <trkpt lat="47.31229" lon="-2.35635">
        <ele>39.599998474121</ele>
        <time>2022-02-03T09:03:09.000Z</time>
      </trkpt>
      <trkpt lat="47.31235" lon="-2.3563">
        <ele>39.200000762939</ele>
        <time>2022-02-03T09:03:10.000Z</time>
      </trkpt>
      <trkpt lat="47.31241" lon="-2.35624">
        <ele>38.799999237061</ele>
        <time>2022-02-03T09:03:11.000Z</time>
      </trkpt>
      <trkpt lat="47.31247" lon="-2.35619">
        <ele>38.400001525879</ele>
        <time>2022-02-03T09:03:12.000Z</time>
      </trkpt>
      <trkpt lat="47.31253" lon="-2.35614">
        <ele>38</ele>
        <time>2022-02-03T09:03:13.000Z</time>
      </trkpt>
      <trkpt lat="47.31292" lon="-2.35581">
        <ele>38</ele>
        <time>2022-02-03T09:03:20.000Z</time>
      </trkpt>
      <trkpt lat="47.31323" lon="-2.35562">
        <ele>38</ele>
        <time>2022-02-03T09:03:26.000Z</time>
      </trkpt>
      <trkpt lat="47.31332" lon="-2.35557">
        <ele>38</ele>
        <time>2022-02-03T09:03:28.000Z</time>
      </trkpt>
      <trkpt lat="47.3135" lon="-2.35543">
        <ele>38</ele>
        <time>2022-02-03T09:03:32.000Z</time>
      </trkpt>
      <trkpt lat="47.31358" lon="-2.35538">
        <ele>37.599998474121</ele>
        <time>2022-02-03T09:03:34.000Z</time>
      </trkpt>
      <trkpt lat="47.31363" lon="-2.35535">
        <ele>37.200000762939</ele>
        <time>2022-02-03T09:03:35.000Z</time>
      </trkpt>
      <trkpt lat="47.31367" lon="-2.35533">
        <ele>36.799999237061</ele>
        <time>2022-02-03T09:03:36.000Z</time>
      </trkpt>
      <trkpt lat="47.31372" lon="-2.35531">
        <ele>36.400001525879</ele>
        <time>2022-02-03T09:03:37.000Z</time>
      </trkpt>
      <trkpt lat="47.31376" lon="-2.35528">
        <ele>36</ele>
        <time>2022-02-03T09:03:38.000Z</time>
      </trkpt>
      <trkpt lat="47.31397" lon="-2.35524">
        <ele>36</ele>
        <time>2022-02-03T09:03:42.000Z</time>
      </trkpt>
      <trkpt lat="47.31409" lon="-2.35524">
        <ele>36</ele>
        <time>2022-02-03T09:03:44.000Z</time>
      </trkpt>
      <trkpt lat="47.31433" lon="-2.35525">
        <ele>36</ele>
        <time>2022-02-03T09:03:48.000Z</time>
      </trkpt>
      <trkpt lat="47.31445" lon="-2.35525">
        <ele>36</ele>
        <time>2022-02-03T09:03:50.000Z</time>
      </trkpt>
      <trkpt lat="47.31459" lon="-2.35521">
        <ele>36</ele>
        <time>2022-02-03T09:03:53.000Z</time>
      </trkpt>
      <trkpt lat="47.31471" lon="-2.35519">
        <ele>36</ele>
        <time>2022-02-03T09:03:56.000Z</time>
      </trkpt>
      <trkpt lat="47.31478" lon="-2.35511">
        <ele>36</ele>
        <time>2022-02-03T09:03:58.000Z</time>
      </trkpt>
      <trkpt lat="47.31485" lon="-2.35487">
        <ele>36</ele>
        <time>2022-02-03T09:04:02.000Z</time>
      </trkpt>
      <trkpt lat="47.31486" lon="-2.3548">
        <ele>36</ele>
        <time>2022-02-03T09:04:03.000Z</time>
      </trkpt>
      <trkpt lat="47.31491" lon="-2.35448">
        <ele>36</ele>
        <time>2022-02-03T09:04:07.000Z</time>
      </trkpt>
      <trkpt lat="47.31506" lon="-2.35422">
        <ele>36</ele>
        <time>2022-02-03T09:04:11.000Z</time>
      </trkpt>
      <trkpt lat="47.31511" lon="-2.35417">
        <ele>36</ele>
        <time>2022-02-03T09:04:12.000Z</time>
      </trkpt>
      <trkpt lat="47.31536" lon="-2.35399">
        <ele>35.599998474121</ele>
        <time>2022-02-03T09:04:16.000Z</time>
      </trkpt>
      <trkpt lat="47.31542" lon="-2.35395">
        <ele>34.599998474121</ele>
        <time>2022-02-03T09:04:17.000Z</time>
      </trkpt>
      <trkpt lat="47.31548" lon="-2.35391">
        <ele>34.200000762939</ele>
        <time>2022-02-03T09:04:18.000Z</time>
      </trkpt>
      <trkpt lat="47.31554" lon="-2.35387">
        <ele>33.799999237061</ele>
        <time>2022-02-03T09:04:19.000Z</time>
      </trkpt>
      <trkpt lat="47.31578" lon="-2.35374">
        <ele>33.799999237061</ele>
        <time>2022-02-03T09:04:23.000Z</time>
      </trkpt>
      <trkpt lat="47.31619" lon="-2.3536">
        <ele>33.799999237061</ele>
        <time>2022-02-03T09:04:30.000Z</time>
      </trkpt>
      <trkpt lat="47.3163" lon="-2.35361">
        <ele>33.799999237061</ele>
        <time>2022-02-03T09:04:32.000Z</time>
      </trkpt>
      <trkpt lat="47.31648" lon="-2.35367">
        <ele>33.799999237061</ele>
        <time>2022-02-03T09:04:35.000Z</time>
      </trkpt>
      <trkpt lat="47.31661" lon="-2.35371">
        <ele>33.799999237061</ele>
        <time>2022-02-03T09:04:37.000Z</time>
      </trkpt>
      <trkpt lat="47.31678" lon="-2.35373">
        <ele>33.799999237061</ele>
        <time>2022-02-03T09:04:40.000Z</time>
      </trkpt>
      <trkpt lat="47.31706" lon="-2.3537">
        <ele>33.799999237061</ele>
        <time>2022-02-03T09:04:45.000Z</time>
      </trkpt>
      <trkpt lat="47.31711" lon="-2.35368">
        <ele>33.799999237061</ele>
        <time>2022-02-03T09:04:46.000Z</time>
      </trkpt>
      <trkpt lat="47.31721" lon="-2.35364">
        <ele>33.799999237061</ele>
        <time>2022-02-03T09:04:48.000Z</time>
      </trkpt>
      <trkpt lat="47.3173" lon="-2.35363">
        <ele>33.799999237061</ele>
        <time>2022-02-03T09:04:50.000Z</time>
      </trkpt>
      <trkpt lat="47.31735" lon="-2.35362">
        <ele>33.400001525879</ele>
        <time>2022-02-03T09:04:51.000Z</time>
      </trkpt>
      <trkpt lat="47.31739" lon="-2.35363">
        <ele>33</ele>
        <time>2022-02-03T09:04:52.000Z</time>
      </trkpt>
      <trkpt lat="47.31742" lon="-2.35364">
        <ele>32.599998474121</ele>
        <time>2022-02-03T09:04:53.000Z</time>
      </trkpt>
      <trkpt lat="47.31745" lon="-2.35367">
        <ele>32.200000762939</ele>
        <time>2022-02-03T09:04:54.000Z</time>
      </trkpt>
      <trkpt lat="47.31748" lon="-2.3537">
        <ele>31.799999237061</ele>
        <time>2022-02-03T09:04:55.000Z</time>
      </trkpt>
      <trkpt lat="47.31757" lon="-2.35383">
        <ele>31.799999237061</ele>
        <time>2022-02-03T09:04:58.000Z</time>
      </trkpt>
      <trkpt lat="47.31769" lon="-2.35403">
        <ele>31.39999961853</ele>
        <time>2022-02-03T09:05:02.000Z</time>
      </trkpt>
      <trkpt lat="47.31772" lon="-2.35407">
        <ele>31</ele>
        <time>2022-02-03T09:05:03.000Z</time>
      </trkpt>
      <trkpt lat="47.31775" lon="-2.35411">
        <ele>30.60000038147</ele>
        <time>2022-02-03T09:05:04.000Z</time>
      </trkpt>
      <trkpt lat="47.31778" lon="-2.35415">
        <ele>30.200000762939</ele>
        <time>2022-02-03T09:05:05.000Z</time>
      </trkpt>
      <trkpt lat="47.31781" lon="-2.35418">
        <ele>29.799999237061</ele>
        <time>2022-02-03T09:05:06.000Z</time>
      </trkpt>
      <trkpt lat="47.31789" lon="-2.35427">
        <ele>29.799999237061</ele>
        <time>2022-02-03T09:05:09.000Z</time>
      </trkpt>
      <trkpt lat="47.31794" lon="-2.35434">
        <ele>29.39999961853</ele>
        <time>2022-02-03T09:05:13.000Z</time>
      </trkpt>
      <trkpt lat="47.31794" lon="-2.35435">
        <ele>29</ele>
        <time>2022-02-03T09:05:14.000Z</time>
      </trkpt>
      <trkpt lat="47.31795" lon="-2.35436">
        <ele>28.60000038147</ele>
        <time>2022-02-03T09:05:15.000Z</time>
      </trkpt>
      <trkpt lat="47.318" lon="-2.35448">
        <ele>27.60000038147</ele>
        <time>2022-02-03T09:05:27.000Z</time>
      </trkpt>
      <trkpt lat="47.31802" lon="-2.35452">
        <ele>27.60000038147</ele>
        <time>2022-02-03T09:05:29.000Z</time>
      </trkpt>
      <trkpt lat="47.3181" lon="-2.35467">
        <ele>27.60000038147</ele>
        <time>2022-02-03T09:05:36.000Z</time>
      </trkpt>
      <trkpt lat="47.31816" lon="-2.35481">
        <ele>27.60000038147</ele>
        <time>2022-02-03T09:05:42.000Z</time>
      </trkpt>
      <trkpt lat="47.31825" lon="-2.355">
        <ele>27.60000038147</ele>
        <time>2022-02-03T09:05:48.000Z</time>
      </trkpt>
      <trkpt lat="47.31835" lon="-2.35519">
        <ele>27.60000038147</ele>
        <time>2022-02-03T09:05:55.000Z</time>
      </trkpt>
      <trkpt lat="47.31841" lon="-2.35541">
        <ele>27.60000038147</ele>
        <time>2022-02-03T09:06:01.000Z</time>
      </trkpt>
      <trkpt lat="47.31839" lon="-2.35551">
        <ele>27.60000038147</ele>
        <time>2022-02-03T09:06:06.000Z</time>
      </trkpt>
      <trkpt lat="47.31838" lon="-2.35554">
        <ele>27.60000038147</ele>
        <time>2022-02-03T09:06:08.000Z</time>
      </trkpt>
      <trkpt lat="47.31834" lon="-2.3556">
        <ele>27.60000038147</ele>
        <time>2022-02-03T09:06:13.000Z</time>
      </trkpt>
      <trkpt lat="47.31825" lon="-2.35567">
        <ele>27.60000038147</ele>
        <time>2022-02-03T09:06:19.000Z</time>
      </trkpt>
      <trkpt lat="47.31818" lon="-2.35577">
        <ele>27.60000038147</ele>
        <time>2022-02-03T09:06:25.000Z</time>
      </trkpt>
      <trkpt lat="47.31817" lon="-2.35579">
        <ele>27.60000038147</ele>
        <time>2022-02-03T09:06:26.000Z</time>
      </trkpt>
      <trkpt lat="47.3181" lon="-2.35592">
        <ele>27.60000038147</ele>
        <time>2022-02-03T09:06:31.000Z</time>
      </trkpt>
      <trkpt lat="47.31799" lon="-2.35609">
        <ele>27.60000038147</ele>
        <time>2022-02-03T09:06:36.000Z</time>
      </trkpt>
      <trkpt lat="47.31787" lon="-2.35633">
        <ele>27.60000038147</ele>
        <time>2022-02-03T09:06:42.000Z</time>
      </trkpt>
      <trkpt lat="47.31786" lon="-2.3565">
        <ele>27.60000038147</ele>
        <time>2022-02-03T09:06:47.000Z</time>
      </trkpt>
      <trkpt lat="47.31786" lon="-2.35652">
        <ele>27.60000038147</ele>
        <time>2022-02-03T09:06:49.000Z</time>
      </trkpt>
      <trkpt lat="47.31782" lon="-2.35678">
        <ele>29.799999237061</ele>
        <time>2022-02-03T09:07:54.000Z</time>
      </trkpt>
      <trkpt lat="47.31782" lon="-2.35681">
        <ele>29.799999237061</ele>
        <time>2022-02-03T09:07:55.000Z</time>
      </trkpt>
      <trkpt lat="47.31781" lon="-2.35702">
        <ele>29.799999237061</ele>
        <time>2022-02-03T09:08:00.000Z</time>
      </trkpt>
      <trkpt lat="47.3178" lon="-2.35717">
        <ele>30.200000762939</ele>
        <time>2022-02-03T09:08:03.000Z</time>
      </trkpt>
      <trkpt lat="47.3178" lon="-2.35722">
        <ele>30.60000038147</ele>
        <time>2022-02-03T09:08:04.000Z</time>
      </trkpt>
      <trkpt lat="47.3178" lon="-2.35728">
        <ele>31</ele>
        <time>2022-02-03T09:08:05.000Z</time>
      </trkpt>
      <trkpt lat="47.3178" lon="-2.35733">
        <ele>31.39999961853</ele>
        <time>2022-02-03T09:08:06.000Z</time>
      </trkpt>
      <trkpt lat="47.31779" lon="-2.3574">
        <ele>32</ele>
        <time>2022-02-03T09:08:07.000Z</time>
      </trkpt>
      <trkpt lat="47.31779" lon="-2.35746">
        <ele>32</ele>
        <time>2022-02-03T09:08:08.000Z</time>
      </trkpt>
      <trkpt lat="47.31781" lon="-2.35775">
        <ele>32</ele>
        <time>2022-02-03T09:08:12.000Z</time>
      </trkpt>
      <trkpt lat="47.31782" lon="-2.3578">
        <ele>32</ele>
        <time>2022-02-03T09:08:13.000Z</time>
      </trkpt>
      <trkpt lat="47.31792" lon="-2.35803">
        <ele>32</ele>
        <time>2022-02-03T09:08:17.000Z</time>
      </trkpt>
      <trkpt lat="47.31803" lon="-2.3582">
        <ele>32</ele>
        <time>2022-02-03T09:08:21.000Z</time>
      </trkpt>
      <trkpt lat="47.31809" lon="-2.35827">
        <ele>32</ele>
        <time>2022-02-03T09:08:25.000Z</time>
      </trkpt>
      <trkpt lat="47.31812" lon="-2.35832">
        <ele>32</ele>
        <time>2022-02-03T09:08:29.000Z</time>
      </trkpt>
      <trkpt lat="47.31813" lon="-2.35834">
        <ele>32</ele>
        <time>2022-02-03T09:08:30.000Z</time>
      </trkpt>
      <trkpt lat="47.31814" lon="-2.35837">
        <ele>32</ele>
        <time>2022-02-03T09:08:31.000Z</time>
      </trkpt>
      <trkpt lat="47.3182" lon="-2.35848">
        <ele>32</ele>
        <time>2022-02-03T09:08:36.000Z</time>
      </trkpt>
      <trkpt lat="47.31823" lon="-2.35871">
        <ele>32</ele>
        <time>2022-02-03T09:08:41.000Z</time>
      </trkpt>
      <trkpt lat="47.31821" lon="-2.35875">
        <ele>32</ele>
        <time>2022-02-03T09:08:42.000Z</time>
      </trkpt>
      <trkpt lat="47.31815" lon="-2.35882">
        <ele>32</ele>
        <time>2022-02-03T09:08:45.000Z</time>
      </trkpt>
      <trkpt lat="47.31804" lon="-2.35888">
        <ele>32.400001525879</ele>
        <time>2022-02-03T09:08:48.000Z</time>
      </trkpt>
      <trkpt lat="47.318" lon="-2.3589">
        <ele>32.799999237061</ele>
        <time>2022-02-03T09:08:49.000Z</time>
      </trkpt>
      <trkpt lat="47.31796" lon="-2.35892">
        <ele>33.200000762939</ele>
        <time>2022-02-03T09:08:50.000Z</time>
      </trkpt>
      <trkpt lat="47.31791" lon="-2.35895">
        <ele>34</ele>
        <time>2022-02-03T09:08:51.000Z</time>
      </trkpt>
      <trkpt lat="47.31761" lon="-2.35912">
        <ele>34</ele>
        <time>2022-02-03T09:08:58.000Z</time>
      </trkpt>
      <trkpt lat="47.31727" lon="-2.35935">
        <ele>34</ele>
        <time>2022-02-03T09:09:06.000Z</time>
      </trkpt>
      <trkpt lat="47.31723" lon="-2.35938">
        <ele>34.400001525879</ele>
        <time>2022-02-03T09:09:07.000Z</time>
      </trkpt>
      <trkpt lat="47.31718" lon="-2.35941">
        <ele>34.799999237061</ele>
        <time>2022-02-03T09:09:08.000Z</time>
      </trkpt>
      <trkpt lat="47.31714" lon="-2.35943">
        <ele>35.200000762939</ele>
        <time>2022-02-03T09:09:09.000Z</time>
      </trkpt>
      <trkpt lat="47.31709" lon="-2.35946">
        <ele>35.599998474121</ele>
        <time>2022-02-03T09:09:10.000Z</time>
      </trkpt>
      <trkpt lat="47.31705" lon="-2.35947">
        <ele>36</ele>
        <time>2022-02-03T09:09:11.000Z</time>
      </trkpt>
      <trkpt lat="47.31696" lon="-2.35951">
        <ele>36</ele>
        <time>2022-02-03T09:09:13.000Z</time>
      </trkpt>
      <trkpt lat="47.31692" lon="-2.35954">
        <ele>36</ele>
        <time>2022-02-03T09:09:14.000Z</time>
      </trkpt>
      <trkpt lat="47.31676" lon="-2.35962">
        <ele>36</ele>
        <time>2022-02-03T09:09:18.000Z</time>
      </trkpt>
      <trkpt lat="47.31649" lon="-2.35981">
        <ele>36</ele>
        <time>2022-02-03T09:09:25.000Z</time>
      </trkpt>
      <trkpt lat="47.31638" lon="-2.35991">
        <ele>36.400001525879</ele>
        <time>2022-02-03T09:09:28.000Z</time>
      </trkpt>
      <trkpt lat="47.31634" lon="-2.35995">
        <ele>36.799999237061</ele>
        <time>2022-02-03T09:09:29.000Z</time>
      </trkpt>
      <trkpt lat="47.31631" lon="-2.35999">
        <ele>37.200000762939</ele>
        <time>2022-02-03T09:09:30.000Z</time>
      </trkpt>
      <trkpt lat="47.31628" lon="-2.36003">
        <ele>37.599998474121</ele>
        <time>2022-02-03T09:09:31.000Z</time>
      </trkpt>
      <trkpt lat="47.31624" lon="-2.36007">
        <ele>38</ele>
        <time>2022-02-03T09:09:32.000Z</time>
      </trkpt>
      <trkpt lat="47.31603" lon="-2.36029">
        <ele>38</ele>
        <time>2022-02-03T09:09:38.000Z</time>
      </trkpt>
      <trkpt lat="47.31596" lon="-2.36036">
        <ele>38</ele>
        <time>2022-02-03T09:09:40.000Z</time>
      </trkpt>
      <trkpt lat="47.31577" lon="-2.36053">
        <ele>38</ele>
        <time>2022-02-03T09:09:45.000Z</time>
      </trkpt>
      <trkpt lat="47.31571" lon="-2.36061">
        <ele>38</ele>
        <time>2022-02-03T09:09:47.000Z</time>
      </trkpt>
      <trkpt lat="47.3156" lon="-2.36071">
        <ele>38</ele>
        <time>2022-02-03T09:09:50.000Z</time>
      </trkpt>
      <trkpt lat="47.31557" lon="-2.36074">
        <ele>38.400001525879</ele>
        <time>2022-02-03T09:09:51.000Z</time>
      </trkpt>
      <trkpt lat="47.31553" lon="-2.36078">
        <ele>38.799999237061</ele>
        <time>2022-02-03T09:09:52.000Z</time>
      </trkpt>
      <trkpt lat="47.31549" lon="-2.36083">
        <ele>39.200000762939</ele>
        <time>2022-02-03T09:09:53.000Z</time>
      </trkpt>
      <trkpt lat="47.31546" lon="-2.36087">
        <ele>39.599998474121</ele>
        <time>2022-02-03T09:09:54.000Z</time>
      </trkpt>
      <trkpt lat="47.31543" lon="-2.3609">
        <ele>40</ele>
        <time>2022-02-03T09:09:55.000Z</time>
      </trkpt>
      <trkpt lat="47.31539" lon="-2.36094">
        <ele>40</ele>
        <time>2022-02-03T09:09:56.000Z</time>
      </trkpt>
      <trkpt lat="47.31516" lon="-2.36119">
        <ele>40</ele>
        <time>2022-02-03T09:10:02.000Z</time>
      </trkpt>
      <trkpt lat="47.31495" lon="-2.36144">
        <ele>40</ele>
        <time>2022-02-03T09:10:08.000Z</time>
      </trkpt>
      <trkpt lat="47.31467" lon="-2.36174">
        <ele>40</ele>
        <time>2022-02-03T09:10:16.000Z</time>
      </trkpt>
      <trkpt lat="47.31464" lon="-2.36184">
        <ele>40</ele>
        <time>2022-02-03T09:10:18.000Z</time>
      </trkpt>
      <trkpt lat="47.31464" lon="-2.36196">
        <ele>40</ele>
        <time>2022-02-03T09:10:20.000Z</time>
      </trkpt>
      <trkpt lat="47.31467" lon="-2.36208">
        <ele>40</ele>
        <time>2022-02-03T09:10:22.000Z</time>
      </trkpt>
      <trkpt lat="47.31472" lon="-2.36229">
        <ele>40</ele>
        <time>2022-02-03T09:10:25.000Z</time>
      </trkpt>
      <trkpt lat="47.31481" lon="-2.36273">
        <ele>40</ele>
        <time>2022-02-03T09:10:31.000Z</time>
      </trkpt>
      <trkpt lat="47.31492" lon="-2.36327">
        <ele>39.599998474121</ele>
        <time>2022-02-03T09:10:38.000Z</time>
      </trkpt>
      <trkpt lat="47.31492" lon="-2.36335">
        <ele>39.200000762939</ele>
        <time>2022-02-03T09:10:39.000Z</time>
      </trkpt>
      <trkpt lat="47.31492" lon="-2.36343">
        <ele>38.799999237061</ele>
        <time>2022-02-03T09:10:40.000Z</time>
      </trkpt>
      <trkpt lat="47.31492" lon="-2.3635">
        <ele>38.400001525879</ele>
        <time>2022-02-03T09:10:41.000Z</time>
      </trkpt>
      <trkpt lat="47.31492" lon="-2.36357">
        <ele>38</ele>
        <time>2022-02-03T09:10:42.000Z</time>
      </trkpt>
      <trkpt lat="47.31492" lon="-2.36371">
        <ele>38</ele>
        <time>2022-02-03T09:10:44.000Z</time>
      </trkpt>
      <trkpt lat="47.31493" lon="-2.36401">
        <ele>37.599998474121</ele>
        <time>2022-02-03T09:10:48.000Z</time>
      </trkpt>
      <trkpt lat="47.31493" lon="-2.36409">
        <ele>37.200000762939</ele>
        <time>2022-02-03T09:10:49.000Z</time>
      </trkpt>
      <trkpt lat="47.31494" lon="-2.36418">
        <ele>36.799999237061</ele>
        <time>2022-02-03T09:10:50.000Z</time>
      </trkpt>
      <trkpt lat="47.31495" lon="-2.36426">
        <ele>36.400001525879</ele>
        <time>2022-02-03T09:10:51.000Z</time>
      </trkpt>
      <trkpt lat="47.31495" lon="-2.36434">
        <ele>36</ele>
        <time>2022-02-03T09:10:52.000Z</time>
      </trkpt>
      <trkpt lat="47.31496" lon="-2.3645">
        <ele>35.200000762939</ele>
        <time>2022-02-03T09:10:54.000Z</time>
      </trkpt>
      <trkpt lat="47.31497" lon="-2.36458">
        <ele>34.799999237061</ele>
        <time>2022-02-03T09:10:55.000Z</time>
      </trkpt>
      <trkpt lat="47.31497" lon="-2.36465">
        <ele>34.200000762939</ele>
        <time>2022-02-03T09:10:56.000Z</time>
      </trkpt>
      <trkpt lat="47.31498" lon="-2.36471">
        <ele>33.799999237061</ele>
        <time>2022-02-03T09:10:57.000Z</time>
      </trkpt>
      <trkpt lat="47.31499" lon="-2.36478">
        <ele>33.799999237061</ele>
        <time>2022-02-03T09:10:58.000Z</time>
      </trkpt>
      <trkpt lat="47.31499" lon="-2.36496">
        <ele>33.799999237061</ele>
        <time>2022-02-03T09:11:01.000Z</time>
      </trkpt>
      <trkpt lat="47.31498" lon="-2.36501">
        <ele>33.799999237061</ele>
        <time>2022-02-03T09:11:02.000Z</time>
      </trkpt>
      <trkpt lat="47.31499" lon="-2.36526">
        <ele>33.799999237061</ele>
        <time>2022-02-03T09:11:06.000Z</time>
      </trkpt>
      <trkpt lat="47.31498" lon="-2.36532">
        <ele>33.400001525879</ele>
        <time>2022-02-03T09:11:07.000Z</time>
      </trkpt>
      <trkpt lat="47.31499" lon="-2.36537">
        <ele>33</ele>
        <time>2022-02-03T09:11:08.000Z</time>
      </trkpt>
      <trkpt lat="47.31499" lon="-2.36543">
        <ele>32.599998474121</ele>
        <time>2022-02-03T09:11:09.000Z</time>
      </trkpt>
      <trkpt lat="47.315" lon="-2.36548">
        <ele>32.200000762939</ele>
        <time>2022-02-03T09:11:10.000Z</time>
      </trkpt>
      <trkpt lat="47.315" lon="-2.36553">
        <ele>31.799999237061</ele>
        <time>2022-02-03T09:11:11.000Z</time>
      </trkpt>
      <trkpt lat="47.31498" lon="-2.36576">
        <ele>31.799999237061</ele>
        <time>2022-02-03T09:11:15.000Z</time>
      </trkpt>
      <trkpt lat="47.31498" lon="-2.36606">
        <ele>31.799999237061</ele>
        <time>2022-02-03T09:11:20.000Z</time>
      </trkpt>
      <trkpt lat="47.31506" lon="-2.36631">
        <ele>31.799999237061</ele>
        <time>2022-02-03T09:11:24.000Z</time>
      </trkpt>
      <trkpt lat="47.31509" lon="-2.36637">
        <ele>31.799999237061</ele>
        <time>2022-02-03T09:11:25.000Z</time>
      </trkpt>
      <trkpt lat="47.31513" lon="-2.3665">
        <ele>31.799999237061</ele>
        <time>2022-02-03T09:11:27.000Z</time>
      </trkpt>
      <trkpt lat="47.3152" lon="-2.36676">
        <ele>31.799999237061</ele>
        <time>2022-02-03T09:11:31.000Z</time>
      </trkpt>
      <trkpt lat="47.31525" lon="-2.36695">
        <ele>31.799999237061</ele>
        <time>2022-02-03T09:11:34.000Z</time>
      </trkpt>
      <trkpt lat="47.31533" lon="-2.36721">
        <ele>31.799999237061</ele>
        <time>2022-02-03T09:11:38.000Z</time>
      </trkpt>
      <trkpt lat="47.3154" lon="-2.36757">
        <ele>32.599998474121</ele>
        <time>2022-02-03T09:11:44.000Z</time>
      </trkpt>
      <trkpt lat="47.31541" lon="-2.36763">
        <ele>33</ele>
        <time>2022-02-03T09:11:45.000Z</time>
      </trkpt>
      <trkpt lat="47.31542" lon="-2.36769">
        <ele>33.400001525879</ele>
        <time>2022-02-03T09:11:46.000Z</time>
      </trkpt>
      <trkpt lat="47.31544" lon="-2.36775">
        <ele>33.799999237061</ele>
        <time>2022-02-03T09:11:47.000Z</time>
      </trkpt>
      <trkpt lat="47.31551" lon="-2.36804">
        <ele>33.799999237061</ele>
        <time>2022-02-03T09:11:52.000Z</time>
      </trkpt>
      <trkpt lat="47.31555" lon="-2.36816">
        <ele>34.400001525879</ele>
        <time>2022-02-03T09:11:54.000Z</time>
      </trkpt>
      <trkpt lat="47.31556" lon="-2.36822">
        <ele>34.799999237061</ele>
        <time>2022-02-03T09:11:55.000Z</time>
      </trkpt>
      <trkpt lat="47.31557" lon="-2.36828">
        <ele>35.200000762939</ele>
        <time>2022-02-03T09:11:56.000Z</time>
      </trkpt>
      <trkpt lat="47.31558" lon="-2.36835">
        <ele>35.799999237061</ele>
        <time>2022-02-03T09:11:57.000Z</time>
      </trkpt>
      <trkpt lat="47.31559" lon="-2.36841">
        <ele>36.200000762939</ele>
        <time>2022-02-03T09:11:58.000Z</time>
      </trkpt>
      <trkpt lat="47.31561" lon="-2.36847">
        <ele>36.200000762939</ele>
        <time>2022-02-03T09:11:59.000Z</time>
      </trkpt>
      <trkpt lat="47.3157" lon="-2.36879">
        <ele>36.200000762939</ele>
        <time>2022-02-03T09:12:04.000Z</time>
      </trkpt>
      <trkpt lat="47.31571" lon="-2.36884">
        <ele>36.599998474121</ele>
        <time>2022-02-03T09:12:05.000Z</time>
      </trkpt>
      <trkpt lat="47.31573" lon="-2.3689">
        <ele>37</ele>
        <time>2022-02-03T09:12:06.000Z</time>
      </trkpt>
      <trkpt lat="47.31575" lon="-2.36896">
        <ele>37.400001525879</ele>
        <time>2022-02-03T09:12:07.000Z</time>
      </trkpt>
      <trkpt lat="47.31577" lon="-2.36902">
        <ele>37.799999237061</ele>
        <time>2022-02-03T09:12:08.000Z</time>
      </trkpt>
      <trkpt lat="47.31579" lon="-2.36907">
        <ele>38.200000762939</ele>
        <time>2022-02-03T09:12:09.000Z</time>
      </trkpt>
      <trkpt lat="47.31584" lon="-2.36923">
        <ele>38.200000762939</ele>
        <time>2022-02-03T09:12:12.000Z</time>
      </trkpt>
      <trkpt lat="47.31585" lon="-2.36928">
        <ele>38.799999237061</ele>
        <time>2022-02-03T09:12:13.000Z</time>
      </trkpt>
      <trkpt lat="47.31587" lon="-2.36933">
        <ele>39.200000762939</ele>
        <time>2022-02-03T09:12:14.000Z</time>
      </trkpt>
      <trkpt lat="47.31588" lon="-2.36939">
        <ele>39.599998474121</ele>
        <time>2022-02-03T09:12:15.000Z</time>
      </trkpt>
      <trkpt lat="47.3159" lon="-2.36945">
        <ele>40</ele>
        <time>2022-02-03T09:12:16.000Z</time>
      </trkpt>
      <trkpt lat="47.31591" lon="-2.3695">
        <ele>40.400001525879</ele>
        <time>2022-02-03T09:12:17.000Z</time>
      </trkpt>
      <trkpt lat="47.31596" lon="-2.36967">
        <ele>40.400001525879</ele>
        <time>2022-02-03T09:12:20.000Z</time>
      </trkpt>
      <trkpt lat="47.31611" lon="-2.37012">
        <ele>40.799999237061</ele>
        <time>2022-02-03T09:12:28.000Z</time>
      </trkpt>
      <trkpt lat="47.31613" lon="-2.37018">
        <ele>41.200000762939</ele>
        <time>2022-02-03T09:12:29.000Z</time>
      </trkpt>
      <trkpt lat="47.31615" lon="-2.37024">
        <ele>41.599998474121</ele>
        <time>2022-02-03T09:12:30.000Z</time>
      </trkpt>
      <trkpt lat="47.31617" lon="-2.37029">
        <ele>42</ele>
        <time>2022-02-03T09:12:31.000Z</time>
      </trkpt>
      <trkpt lat="47.31619" lon="-2.37035">
        <ele>42.400001525879</ele>
        <time>2022-02-03T09:12:32.000Z</time>
      </trkpt>
      <trkpt lat="47.31624" lon="-2.37046">
        <ele>42.400001525879</ele>
        <time>2022-02-03T09:12:34.000Z</time>
      </trkpt>
      <trkpt lat="47.31639" lon="-2.37076">
        <ele>42.400001525879</ele>
        <time>2022-02-03T09:12:40.000Z</time>
      </trkpt>
      <trkpt lat="47.31656" lon="-2.3711">
        <ele>42.400001525879</ele>
        <time>2022-02-03T09:12:46.000Z</time>
      </trkpt>
      <trkpt lat="47.31674" lon="-2.37144">
        <ele>42.799999237061</ele>
        <time>2022-02-03T09:12:52.000Z</time>
      </trkpt>
      <trkpt lat="47.31677" lon="-2.3715">
        <ele>43.200000762939</ele>
        <time>2022-02-03T09:12:53.000Z</time>
      </trkpt>
      <trkpt lat="47.3168" lon="-2.37156">
        <ele>43.599998474121</ele>
        <time>2022-02-03T09:12:54.000Z</time>
      </trkpt>
      <trkpt lat="47.31682" lon="-2.37162">
        <ele>44</ele>
        <time>2022-02-03T09:12:55.000Z</time>
      </trkpt>
      <trkpt lat="47.31685" lon="-2.37169">
        <ele>44.400001525879</ele>
        <time>2022-02-03T09:12:56.000Z</time>
      </trkpt>
      <trkpt lat="47.31689" lon="-2.37184">
        <ele>44.400001525879</ele>
        <time>2022-02-03T09:12:58.000Z</time>
      </trkpt>
      <trkpt lat="47.31691" lon="-2.37199">
        <ele>44.400001525879</ele>
        <time>2022-02-03T09:13:00.000Z</time>
      </trkpt>
      <trkpt lat="47.31688" lon="-2.37216">
        <ele>44.400001525879</ele>
        <time>2022-02-03T09:13:02.000Z</time>
      </trkpt>
      <trkpt lat="47.31674" lon="-2.37241">
        <ele>44.400001525879</ele>
        <time>2022-02-03T09:13:06.000Z</time>
      </trkpt>
      <trkpt lat="47.31665" lon="-2.37251">
        <ele>44.400001525879</ele>
        <time>2022-02-03T09:13:08.000Z</time>
      </trkpt>
      <trkpt lat="47.31646" lon="-2.37267">
        <ele>44.400001525879</ele>
        <time>2022-02-03T09:13:12.000Z</time>
      </trkpt>
      <trkpt lat="47.31628" lon="-2.37288">
        <ele>44.400001525879</ele>
        <time>2022-02-03T09:13:16.000Z</time>
      </trkpt>
      <trkpt lat="47.31622" lon="-2.37303">
        <ele>44.400001525879</ele>
        <time>2022-02-03T09:13:18.000Z</time>
      </trkpt>
      <trkpt lat="47.3162" lon="-2.37329">
        <ele>44.400001525879</ele>
        <time>2022-02-03T09:13:21.000Z</time>
      </trkpt>
      <trkpt lat="47.31627" lon="-2.37364">
        <ele>44.400001525879</ele>
        <time>2022-02-03T09:13:25.000Z</time>
      </trkpt>
      <trkpt lat="47.31635" lon="-2.37416">
        <ele>44.400001525879</ele>
        <time>2022-02-03T09:13:31.000Z</time>
      </trkpt>
      <trkpt lat="47.31636" lon="-2.37434">
        <ele>44.400001525879</ele>
        <time>2022-02-03T09:13:33.000Z</time>
      </trkpt>
      <trkpt lat="47.31637" lon="-2.37463">
        <ele>44</ele>
        <time>2022-02-03T09:13:36.000Z</time>
      </trkpt>
      <trkpt lat="47.31637" lon="-2.37473">
        <ele>43.599998474121</ele>
        <time>2022-02-03T09:13:37.000Z</time>
      </trkpt>
      <trkpt lat="47.31637" lon="-2.37483">
        <ele>43.200000762939</ele>
        <time>2022-02-03T09:13:38.000Z</time>
      </trkpt>
      <trkpt lat="47.31637" lon="-2.37492">
        <ele>42.799999237061</ele>
        <time>2022-02-03T09:13:39.000Z</time>
      </trkpt>
      <trkpt lat="47.31636" lon="-2.37502">
        <ele>42.400001525879</ele>
        <time>2022-02-03T09:13:40.000Z</time>
      </trkpt>
      <trkpt lat="47.31631" lon="-2.37519">
        <ele>42.400001525879</ele>
        <time>2022-02-03T09:13:42.000Z</time>
      </trkpt>
      <trkpt lat="47.31616" lon="-2.3758">
        <ele>42.400001525879</ele>
        <time>2022-02-03T09:13:49.000Z</time>
      </trkpt>
      <trkpt lat="47.31615" lon="-2.37589">
        <ele>42.400001525879</ele>
        <time>2022-02-03T09:13:50.000Z</time>
      </trkpt>
      <trkpt lat="47.31617" lon="-2.37624">
        <ele>42.400001525879</ele>
        <time>2022-02-03T09:13:54.000Z</time>
      </trkpt>
      <trkpt lat="47.31621" lon="-2.37641">
        <ele>42.400001525879</ele>
        <time>2022-02-03T09:13:56.000Z</time>
      </trkpt>
      <trkpt lat="47.31629" lon="-2.37654">
        <ele>42.400001525879</ele>
        <time>2022-02-03T09:13:58.000Z</time>
      </trkpt>
      <trkpt lat="47.31651" lon="-2.37668">
        <ele>42.400001525879</ele>
        <time>2022-02-03T09:14:02.000Z</time>
      </trkpt>
      <trkpt lat="47.31656" lon="-2.37673">
        <ele>42.400001525879</ele>
        <time>2022-02-03T09:14:03.000Z</time>
      </trkpt>
      <trkpt lat="47.31674" lon="-2.37692">
        <ele>42.400001525879</ele>
        <time>2022-02-03T09:14:07.000Z</time>
      </trkpt>
      <trkpt lat="47.31689" lon="-2.37706">
        <ele>42.400001525879</ele>
        <time>2022-02-03T09:14:10.000Z</time>
      </trkpt>
      <trkpt lat="47.317" lon="-2.37711">
        <ele>42.400001525879</ele>
        <time>2022-02-03T09:14:12.000Z</time>
      </trkpt>
      <trkpt lat="47.31725" lon="-2.37713">
        <ele>42.400001525879</ele>
        <time>2022-02-03T09:14:16.000Z</time>
      </trkpt>
      <trkpt lat="47.31744" lon="-2.37705">
        <ele>42.400001525879</ele>
        <time>2022-02-03T09:14:19.000Z</time>
      </trkpt>
      <trkpt lat="47.31755" lon="-2.37697">
        <ele>42.400001525879</ele>
        <time>2022-02-03T09:14:21.000Z</time>
      </trkpt>
      <trkpt lat="47.3176" lon="-2.37692">
        <ele>42</ele>
        <time>2022-02-03T09:14:22.000Z</time>
      </trkpt>
      <trkpt lat="47.31765" lon="-2.37688">
        <ele>41.599998474121</ele>
        <time>2022-02-03T09:14:23.000Z</time>
      </trkpt>
      <trkpt lat="47.31771" lon="-2.37683">
        <ele>41.200000762939</ele>
        <time>2022-02-03T09:14:24.000Z</time>
      </trkpt>
      <trkpt lat="47.31776" lon="-2.37678">
        <ele>40.599998474121</ele>
        <time>2022-02-03T09:14:25.000Z</time>
      </trkpt>
      <trkpt lat="47.31781" lon="-2.37673">
        <ele>40.200000762939</ele>
        <time>2022-02-03T09:14:26.000Z</time>
      </trkpt>
      <trkpt lat="47.31792" lon="-2.37664">
        <ele>40.200000762939</ele>
        <time>2022-02-03T09:14:28.000Z</time>
      </trkpt>
      <trkpt lat="47.31814" lon="-2.3765">
        <ele>40.200000762939</ele>
        <time>2022-02-03T09:14:32.000Z</time>
      </trkpt>
      <trkpt lat="47.3182" lon="-2.37651">
        <ele>40.200000762939</ele>
        <time>2022-02-03T09:14:33.000Z</time>
      </trkpt>
      <trkpt lat="47.31828" lon="-2.37666">
        <ele>40.200000762939</ele>
        <time>2022-02-03T09:14:36.000Z</time>
      </trkpt>
      <trkpt lat="47.31824" lon="-2.37688">
        <ele>40.200000762939</ele>
        <time>2022-02-03T09:14:39.000Z</time>
      </trkpt>
      <trkpt lat="47.31821" lon="-2.37704">
        <ele>40.200000762939</ele>
        <time>2022-02-03T09:14:41.000Z</time>
      </trkpt>
      <trkpt lat="47.31816" lon="-2.37737">
        <ele>40.200000762939</ele>
        <time>2022-02-03T09:14:45.000Z</time>
      </trkpt>
      <trkpt lat="47.31811" lon="-2.37792">
        <ele>40.200000762939</ele>
        <time>2022-02-03T09:14:51.000Z</time>
      </trkpt>
      <trkpt lat="47.31805" lon="-2.37853">
        <ele>40.200000762939</ele>
        <time>2022-02-03T09:14:57.000Z</time>
      </trkpt>
      <trkpt lat="47.318" lon="-2.37897">
        <ele>39.799999237061</ele>
        <time>2022-02-03T09:15:01.000Z</time>
      </trkpt>
      <trkpt lat="47.31799" lon="-2.37908">
        <ele>39</ele>
        <time>2022-02-03T09:15:02.000Z</time>
      </trkpt>
      <trkpt lat="47.31798" lon="-2.3792">
        <ele>38.400001525879</ele>
        <time>2022-02-03T09:15:03.000Z</time>
      </trkpt>
      <trkpt lat="47.31797" lon="-2.37931">
        <ele>38</ele>
        <time>2022-02-03T09:15:04.000Z</time>
      </trkpt>
      <trkpt lat="47.31796" lon="-2.37942">
        <ele>38</ele>
        <time>2022-02-03T09:15:05.000Z</time>
      </trkpt>
      <trkpt lat="47.31796" lon="-2.37977">
        <ele>37.599998474121</ele>
        <time>2022-02-03T09:15:08.000Z</time>
      </trkpt>
      <trkpt lat="47.31796" lon="-2.37988">
        <ele>37.200000762939</ele>
        <time>2022-02-03T09:15:09.000Z</time>
      </trkpt>
      <trkpt lat="47.31796" lon="-2.38">
        <ele>36.599998474121</ele>
        <time>2022-02-03T09:15:10.000Z</time>
      </trkpt>
      <trkpt lat="47.31796" lon="-2.38011">
        <ele>36.200000762939</ele>
        <time>2022-02-03T09:15:11.000Z</time>
      </trkpt>
      <trkpt lat="47.31796" lon="-2.38023">
        <ele>35.799999237061</ele>
        <time>2022-02-03T09:15:12.000Z</time>
      </trkpt>
      <trkpt lat="47.318" lon="-2.38079">
        <ele>35.799999237061</ele>
        <time>2022-02-03T09:15:17.000Z</time>
      </trkpt>
      <trkpt lat="47.31804" lon="-2.38152">
        <ele>35.799999237061</ele>
        <time>2022-02-03T09:15:24.000Z</time>
      </trkpt>
      <trkpt lat="47.31807" lon="-2.38219">
        <ele>35.799999237061</ele>
        <time>2022-02-03T09:15:31.000Z</time>
      </trkpt>
      <trkpt lat="47.31809" lon="-2.38289">
        <ele>36.200000762939</ele>
        <time>2022-02-03T09:15:39.000Z</time>
      </trkpt>
      <trkpt lat="47.31809" lon="-2.38298">
        <ele>36.599998474121</ele>
        <time>2022-02-03T09:15:40.000Z</time>
      </trkpt>
      <trkpt lat="47.3181" lon="-2.38306">
        <ele>37</ele>
        <time>2022-02-03T09:15:41.000Z</time>
      </trkpt>
      <trkpt lat="47.3181" lon="-2.38315">
        <ele>37.400001525879</ele>
        <time>2022-02-03T09:15:42.000Z</time>
      </trkpt>
      <trkpt lat="47.3181" lon="-2.38323">
        <ele>37.799999237061</ele>
        <time>2022-02-03T09:15:43.000Z</time>
      </trkpt>
      <trkpt lat="47.31811" lon="-2.38365">
        <ele>37.799999237061</ele>
        <time>2022-02-03T09:15:48.000Z</time>
      </trkpt>
      <trkpt lat="47.31811" lon="-2.38382">
        <ele>38.200000762939</ele>
        <time>2022-02-03T09:15:50.000Z</time>
      </trkpt>
      <trkpt lat="47.31812" lon="-2.38389">
        <ele>39</ele>
        <time>2022-02-03T09:15:51.000Z</time>
      </trkpt>
      <trkpt lat="47.31811" lon="-2.38398">
        <ele>39.400001525879</ele>
        <time>2022-02-03T09:15:52.000Z</time>
      </trkpt>
      <trkpt lat="47.31811" lon="-2.38406">
        <ele>39.799999237061</ele>
        <time>2022-02-03T09:15:53.000Z</time>
      </trkpt>
      <trkpt lat="47.31811" lon="-2.38414">
        <ele>39.799999237061</ele>
        <time>2022-02-03T09:15:54.000Z</time>
      </trkpt>
      <trkpt lat="47.31812" lon="-2.38478">
        <ele>39.799999237061</ele>
        <time>2022-02-03T09:16:02.000Z</time>
      </trkpt>
      <trkpt lat="47.31812" lon="-2.38501">
        <ele>40.200000762939</ele>
        <time>2022-02-03T09:16:05.000Z</time>
      </trkpt>
      <trkpt lat="47.31811" lon="-2.38507">
        <ele>40.599998474121</ele>
        <time>2022-02-03T09:16:06.000Z</time>
      </trkpt>
      <trkpt lat="47.31811" lon="-2.38513">
        <ele>41.200000762939</ele>
        <time>2022-02-03T09:16:07.000Z</time>
      </trkpt>
      <trkpt lat="47.3181" lon="-2.38519">
        <ele>41.599998474121</ele>
        <time>2022-02-03T09:16:08.000Z</time>
      </trkpt>
      <trkpt lat="47.3181" lon="-2.38525">
        <ele>42</ele>
        <time>2022-02-03T09:16:09.000Z</time>
      </trkpt>
      <trkpt lat="47.31813" lon="-2.38533">
        <ele>42</ele>
        <time>2022-02-03T09:16:11.000Z</time>
      </trkpt>
      <trkpt lat="47.31817" lon="-2.38537">
        <ele>42</ele>
        <time>2022-02-03T09:16:12.000Z</time>
      </trkpt>
      <trkpt lat="47.31828" lon="-2.38536">
        <ele>42</ele>
        <time>2022-02-03T09:16:15.000Z</time>
      </trkpt>
      <trkpt lat="47.31837" lon="-2.38533">
        <ele>42</ele>
        <time>2022-02-03T09:16:17.000Z</time>
      </trkpt>
      <trkpt lat="47.3186" lon="-2.38525">
        <ele>42</ele>
        <time>2022-02-03T09:16:22.000Z</time>
      </trkpt>
      <trkpt lat="47.3187" lon="-2.3852">
        <ele>41.599998474121</ele>
        <time>2022-02-03T09:16:24.000Z</time>
      </trkpt>
      <trkpt lat="47.31875" lon="-2.38518">
        <ele>41.200000762939</ele>
        <time>2022-02-03T09:16:25.000Z</time>
      </trkpt>
      <trkpt lat="47.31881" lon="-2.38516">
        <ele>40.799999237061</ele>
        <time>2022-02-03T09:16:26.000Z</time>
      </trkpt>
      <trkpt lat="47.31886" lon="-2.38514">
        <ele>40.200000762939</ele>
        <time>2022-02-03T09:16:27.000Z</time>
      </trkpt>
      <trkpt lat="47.31891" lon="-2.38512">
        <ele>39.799999237061</ele>
        <time>2022-02-03T09:16:28.000Z</time>
      </trkpt>
      <trkpt lat="47.31896" lon="-2.38509">
        <ele>39.799999237061</ele>
        <time>2022-02-03T09:16:29.000Z</time>
      </trkpt>
      <trkpt lat="47.31912" lon="-2.38501">
        <ele>39.400001525879</ele>
        <time>2022-02-03T09:16:32.000Z</time>
      </trkpt>
      <trkpt lat="47.31917" lon="-2.38498">
        <ele>39</ele>
        <time>2022-02-03T09:16:33.000Z</time>
      </trkpt>
      <trkpt lat="47.31922" lon="-2.38496">
        <ele>38.599998474121</ele>
        <time>2022-02-03T09:16:34.000Z</time>
      </trkpt>
      <trkpt lat="47.31926" lon="-2.38495">
        <ele>38.200000762939</ele>
        <time>2022-02-03T09:16:35.000Z</time>
      </trkpt>
      <trkpt lat="47.31931" lon="-2.38492">
        <ele>37.799999237061</ele>
        <time>2022-02-03T09:16:36.000Z</time>
      </trkpt>
      <trkpt lat="47.31941" lon="-2.38491">
        <ele>37.799999237061</ele>
        <time>2022-02-03T09:16:38.000Z</time>
      </trkpt>
      <trkpt lat="47.31952" lon="-2.38488">
        <ele>37.799999237061</ele>
        <time>2022-02-03T09:16:40.000Z</time>
      </trkpt>
      <trkpt lat="47.31967" lon="-2.38483">
        <ele>37.400001525879</ele>
        <time>2022-02-03T09:16:43.000Z</time>
      </trkpt>
      <trkpt lat="47.31973" lon="-2.38481">
        <ele>37</ele>
        <time>2022-02-03T09:16:44.000Z</time>
      </trkpt>
      <trkpt lat="47.31979" lon="-2.38479">
        <ele>36.599998474121</ele>
        <time>2022-02-03T09:16:45.000Z</time>
      </trkpt>
      <trkpt lat="47.31984" lon="-2.38477">
        <ele>36.200000762939</ele>
        <time>2022-02-03T09:16:46.000Z</time>
      </trkpt>
      <trkpt lat="47.3199" lon="-2.38474">
        <ele>35.599998474121</ele>
        <time>2022-02-03T09:16:47.000Z</time>
      </trkpt>
      <trkpt lat="47.32029" lon="-2.38457">
        <ele>35.599998474121</ele>
        <time>2022-02-03T09:16:54.000Z</time>
      </trkpt>
      <trkpt lat="47.32064" lon="-2.38445">
        <ele>35.200000762939</ele>
        <time>2022-02-03T09:17:00.000Z</time>
      </trkpt>
      <trkpt lat="47.3207" lon="-2.38442">
        <ele>34.799999237061</ele>
        <time>2022-02-03T09:17:01.000Z</time>
      </trkpt>
      <trkpt lat="47.32076" lon="-2.38439">
        <ele>34.400001525879</ele>
        <time>2022-02-03T09:17:02.000Z</time>
      </trkpt>
      <trkpt lat="47.32082" lon="-2.38436">
        <ele>34</ele>
        <time>2022-02-03T09:17:03.000Z</time>
      </trkpt>
      <trkpt lat="47.32088" lon="-2.38434">
        <ele>33.599998474121</ele>
        <time>2022-02-03T09:17:04.000Z</time>
      </trkpt>
      <trkpt lat="47.32099" lon="-2.38429">
        <ele>33.599998474121</ele>
        <time>2022-02-03T09:17:06.000Z</time>
      </trkpt>
      <trkpt lat="47.32105" lon="-2.38426">
        <ele>33.599998474121</ele>
        <time>2022-02-03T09:17:07.000Z</time>
      </trkpt>
      <trkpt lat="47.32136" lon="-2.38405">
        <ele>33.599998474121</ele>
        <time>2022-02-03T09:17:13.000Z</time>
      </trkpt>
      <trkpt lat="47.32149" lon="-2.38388">
        <ele>33.200000762939</ele>
        <time>2022-02-03T09:17:16.000Z</time>
      </trkpt>
      <trkpt lat="47.32154" lon="-2.38381">
        <ele>32.799999237061</ele>
        <time>2022-02-03T09:17:17.000Z</time>
      </trkpt>
      <trkpt lat="47.32158" lon="-2.38375">
        <ele>32.400001525879</ele>
        <time>2022-02-03T09:17:18.000Z</time>
      </trkpt>
      <trkpt lat="47.32162" lon="-2.38368">
        <ele>32</ele>
        <time>2022-02-03T09:17:19.000Z</time>
      </trkpt>
      <trkpt lat="47.32166" lon="-2.38362">
        <ele>31.60000038147</ele>
        <time>2022-02-03T09:17:20.000Z</time>
      </trkpt>
      <trkpt lat="47.3217" lon="-2.38357">
        <ele>31.60000038147</ele>
        <time>2022-02-03T09:17:21.000Z</time>
      </trkpt>
      <trkpt lat="47.32181" lon="-2.38341">
        <ele>31.60000038147</ele>
        <time>2022-02-03T09:17:24.000Z</time>
      </trkpt>
      <trkpt lat="47.32208" lon="-2.38306">
        <ele>31.60000038147</ele>
        <time>2022-02-03T09:17:31.000Z</time>
      </trkpt>
      <trkpt lat="47.32217" lon="-2.38298">
        <ele>31.60000038147</ele>
        <time>2022-02-03T09:17:33.000Z</time>
      </trkpt>
      <trkpt lat="47.32226" lon="-2.38297">
        <ele>31.60000038147</ele>
        <time>2022-02-03T09:17:35.000Z</time>
      </trkpt>
      <trkpt lat="47.32241" lon="-2.38295">
        <ele>31.60000038147</ele>
        <time>2022-02-03T09:17:38.000Z</time>
      </trkpt>
      <trkpt lat="47.32251" lon="-2.38291">
        <ele>31.60000038147</ele>
        <time>2022-02-03T09:17:40.000Z</time>
      </trkpt>
      <trkpt lat="47.32268" lon="-2.38287">
        <ele>31.60000038147</ele>
        <time>2022-02-03T09:17:43.000Z</time>
      </trkpt>
      <trkpt lat="47.32279" lon="-2.38287">
        <ele>31.60000038147</ele>
        <time>2022-02-03T09:17:45.000Z</time>
      </trkpt>
      <trkpt lat="47.32306" lon="-2.38295">
        <ele>31.60000038147</ele>
        <time>2022-02-03T09:17:50.000Z</time>
      </trkpt>
      <trkpt lat="47.32339" lon="-2.3831">
        <ele>31.60000038147</ele>
        <time>2022-02-03T09:17:57.000Z</time>
      </trkpt>
      <trkpt lat="47.32349" lon="-2.38315">
        <ele>32</ele>
        <time>2022-02-03T09:17:59.000Z</time>
      </trkpt>
      <trkpt lat="47.32354" lon="-2.38317">
        <ele>32.400001525879</ele>
        <time>2022-02-03T09:18:00.000Z</time>
      </trkpt>
      <trkpt lat="47.32359" lon="-2.38319">
        <ele>32.799999237061</ele>
        <time>2022-02-03T09:18:01.000Z</time>
      </trkpt>
      <trkpt lat="47.32363" lon="-2.38321">
        <ele>33.200000762939</ele>
        <time>2022-02-03T09:18:02.000Z</time>
      </trkpt>
      <trkpt lat="47.32367" lon="-2.38324">
        <ele>33.599998474121</ele>
        <time>2022-02-03T09:18:03.000Z</time>
      </trkpt>
      <trkpt lat="47.32382" lon="-2.3833">
        <ele>33.599998474121</ele>
        <time>2022-02-03T09:18:06.000Z</time>
      </trkpt>
      <trkpt lat="47.32392" lon="-2.38335">
        <ele>34.200000762939</ele>
        <time>2022-02-03T09:18:08.000Z</time>
      </trkpt>
      <trkpt lat="47.32396" lon="-2.38337">
        <ele>34.599998474121</ele>
        <time>2022-02-03T09:18:09.000Z</time>
      </trkpt>
      <trkpt lat="47.324" lon="-2.38339">
        <ele>35</ele>
        <time>2022-02-03T09:18:10.000Z</time>
      </trkpt>
      <trkpt lat="47.32405" lon="-2.38341">
        <ele>35.400001525879</ele>
        <time>2022-02-03T09:18:11.000Z</time>
      </trkpt>
      <trkpt lat="47.3241" lon="-2.38343">
        <ele>35.799999237061</ele>
        <time>2022-02-03T09:18:12.000Z</time>
      </trkpt>
      <trkpt lat="47.32416" lon="-2.38345">
        <ele>35.799999237061</ele>
        <time>2022-02-03T09:18:13.000Z</time>
      </trkpt>
      <trkpt lat="47.32445" lon="-2.38356">
        <ele>35.799999237061</ele>
        <time>2022-02-03T09:18:18.000Z</time>
      </trkpt>
      <trkpt lat="47.32485" lon="-2.38373">
        <ele>35.799999237061</ele>
        <time>2022-02-03T09:18:25.000Z</time>
      </trkpt>
      <trkpt lat="47.3251" lon="-2.38381">
        <ele>35.799999237061</ele>
        <time>2022-02-03T09:18:29.000Z</time>
      </trkpt>
      <trkpt lat="47.32514" lon="-2.38379">
        <ele>35.799999237061</ele>
        <time>2022-02-03T09:18:30.000Z</time>
      </trkpt>
      <trkpt lat="47.32521" lon="-2.38363">
        <ele>35.799999237061</ele>
        <time>2022-02-03T09:18:33.000Z</time>
      </trkpt>
      <trkpt lat="47.32524" lon="-2.38336">
        <ele>35.799999237061</ele>
        <time>2022-02-03T09:18:37.000Z</time>
      </trkpt>
      <trkpt lat="47.32526" lon="-2.38322">
        <ele>35.799999237061</ele>
        <time>2022-02-03T09:18:41.000Z</time>
      </trkpt>
      <trkpt lat="47.32527" lon="-2.38315">
        <ele>35.400001525879</ele>
        <time>2022-02-03T09:18:45.000Z</time>
      </trkpt>
      <trkpt lat="47.32528" lon="-2.38313">
        <ele>35</ele>
        <time>2022-02-03T09:18:46.000Z</time>
      </trkpt>
      <trkpt lat="47.32528" lon="-2.38312">
        <ele>34.599998474121</ele>
        <time>2022-02-03T09:18:47.000Z</time>
      </trkpt>
      <trkpt lat="47.3253" lon="-2.38312">
        <ele>34.200000762939</ele>
        <time>2022-02-03T09:18:48.000Z</time>
      </trkpt>
      <trkpt lat="47.32532" lon="-2.38312">
        <ele>33.799999237061</ele>
        <time>2022-02-03T09:18:49.000Z</time>
      </trkpt>
      <trkpt lat="47.32541" lon="-2.3831">
        <ele>33.799999237061</ele>
        <time>2022-02-03T09:18:51.000Z</time>
      </trkpt>
      <trkpt lat="47.32577" lon="-2.38299">
        <ele>33.799999237061</ele>
        <time>2022-02-03T09:18:57.000Z</time>
      </trkpt>
      <trkpt lat="47.3259" lon="-2.38296">
        <ele>33.799999237061</ele>
        <time>2022-02-03T09:18:59.000Z</time>
      </trkpt>
      <trkpt lat="47.32609" lon="-2.383">
        <ele>33.799999237061</ele>
        <time>2022-02-03T09:19:02.000Z</time>
      </trkpt>
      <trkpt lat="47.32628" lon="-2.38319">
        <ele>33.799999237061</ele>
        <time>2022-02-03T09:19:06.000Z</time>
      </trkpt>
      <trkpt lat="47.32639" lon="-2.38334">
        <ele>33.799999237061</ele>
        <time>2022-02-03T09:19:09.000Z</time>
      </trkpt>
      <trkpt lat="47.32643" lon="-2.38339">
        <ele>33.799999237061</ele>
        <time>2022-02-03T09:19:10.000Z</time>
      </trkpt>
      <trkpt lat="47.3265" lon="-2.38348">
        <ele>33.799999237061</ele>
        <time>2022-02-03T09:19:12.000Z</time>
      </trkpt>
      <trkpt lat="47.32664" lon="-2.38365">
        <ele>34.200000762939</ele>
        <time>2022-02-03T09:19:16.000Z</time>
      </trkpt>
      <trkpt lat="47.32667" lon="-2.3837">
        <ele>34.599998474121</ele>
        <time>2022-02-03T09:19:17.000Z</time>
      </trkpt>
      <trkpt lat="47.32671" lon="-2.38374">
        <ele>35</ele>
        <time>2022-02-03T09:19:18.000Z</time>
      </trkpt>
      <trkpt lat="47.32674" lon="-2.38378">
        <ele>35.599998474121</ele>
        <time>2022-02-03T09:19:19.000Z</time>
      </trkpt>
      <trkpt lat="47.32677" lon="-2.38382">
        <ele>36</ele>
        <time>2022-02-03T09:19:20.000Z</time>
      </trkpt>
      <trkpt lat="47.32686" lon="-2.38394">
        <ele>36</ele>
        <time>2022-02-03T09:19:23.000Z</time>
      </trkpt>
      <trkpt lat="47.32689" lon="-2.38397">
        <ele>36.400001525879</ele>
        <time>2022-02-03T09:19:24.000Z</time>
      </trkpt>
      <trkpt lat="47.32691" lon="-2.38401">
        <ele>37</ele>
        <time>2022-02-03T09:19:25.000Z</time>
      </trkpt>
      <trkpt lat="47.32695" lon="-2.38403">
        <ele>37.400001525879</ele>
        <time>2022-02-03T09:19:26.000Z</time>
      </trkpt>
      <trkpt lat="47.32699" lon="-2.38405">
        <ele>37.799999237061</ele>
        <time>2022-02-03T09:19:27.000Z</time>
      </trkpt>
      <trkpt lat="47.32702" lon="-2.38407">
        <ele>38.200000762939</ele>
        <time>2022-02-03T09:19:28.000Z</time>
      </trkpt>
      <trkpt lat="47.32709" lon="-2.38409">
        <ele>38.200000762939</ele>
        <time>2022-02-03T09:19:30.000Z</time>
      </trkpt>
      <trkpt lat="47.32725" lon="-2.38406">
        <ele>38.200000762939</ele>
        <time>2022-02-03T09:19:35.000Z</time>
      </trkpt>
      <trkpt lat="47.32733" lon="-2.38403">
        <ele>38.599998474121</ele>
        <time>2022-02-03T09:19:37.000Z</time>
      </trkpt>
      <trkpt lat="47.32736" lon="-2.38402">
        <ele>39</ele>
        <time>2022-02-03T09:19:38.000Z</time>
      </trkpt>
      <trkpt lat="47.32739" lon="-2.384">
        <ele>39.599998474121</ele>
        <time>2022-02-03T09:19:39.000Z</time>
      </trkpt>
      <trkpt lat="47.32743" lon="-2.384">
        <ele>40</ele>
        <time>2022-02-03T09:19:40.000Z</time>
      </trkpt>
      <trkpt lat="47.32747" lon="-2.38399">
        <ele>40.400001525879</ele>
        <time>2022-02-03T09:19:41.000Z</time>
      </trkpt>
      <trkpt lat="47.32758" lon="-2.38396">
        <ele>40.400001525879</ele>
        <time>2022-02-03T09:19:44.000Z</time>
      </trkpt>
      <trkpt lat="47.32774" lon="-2.38393">
        <ele>40.400001525879</ele>
        <time>2022-02-03T09:19:50.000Z</time>
      </trkpt>
      <trkpt lat="47.32779" lon="-2.38387">
        <ele>40.400001525879</ele>
        <time>2022-02-03T09:19:55.000Z</time>
      </trkpt>
      <trkpt lat="47.32779" lon="-2.38388">
        <ele>40.400001525879</ele>
        <time>2022-02-03T09:19:56.000Z</time>
      </trkpt>
      <trkpt lat="47.3278" lon="-2.38384">
        <ele>40.400001525879</ele>
        <time>2022-02-03T09:22:40.000Z</time>
      </trkpt>
      <trkpt lat="47.32782" lon="-2.38379">
        <ele>40.400001525879</ele>
        <time>2022-02-03T09:22:42.000Z</time>
      </trkpt>
      <trkpt lat="47.32786" lon="-2.38359">
        <ele>40.400001525879</ele>
        <time>2022-02-03T09:22:46.000Z</time>
      </trkpt>
      <trkpt lat="47.32791" lon="-2.38323">
        <ele>40.400001525879</ele>
        <time>2022-02-03T09:22:51.000Z</time>
      </trkpt>
      <trkpt lat="47.32793" lon="-2.38316">
        <ele>40.400001525879</ele>
        <time>2022-02-03T09:22:52.000Z</time>
      </trkpt>
      <trkpt lat="47.32801" lon="-2.38283">
        <ele>40</ele>
        <time>2022-02-03T09:22:56.000Z</time>
      </trkpt>
      <trkpt lat="47.32802" lon="-2.38277">
        <ele>39.599998474121</ele>
        <time>2022-02-03T09:22:57.000Z</time>
      </trkpt>
      <trkpt lat="47.32803" lon="-2.38272">
        <ele>39.200000762939</ele>
        <time>2022-02-03T09:22:58.000Z</time>
      </trkpt>
      <trkpt lat="47.32804" lon="-2.38266">
        <ele>38.799999237061</ele>
        <time>2022-02-03T09:22:59.000Z</time>
      </trkpt>
      <trkpt lat="47.32806" lon="-2.3826">
        <ele>38.400001525879</ele>
        <time>2022-02-03T09:23:00.000Z</time>
      </trkpt>
      <trkpt lat="47.32811" lon="-2.38241">
        <ele>37.799999237061</ele>
        <time>2022-02-03T09:23:03.000Z</time>
      </trkpt>
      <trkpt lat="47.32813" lon="-2.38234">
        <ele>37.400001525879</ele>
        <time>2022-02-03T09:23:04.000Z</time>
      </trkpt>
      <trkpt lat="47.32815" lon="-2.38226">
        <ele>37</ele>
        <time>2022-02-03T09:23:05.000Z</time>
      </trkpt>
      <trkpt lat="47.32818" lon="-2.38218">
        <ele>36.599998474121</ele>
        <time>2022-02-03T09:23:06.000Z</time>
      </trkpt>
      <trkpt lat="47.32821" lon="-2.3821">
        <ele>36.200000762939</ele>
        <time>2022-02-03T09:23:07.000Z</time>
      </trkpt>
      <trkpt lat="47.3283" lon="-2.38184">
        <ele>35.799999237061</ele>
        <time>2022-02-03T09:23:10.000Z</time>
      </trkpt>
      <trkpt lat="47.32834" lon="-2.38175">
        <ele>35.400001525879</ele>
        <time>2022-02-03T09:23:11.000Z</time>
      </trkpt>
      <trkpt lat="47.32838" lon="-2.38168">
        <ele>34.799999237061</ele>
        <time>2022-02-03T09:23:12.000Z</time>
      </trkpt>
      <trkpt lat="47.32842" lon="-2.3816">
        <ele>34.400001525879</ele>
        <time>2022-02-03T09:23:13.000Z</time>
      </trkpt>
      <trkpt lat="47.32846" lon="-2.38153">
        <ele>34</ele>
        <time>2022-02-03T09:23:14.000Z</time>
      </trkpt>
      <trkpt lat="47.32862" lon="-2.38124">
        <ele>34</ele>
        <time>2022-02-03T09:23:18.000Z</time>
      </trkpt>
      <trkpt lat="47.32875" lon="-2.38104">
        <ele>33.599998474121</ele>
        <time>2022-02-03T09:23:21.000Z</time>
      </trkpt>
      <trkpt lat="47.32879" lon="-2.38097">
        <ele>33.200000762939</ele>
        <time>2022-02-03T09:23:22.000Z</time>
      </trkpt>
      <trkpt lat="47.32883" lon="-2.3809">
        <ele>32.799999237061</ele>
        <time>2022-02-03T09:23:23.000Z</time>
      </trkpt>
      <trkpt lat="47.32888" lon="-2.38083">
        <ele>32.400001525879</ele>
        <time>2022-02-03T09:23:24.000Z</time>
      </trkpt>
      <trkpt lat="47.32892" lon="-2.38076">
        <ele>32</ele>
        <time>2022-02-03T09:23:25.000Z</time>
      </trkpt>
      <trkpt lat="47.32924" lon="-2.38021">
        <ele>32</ele>
        <time>2022-02-03T09:23:33.000Z</time>
      </trkpt>
      <trkpt lat="47.32941" lon="-2.37997">
        <ele>32</ele>
        <time>2022-02-03T09:23:37.000Z</time>
      </trkpt>
      <trkpt lat="47.32949" lon="-2.37985">
        <ele>32</ele>
        <time>2022-02-03T09:23:39.000Z</time>
      </trkpt>
      <trkpt lat="47.3297" lon="-2.37955">
        <ele>31.60000038147</ele>
        <time>2022-02-03T09:23:44.000Z</time>
      </trkpt>
      <trkpt lat="47.32974" lon="-2.37949">
        <ele>31.200000762939</ele>
        <time>2022-02-03T09:23:45.000Z</time>
      </trkpt>
      <trkpt lat="47.32978" lon="-2.37942">
        <ele>30.799999237061</ele>
        <time>2022-02-03T09:23:46.000Z</time>
      </trkpt>
      <trkpt lat="47.32983" lon="-2.37935">
        <ele>30.39999961853</ele>
        <time>2022-02-03T09:23:47.000Z</time>
      </trkpt>
      <trkpt lat="47.32987" lon="-2.37929">
        <ele>30</ele>
        <time>2022-02-03T09:23:48.000Z</time>
      </trkpt>
      <trkpt lat="47.33007" lon="-2.37893">
        <ele>30</ele>
        <time>2022-02-03T09:23:53.000Z</time>
      </trkpt>
      <trkpt lat="47.33021" lon="-2.37863">
        <ele>30</ele>
        <time>2022-02-03T09:23:57.000Z</time>
      </trkpt>
      <trkpt lat="47.33029" lon="-2.37848">
        <ele>30</ele>
        <time>2022-02-03T09:23:59.000Z</time>
      </trkpt>
      <trkpt lat="47.33049" lon="-2.37825">
        <ele>29.60000038147</ele>
        <time>2022-02-03T09:24:03.000Z</time>
      </trkpt>
      <trkpt lat="47.33054" lon="-2.37819">
        <ele>29.200000762939</ele>
        <time>2022-02-03T09:24:04.000Z</time>
      </trkpt>
      <trkpt lat="47.33059" lon="-2.37813">
        <ele>28.799999237061</ele>
        <time>2022-02-03T09:24:05.000Z</time>
      </trkpt>
      <trkpt lat="47.33065" lon="-2.37808">
        <ele>28</ele>
        <time>2022-02-03T09:24:06.000Z</time>
      </trkpt>
      <trkpt lat="47.33094" lon="-2.37782">
        <ele>28</ele>
        <time>2022-02-03T09:24:11.000Z</time>
      </trkpt>
      <trkpt lat="47.33103" lon="-2.37771">
        <ele>27.60000038147</ele>
        <time>2022-02-03T09:24:13.000Z</time>
      </trkpt>
      <trkpt lat="47.33108" lon="-2.37766">
        <ele>27.200000762939</ele>
        <time>2022-02-03T09:24:14.000Z</time>
      </trkpt>
      <trkpt lat="47.33114" lon="-2.37759">
        <ele>26.799999237061</ele>
        <time>2022-02-03T09:24:15.000Z</time>
      </trkpt>
      <trkpt lat="47.33119" lon="-2.37754">
        <ele>26.200000762939</ele>
        <time>2022-02-03T09:24:16.000Z</time>
      </trkpt>
      <trkpt lat="47.33124" lon="-2.37747">
        <ele>25.799999237061</ele>
        <time>2022-02-03T09:24:17.000Z</time>
      </trkpt>
      <trkpt lat="47.33129" lon="-2.37743">
        <ele>25.799999237061</ele>
        <time>2022-02-03T09:24:18.000Z</time>
      </trkpt>
      <trkpt lat="47.33145" lon="-2.37737">
        <ele>25.799999237061</ele>
        <time>2022-02-03T09:24:21.000Z</time>
      </trkpt>
      <trkpt lat="47.33152" lon="-2.3774">
        <ele>25.799999237061</ele>
        <time>2022-02-03T09:24:22.000Z</time>
      </trkpt>
      <trkpt lat="47.33167" lon="-2.37758">
        <ele>25.799999237061</ele>
        <time>2022-02-03T09:24:25.000Z</time>
      </trkpt>
      <trkpt lat="47.33171" lon="-2.37765">
        <ele>25.799999237061</ele>
        <time>2022-02-03T09:24:26.000Z</time>
      </trkpt>
      <trkpt lat="47.33192" lon="-2.37803">
        <ele>25.799999237061</ele>
        <time>2022-02-03T09:24:32.000Z</time>
      </trkpt>
      <trkpt lat="47.332" lon="-2.37815">
        <ele>25.799999237061</ele>
        <time>2022-02-03T09:24:34.000Z</time>
      </trkpt>
      <trkpt lat="47.3321" lon="-2.37834">
        <ele>25.799999237061</ele>
        <time>2022-02-03T09:24:37.000Z</time>
      </trkpt>
      <trkpt lat="47.33217" lon="-2.37846">
        <ele>25.799999237061</ele>
        <time>2022-02-03T09:24:39.000Z</time>
      </trkpt>
      <trkpt lat="47.33226" lon="-2.37857">
        <ele>25.799999237061</ele>
        <time>2022-02-03T09:24:41.000Z</time>
      </trkpt>
      <trkpt lat="47.33243" lon="-2.37873">
        <ele>26.39999961853</ele>
        <time>2022-02-03T09:24:45.000Z</time>
      </trkpt>
      <trkpt lat="47.33247" lon="-2.37876">
        <ele>26.799999237061</ele>
        <time>2022-02-03T09:24:46.000Z</time>
      </trkpt>
      <trkpt lat="47.33252" lon="-2.37878">
        <ele>27.200000762939</ele>
        <time>2022-02-03T09:24:47.000Z</time>
      </trkpt>
      <trkpt lat="47.33256" lon="-2.37879">
        <ele>27.60000038147</ele>
        <time>2022-02-03T09:24:48.000Z</time>
      </trkpt>
      <trkpt lat="47.33261" lon="-2.3788">
        <ele>28</ele>
        <time>2022-02-03T09:24:49.000Z</time>
      </trkpt>
      <trkpt lat="47.33265" lon="-2.37879">
        <ele>28</ele>
        <time>2022-02-03T09:24:50.000Z</time>
      </trkpt>
      <trkpt lat="47.33277" lon="-2.37875">
        <ele>28.39999961853</ele>
        <time>2022-02-03T09:24:53.000Z</time>
      </trkpt>
      <trkpt lat="47.33281" lon="-2.37874">
        <ele>29.39999961853</ele>
        <time>2022-02-03T09:24:54.000Z</time>
      </trkpt>
      <trkpt lat="47.33285" lon="-2.37873">
        <ele>29.799999237061</ele>
        <time>2022-02-03T09:24:55.000Z</time>
      </trkpt>
      <trkpt lat="47.33289" lon="-2.37871">
        <ele>30.200000762939</ele>
        <time>2022-02-03T09:24:56.000Z</time>
      </trkpt>
      <trkpt lat="47.33302" lon="-2.37868">
        <ele>30.60000038147</ele>
        <time>2022-02-03T09:24:59.000Z</time>
      </trkpt>
      <trkpt lat="47.33307" lon="-2.37866">
        <ele>31.200000762939</ele>
        <time>2022-02-03T09:25:00.000Z</time>
      </trkpt>
      <trkpt lat="47.3331" lon="-2.37864">
        <ele>31.60000038147</ele>
        <time>2022-02-03T09:25:01.000Z</time>
      </trkpt>
      <trkpt lat="47.33314" lon="-2.37862">
        <ele>32</ele>
        <time>2022-02-03T09:25:02.000Z</time>
      </trkpt>
      <trkpt lat="47.33318" lon="-2.37861">
        <ele>32.400001525879</ele>
        <time>2022-02-03T09:25:03.000Z</time>
      </trkpt>
      <trkpt lat="47.33336" lon="-2.37855">
        <ele>32.400001525879</ele>
        <time>2022-02-03T09:25:08.000Z</time>
      </trkpt>
      <trkpt lat="47.33344" lon="-2.37855">
        <ele>32.799999237061</ele>
        <time>2022-02-03T09:25:10.000Z</time>
      </trkpt>
      <trkpt lat="47.33348" lon="-2.37855">
        <ele>33.200000762939</ele>
        <time>2022-02-03T09:25:11.000Z</time>
      </trkpt>
      <trkpt lat="47.33351" lon="-2.37855">
        <ele>33.599998474121</ele>
        <time>2022-02-03T09:25:12.000Z</time>
      </trkpt>
      <trkpt lat="47.33355" lon="-2.37856">
        <ele>34.200000762939</ele>
        <time>2022-02-03T09:25:13.000Z</time>
      </trkpt>
      <trkpt lat="47.33359" lon="-2.37855">
        <ele>34.599998474121</ele>
        <time>2022-02-03T09:25:14.000Z</time>
      </trkpt>
      <trkpt lat="47.33362" lon="-2.37853">
        <ele>34.599998474121</ele>
        <time>2022-02-03T09:25:15.000Z</time>
      </trkpt>
      <trkpt lat="47.33367" lon="-2.37845">
        <ele>34.599998474121</ele>
        <time>2022-02-03T09:25:17.000Z</time>
      </trkpt>
      <trkpt lat="47.3337" lon="-2.37835">
        <ele>34.599998474121</ele>
        <time>2022-02-03T09:25:19.000Z</time>
      </trkpt>
      <trkpt lat="47.33378" lon="-2.37812">
        <ele>34.599998474121</ele>
        <time>2022-02-03T09:25:23.000Z</time>
      </trkpt>
      <trkpt lat="47.33382" lon="-2.378">
        <ele>35</ele>
        <time>2022-02-03T09:25:25.000Z</time>
      </trkpt>
      <trkpt lat="47.33383" lon="-2.37794">
        <ele>35.400001525879</ele>
        <time>2022-02-03T09:25:26.000Z</time>
      </trkpt>
      <trkpt lat="47.33384" lon="-2.37788">
        <ele>35.799999237061</ele>
        <time>2022-02-03T09:25:27.000Z</time>
      </trkpt>
      <trkpt lat="47.33385" lon="-2.37782">
        <ele>36.200000762939</ele>
        <time>2022-02-03T09:25:28.000Z</time>
      </trkpt>
      <trkpt lat="47.33385" lon="-2.37776">
        <ele>36.599998474121</ele>
        <time>2022-02-03T09:25:29.000Z</time>
      </trkpt>
      <trkpt lat="47.33386" lon="-2.37752">
        <ele>36.599998474121</ele>
        <time>2022-02-03T09:25:33.000Z</time>
      </trkpt>
      <trkpt lat="47.33386" lon="-2.37739">
        <ele>36.599998474121</ele>
        <time>2022-02-03T09:25:35.000Z</time>
      </trkpt>
      <trkpt lat="47.33386" lon="-2.37732">
        <ele>36.599998474121</ele>
        <time>2022-02-03T09:25:36.000Z</time>
      </trkpt>
      <trkpt lat="47.33387" lon="-2.37681">
        <ele>36.599998474121</ele>
        <time>2022-02-03T09:25:43.000Z</time>
      </trkpt>
      <trkpt lat="47.33388" lon="-2.37672">
        <ele>36.599998474121</ele>
        <time>2022-02-03T09:25:44.000Z</time>
      </trkpt>
      <trkpt lat="47.3339" lon="-2.37654">
        <ele>36.599998474121</ele>
        <time>2022-02-03T09:25:46.000Z</time>
      </trkpt>
      <trkpt lat="47.33393" lon="-2.37647">
        <ele>36.599998474121</ele>
        <time>2022-02-03T09:25:47.000Z</time>
      </trkpt>
      <trkpt lat="47.33412" lon="-2.37623">
        <ele>36.599998474121</ele>
        <time>2022-02-03T09:25:51.000Z</time>
      </trkpt>
      <trkpt lat="47.33417" lon="-2.37619">
        <ele>36.599998474121</ele>
        <time>2022-02-03T09:25:52.000Z</time>
      </trkpt>
      <trkpt lat="47.33449" lon="-2.37592">
        <ele>36.599998474121</ele>
        <time>2022-02-03T09:25:58.000Z</time>
      </trkpt>
      <trkpt lat="47.33482" lon="-2.37559">
        <ele>36.599998474121</ele>
        <time>2022-02-03T09:26:04.000Z</time>
      </trkpt>
      <trkpt lat="47.33508" lon="-2.37517">
        <ele>36.599998474121</ele>
        <time>2022-02-03T09:26:10.000Z</time>
      </trkpt>
      <trkpt lat="47.33525" lon="-2.37485">
        <ele>36.200000762939</ele>
        <time>2022-02-03T09:26:14.000Z</time>
      </trkpt>
      <trkpt lat="47.33529" lon="-2.37476">
        <ele>35.799999237061</ele>
        <time>2022-02-03T09:26:15.000Z</time>
      </trkpt>
      <trkpt lat="47.33532" lon="-2.37467">
        <ele>35.400001525879</ele>
        <time>2022-02-03T09:26:16.000Z</time>
      </trkpt>
      <trkpt lat="47.33534" lon="-2.37457">
        <ele>35</ele>
        <time>2022-02-03T09:26:17.000Z</time>
      </trkpt>
      <trkpt lat="47.33537" lon="-2.37447">
        <ele>34.599998474121</ele>
        <time>2022-02-03T09:26:18.000Z</time>
      </trkpt>
      <trkpt lat="47.33538" lon="-2.37438">
        <ele>34.599998474121</ele>
        <time>2022-02-03T09:26:19.000Z</time>
      </trkpt>
      <trkpt lat="47.33539" lon="-2.37428">
        <ele>34.599998474121</ele>
        <time>2022-02-03T09:26:20.000Z</time>
      </trkpt>
      <trkpt lat="47.33539" lon="-2.37385">
        <ele>34.200000762939</ele>
        <time>2022-02-03T09:26:25.000Z</time>
      </trkpt>
      <trkpt lat="47.3354" lon="-2.3738">
        <ele>33.599998474121</ele>
        <time>2022-02-03T09:26:26.000Z</time>
      </trkpt>
      <trkpt lat="47.3354" lon="-2.37375">
        <ele>33.200000762939</ele>
        <time>2022-02-03T09:26:27.000Z</time>
      </trkpt>
      <trkpt lat="47.33539" lon="-2.37372">
        <ele>32.599998474121</ele>
        <time>2022-02-03T09:26:28.000Z</time>
      </trkpt>
      <trkpt lat="47.33539" lon="-2.37369">
        <ele>32.200000762939</ele>
        <time>2022-02-03T09:26:29.000Z</time>
      </trkpt>
      <trkpt lat="47.33537" lon="-2.37358">
        <ele>32.200000762939</ele>
        <time>2022-02-03T09:26:35.000Z</time>
      </trkpt>
      <trkpt lat="47.33537" lon="-2.37358">
        <ele>32.200000762939</ele>
        <time>2022-02-03T09:27:02.000Z</time>
      </trkpt>
      <trkpt lat="47.33536" lon="-2.3735">
        <ele>32.200000762939</ele>
        <time>2022-02-03T09:27:04.000Z</time>
      </trkpt>
      <trkpt lat="47.33533" lon="-2.3734">
        <ele>31.799999237061</ele>
        <time>2022-02-03T09:27:06.000Z</time>
      </trkpt>
      <trkpt lat="47.33531" lon="-2.37334">
        <ele>31.39999961853</ele>
        <time>2022-02-03T09:27:07.000Z</time>
      </trkpt>
      <trkpt lat="47.33529" lon="-2.37328">
        <ele>31</ele>
        <time>2022-02-03T09:27:08.000Z</time>
      </trkpt>
      <trkpt lat="47.33526" lon="-2.37322">
        <ele>30.60000038147</ele>
        <time>2022-02-03T09:27:09.000Z</time>
      </trkpt>
      <trkpt lat="47.33524" lon="-2.37315">
        <ele>30.200000762939</ele>
        <time>2022-02-03T09:27:10.000Z</time>
      </trkpt>
      <trkpt lat="47.33514" lon="-2.37281">
        <ele>30.200000762939</ele>
        <time>2022-02-03T09:27:15.000Z</time>
      </trkpt>
      <trkpt lat="47.33509" lon="-2.37258">
        <ele>29.799999237061</ele>
        <time>2022-02-03T09:27:18.000Z</time>
      </trkpt>
      <trkpt lat="47.33507" lon="-2.37251">
        <ele>29.39999961853</ele>
        <time>2022-02-03T09:27:19.000Z</time>
      </trkpt>
      <trkpt lat="47.33504" lon="-2.37243">
        <ele>29</ele>
        <time>2022-02-03T09:27:20.000Z</time>
      </trkpt>
      <trkpt lat="47.33502" lon="-2.37234">
        <ele>28.60000038147</ele>
        <time>2022-02-03T09:27:21.000Z</time>
      </trkpt>
      <trkpt lat="47.33499" lon="-2.37226">
        <ele>28.200000762939</ele>
        <time>2022-02-03T09:27:22.000Z</time>
      </trkpt>
      <trkpt lat="47.33492" lon="-2.37208">
        <ele>27.799999237061</ele>
        <time>2022-02-03T09:27:24.000Z</time>
      </trkpt>
      <trkpt lat="47.33489" lon="-2.37198">
        <ele>27.39999961853</ele>
        <time>2022-02-03T09:27:25.000Z</time>
      </trkpt>
      <trkpt lat="47.33487" lon="-2.37189">
        <ele>27</ele>
        <time>2022-02-03T09:27:26.000Z</time>
      </trkpt>
      <trkpt lat="47.33485" lon="-2.3718">
        <ele>26.39999961853</ele>
        <time>2022-02-03T09:27:27.000Z</time>
      </trkpt>
      <trkpt lat="47.33484" lon="-2.37171">
        <ele>26</ele>
        <time>2022-02-03T09:27:28.000Z</time>
      </trkpt>
      <trkpt lat="47.3348" lon="-2.37142">
        <ele>26</ele>
        <time>2022-02-03T09:27:31.000Z</time>
      </trkpt>
      <trkpt lat="47.33477" lon="-2.37112">
        <ele>25.60000038147</ele>
        <time>2022-02-03T09:27:34.000Z</time>
      </trkpt>
      <trkpt lat="47.33476" lon="-2.37101">
        <ele>25.200000762939</ele>
        <time>2022-02-03T09:27:35.000Z</time>
      </trkpt>
      <trkpt lat="47.33475" lon="-2.3709">
        <ele>24.799999237061</ele>
        <time>2022-02-03T09:27:36.000Z</time>
      </trkpt>
      <trkpt lat="47.33474" lon="-2.37079">
        <ele>24.200000762939</ele>
        <time>2022-02-03T09:27:37.000Z</time>
      </trkpt>
      <trkpt lat="47.33473" lon="-2.37068">
        <ele>23.799999237061</ele>
        <time>2022-02-03T09:27:38.000Z</time>
      </trkpt>
      <trkpt lat="47.33473" lon="-2.37057">
        <ele>23.799999237061</ele>
        <time>2022-02-03T09:27:39.000Z</time>
      </trkpt>
      <trkpt lat="47.33473" lon="-2.37036">
        <ele>23.39999961853</ele>
        <time>2022-02-03T09:27:41.000Z</time>
      </trkpt>
      <trkpt lat="47.33473" lon="-2.37026">
        <ele>23</ele>
        <time>2022-02-03T09:27:42.000Z</time>
      </trkpt>
      <trkpt lat="47.33474" lon="-2.37018">
        <ele>22.39999961853</ele>
        <time>2022-02-03T09:27:43.000Z</time>
      </trkpt>
      <trkpt lat="47.33474" lon="-2.37011">
        <ele>22</ele>
        <time>2022-02-03T09:27:44.000Z</time>
      </trkpt>
      <trkpt lat="47.33475" lon="-2.37006">
        <ele>21.60000038147</ele>
        <time>2022-02-03T09:27:45.000Z</time>
      </trkpt>
      <trkpt lat="47.33477" lon="-2.36993">
        <ele>21.60000038147</ele>
        <time>2022-02-03T09:27:48.000Z</time>
      </trkpt>
      <trkpt lat="47.3348" lon="-2.36983">
        <ele>21.200000762939</ele>
        <time>2022-02-03T09:27:52.000Z</time>
      </trkpt>
      <trkpt lat="47.3348" lon="-2.36982">
        <ele>20.799999237061</ele>
        <time>2022-02-03T09:27:53.000Z</time>
      </trkpt>
      <trkpt lat="47.33481" lon="-2.36981">
        <ele>20.39999961853</ele>
        <time>2022-02-03T09:27:54.000Z</time>
      </trkpt>
      <trkpt lat="47.33476" lon="-2.36988">
        <ele>19.60000038147</ele>
        <time>2022-02-03T09:31:26.000Z</time>
      </trkpt>
      <trkpt lat="47.33474" lon="-2.36991">
        <ele>19.60000038147</ele>
        <time>2022-02-03T09:31:28.000Z</time>
      </trkpt>
      <trkpt lat="47.33471" lon="-2.3699">
        <ele>19.60000038147</ele>
        <time>2022-02-03T09:31:30.000Z</time>
      </trkpt>
      <trkpt lat="47.33464" lon="-2.36982">
        <ele>19.60000038147</ele>
        <time>2022-02-03T09:31:34.000Z</time>
      </trkpt>
      <trkpt lat="47.33453" lon="-2.36965">
        <ele>19.60000038147</ele>
        <time>2022-02-03T09:31:38.000Z</time>
      </trkpt>
      <trkpt lat="47.3345" lon="-2.36945">
        <ele>19.60000038147</ele>
        <time>2022-02-03T09:31:42.000Z</time>
      </trkpt>
      <trkpt lat="47.33449" lon="-2.36912">
        <ele>19.60000038147</ele>
        <time>2022-02-03T09:31:48.000Z</time>
      </trkpt>
      <trkpt lat="47.33446" lon="-2.36879">
        <ele>19.60000038147</ele>
        <time>2022-02-03T09:31:54.000Z</time>
      </trkpt>
      <trkpt lat="47.33451" lon="-2.36854">
        <ele>19.60000038147</ele>
        <time>2022-02-03T09:31:59.000Z</time>
      </trkpt>
      <trkpt lat="47.33458" lon="-2.36846">
        <ele>19.60000038147</ele>
        <time>2022-02-03T09:32:01.000Z</time>
      </trkpt>
      <trkpt lat="47.33462" lon="-2.36834">
        <ele>19.60000038147</ele>
        <time>2022-02-03T09:32:03.000Z</time>
      </trkpt>
      <trkpt lat="47.33466" lon="-2.36805">
        <ele>19.60000038147</ele>
        <time>2022-02-03T09:32:08.000Z</time>
      </trkpt>
      <trkpt lat="47.3347" lon="-2.36768">
        <ele>19.60000038147</ele>
        <time>2022-02-03T09:32:14.000Z</time>
      </trkpt>
      <trkpt lat="47.33479" lon="-2.36745">
        <ele>19.60000038147</ele>
        <time>2022-02-03T09:32:18.000Z</time>
      </trkpt>
      <trkpt lat="47.33481" lon="-2.3674">
        <ele>19.60000038147</ele>
        <time>2022-02-03T09:32:19.000Z</time>
      </trkpt>
      <trkpt lat="47.33488" lon="-2.36724">
        <ele>19.200000762939</ele>
        <time>2022-02-03T09:32:23.000Z</time>
      </trkpt>
      <trkpt lat="47.3349" lon="-2.3672">
        <ele>18.799999237061</ele>
        <time>2022-02-03T09:32:24.000Z</time>
      </trkpt>
      <trkpt lat="47.33491" lon="-2.36716">
        <ele>18.39999961853</ele>
        <time>2022-02-03T09:32:25.000Z</time>
      </trkpt>
      <trkpt lat="47.33492" lon="-2.36713">
        <ele>18</ele>
        <time>2022-02-03T09:32:26.000Z</time>
      </trkpt>
      <trkpt lat="47.33494" lon="-2.3671">
        <ele>17.60000038147</ele>
        <time>2022-02-03T09:32:27.000Z</time>
      </trkpt>
      <trkpt lat="47.33497" lon="-2.36704">
        <ele>17.60000038147</ele>
        <time>2022-02-03T09:32:29.000Z</time>
      </trkpt>
      <trkpt lat="47.33504" lon="-2.36692">
        <ele>17.60000038147</ele>
        <time>2022-02-03T09:32:33.000Z</time>
      </trkpt>
      <trkpt lat="47.33505" lon="-2.36689">
        <ele>17.60000038147</ele>
        <time>2022-02-03T09:32:34.000Z</time>
      </trkpt>
      <trkpt lat="47.33514" lon="-2.36671">
        <ele>17.60000038147</ele>
        <time>2022-02-03T09:32:39.000Z</time>
      </trkpt>
      <trkpt lat="47.33526" lon="-2.36655">
        <ele>17.60000038147</ele>
        <time>2022-02-03T09:32:45.000Z</time>
      </trkpt>
      <trkpt lat="47.33539" lon="-2.36635">
        <ele>17.60000038147</ele>
        <time>2022-02-03T09:32:51.000Z</time>
      </trkpt>
      <trkpt lat="47.33538" lon="-2.36633">
        <ele>17.60000038147</ele>
        <time>2022-02-03T09:32:52.000Z</time>
      </trkpt>
      <trkpt lat="47.33537" lon="-2.36631">
        <ele>17.60000038147</ele>
        <time>2022-02-03T09:32:53.000Z</time>
      </trkpt>
      <trkpt lat="47.33533" lon="-2.36626">
        <ele>18</ele>
        <time>2022-02-03T09:32:56.000Z</time>
      </trkpt>
      <trkpt lat="47.33532" lon="-2.36623">
        <ele>18.60000038147</ele>
        <time>2022-02-03T09:32:57.000Z</time>
      </trkpt>
      <trkpt lat="47.33531" lon="-2.36621">
        <ele>19.200000762939</ele>
        <time>2022-02-03T09:32:58.000Z</time>
      </trkpt>
      <trkpt lat="47.3353" lon="-2.36619">
        <ele>19.60000038147</ele>
        <time>2022-02-03T09:32:59.000Z</time>
      </trkpt>
      <trkpt lat="47.33528" lon="-2.36617">
        <ele>20.200000762939</ele>
        <time>2022-02-03T09:33:00.000Z</time>
      </trkpt>
      <trkpt lat="47.33525" lon="-2.36613">
        <ele>20.60000038147</ele>
        <time>2022-02-03T09:33:02.000Z</time>
      </trkpt>
      <trkpt lat="47.33523" lon="-2.36612">
        <ele>21</ele>
        <time>2022-02-03T09:33:03.000Z</time>
      </trkpt>
      <trkpt lat="47.3352" lon="-2.3661">
        <ele>21.60000038147</ele>
        <time>2022-02-03T09:33:04.000Z</time>
      </trkpt>
      <trkpt lat="47.33517" lon="-2.36609">
        <ele>22</ele>
        <time>2022-02-03T09:33:05.000Z</time>
      </trkpt>
      <trkpt lat="47.33515" lon="-2.36608">
        <ele>22.39999961853</ele>
        <time>2022-02-03T09:33:06.000Z</time>
      </trkpt>
      <trkpt lat="47.33504" lon="-2.36599">
        <ele>22.39999961853</ele>
        <time>2022-02-03T09:33:10.000Z</time>
      </trkpt>
      <trkpt lat="47.33494" lon="-2.36596">
        <ele>22.799999237061</ele>
        <time>2022-02-03T09:33:13.000Z</time>
      </trkpt>
      <trkpt lat="47.33491" lon="-2.36595">
        <ele>23.200000762939</ele>
        <time>2022-02-03T09:33:14.000Z</time>
      </trkpt>
      <trkpt lat="47.33488" lon="-2.36595">
        <ele>23.60000038147</ele>
        <time>2022-02-03T09:33:15.000Z</time>
      </trkpt>
      <trkpt lat="47.33485" lon="-2.36595">
        <ele>24</ele>
        <time>2022-02-03T09:33:16.000Z</time>
      </trkpt>
      <trkpt lat="47.33482" lon="-2.36595">
        <ele>24.39999961853</ele>
        <time>2022-02-03T09:33:17.000Z</time>
      </trkpt>
      <trkpt lat="47.3347" lon="-2.36591">
        <ele>24.39999961853</ele>
        <time>2022-02-03T09:33:21.000Z</time>
      </trkpt>
      <trkpt lat="47.33468" lon="-2.36589">
        <ele>24.39999961853</ele>
        <time>2022-02-03T09:33:22.000Z</time>
      </trkpt>
      <trkpt lat="47.33464" lon="-2.36574">
        <ele>24.39999961853</ele>
        <time>2022-02-03T09:33:26.000Z</time>
      </trkpt>
      <trkpt lat="47.33462" lon="-2.36544">
        <ele>24.39999961853</ele>
        <time>2022-02-03T09:33:33.000Z</time>
      </trkpt>
      <trkpt lat="47.33467" lon="-2.36514">
        <ele>24.39999961853</ele>
        <time>2022-02-03T09:33:39.000Z</time>
      </trkpt>
      <trkpt lat="47.33473" lon="-2.36478">
        <ele>24.39999961853</ele>
        <time>2022-02-03T09:33:46.000Z</time>
      </trkpt>
      <trkpt lat="47.33474" lon="-2.36461">
        <ele>24.39999961853</ele>
        <time>2022-02-03T09:33:52.000Z</time>
      </trkpt>
      <trkpt lat="47.33476" lon="-2.36446">
        <ele>24.39999961853</ele>
        <time>2022-02-03T09:33:59.000Z</time>
      </trkpt>
      <trkpt lat="47.33478" lon="-2.36439">
        <ele>24.39999961853</ele>
        <time>2022-02-03T09:34:03.000Z</time>
      </trkpt>
      <trkpt lat="47.33477" lon="-2.36425">
        <ele>24.39999961853</ele>
        <time>2022-02-03T09:34:21.000Z</time>
      </trkpt>
      <trkpt lat="47.33477" lon="-2.36423">
        <ele>24.39999961853</ele>
        <time>2022-02-03T09:34:22.000Z</time>
      </trkpt>
      <trkpt lat="47.33476" lon="-2.36421">
        <ele>24.39999961853</ele>
        <time>2022-02-03T09:34:23.000Z</time>
      </trkpt>
      <trkpt lat="47.33474" lon="-2.36417">
        <ele>24.39999961853</ele>
        <time>2022-02-03T09:34:26.000Z</time>
      </trkpt>
      <trkpt lat="47.33472" lon="-2.36416">
        <ele>24.39999961853</ele>
        <time>2022-02-03T09:34:28.000Z</time>
      </trkpt>
      <trkpt lat="47.33465" lon="-2.36414">
        <ele>24.39999961853</ele>
        <time>2022-02-03T09:34:32.000Z</time>
      </trkpt>
      <trkpt lat="47.33455" lon="-2.36407">
        <ele>24.799999237061</ele>
        <time>2022-02-03T09:34:37.000Z</time>
      </trkpt>
      <trkpt lat="47.33452" lon="-2.36406">
        <ele>25.200000762939</ele>
        <time>2022-02-03T09:34:38.000Z</time>
      </trkpt>
      <trkpt lat="47.33451" lon="-2.36404">
        <ele>25.60000038147</ele>
        <time>2022-02-03T09:34:39.000Z</time>
      </trkpt>
      <trkpt lat="47.3345" lon="-2.36401">
        <ele>26</ele>
        <time>2022-02-03T09:34:40.000Z</time>
      </trkpt>
      <trkpt lat="47.3345" lon="-2.36398">
        <ele>26.60000038147</ele>
        <time>2022-02-03T09:34:41.000Z</time>
      </trkpt>
      <trkpt lat="47.33447" lon="-2.36391">
        <ele>26.60000038147</ele>
        <time>2022-02-03T09:34:44.000Z</time>
      </trkpt>
      <trkpt lat="47.33443" lon="-2.3638">
        <ele>26.60000038147</ele>
        <time>2022-02-03T09:34:47.000Z</time>
      </trkpt>
      <trkpt lat="47.33434" lon="-2.36354">
        <ele>26.60000038147</ele>
        <time>2022-02-03T09:34:53.000Z</time>
      </trkpt>
      <trkpt lat="47.33426" lon="-2.36332">
        <ele>27</ele>
        <time>2022-02-03T09:34:58.000Z</time>
      </trkpt>
      <trkpt lat="47.33425" lon="-2.36327">
        <ele>27.39999961853</ele>
        <time>2022-02-03T09:34:59.000Z</time>
      </trkpt>
      <trkpt lat="47.33424" lon="-2.36322">
        <ele>27.799999237061</ele>
        <time>2022-02-03T09:35:00.000Z</time>
      </trkpt>
      <trkpt lat="47.33423" lon="-2.36318">
        <ele>28.200000762939</ele>
        <time>2022-02-03T09:35:01.000Z</time>
      </trkpt>
      <trkpt lat="47.33422" lon="-2.36313">
        <ele>28.60000038147</ele>
        <time>2022-02-03T09:35:02.000Z</time>
      </trkpt>
      <trkpt lat="47.33417" lon="-2.36299">
        <ele>28.60000038147</ele>
        <time>2022-02-03T09:35:05.000Z</time>
      </trkpt>
      <trkpt lat="47.33412" lon="-2.36268">
        <ele>28.60000038147</ele>
        <time>2022-02-03T09:35:10.000Z</time>
      </trkpt>
      <trkpt lat="47.33412" lon="-2.36261">
        <ele>28.60000038147</ele>
        <time>2022-02-03T09:35:11.000Z</time>
      </trkpt>
      <trkpt lat="47.33413" lon="-2.36214">
        <ele>28.60000038147</ele>
        <time>2022-02-03T09:35:18.000Z</time>
      </trkpt>
      <trkpt lat="47.33414" lon="-2.36209">
        <ele>29</ele>
        <time>2022-02-03T09:35:19.000Z</time>
      </trkpt>
      <trkpt lat="47.33414" lon="-2.36204">
        <ele>29.39999961853</ele>
        <time>2022-02-03T09:35:20.000Z</time>
      </trkpt>
      <trkpt lat="47.33414" lon="-2.36198">
        <ele>29.799999237061</ele>
        <time>2022-02-03T09:35:21.000Z</time>
      </trkpt>
      <trkpt lat="47.33414" lon="-2.36192">
        <ele>30.200000762939</ele>
        <time>2022-02-03T09:35:22.000Z</time>
      </trkpt>
      <trkpt lat="47.33414" lon="-2.36186">
        <ele>30.60000038147</ele>
        <time>2022-02-03T09:35:23.000Z</time>
      </trkpt>
      <trkpt lat="47.33413" lon="-2.36154">
        <ele>30.60000038147</ele>
        <time>2022-02-03T09:35:29.000Z</time>
      </trkpt>
      <trkpt lat="47.33416" lon="-2.36143">
        <ele>30.60000038147</ele>
        <time>2022-02-03T09:35:31.000Z</time>
      </trkpt>
      <trkpt lat="47.33422" lon="-2.36131">
        <ele>30.60000038147</ele>
        <time>2022-02-03T09:35:33.000Z</time>
      </trkpt>
      <trkpt lat="47.33441" lon="-2.36093">
        <ele>30.60000038147</ele>
        <time>2022-02-03T09:35:39.000Z</time>
      </trkpt>
      <trkpt lat="47.33451" lon="-2.36081">
        <ele>30.60000038147</ele>
        <time>2022-02-03T09:35:41.000Z</time>
      </trkpt>
      <trkpt lat="47.33467" lon="-2.36064">
        <ele>30.60000038147</ele>
        <time>2022-02-03T09:35:44.000Z</time>
      </trkpt>
      <trkpt lat="47.33496" lon="-2.36028">
        <ele>30.60000038147</ele>
        <time>2022-02-03T09:35:49.000Z</time>
      </trkpt>
      <trkpt lat="47.33528" lon="-2.35995">
        <ele>30.60000038147</ele>
        <time>2022-02-03T09:35:54.000Z</time>
      </trkpt>
      <trkpt lat="47.33535" lon="-2.35991">
        <ele>30.60000038147</ele>
        <time>2022-02-03T09:35:55.000Z</time>
      </trkpt>
      <trkpt lat="47.33578" lon="-2.35975">
        <ele>30.60000038147</ele>
        <time>2022-02-03T09:36:01.000Z</time>
      </trkpt>
      <trkpt lat="47.3362" lon="-2.35972">
        <ele>30.60000038147</ele>
        <time>2022-02-03T09:36:07.000Z</time>
      </trkpt>
      <trkpt lat="47.33626" lon="-2.35973">
        <ele>30.60000038147</ele>
        <time>2022-02-03T09:36:08.000Z</time>
      </trkpt>
      <trkpt lat="47.33651" lon="-2.35985">
        <ele>30.60000038147</ele>
        <time>2022-02-03T09:36:12.000Z</time>
      </trkpt>
      <trkpt lat="47.33697" lon="-2.36003">
        <ele>30.60000038147</ele>
        <time>2022-02-03T09:36:19.000Z</time>
      </trkpt>
      <trkpt lat="47.33722" lon="-2.35994">
        <ele>30.60000038147</ele>
        <time>2022-02-03T09:36:23.000Z</time>
      </trkpt>
      <trkpt lat="47.33734" lon="-2.35986">
        <ele>30.60000038147</ele>
        <time>2022-02-03T09:36:25.000Z</time>
      </trkpt>
      <trkpt lat="47.33759" lon="-2.3597">
        <ele>30.200000762939</ele>
        <time>2022-02-03T09:36:29.000Z</time>
      </trkpt>
      <trkpt lat="47.33766" lon="-2.35967">
        <ele>29.799999237061</ele>
        <time>2022-02-03T09:36:30.000Z</time>
      </trkpt>
      <trkpt lat="47.33773" lon="-2.35963">
        <ele>29.39999961853</ele>
        <time>2022-02-03T09:36:31.000Z</time>
      </trkpt>
      <trkpt lat="47.3378" lon="-2.35959">
        <ele>28.799999237061</ele>
        <time>2022-02-03T09:36:32.000Z</time>
      </trkpt>
      <trkpt lat="47.33788" lon="-2.35957">
        <ele>28.39999961853</ele>
        <time>2022-02-03T09:36:33.000Z</time>
      </trkpt>
      <trkpt lat="47.33795" lon="-2.35955">
        <ele>28.39999961853</ele>
        <time>2022-02-03T09:36:34.000Z</time>
      </trkpt>
      <trkpt lat="47.33812" lon="-2.35952">
        <ele>28</ele>
        <time>2022-02-03T09:36:36.000Z</time>
      </trkpt>
      <trkpt lat="47.3382" lon="-2.35951">
        <ele>27.60000038147</ele>
        <time>2022-02-03T09:36:37.000Z</time>
      </trkpt>
      <trkpt lat="47.33829" lon="-2.35949">
        <ele>27</ele>
        <time>2022-02-03T09:36:38.000Z</time>
      </trkpt>
      <trkpt lat="47.33838" lon="-2.35947">
        <ele>26.60000038147</ele>
        <time>2022-02-03T09:36:39.000Z</time>
      </trkpt>
      <trkpt lat="47.33848" lon="-2.35945">
        <ele>26</ele>
        <time>2022-02-03T09:36:40.000Z</time>
      </trkpt>
      <trkpt lat="47.33858" lon="-2.35943">
        <ele>25.39999961853</ele>
        <time>2022-02-03T09:36:41.000Z</time>
      </trkpt>
      <trkpt lat="47.33868" lon="-2.35941">
        <ele>25</ele>
        <time>2022-02-03T09:36:42.000Z</time>
      </trkpt>
      <trkpt lat="47.33878" lon="-2.35939">
        <ele>24.39999961853</ele>
        <time>2022-02-03T09:36:43.000Z</time>
      </trkpt>
      <trkpt lat="47.33888" lon="-2.35937">
        <ele>23.799999237061</ele>
        <time>2022-02-03T09:36:44.000Z</time>
      </trkpt>
      <trkpt lat="47.33898" lon="-2.35935">
        <ele>23.200000762939</ele>
        <time>2022-02-03T09:36:45.000Z</time>
      </trkpt>
      <trkpt lat="47.33908" lon="-2.35933">
        <ele>22.60000038147</ele>
        <time>2022-02-03T09:36:46.000Z</time>
      </trkpt>
      <trkpt lat="47.33918" lon="-2.35931">
        <ele>22</ele>
        <time>2022-02-03T09:36:47.000Z</time>
      </trkpt>
      <trkpt lat="47.33929" lon="-2.35928">
        <ele>21.60000038147</ele>
        <time>2022-02-03T09:36:48.000Z</time>
      </trkpt>
      <trkpt lat="47.33949" lon="-2.35923">
        <ele>21</ele>
        <time>2022-02-03T09:36:50.000Z</time>
      </trkpt>
      <trkpt lat="47.33958" lon="-2.3592">
        <ele>20.200000762939</ele>
        <time>2022-02-03T09:36:51.000Z</time>
      </trkpt>
      <trkpt lat="47.33967" lon="-2.35917">
        <ele>19.60000038147</ele>
        <time>2022-02-03T09:36:52.000Z</time>
      </trkpt>
      <trkpt lat="47.33976" lon="-2.35915">
        <ele>19.200000762939</ele>
        <time>2022-02-03T09:36:53.000Z</time>
      </trkpt>
      <trkpt lat="47.33995" lon="-2.35908">
        <ele>18.799999237061</ele>
        <time>2022-02-03T09:36:55.000Z</time>
      </trkpt>
      <trkpt lat="47.34004" lon="-2.35905">
        <ele>18.39999961853</ele>
        <time>2022-02-03T09:36:56.000Z</time>
      </trkpt>
      <trkpt lat="47.34014" lon="-2.35902">
        <ele>18</ele>
        <time>2022-02-03T09:36:57.000Z</time>
      </trkpt>
      <trkpt lat="47.34024" lon="-2.35898">
        <ele>17.60000038147</ele>
        <time>2022-02-03T09:36:58.000Z</time>
      </trkpt>
      <trkpt lat="47.34033" lon="-2.35895">
        <ele>17.200000762939</ele>
        <time>2022-02-03T09:36:59.000Z</time>
      </trkpt>
      <trkpt lat="47.34042" lon="-2.35891">
        <ele>16.799999237061</ele>
        <time>2022-02-03T09:37:00.000Z</time>
      </trkpt>
      <trkpt lat="47.34052" lon="-2.35888">
        <ele>16.200000762939</ele>
        <time>2022-02-03T09:37:01.000Z</time>
      </trkpt>
      <trkpt lat="47.34061" lon="-2.35885">
        <ele>15.800000190735</ele>
        <time>2022-02-03T09:37:02.000Z</time>
      </trkpt>
      <trkpt lat="47.3407" lon="-2.35881">
        <ele>15.39999961853</ele>
        <time>2022-02-03T09:37:03.000Z</time>
      </trkpt>
      <trkpt lat="47.34078" lon="-2.35878">
        <ele>14.800000190735</ele>
        <time>2022-02-03T09:37:04.000Z</time>
      </trkpt>
      <trkpt lat="47.34095" lon="-2.35872">
        <ele>14.39999961853</ele>
        <time>2022-02-03T09:37:06.000Z</time>
      </trkpt>
      <trkpt lat="47.34103" lon="-2.35869">
        <ele>14</ele>
        <time>2022-02-03T09:37:07.000Z</time>
      </trkpt>
      <trkpt lat="47.34111" lon="-2.35865">
        <ele>13.60000038147</ele>
        <time>2022-02-03T09:37:08.000Z</time>
      </trkpt>
      <trkpt lat="47.34119" lon="-2.35861">
        <ele>13</ele>
        <time>2022-02-03T09:37:09.000Z</time>
      </trkpt>
      <trkpt lat="47.34126" lon="-2.35857">
        <ele>12.60000038147</ele>
        <time>2022-02-03T09:37:10.000Z</time>
      </trkpt>
      <trkpt lat="47.3416" lon="-2.35835">
        <ele>12.60000038147</ele>
        <time>2022-02-03T09:37:15.000Z</time>
      </trkpt>
      <trkpt lat="47.34193" lon="-2.35809">
        <ele>12.60000038147</ele>
        <time>2022-02-03T09:37:21.000Z</time>
      </trkpt>
      <trkpt lat="47.34224" lon="-2.35781">
        <ele>12.60000038147</ele>
        <time>2022-02-03T09:37:28.000Z</time>
      </trkpt>
      <trkpt lat="47.34227" lon="-2.35766">
        <ele>12.60000038147</ele>
        <time>2022-02-03T09:37:31.000Z</time>
      </trkpt>
      <trkpt lat="47.34227" lon="-2.35762">
        <ele>12.60000038147</ele>
        <time>2022-02-03T09:37:32.000Z</time>
      </trkpt>
      <trkpt lat="47.34223" lon="-2.35738">
        <ele>12.60000038147</ele>
        <time>2022-02-03T09:37:37.000Z</time>
      </trkpt>
      <trkpt lat="47.3422" lon="-2.35734">
        <ele>12.60000038147</ele>
        <time>2022-02-03T09:37:41.000Z</time>
      </trkpt>
      <trkpt lat="47.34212" lon="-2.35724">
        <ele>12.60000038147</ele>
        <time>2022-02-03T09:37:46.000Z</time>
      </trkpt>
      <trkpt lat="47.34211" lon="-2.35716">
        <ele>13</ele>
        <time>2022-02-03T09:37:49.000Z</time>
      </trkpt>
      <trkpt lat="47.3421" lon="-2.35713">
        <ele>13.60000038147</ele>
        <time>2022-02-03T09:37:50.000Z</time>
      </trkpt>
      <trkpt lat="47.3421" lon="-2.35709">
        <ele>14</ele>
        <time>2022-02-03T09:37:51.000Z</time>
      </trkpt>
      <trkpt lat="47.34208" lon="-2.35705">
        <ele>14.39999961853</ele>
        <time>2022-02-03T09:37:52.000Z</time>
      </trkpt>
      <trkpt lat="47.34206" lon="-2.35701">
        <ele>15</ele>
        <time>2022-02-03T09:37:53.000Z</time>
      </trkpt>
      <trkpt lat="47.342" lon="-2.35694">
        <ele>15.39999961853</ele>
        <time>2022-02-03T09:37:55.000Z</time>
      </trkpt>
      <trkpt lat="47.34197" lon="-2.35691">
        <ele>15.800000190735</ele>
        <time>2022-02-03T09:37:56.000Z</time>
      </trkpt>
      <trkpt lat="47.34195" lon="-2.35686">
        <ele>16.200000762939</ele>
        <time>2022-02-03T09:37:57.000Z</time>
      </trkpt>
      <trkpt lat="47.34192" lon="-2.35682">
        <ele>16.60000038147</ele>
        <time>2022-02-03T09:37:58.000Z</time>
      </trkpt>
      <trkpt lat="47.3419" lon="-2.35678">
        <ele>17</ele>
        <time>2022-02-03T09:37:59.000Z</time>
      </trkpt>
      <trkpt lat="47.34187" lon="-2.35673">
        <ele>17</ele>
        <time>2022-02-03T09:38:00.000Z</time>
      </trkpt>
      <trkpt lat="47.34182" lon="-2.35664">
        <ele>17.60000038147</ele>
        <time>2022-02-03T09:38:02.000Z</time>
      </trkpt>
      <trkpt lat="47.34178" lon="-2.35659">
        <ele>18</ele>
        <time>2022-02-03T09:38:03.000Z</time>
      </trkpt>
      <trkpt lat="47.34175" lon="-2.35655">
        <ele>18.799999237061</ele>
        <time>2022-02-03T09:38:04.000Z</time>
      </trkpt>
      <trkpt lat="47.34172" lon="-2.35651">
        <ele>19.200000762939</ele>
        <time>2022-02-03T09:38:05.000Z</time>
      </trkpt>
      <trkpt lat="47.34165" lon="-2.35642">
        <ele>19.200000762939</ele>
        <time>2022-02-03T09:38:07.000Z</time>
      </trkpt>
      <trkpt lat="47.34162" lon="-2.35636">
        <ele>19.200000762939</ele>
        <time>2022-02-03T09:38:08.000Z</time>
      </trkpt>
      <trkpt lat="47.34146" lon="-2.35609">
        <ele>19.200000762939</ele>
        <time>2022-02-03T09:38:13.000Z</time>
      </trkpt>
      <trkpt lat="47.34143" lon="-2.35603">
        <ele>19.60000038147</ele>
        <time>2022-02-03T09:38:14.000Z</time>
      </trkpt>
      <trkpt lat="47.3414" lon="-2.35597">
        <ele>20</ele>
        <time>2022-02-03T09:38:15.000Z</time>
      </trkpt>
      <trkpt lat="47.34138" lon="-2.3559">
        <ele>20.39999961853</ele>
        <time>2022-02-03T09:38:16.000Z</time>
      </trkpt>
      <trkpt lat="47.34135" lon="-2.35583">
        <ele>20.799999237061</ele>
        <time>2022-02-03T09:38:17.000Z</time>
      </trkpt>
      <trkpt lat="47.34133" lon="-2.35577">
        <ele>21.200000762939</ele>
        <time>2022-02-03T09:38:18.000Z</time>
      </trkpt>
      <trkpt lat="47.34131" lon="-2.3557">
        <ele>21.200000762939</ele>
        <time>2022-02-03T09:38:19.000Z</time>
      </trkpt>
      <trkpt lat="47.3412" lon="-2.35537">
        <ele>21.200000762939</ele>
        <time>2022-02-03T09:38:24.000Z</time>
      </trkpt>
      <trkpt lat="47.34118" lon="-2.35531">
        <ele>21.200000762939</ele>
        <time>2022-02-03T09:38:25.000Z</time>
      </trkpt>
      <trkpt lat="47.34101" lon="-2.35484">
        <ele>21.200000762939</ele>
        <time>2022-02-03T09:38:32.000Z</time>
      </trkpt>
      <trkpt lat="47.34083" lon="-2.35435">
        <ele>21.200000762939</ele>
        <time>2022-02-03T09:38:39.000Z</time>
      </trkpt>
      <trkpt lat="47.34068" lon="-2.35394">
        <ele>21.200000762939</ele>
        <time>2022-02-03T09:38:45.000Z</time>
      </trkpt>
      <trkpt lat="47.34049" lon="-2.35358">
        <ele>21.200000762939</ele>
        <time>2022-02-03T09:38:51.000Z</time>
      </trkpt>
      <trkpt lat="47.34045" lon="-2.35353">
        <ele>21.200000762939</ele>
        <time>2022-02-03T09:38:52.000Z</time>
      </trkpt>
      <trkpt lat="47.34014" lon="-2.35321">
        <ele>21.200000762939</ele>
        <time>2022-02-03T09:38:59.000Z</time>
      </trkpt>
      <trkpt lat="47.3401" lon="-2.35317">
        <ele>21.200000762939</ele>
        <time>2022-02-03T09:39:00.000Z</time>
      </trkpt>
      <trkpt lat="47.33989" lon="-2.35296">
        <ele>21.200000762939</ele>
        <time>2022-02-03T09:39:05.000Z</time>
      </trkpt>
      <trkpt lat="47.33977" lon="-2.35285">
        <ele>21.60000038147</ele>
        <time>2022-02-03T09:39:08.000Z</time>
      </trkpt>
      <trkpt lat="47.33974" lon="-2.35281">
        <ele>22.200000762939</ele>
        <time>2022-02-03T09:39:09.000Z</time>
      </trkpt>
      <trkpt lat="47.3397" lon="-2.35277">
        <ele>22.60000038147</ele>
        <time>2022-02-03T09:39:10.000Z</time>
      </trkpt>
      <trkpt lat="47.33966" lon="-2.35273">
        <ele>23</ele>
        <time>2022-02-03T09:39:11.000Z</time>
      </trkpt>
      <trkpt lat="47.33963" lon="-2.35269">
        <ele>23.39999961853</ele>
        <time>2022-02-03T09:39:12.000Z</time>
      </trkpt>
      <trkpt lat="47.33956" lon="-2.35259">
        <ele>23.39999961853</ele>
        <time>2022-02-03T09:39:14.000Z</time>
      </trkpt>
      <trkpt lat="47.3395" lon="-2.35249">
        <ele>23.799999237061</ele>
        <time>2022-02-03T09:39:16.000Z</time>
      </trkpt>
      <trkpt lat="47.33948" lon="-2.35243">
        <ele>24.200000762939</ele>
        <time>2022-02-03T09:39:17.000Z</time>
      </trkpt>
      <trkpt lat="47.33946" lon="-2.35237">
        <ele>24.799999237061</ele>
        <time>2022-02-03T09:39:18.000Z</time>
      </trkpt>
      <trkpt lat="47.33944" lon="-2.35231">
        <ele>25.60000038147</ele>
        <time>2022-02-03T09:39:19.000Z</time>
      </trkpt>
      <trkpt lat="47.3393" lon="-2.35201">
        <ele>25.60000038147</ele>
        <time>2022-02-03T09:39:25.000Z</time>
      </trkpt>
      <trkpt lat="47.33917" lon="-2.35184">
        <ele>25.60000038147</ele>
        <time>2022-02-03T09:39:29.000Z</time>
      </trkpt>
      <trkpt lat="47.3391" lon="-2.35176">
        <ele>25.60000038147</ele>
        <time>2022-02-03T09:39:31.000Z</time>
      </trkpt>
      <trkpt lat="47.33906" lon="-2.35173">
        <ele>25.60000038147</ele>
        <time>2022-02-03T09:39:32.000Z</time>
      </trkpt>
      <trkpt lat="47.33886" lon="-2.35157">
        <ele>25.60000038147</ele>
        <time>2022-02-03T09:39:37.000Z</time>
      </trkpt>
      <trkpt lat="47.33882" lon="-2.35154">
        <ele>25.60000038147</ele>
        <time>2022-02-03T09:39:38.000Z</time>
      </trkpt>
      <trkpt lat="47.33859" lon="-2.35133">
        <ele>25.60000038147</ele>
        <time>2022-02-03T09:39:43.000Z</time>
      </trkpt>
      <trkpt lat="47.33828" lon="-2.35113">
        <ele>25.60000038147</ele>
        <time>2022-02-03T09:39:49.000Z</time>
      </trkpt>
      <trkpt lat="47.33796" lon="-2.35094">
        <ele>25.60000038147</ele>
        <time>2022-02-03T09:39:55.000Z</time>
      </trkpt>
      <trkpt lat="47.33756" lon="-2.3507">
        <ele>25.60000038147</ele>
        <time>2022-02-03T09:40:02.000Z</time>
      </trkpt>
      <trkpt lat="47.33751" lon="-2.35066">
        <ele>25.60000038147</ele>
        <time>2022-02-03T09:40:03.000Z</time>
      </trkpt>
      <trkpt lat="47.33734" lon="-2.35048">
        <ele>25.60000038147</ele>
        <time>2022-02-03T09:40:07.000Z</time>
      </trkpt>
      <trkpt lat="47.3373" lon="-2.35043">
        <ele>25.200000762939</ele>
        <time>2022-02-03T09:40:08.000Z</time>
      </trkpt>
      <trkpt lat="47.33727" lon="-2.35039">
        <ele>24.799999237061</ele>
        <time>2022-02-03T09:40:09.000Z</time>
      </trkpt>
      <trkpt lat="47.33724" lon="-2.35034">
        <ele>24.39999961853</ele>
        <time>2022-02-03T09:40:10.000Z</time>
      </trkpt>
      <trkpt lat="47.33721" lon="-2.35031">
        <ele>24</ele>
        <time>2022-02-03T09:40:11.000Z</time>
      </trkpt>
      <trkpt lat="47.33717" lon="-2.35027">
        <ele>23.60000038147</ele>
        <time>2022-02-03T09:40:12.000Z</time>
      </trkpt>
      <trkpt lat="47.33712" lon="-2.35018">
        <ele>23.60000038147</ele>
        <time>2022-02-03T09:40:14.000Z</time>
      </trkpt>
      <trkpt lat="47.3371" lon="-2.35002">
        <ele>23.60000038147</ele>
        <time>2022-02-03T09:40:17.000Z</time>
      </trkpt>
      <trkpt lat="47.33711" lon="-2.34998">
        <ele>23.60000038147</ele>
        <time>2022-02-03T09:40:18.000Z</time>
      </trkpt>
      <trkpt lat="47.33722" lon="-2.34988">
        <ele>23.60000038147</ele>
        <time>2022-02-03T09:40:21.000Z</time>
      </trkpt>
      <trkpt lat="47.33731" lon="-2.34979">
        <ele>23.60000038147</ele>
        <time>2022-02-03T09:40:23.000Z</time>
      </trkpt>
      <trkpt lat="47.33747" lon="-2.34965">
        <ele>23.60000038147</ele>
        <time>2022-02-03T09:40:26.000Z</time>
      </trkpt>
      <trkpt lat="47.33776" lon="-2.34939">
        <ele>23.60000038147</ele>
        <time>2022-02-03T09:40:32.000Z</time>
      </trkpt>
      <trkpt lat="47.33779" lon="-2.34934">
        <ele>22.60000038147</ele>
        <time>2022-02-03T09:40:33.000Z</time>
      </trkpt>
      <trkpt lat="47.33781" lon="-2.3493">
        <ele>22.200000762939</ele>
        <time>2022-02-03T09:40:34.000Z</time>
      </trkpt>
      <trkpt lat="47.33784" lon="-2.34926">
        <ele>21.799999237061</ele>
        <time>2022-02-03T09:40:35.000Z</time>
      </trkpt>
      <trkpt lat="47.33787" lon="-2.34923">
        <ele>21.39999961853</ele>
        <time>2022-02-03T09:40:36.000Z</time>
      </trkpt>
      <trkpt lat="47.33795" lon="-2.3491">
        <ele>21.39999961853</ele>
        <time>2022-02-03T09:40:41.000Z</time>
      </trkpt>
      <trkpt lat="47.33796" lon="-2.34905">
        <ele>21.39999961853</ele>
        <time>2022-02-03T09:40:43.000Z</time>
      </trkpt>
      <trkpt lat="47.33799" lon="-2.34899">
        <ele>21.39999961853</ele>
        <time>2022-02-03T09:40:46.000Z</time>
      </trkpt>
      <trkpt lat="47.33805" lon="-2.34888">
        <ele>21.39999961853</ele>
        <time>2022-02-03T09:40:51.000Z</time>
      </trkpt>
      <trkpt lat="47.3381" lon="-2.34874">
        <ele>21.39999961853</ele>
        <time>2022-02-03T09:40:56.000Z</time>
      </trkpt>
      <trkpt lat="47.33813" lon="-2.3487">
        <ele>21.39999961853</ele>
        <time>2022-02-03T09:40:58.000Z</time>
      </trkpt>
      <trkpt lat="47.33821" lon="-2.34863">
        <ele>21.39999961853</ele>
        <time>2022-02-03T09:41:01.000Z</time>
      </trkpt>
      <trkpt lat="47.33828" lon="-2.34857">
        <ele>21.39999961853</ele>
        <time>2022-02-03T09:41:04.000Z</time>
      </trkpt>
      <trkpt lat="47.3383" lon="-2.34856">
        <ele>21</ele>
        <time>2022-02-03T09:41:05.000Z</time>
      </trkpt>
      <trkpt lat="47.33832" lon="-2.34855">
        <ele>20.60000038147</ele>
        <time>2022-02-03T09:41:06.000Z</time>
      </trkpt>
      <trkpt lat="47.33834" lon="-2.34854">
        <ele>20.200000762939</ele>
        <time>2022-02-03T09:41:07.000Z</time>
      </trkpt>
      <trkpt lat="47.33836" lon="-2.34852">
        <ele>19.799999237061</ele>
        <time>2022-02-03T09:41:08.000Z</time>
      </trkpt>
      <trkpt lat="47.33837" lon="-2.34852">
        <ele>19.39999961853</ele>
        <time>2022-02-03T09:41:09.000Z</time>
      </trkpt>
      <trkpt lat="47.33842" lon="-2.34848">
        <ele>19.39999961853</ele>
        <time>2022-02-03T09:41:12.000Z</time>
      </trkpt>
      <trkpt lat="47.3385" lon="-2.34837">
        <ele>19.39999961853</ele>
        <time>2022-02-03T09:41:18.000Z</time>
      </trkpt>
      <trkpt lat="47.33857" lon="-2.34817">
        <ele>19.39999961853</ele>
        <time>2022-02-03T09:41:24.000Z</time>
      </trkpt>
      <trkpt lat="47.33864" lon="-2.34788">
        <ele>19.39999961853</ele>
        <time>2022-02-03T09:41:30.000Z</time>
      </trkpt>
      <trkpt lat="47.33869" lon="-2.34746">
        <ele>19.39999961853</ele>
        <time>2022-02-03T09:41:38.000Z</time>
      </trkpt>
      <trkpt lat="47.3387" lon="-2.3474">
        <ele>19.799999237061</ele>
        <time>2022-02-03T09:41:39.000Z</time>
      </trkpt>
      <trkpt lat="47.3387" lon="-2.34734">
        <ele>20.200000762939</ele>
        <time>2022-02-03T09:41:40.000Z</time>
      </trkpt>
      <trkpt lat="47.3387" lon="-2.34728">
        <ele>20.60000038147</ele>
        <time>2022-02-03T09:41:41.000Z</time>
      </trkpt>
      <trkpt lat="47.3387" lon="-2.34722">
        <ele>21.200000762939</ele>
        <time>2022-02-03T09:41:42.000Z</time>
      </trkpt>
      <trkpt lat="47.3387" lon="-2.34716">
        <ele>21.60000038147</ele>
        <time>2022-02-03T09:41:43.000Z</time>
      </trkpt>
      <trkpt lat="47.33871" lon="-2.34702">
        <ele>21.60000038147</ele>
        <time>2022-02-03T09:41:45.000Z</time>
      </trkpt>
      <trkpt lat="47.33876" lon="-2.34667">
        <ele>21.60000038147</ele>
        <time>2022-02-03T09:41:51.000Z</time>
      </trkpt>
      <trkpt lat="47.3388" lon="-2.34645">
        <ele>21.60000038147</ele>
        <time>2022-02-03T09:41:55.000Z</time>
      </trkpt>
      <trkpt lat="47.33884" lon="-2.34618">
        <ele>21.60000038147</ele>
        <time>2022-02-03T09:42:01.000Z</time>
      </trkpt>
      <trkpt lat="47.33892" lon="-2.34596">
        <ele>21.60000038147</ele>
        <time>2022-02-03T09:42:06.000Z</time>
      </trkpt>
      <trkpt lat="47.33905" lon="-2.34591">
        <ele>21.60000038147</ele>
        <time>2022-02-03T09:42:10.000Z</time>
      </trkpt>
      <trkpt lat="47.33915" lon="-2.34591">
        <ele>22</ele>
        <time>2022-02-03T09:42:13.000Z</time>
      </trkpt>
      <trkpt lat="47.3392" lon="-2.34591">
        <ele>22.39999961853</ele>
        <time>2022-02-03T09:42:14.000Z</time>
      </trkpt>
      <trkpt lat="47.33924" lon="-2.34591">
        <ele>22.799999237061</ele>
        <time>2022-02-03T09:42:15.000Z</time>
      </trkpt>
      <trkpt lat="47.33929" lon="-2.3459">
        <ele>23.200000762939</ele>
        <time>2022-02-03T09:42:16.000Z</time>
      </trkpt>
      <trkpt lat="47.33934" lon="-2.3459">
        <ele>23.60000038147</ele>
        <time>2022-02-03T09:42:17.000Z</time>
      </trkpt>
      <trkpt lat="47.33958" lon="-2.34589">
        <ele>23.60000038147</ele>
        <time>2022-02-03T09:42:22.000Z</time>
      </trkpt>
      <trkpt lat="47.33983" lon="-2.34594">
        <ele>23.60000038147</ele>
        <time>2022-02-03T09:42:27.000Z</time>
      </trkpt>
      <trkpt lat="47.34018" lon="-2.346">
        <ele>23.60000038147</ele>
        <time>2022-02-03T09:42:34.000Z</time>
      </trkpt>
      <trkpt lat="47.34043" lon="-2.34593">
        <ele>23.60000038147</ele>
        <time>2022-02-03T09:42:39.000Z</time>
      </trkpt>
      <trkpt lat="47.34048" lon="-2.34589">
        <ele>23.60000038147</ele>
        <time>2022-02-03T09:42:40.000Z</time>
      </trkpt>
      <trkpt lat="47.34064" lon="-2.34575">
        <ele>23.60000038147</ele>
        <time>2022-02-03T09:42:44.000Z</time>
      </trkpt>
      <trkpt lat="47.3408" lon="-2.34559">
        <ele>23.60000038147</ele>
        <time>2022-02-03T09:42:48.000Z</time>
      </trkpt>
      <trkpt lat="47.34109" lon="-2.34537">
        <ele>23.60000038147</ele>
        <time>2022-02-03T09:42:54.000Z</time>
      </trkpt>
      <trkpt lat="47.34142" lon="-2.34521">
        <ele>23.60000038147</ele>
        <time>2022-02-03T09:43:00.000Z</time>
      </trkpt>
      <trkpt lat="47.34187" lon="-2.34507">
        <ele>23.200000762939</ele>
        <time>2022-02-03T09:43:07.000Z</time>
      </trkpt>
      <trkpt lat="47.34194" lon="-2.34505">
        <ele>22.799999237061</ele>
        <time>2022-02-03T09:43:08.000Z</time>
      </trkpt>
      <trkpt lat="47.342" lon="-2.34501">
        <ele>22.39999961853</ele>
        <time>2022-02-03T09:43:09.000Z</time>
      </trkpt>
      <trkpt lat="47.34207" lon="-2.34498">
        <ele>21.799999237061</ele>
        <time>2022-02-03T09:43:10.000Z</time>
      </trkpt>
      <trkpt lat="47.34213" lon="-2.34495">
        <ele>21.39999961853</ele>
        <time>2022-02-03T09:43:11.000Z</time>
      </trkpt>
      <trkpt lat="47.34226" lon="-2.34489">
        <ele>21.39999961853</ele>
        <time>2022-02-03T09:43:13.000Z</time>
      </trkpt>
      <trkpt lat="47.34259" lon="-2.34474">
        <ele>21.39999961853</ele>
        <time>2022-02-03T09:43:19.000Z</time>
      </trkpt>
      <trkpt lat="47.34287" lon="-2.34465">
        <ele>21.39999961853</ele>
        <time>2022-02-03T09:43:24.000Z</time>
      </trkpt>
      <trkpt lat="47.34293" lon="-2.34465">
        <ele>21.39999961853</ele>
        <time>2022-02-03T09:43:25.000Z</time>
      </trkpt>
      <trkpt lat="47.3433" lon="-2.34461">
        <ele>21.39999961853</ele>
        <time>2022-02-03T09:43:31.000Z</time>
      </trkpt>
      <trkpt lat="47.34335" lon="-2.34459">
        <ele>21.39999961853</ele>
        <time>2022-02-03T09:43:32.000Z</time>
      </trkpt>
      <trkpt lat="47.34359" lon="-2.34447">
        <ele>21.39999961853</ele>
        <time>2022-02-03T09:43:36.000Z</time>
      </trkpt>
      <trkpt lat="47.34405" lon="-2.3442">
        <ele>21.39999961853</ele>
        <time>2022-02-03T09:43:44.000Z</time>
      </trkpt>
      <trkpt lat="47.34418" lon="-2.34414">
        <ele>21.39999961853</ele>
        <time>2022-02-03T09:43:46.000Z</time>
      </trkpt>
      <trkpt lat="47.34444" lon="-2.34405">
        <ele>21.39999961853</ele>
        <time>2022-02-03T09:43:50.000Z</time>
      </trkpt>
      <trkpt lat="47.3445" lon="-2.34403">
        <ele>20.60000038147</ele>
        <time>2022-02-03T09:43:51.000Z</time>
      </trkpt>
      <trkpt lat="47.34456" lon="-2.34401">
        <ele>20.200000762939</ele>
        <time>2022-02-03T09:43:52.000Z</time>
      </trkpt>
      <trkpt lat="47.34463" lon="-2.34399">
        <ele>19.799999237061</ele>
        <time>2022-02-03T09:43:53.000Z</time>
      </trkpt>
      <trkpt lat="47.34469" lon="-2.34396">
        <ele>19.39999961853</ele>
        <time>2022-02-03T09:43:54.000Z</time>
      </trkpt>
      <trkpt lat="47.34482" lon="-2.3439">
        <ele>19.39999961853</ele>
        <time>2022-02-03T09:43:56.000Z</time>
      </trkpt>
      <trkpt lat="47.34488" lon="-2.34386">
        <ele>19.39999961853</ele>
        <time>2022-02-03T09:43:57.000Z</time>
      </trkpt>
      <trkpt lat="47.34504" lon="-2.34369">
        <ele>19.39999961853</ele>
        <time>2022-02-03T09:44:00.000Z</time>
      </trkpt>
      <trkpt lat="47.34528" lon="-2.34341">
        <ele>19.39999961853</ele>
        <time>2022-02-03T09:44:05.000Z</time>
      </trkpt>
      <trkpt lat="47.34546" lon="-2.34325">
        <ele>19.39999961853</ele>
        <time>2022-02-03T09:44:09.000Z</time>
      </trkpt>
      <trkpt lat="47.34551" lon="-2.34321">
        <ele>19.39999961853</ele>
        <time>2022-02-03T09:44:10.000Z</time>
      </trkpt>
      <trkpt lat="47.34561" lon="-2.34314">
        <ele>19.39999961853</ele>
        <time>2022-02-03T09:44:12.000Z</time>
      </trkpt>
      <trkpt lat="47.34576" lon="-2.34303">
        <ele>19</ele>
        <time>2022-02-03T09:44:15.000Z</time>
      </trkpt>
      <trkpt lat="47.34582" lon="-2.34301">
        <ele>18.200000762939</ele>
        <time>2022-02-03T09:44:16.000Z</time>
      </trkpt>
      <trkpt lat="47.34588" lon="-2.34299">
        <ele>17.799999237061</ele>
        <time>2022-02-03T09:44:17.000Z</time>
      </trkpt>
      <trkpt lat="47.34595" lon="-2.34297">
        <ele>17.200000762939</ele>
        <time>2022-02-03T09:44:18.000Z</time>
      </trkpt>
      <trkpt lat="47.34602" lon="-2.34296">
        <ele>17.200000762939</ele>
        <time>2022-02-03T09:44:19.000Z</time>
      </trkpt>
      <trkpt lat="47.34614" lon="-2.34295">
        <ele>16.799999237061</ele>
        <time>2022-02-03T09:44:21.000Z</time>
      </trkpt>
      <trkpt lat="47.34619" lon="-2.34295">
        <ele>16.39999961853</ele>
        <time>2022-02-03T09:44:22.000Z</time>
      </trkpt>
      <trkpt lat="47.34623" lon="-2.34297">
        <ele>16</ele>
        <time>2022-02-03T09:44:23.000Z</time>
      </trkpt>
      <trkpt lat="47.34627" lon="-2.34298">
        <ele>15.60000038147</ele>
        <time>2022-02-03T09:44:24.000Z</time>
      </trkpt>
      <trkpt lat="47.3463" lon="-2.343">
        <ele>15.199999809265</ele>
        <time>2022-02-03T09:44:25.000Z</time>
      </trkpt>
      <trkpt lat="47.3463" lon="-2.34305">
        <ele>15.199999809265</ele>
        <time>2022-02-03T09:44:26.000Z</time>
      </trkpt>
      <trkpt lat="47.34625" lon="-2.34326">
        <ele>15.199999809265</ele>
        <time>2022-02-03T09:44:30.000Z</time>
      </trkpt>
      <trkpt lat="47.34623" lon="-2.34333">
        <ele>15.199999809265</ele>
        <time>2022-02-03T09:44:31.000Z</time>
      </trkpt>
      <trkpt lat="47.34615" lon="-2.34365">
        <ele>15.199999809265</ele>
        <time>2022-02-03T09:44:35.000Z</time>
      </trkpt>
      <trkpt lat="47.34613" lon="-2.34373">
        <ele>15.199999809265</ele>
        <time>2022-02-03T09:44:36.000Z</time>
      </trkpt>
      <trkpt lat="47.346" lon="-2.34433">
        <ele>15.199999809265</ele>
        <time>2022-02-03T09:44:44.000Z</time>
      </trkpt>
      <trkpt lat="47.346" lon="-2.3444">
        <ele>15.199999809265</ele>
        <time>2022-02-03T09:44:45.000Z</time>
      </trkpt>
      <trkpt lat="47.34599" lon="-2.34474">
        <ele>15.199999809265</ele>
        <time>2022-02-03T09:44:50.000Z</time>
      </trkpt>
      <trkpt lat="47.346" lon="-2.34482">
        <ele>15.199999809265</ele>
        <time>2022-02-03T09:44:51.000Z</time>
      </trkpt>
      <trkpt lat="47.34606" lon="-2.34516">
        <ele>15.199999809265</ele>
        <time>2022-02-03T09:44:56.000Z</time>
      </trkpt>
      <trkpt lat="47.34611" lon="-2.34543">
        <ele>15.199999809265</ele>
        <time>2022-02-03T09:45:00.000Z</time>
      </trkpt>
      <trkpt lat="47.34613" lon="-2.34557">
        <ele>15.199999809265</ele>
        <time>2022-02-03T09:45:02.000Z</time>
      </trkpt>
      <trkpt lat="47.34623" lon="-2.3461">
        <ele>15.199999809265</ele>
        <time>2022-02-03T09:45:09.000Z</time>
      </trkpt>
      <trkpt lat="47.3463" lon="-2.34644">
        <ele>14.800000190735</ele>
        <time>2022-02-03T09:45:13.000Z</time>
      </trkpt>
      <trkpt lat="47.34632" lon="-2.34653">
        <ele>14.199999809265</ele>
        <time>2022-02-03T09:45:14.000Z</time>
      </trkpt>
      <trkpt lat="47.34634" lon="-2.34662">
        <ele>13.800000190735</ele>
        <time>2022-02-03T09:45:15.000Z</time>
      </trkpt>
      <trkpt lat="47.34636" lon="-2.34672">
        <ele>13.199999809265</ele>
        <time>2022-02-03T09:45:16.000Z</time>
      </trkpt>
      <trkpt lat="47.34638" lon="-2.34683">
        <ele>12.800000190735</ele>
        <time>2022-02-03T09:45:17.000Z</time>
      </trkpt>
      <trkpt lat="47.34642" lon="-2.34734">
        <ele>12.800000190735</ele>
        <time>2022-02-03T09:45:22.000Z</time>
      </trkpt>
      <trkpt lat="47.34632" lon="-2.34782">
        <ele>12.800000190735</ele>
        <time>2022-02-03T09:45:27.000Z</time>
      </trkpt>
      <trkpt lat="47.34624" lon="-2.34799">
        <ele>12.800000190735</ele>
        <time>2022-02-03T09:45:29.000Z</time>
      </trkpt>
      <trkpt lat="47.34613" lon="-2.34822">
        <ele>12.800000190735</ele>
        <time>2022-02-03T09:45:32.000Z</time>
      </trkpt>
      <trkpt lat="47.34594" lon="-2.34867">
        <ele>12.800000190735</ele>
        <time>2022-02-03T09:45:38.000Z</time>
      </trkpt>
      <trkpt lat="47.34581" lon="-2.34893">
        <ele>12.800000190735</ele>
        <time>2022-02-03T09:45:43.000Z</time>
      </trkpt>
      <trkpt lat="47.34576" lon="-2.34906">
        <ele>12.800000190735</ele>
        <time>2022-02-03T09:45:48.000Z</time>
      </trkpt>
      <trkpt lat="47.3458" lon="-2.34917">
        <ele>12.800000190735</ele>
        <time>2022-02-03T09:45:52.000Z</time>
      </trkpt>
      <trkpt lat="47.34582" lon="-2.34919">
        <ele>12.800000190735</ele>
        <time>2022-02-03T09:45:53.000Z</time>
      </trkpt>
      <trkpt lat="47.34593" lon="-2.34939">
        <ele>12.800000190735</ele>
        <time>2022-02-03T09:45:59.000Z</time>
      </trkpt>
      <trkpt lat="47.34606" lon="-2.34962">
        <ele>12.800000190735</ele>
        <time>2022-02-03T09:46:05.000Z</time>
      </trkpt>
      <trkpt lat="47.3463" lon="-2.34996">
        <ele>12.800000190735</ele>
        <time>2022-02-03T09:46:12.000Z</time>
      </trkpt>
      <trkpt lat="47.34649" lon="-2.35026">
        <ele>12.800000190735</ele>
        <time>2022-02-03T09:46:18.000Z</time>
      </trkpt>
      <trkpt lat="47.34661" lon="-2.35031">
        <ele>12.800000190735</ele>
        <time>2022-02-03T09:46:23.000Z</time>
      </trkpt>
      <trkpt lat="47.34677" lon="-2.35033">
        <ele>12.800000190735</ele>
        <time>2022-02-03T09:46:29.000Z</time>
      </trkpt>
      <trkpt lat="47.34689" lon="-2.35051">
        <ele>12.800000190735</ele>
        <time>2022-02-03T09:46:34.000Z</time>
      </trkpt>
      <trkpt lat="47.34707" lon="-2.35071">
        <ele>12.800000190735</ele>
        <time>2022-02-03T09:46:39.000Z</time>
      </trkpt>
      <trkpt lat="47.34729" lon="-2.35102">
        <ele>12.800000190735</ele>
        <time>2022-02-03T09:46:45.000Z</time>
      </trkpt>
      <trkpt lat="47.34739" lon="-2.35123">
        <ele>12.800000190735</ele>
        <time>2022-02-03T09:46:50.000Z</time>
      </trkpt>
      <trkpt lat="47.34751" lon="-2.3514">
        <ele>12.800000190735</ele>
        <time>2022-02-03T09:46:55.000Z</time>
      </trkpt>
      <trkpt lat="47.34757" lon="-2.35162">
        <ele>12.800000190735</ele>
        <time>2022-02-03T09:46:59.000Z</time>
      </trkpt>
      <trkpt lat="47.34757" lon="-2.35168">
        <ele>12.800000190735</ele>
        <time>2022-02-03T09:47:00.000Z</time>
      </trkpt>
      <trkpt lat="47.34758" lon="-2.35189">
        <ele>12.800000190735</ele>
        <time>2022-02-03T09:47:03.000Z</time>
      </trkpt>
      <trkpt lat="47.34759" lon="-2.35208">
        <ele>12.800000190735</ele>
        <time>2022-02-03T09:47:06.000Z</time>
      </trkpt>
      <trkpt lat="47.3476" lon="-2.35234">
        <ele>12.800000190735</ele>
        <time>2022-02-03T09:47:10.000Z</time>
      </trkpt>
      <trkpt lat="47.34759" lon="-2.35249">
        <ele>12.800000190735</ele>
        <time>2022-02-03T09:47:12.000Z</time>
      </trkpt>
      <trkpt lat="47.34754" lon="-2.35269">
        <ele>12.800000190735</ele>
        <time>2022-02-03T09:47:15.000Z</time>
      </trkpt>
      <trkpt lat="47.34746" lon="-2.35292">
        <ele>12.800000190735</ele>
        <time>2022-02-03T09:47:19.000Z</time>
      </trkpt>
      <trkpt lat="47.34734" lon="-2.35312">
        <ele>12.800000190735</ele>
        <time>2022-02-03T09:47:23.000Z</time>
      </trkpt>
      <trkpt lat="47.34732" lon="-2.35322">
        <ele>13.199999809265</ele>
        <time>2022-02-03T09:47:25.000Z</time>
      </trkpt>
      <trkpt lat="47.34731" lon="-2.35327">
        <ele>13.60000038147</ele>
        <time>2022-02-03T09:47:26.000Z</time>
      </trkpt>
      <trkpt lat="47.3473" lon="-2.35333">
        <ele>14</ele>
        <time>2022-02-03T09:47:27.000Z</time>
      </trkpt>
      <trkpt lat="47.34729" lon="-2.35338">
        <ele>14.39999961853</ele>
        <time>2022-02-03T09:47:28.000Z</time>
      </trkpt>
      <trkpt lat="47.34729" lon="-2.35344">
        <ele>15</ele>
        <time>2022-02-03T09:47:29.000Z</time>
      </trkpt>
      <trkpt lat="47.34728" lon="-2.35358">
        <ele>15</ele>
        <time>2022-02-03T09:47:32.000Z</time>
      </trkpt>
      <trkpt lat="47.34721" lon="-2.35372">
        <ele>15</ele>
        <time>2022-02-03T09:47:36.000Z</time>
      </trkpt>
      <trkpt lat="47.34709" lon="-2.35388">
        <ele>15</ele>
        <time>2022-02-03T09:47:40.000Z</time>
      </trkpt>
      <trkpt lat="47.34694" lon="-2.354">
        <ele>15</ele>
        <time>2022-02-03T09:47:44.000Z</time>
      </trkpt>
      <trkpt lat="47.34671" lon="-2.35402">
        <ele>15</ele>
        <time>2022-02-03T09:47:50.000Z</time>
      </trkpt>
      <trkpt lat="47.34664" lon="-2.35404">
        <ele>15</ele>
        <time>2022-02-03T09:47:52.000Z</time>
      </trkpt>
      <trkpt lat="47.34658" lon="-2.35405">
        <ele>15</ele>
        <time>2022-02-03T09:47:54.000Z</time>
      </trkpt>
      <trkpt lat="47.34655" lon="-2.35413">
        <ele>14.60000038147</ele>
        <time>2022-02-03T09:47:58.000Z</time>
      </trkpt>
      <trkpt lat="47.34657" lon="-2.35415">
        <ele>14.199999809265</ele>
        <time>2022-02-03T09:47:59.000Z</time>
      </trkpt>
      <trkpt lat="47.34659" lon="-2.35417">
        <ele>13.800000190735</ele>
        <time>2022-02-03T09:48:00.000Z</time>
      </trkpt>
      <trkpt lat="47.34662" lon="-2.35419">
        <ele>13.39999961853</ele>
        <time>2022-02-03T09:48:01.000Z</time>
      </trkpt>
      <trkpt lat="47.34664" lon="-2.35422">
        <ele>13</ele>
        <time>2022-02-03T09:48:02.000Z</time>
      </trkpt>
      <trkpt lat="47.34667" lon="-2.35426">
        <ele>13</ele>
        <time>2022-02-03T09:48:03.000Z</time>
      </trkpt>
      <trkpt lat="47.34686" lon="-2.35454">
        <ele>13</ele>
        <time>2022-02-03T09:48:11.000Z</time>
      </trkpt>
      <trkpt lat="47.34708" lon="-2.35488">
        <ele>13</ele>
        <time>2022-02-03T09:48:19.000Z</time>
      </trkpt>
      <trkpt lat="47.34735" lon="-2.35535">
        <ele>13</ele>
        <time>2022-02-03T09:48:28.000Z</time>
      </trkpt>
      <trkpt lat="47.34758" lon="-2.35567">
        <ele>13</ele>
        <time>2022-02-03T09:48:34.000Z</time>
      </trkpt>
      <trkpt lat="47.34794" lon="-2.35608">
        <ele>13</ele>
        <time>2022-02-03T09:48:42.000Z</time>
      </trkpt>
      <trkpt lat="47.34813" lon="-2.35628">
        <ele>13.39999961853</ele>
        <time>2022-02-03T09:48:46.000Z</time>
      </trkpt>
      <trkpt lat="47.34818" lon="-2.35633">
        <ele>13.800000190735</ele>
        <time>2022-02-03T09:48:47.000Z</time>
      </trkpt>
      <trkpt lat="47.34823" lon="-2.35637">
        <ele>14.60000038147</ele>
        <time>2022-02-03T09:48:48.000Z</time>
      </trkpt>
      <trkpt lat="47.34829" lon="-2.3564">
        <ele>15</ele>
        <time>2022-02-03T09:48:49.000Z</time>
      </trkpt>
      <trkpt lat="47.34875" lon="-2.35666">
        <ele>15</ele>
        <time>2022-02-03T09:48:57.000Z</time>
      </trkpt>
      <trkpt lat="47.34908" lon="-2.35694">
        <ele>15</ele>
        <time>2022-02-03T09:49:03.000Z</time>
      </trkpt>
      <trkpt lat="47.34935" lon="-2.35733">
        <ele>15</ele>
        <time>2022-02-03T09:49:09.000Z</time>
      </trkpt>
      <trkpt lat="47.34954" lon="-2.35788">
        <ele>15</ele>
        <time>2022-02-03T09:49:15.000Z</time>
      </trkpt>
      <trkpt lat="47.34978" lon="-2.35857">
        <ele>15</ele>
        <time>2022-02-03T09:49:23.000Z</time>
      </trkpt>
      <trkpt lat="47.35001" lon="-2.35922">
        <ele>15</ele>
        <time>2022-02-03T09:49:31.000Z</time>
      </trkpt>
      <trkpt lat="47.35014" lon="-2.35955">
        <ele>15.39999961853</ele>
        <time>2022-02-03T09:49:35.000Z</time>
      </trkpt>
      <trkpt lat="47.35017" lon="-2.35962">
        <ele>15.800000190735</ele>
        <time>2022-02-03T09:49:36.000Z</time>
      </trkpt>
      <trkpt lat="47.35021" lon="-2.3597">
        <ele>16.799999237061</ele>
        <time>2022-02-03T09:49:37.000Z</time>
      </trkpt>
      <trkpt lat="47.35024" lon="-2.35978">
        <ele>17.200000762939</ele>
        <time>2022-02-03T09:49:38.000Z</time>
      </trkpt>
      <trkpt lat="47.35049" lon="-2.36042">
        <ele>17.200000762939</ele>
        <time>2022-02-03T09:49:46.000Z</time>
      </trkpt>
      <trkpt lat="47.35073" lon="-2.36107">
        <ele>17.200000762939</ele>
        <time>2022-02-03T09:49:54.000Z</time>
      </trkpt>
      <trkpt lat="47.35096" lon="-2.36161">
        <ele>17.200000762939</ele>
        <time>2022-02-03T09:50:01.000Z</time>
      </trkpt>
      <trkpt lat="47.35101" lon="-2.36166">
        <ele>17.200000762939</ele>
        <time>2022-02-03T09:50:02.000Z</time>
      </trkpt>
      <trkpt lat="47.35119" lon="-2.36163">
        <ele>17.200000762939</ele>
        <time>2022-02-03T09:50:05.000Z</time>
      </trkpt>
      <trkpt lat="47.35131" lon="-2.36154">
        <ele>17.200000762939</ele>
        <time>2022-02-03T09:50:07.000Z</time>
      </trkpt>
      <trkpt lat="47.35143" lon="-2.36145">
        <ele>17.200000762939</ele>
        <time>2022-02-03T09:50:09.000Z</time>
      </trkpt>
      <trkpt lat="47.35192" lon="-2.36108">
        <ele>17.200000762939</ele>
        <time>2022-02-03T09:50:17.000Z</time>
      </trkpt>
      <trkpt lat="47.35209" lon="-2.36094">
        <ele>16.799999237061</ele>
        <time>2022-02-03T09:50:20.000Z</time>
      </trkpt>
      <trkpt lat="47.35215" lon="-2.36089">
        <ele>16.39999961853</ele>
        <time>2022-02-03T09:50:21.000Z</time>
      </trkpt>
      <trkpt lat="47.3522" lon="-2.36084">
        <ele>16</ele>
        <time>2022-02-03T09:50:22.000Z</time>
      </trkpt>
      <trkpt lat="47.35226" lon="-2.36079">
        <ele>15.60000038147</ele>
        <time>2022-02-03T09:50:23.000Z</time>
      </trkpt>
      <trkpt lat="47.35232" lon="-2.36075">
        <ele>15.199999809265</ele>
        <time>2022-02-03T09:50:24.000Z</time>
      </trkpt>
      <trkpt lat="47.35238" lon="-2.36069">
        <ele>15.199999809265</ele>
        <time>2022-02-03T09:50:25.000Z</time>
      </trkpt>
      <trkpt lat="47.35276" lon="-2.36037">
        <ele>15.199999809265</ele>
        <time>2022-02-03T09:50:32.000Z</time>
      </trkpt>
      <trkpt lat="47.35299" lon="-2.36015">
        <ele>15.199999809265</ele>
        <time>2022-02-03T09:50:36.000Z</time>
      </trkpt>
      <trkpt lat="47.35308" lon="-2.36">
        <ele>15.199999809265</ele>
        <time>2022-02-03T09:50:38.000Z</time>
      </trkpt>
      <trkpt lat="47.35329" lon="-2.35951">
        <ele>15.199999809265</ele>
        <time>2022-02-03T09:50:44.000Z</time>
      </trkpt>
      <trkpt lat="47.35352" lon="-2.3591">
        <ele>15.199999809265</ele>
        <time>2022-02-03T09:50:50.000Z</time>
      </trkpt>
      <trkpt lat="47.35357" lon="-2.35905">
        <ele>15.199999809265</ele>
        <time>2022-02-03T09:50:51.000Z</time>
      </trkpt>
      <trkpt lat="47.35377" lon="-2.35883">
        <ele>15.199999809265</ele>
        <time>2022-02-03T09:50:55.000Z</time>
      </trkpt>
      <trkpt lat="47.35401" lon="-2.35854">
        <ele>15.199999809265</ele>
        <time>2022-02-03T09:51:00.000Z</time>
      </trkpt>
      <trkpt lat="47.35435" lon="-2.35812">
        <ele>15.60000038147</ele>
        <time>2022-02-03T09:51:07.000Z</time>
      </trkpt>
      <trkpt lat="47.3544" lon="-2.35806">
        <ele>16</ele>
        <time>2022-02-03T09:51:08.000Z</time>
      </trkpt>
      <trkpt lat="47.35445" lon="-2.358">
        <ele>16.39999961853</ele>
        <time>2022-02-03T09:51:09.000Z</time>
      </trkpt>
      <trkpt lat="47.35449" lon="-2.35793">
        <ele>16.799999237061</ele>
        <time>2022-02-03T09:51:10.000Z</time>
      </trkpt>
      <trkpt lat="47.35453" lon="-2.35787">
        <ele>17.39999961853</ele>
        <time>2022-02-03T09:51:11.000Z</time>
      </trkpt>
      <trkpt lat="47.35471" lon="-2.35761">
        <ele>17.39999961853</ele>
        <time>2022-02-03T09:51:15.000Z</time>
      </trkpt>
      <trkpt lat="47.35501" lon="-2.35713">
        <ele>17.39999961853</ele>
        <time>2022-02-03T09:51:22.000Z</time>
      </trkpt>
      <trkpt lat="47.35516" lon="-2.35695">
        <ele>17.39999961853</ele>
        <time>2022-02-03T09:51:25.000Z</time>
      </trkpt>
      <trkpt lat="47.35533" lon="-2.35677">
        <ele>17.39999961853</ele>
        <time>2022-02-03T09:51:28.000Z</time>
      </trkpt>
      <trkpt lat="47.35568" lon="-2.35646">
        <ele>17.39999961853</ele>
        <time>2022-02-03T09:51:34.000Z</time>
      </trkpt>
      <trkpt lat="47.35586" lon="-2.35628">
        <ele>17</ele>
        <time>2022-02-03T09:51:37.000Z</time>
      </trkpt>
      <trkpt lat="47.35592" lon="-2.35621">
        <ele>16.39999961853</ele>
        <time>2022-02-03T09:51:38.000Z</time>
      </trkpt>
      <trkpt lat="47.35598" lon="-2.35614">
        <ele>16</ele>
        <time>2022-02-03T09:51:39.000Z</time>
      </trkpt>
      <trkpt lat="47.35604" lon="-2.35606">
        <ele>15.60000038147</ele>
        <time>2022-02-03T09:51:40.000Z</time>
      </trkpt>
      <trkpt lat="47.3561" lon="-2.356">
        <ele>15.199999809265</ele>
        <time>2022-02-03T09:51:41.000Z</time>
      </trkpt>
      <trkpt lat="47.35639" lon="-2.35567">
        <ele>15.199999809265</ele>
        <time>2022-02-03T09:51:46.000Z</time>
      </trkpt>
      <trkpt lat="47.35646" lon="-2.35562">
        <ele>15.199999809265</ele>
        <time>2022-02-03T09:51:47.000Z</time>
      </trkpt>
      <trkpt lat="47.35671" lon="-2.35541">
        <ele>15.199999809265</ele>
        <time>2022-02-03T09:51:51.000Z</time>
      </trkpt>
      <trkpt lat="47.35677" lon="-2.35538">
        <ele>14.800000190735</ele>
        <time>2022-02-03T09:51:52.000Z</time>
      </trkpt>
      <trkpt lat="47.35683" lon="-2.35533">
        <ele>14.39999961853</ele>
        <time>2022-02-03T09:51:53.000Z</time>
      </trkpt>
      <trkpt lat="47.35689" lon="-2.3553">
        <ele>14</ele>
        <time>2022-02-03T09:51:54.000Z</time>
      </trkpt>
      <trkpt lat="47.35695" lon="-2.35527">
        <ele>13.60000038147</ele>
        <time>2022-02-03T09:51:55.000Z</time>
      </trkpt>
      <trkpt lat="47.35701" lon="-2.35524">
        <ele>13.199999809265</ele>
        <time>2022-02-03T09:51:56.000Z</time>
      </trkpt>
      <trkpt lat="47.35708" lon="-2.35521">
        <ele>13.199999809265</ele>
        <time>2022-02-03T09:51:57.000Z</time>
      </trkpt>
      <trkpt lat="47.35753" lon="-2.35499">
        <ele>13.199999809265</ele>
        <time>2022-02-03T09:52:04.000Z</time>
      </trkpt>
      <trkpt lat="47.35798" lon="-2.35477">
        <ele>13.199999809265</ele>
        <time>2022-02-03T09:52:11.000Z</time>
      </trkpt>
      <trkpt lat="47.35836" lon="-2.35459">
        <ele>13.199999809265</ele>
        <time>2022-02-03T09:52:17.000Z</time>
      </trkpt>
      <trkpt lat="47.35879" lon="-2.35435">
        <ele>13.199999809265</ele>
        <time>2022-02-03T09:52:24.000Z</time>
      </trkpt>
      <trkpt lat="47.35909" lon="-2.35411">
        <ele>13.199999809265</ele>
        <time>2022-02-03T09:52:30.000Z</time>
      </trkpt>
      <trkpt lat="47.3592" lon="-2.35404">
        <ele>13.199999809265</ele>
        <time>2022-02-03T09:52:32.000Z</time>
      </trkpt>
      <trkpt lat="47.35935" lon="-2.35392">
        <ele>13.199999809265</ele>
        <time>2022-02-03T09:52:35.000Z</time>
      </trkpt>
      <trkpt lat="47.3595" lon="-2.35366">
        <ele>13.199999809265</ele>
        <time>2022-02-03T09:52:39.000Z</time>
      </trkpt>
      <trkpt lat="47.35954" lon="-2.35359">
        <ele>13.199999809265</ele>
        <time>2022-02-03T09:52:40.000Z</time>
      </trkpt>
      <trkpt lat="47.35977" lon="-2.35326">
        <ele>13.199999809265</ele>
        <time>2022-02-03T09:52:45.000Z</time>
      </trkpt>
      <trkpt lat="47.36011" lon="-2.35283">
        <ele>13.199999809265</ele>
        <time>2022-02-03T09:52:52.000Z</time>
      </trkpt>
      <trkpt lat="47.36042" lon="-2.35244">
        <ele>13.199999809265</ele>
        <time>2022-02-03T09:52:58.000Z</time>
      </trkpt>
      <trkpt lat="47.36087" lon="-2.35188">
        <ele>13.199999809265</ele>
        <time>2022-02-03T09:53:06.000Z</time>
      </trkpt>
      <trkpt lat="47.36091" lon="-2.35181">
        <ele>13.199999809265</ele>
        <time>2022-02-03T09:53:07.000Z</time>
      </trkpt>
      <trkpt lat="47.36101" lon="-2.35169">
        <ele>13.199999809265</ele>
        <time>2022-02-03T09:53:09.000Z</time>
      </trkpt>
      <trkpt lat="47.36122" lon="-2.35144">
        <ele>13.199999809265</ele>
        <time>2022-02-03T09:53:13.000Z</time>
      </trkpt>
      <trkpt lat="47.36166" lon="-2.35094">
        <ele>13.199999809265</ele>
        <time>2022-02-03T09:53:21.000Z</time>
      </trkpt>
      <trkpt lat="47.3618" lon="-2.35079">
        <ele>13.199999809265</ele>
        <time>2022-02-03T09:53:24.000Z</time>
      </trkpt>
      <trkpt lat="47.36189" lon="-2.35068">
        <ele>13.199999809265</ele>
        <time>2022-02-03T09:53:26.000Z</time>
      </trkpt>
      <trkpt lat="47.36211" lon="-2.35046">
        <ele>13.199999809265</ele>
        <time>2022-02-03T09:53:31.000Z</time>
      </trkpt>
      <trkpt lat="47.36218" lon="-2.35035">
        <ele>13.199999809265</ele>
        <time>2022-02-03T09:53:33.000Z</time>
      </trkpt>
      <trkpt lat="47.3624" lon="-2.34997">
        <ele>13.199999809265</ele>
        <time>2022-02-03T09:53:39.000Z</time>
      </trkpt>
      <trkpt lat="47.36243" lon="-2.3499">
        <ele>13.199999809265</ele>
        <time>2022-02-03T09:53:40.000Z</time>
      </trkpt>
      <trkpt lat="47.36263" lon="-2.34943">
        <ele>13.199999809265</ele>
        <time>2022-02-03T09:53:47.000Z</time>
      </trkpt>
      <trkpt lat="47.36272" lon="-2.34926">
        <ele>13.199999809265</ele>
        <time>2022-02-03T09:53:50.000Z</time>
      </trkpt>
      <trkpt lat="47.36279" lon="-2.34924">
        <ele>13.199999809265</ele>
        <time>2022-02-03T09:53:52.000Z</time>
      </trkpt>
      <trkpt lat="47.36286" lon="-2.3494">
        <ele>13.199999809265</ele>
        <time>2022-02-03T09:53:55.000Z</time>
      </trkpt>
      <trkpt lat="47.36288" lon="-2.34946">
        <ele>13.199999809265</ele>
        <time>2022-02-03T09:53:56.000Z</time>
      </trkpt>
      <trkpt lat="47.36289" lon="-2.34952">
        <ele>12.800000190735</ele>
        <time>2022-02-03T09:53:57.000Z</time>
      </trkpt>
      <trkpt lat="47.3629" lon="-2.34959">
        <ele>12.39999961853</ele>
        <time>2022-02-03T09:53:58.000Z</time>
      </trkpt>
      <trkpt lat="47.36292" lon="-2.34966">
        <ele>12</ele>
        <time>2022-02-03T09:53:59.000Z</time>
      </trkpt>
      <trkpt lat="47.36293" lon="-2.34972">
        <ele>11.60000038147</ele>
        <time>2022-02-03T09:54:00.000Z</time>
      </trkpt>
      <trkpt lat="47.36295" lon="-2.34979">
        <ele>11.199999809265</ele>
        <time>2022-02-03T09:54:01.000Z</time>
      </trkpt>
      <trkpt lat="47.363" lon="-2.35005">
        <ele>11.199999809265</ele>
        <time>2022-02-03T09:54:05.000Z</time>
      </trkpt>
      <trkpt lat="47.36304" lon="-2.35009">
        <ele>11.199999809265</ele>
        <time>2022-02-03T09:54:07.000Z</time>
      </trkpt>
      <trkpt lat="47.36311" lon="-2.35011">
        <ele>11.199999809265</ele>
        <time>2022-02-03T09:54:10.000Z</time>
      </trkpt>
      <trkpt lat="47.36313" lon="-2.35014">
        <ele>11.199999809265</ele>
        <time>2022-02-03T09:54:11.000Z</time>
      </trkpt>
      <trkpt lat="47.36323" lon="-2.35024">
        <ele>11.199999809265</ele>
        <time>2022-02-03T09:54:15.000Z</time>
      </trkpt>
      <trkpt lat="47.36334" lon="-2.35019">
        <ele>11.199999809265</ele>
        <time>2022-02-03T09:54:19.000Z</time>
      </trkpt>
      <trkpt lat="47.3634" lon="-2.35015">
        <ele>10.800000190735</ele>
        <time>2022-02-03T09:54:22.000Z</time>
      </trkpt>
      <trkpt lat="47.36341" lon="-2.35015">
        <ele>10.39999961853</ele>
        <time>2022-02-03T09:54:23.000Z</time>
      </trkpt>
      <trkpt lat="47.36342" lon="-2.35015">
        <ele>10</ele>
        <time>2022-02-03T09:54:24.000Z</time>
      </trkpt>
      <trkpt lat="47.36343" lon="-2.35014">
        <ele>9.6000003814697</ele>
        <time>2022-02-03T09:54:25.000Z</time>
      </trkpt>
      <trkpt lat="47.36345" lon="-2.35014">
        <ele>9.1999998092651</ele>
        <time>2022-02-03T09:54:26.000Z</time>
      </trkpt>
      <trkpt lat="47.36346" lon="-2.35015">
        <ele>9.1999998092651</ele>
        <time>2022-02-03T09:54:27.000Z</time>
      </trkpt>
      <trkpt lat="47.36351" lon="-2.35016">
        <ele>9.1999998092651</ele>
        <time>2022-02-03T09:54:30.000Z</time>
      </trkpt>
      <trkpt lat="47.36351" lon="-2.35016">
        <ele>9.1999998092651</ele>
        <time>2022-02-03T09:54:31.000Z</time>
      </trkpt>
      <trkpt lat="47.36358" lon="-2.35015">
        <ele>9.1999998092651</ele>
        <time>2022-02-03T10:06:47.000Z</time>
      </trkpt>
      <trkpt lat="47.36358" lon="-2.35017">
        <ele>9.1999998092651</ele>
        <time>2022-02-03T10:06:48.000Z</time>
      </trkpt>
      <trkpt lat="47.36355" lon="-2.35022">
        <ele>9.1999998092651</ele>
        <time>2022-02-03T10:06:51.000Z</time>
      </trkpt>
      <trkpt lat="47.36352" lon="-2.35024">
        <ele>9.1999998092651</ele>
        <time>2022-02-03T10:06:53.000Z</time>
      </trkpt>
      <trkpt lat="47.3634" lon="-2.35028">
        <ele>9.1999998092651</ele>
        <time>2022-02-03T10:07:00.000Z</time>
      </trkpt>
      <trkpt lat="47.36339" lon="-2.35029">
        <ele>9.1999998092651</ele>
        <time>2022-02-03T10:07:01.000Z</time>
      </trkpt>
      <trkpt lat="47.36338" lon="-2.35038">
        <ele>9.1999998092651</ele>
        <time>2022-02-03T10:07:04.000Z</time>
      </trkpt>
      <trkpt lat="47.36338" lon="-2.35047">
        <ele>9.1999998092651</ele>
        <time>2022-02-03T10:07:07.000Z</time>
      </trkpt>
      <trkpt lat="47.36335" lon="-2.35054">
        <ele>9.1999998092651</ele>
        <time>2022-02-03T10:07:09.000Z</time>
      </trkpt>
      <trkpt lat="47.36328" lon="-2.35079">
        <ele>9.1999998092651</ele>
        <time>2022-02-03T10:07:14.000Z</time>
      </trkpt>
      <trkpt lat="47.3633" lon="-2.35101">
        <ele>9.1999998092651</ele>
        <time>2022-02-03T10:07:18.000Z</time>
      </trkpt>
      <trkpt lat="47.36329" lon="-2.35132">
        <ele>9.1999998092651</ele>
        <time>2022-02-03T10:07:24.000Z</time>
      </trkpt>
      <trkpt lat="47.36327" lon="-2.35138">
        <ele>9.1999998092651</ele>
        <time>2022-02-03T10:07:25.000Z</time>
      </trkpt>
      <trkpt lat="47.36326" lon="-2.35158">
        <ele>9.1999998092651</ele>
        <time>2022-02-03T10:07:28.000Z</time>
      </trkpt>
      <trkpt lat="47.36329" lon="-2.35212">
        <ele>9.1999998092651</ele>
        <time>2022-02-03T10:07:35.000Z</time>
      </trkpt>
      <trkpt lat="47.36333" lon="-2.35295">
        <ele>9.1999998092651</ele>
        <time>2022-02-03T10:07:45.000Z</time>
      </trkpt>
      <trkpt lat="47.36337" lon="-2.35365">
        <ele>9.1999998092651</ele>
        <time>2022-02-03T10:07:53.000Z</time>
      </trkpt>
      <trkpt lat="47.36334" lon="-2.35406">
        <ele>9.1999998092651</ele>
        <time>2022-02-03T10:07:58.000Z</time>
      </trkpt>
      <trkpt lat="47.36332" lon="-2.35414">
        <ele>9.1999998092651</ele>
        <time>2022-02-03T10:07:59.000Z</time>
      </trkpt>
      <trkpt lat="47.36316" lon="-2.35467">
        <ele>9.1999998092651</ele>
        <time>2022-02-03T10:08:06.000Z</time>
      </trkpt>
      <trkpt lat="47.36299" lon="-2.35525">
        <ele>9.1999998092651</ele>
        <time>2022-02-03T10:08:13.000Z</time>
      </trkpt>
      <trkpt lat="47.36288" lon="-2.35579">
        <ele>9.1999998092651</ele>
        <time>2022-02-03T10:08:19.000Z</time>
      </trkpt>
      <trkpt lat="47.36287" lon="-2.35597">
        <ele>9.6000003814697</ele>
        <time>2022-02-03T10:08:21.000Z</time>
      </trkpt>
      <trkpt lat="47.36287" lon="-2.35606">
        <ele>10</ele>
        <time>2022-02-03T10:08:22.000Z</time>
      </trkpt>
      <trkpt lat="47.36287" lon="-2.35615">
        <ele>10.39999961853</ele>
        <time>2022-02-03T10:08:23.000Z</time>
      </trkpt>
      <trkpt lat="47.36288" lon="-2.35625">
        <ele>10.800000190735</ele>
        <time>2022-02-03T10:08:24.000Z</time>
      </trkpt>
      <trkpt lat="47.36289" lon="-2.35634">
        <ele>11.199999809265</ele>
        <time>2022-02-03T10:08:25.000Z</time>
      </trkpt>
      <trkpt lat="47.36301" lon="-2.3569">
        <ele>11.199999809265</ele>
        <time>2022-02-03T10:08:31.000Z</time>
      </trkpt>
      <trkpt lat="47.36314" lon="-2.35731">
        <ele>11.199999809265</ele>
        <time>2022-02-03T10:08:36.000Z</time>
      </trkpt>
      <trkpt lat="47.36316" lon="-2.35738">
        <ele>11.199999809265</ele>
        <time>2022-02-03T10:08:37.000Z</time>
      </trkpt>
      <trkpt lat="47.36312" lon="-2.35757">
        <ele>11.199999809265</ele>
        <time>2022-02-03T10:08:40.000Z</time>
      </trkpt>
      <trkpt lat="47.36305" lon="-2.35765">
        <ele>11.199999809265</ele>
        <time>2022-02-03T10:08:42.000Z</time>
      </trkpt>
      <trkpt lat="47.36292" lon="-2.3578">
        <ele>11.199999809265</ele>
        <time>2022-02-03T10:08:45.000Z</time>
      </trkpt>
      <trkpt lat="47.36261" lon="-2.35816">
        <ele>11.199999809265</ele>
        <time>2022-02-03T10:08:52.000Z</time>
      </trkpt>
      <trkpt lat="47.36229" lon="-2.35854">
        <ele>11.199999809265</ele>
        <time>2022-02-03T10:09:00.000Z</time>
      </trkpt>
      <trkpt lat="47.36218" lon="-2.35867">
        <ele>11.60000038147</ele>
        <time>2022-02-03T10:09:03.000Z</time>
      </trkpt>
      <trkpt lat="47.36214" lon="-2.35871">
        <ele>12</ele>
        <time>2022-02-03T10:09:04.000Z</time>
      </trkpt>
      <trkpt lat="47.3621" lon="-2.35875">
        <ele>12.39999961853</ele>
        <time>2022-02-03T10:09:05.000Z</time>
      </trkpt>
      <trkpt lat="47.36207" lon="-2.35879">
        <ele>12.800000190735</ele>
        <time>2022-02-03T10:09:06.000Z</time>
      </trkpt>
      <trkpt lat="47.36203" lon="-2.35884">
        <ele>13.199999809265</ele>
        <time>2022-02-03T10:09:07.000Z</time>
      </trkpt>
      <trkpt lat="47.36176" lon="-2.35914">
        <ele>13.199999809265</ele>
        <time>2022-02-03T10:09:14.000Z</time>
      </trkpt>
      <trkpt lat="47.36141" lon="-2.35954">
        <ele>13.199999809265</ele>
        <time>2022-02-03T10:09:23.000Z</time>
      </trkpt>
      <trkpt lat="47.36107" lon="-2.35991">
        <ele>13.199999809265</ele>
        <time>2022-02-03T10:09:32.000Z</time>
      </trkpt>
      <trkpt lat="47.36081" lon="-2.3602">
        <ele>13.199999809265</ele>
        <time>2022-02-03T10:09:38.000Z</time>
      </trkpt>
      <trkpt lat="47.3605" lon="-2.36055">
        <ele>13.199999809265</ele>
        <time>2022-02-03T10:09:45.000Z</time>
      </trkpt>
      <trkpt lat="47.3602" lon="-2.36094">
        <ele>12.800000190735</ele>
        <time>2022-02-03T10:09:52.000Z</time>
      </trkpt>
      <trkpt lat="47.36017" lon="-2.36101">
        <ele>12.39999961853</ele>
        <time>2022-02-03T10:09:53.000Z</time>
      </trkpt>
      <trkpt lat="47.36014" lon="-2.36109">
        <ele>12</ele>
        <time>2022-02-03T10:09:54.000Z</time>
      </trkpt>
      <trkpt lat="47.36012" lon="-2.36117">
        <ele>11.60000038147</ele>
        <time>2022-02-03T10:09:55.000Z</time>
      </trkpt>
      <trkpt lat="47.36012" lon="-2.36125">
        <ele>11.199999809265</ele>
        <time>2022-02-03T10:09:56.000Z</time>
      </trkpt>
      <trkpt lat="47.36011" lon="-2.36141">
        <ele>11.199999809265</ele>
        <time>2022-02-03T10:09:58.000Z</time>
      </trkpt>
      <trkpt lat="47.36011" lon="-2.36149">
        <ele>11.199999809265</ele>
        <time>2022-02-03T10:09:59.000Z</time>
      </trkpt>
      <trkpt lat="47.36012" lon="-2.362">
        <ele>11.199999809265</ele>
        <time>2022-02-03T10:10:05.000Z</time>
      </trkpt>
      <trkpt lat="47.36019" lon="-2.36235">
        <ele>11.199999809265</ele>
        <time>2022-02-03T10:10:09.000Z</time>
      </trkpt>
      <trkpt lat="47.36021" lon="-2.36243">
        <ele>10.800000190735</ele>
        <time>2022-02-03T10:10:10.000Z</time>
      </trkpt>
      <trkpt lat="47.36024" lon="-2.36252">
        <ele>10</ele>
        <time>2022-02-03T10:10:11.000Z</time>
      </trkpt>
      <trkpt lat="47.36027" lon="-2.3626">
        <ele>9.6000003814697</ele>
        <time>2022-02-03T10:10:12.000Z</time>
      </trkpt>
      <trkpt lat="47.36029" lon="-2.36268">
        <ele>9.1999998092651</ele>
        <time>2022-02-03T10:10:13.000Z</time>
      </trkpt>
      <trkpt lat="47.36038" lon="-2.363">
        <ele>9.1999998092651</ele>
        <time>2022-02-03T10:10:17.000Z</time>
      </trkpt>
      <trkpt lat="47.36039" lon="-2.36309">
        <ele>9.1999998092651</ele>
        <time>2022-02-03T10:10:18.000Z</time>
      </trkpt>
      <trkpt lat="47.36038" lon="-2.36327">
        <ele>9.1999998092651</ele>
        <time>2022-02-03T10:10:20.000Z</time>
      </trkpt>
      <trkpt lat="47.36029" lon="-2.36355">
        <ele>9.1999998092651</ele>
        <time>2022-02-03T10:10:23.000Z</time>
      </trkpt>
      <trkpt lat="47.36025" lon="-2.36363">
        <ele>9.1999998092651</ele>
        <time>2022-02-03T10:10:24.000Z</time>
      </trkpt>
      <trkpt lat="47.36022" lon="-2.3637">
        <ele>9.1999998092651</ele>
        <time>2022-02-03T10:10:25.000Z</time>
      </trkpt>
      <trkpt lat="47.36012" lon="-2.3638">
        <ele>9.1999998092651</ele>
        <time>2022-02-03T10:10:27.000Z</time>
      </trkpt>
      <trkpt lat="47.35999" lon="-2.36382">
        <ele>8.8000001907349</ele>
        <time>2022-02-03T10:10:29.000Z</time>
      </trkpt>
      <trkpt lat="47.35992" lon="-2.36382">
        <ele>8.3999996185303</ele>
        <time>2022-02-03T10:10:30.000Z</time>
      </trkpt>
      <trkpt lat="47.35986" lon="-2.36382">
        <ele>8</ele>
        <time>2022-02-03T10:10:31.000Z</time>
      </trkpt>
      <trkpt lat="47.3598" lon="-2.36381">
        <ele>7.5999999046326</ele>
        <time>2022-02-03T10:10:32.000Z</time>
      </trkpt>
      <trkpt lat="47.35973" lon="-2.3638">
        <ele>7.1999998092651</ele>
        <time>2022-02-03T10:10:33.000Z</time>
      </trkpt>
      <trkpt lat="47.35955" lon="-2.36377">
        <ele>7.1999998092651</ele>
        <time>2022-02-03T10:10:36.000Z</time>
      </trkpt>
      <trkpt lat="47.35899" lon="-2.36369">
        <ele>7.1999998092651</ele>
        <time>2022-02-03T10:10:45.000Z</time>
      </trkpt>
      <trkpt lat="47.35856" lon="-2.36364">
        <ele>7.1999998092651</ele>
        <time>2022-02-03T10:10:53.000Z</time>
      </trkpt>
      <trkpt lat="47.35837" lon="-2.36363">
        <ele>7.1999998092651</ele>
        <time>2022-02-03T10:10:57.000Z</time>
      </trkpt>
      <trkpt lat="47.35829" lon="-2.36367">
        <ele>7.1999998092651</ele>
        <time>2022-02-03T10:10:59.000Z</time>
      </trkpt>
      <trkpt lat="47.35823" lon="-2.36384">
        <ele>7.1999998092651</ele>
        <time>2022-02-03T10:11:02.000Z</time>
      </trkpt>
      <trkpt lat="47.35822" lon="-2.36391">
        <ele>7.1999998092651</ele>
        <time>2022-02-03T10:11:03.000Z</time>
      </trkpt>
      <trkpt lat="47.35819" lon="-2.36415">
        <ele>7.1999998092651</ele>
        <time>2022-02-03T10:11:06.000Z</time>
      </trkpt>
      <trkpt lat="47.35817" lon="-2.36425">
        <ele>7.1999998092651</ele>
        <time>2022-02-03T10:11:07.000Z</time>
      </trkpt>
      <trkpt lat="47.35804" lon="-2.36476">
        <ele>7.1999998092651</ele>
        <time>2022-02-03T10:11:13.000Z</time>
      </trkpt>
      <trkpt lat="47.35781" lon="-2.36528">
        <ele>7.1999998092651</ele>
        <time>2022-02-03T10:11:20.000Z</time>
      </trkpt>
      <trkpt lat="47.35761" lon="-2.36559">
        <ele>7.5999999046326</ele>
        <time>2022-02-03T10:11:25.000Z</time>
      </trkpt>
      <trkpt lat="47.35757" lon="-2.36565">
        <ele>8</ele>
        <time>2022-02-03T10:11:26.000Z</time>
      </trkpt>
      <trkpt lat="47.35753" lon="-2.36571">
        <ele>8.3999996185303</ele>
        <time>2022-02-03T10:11:27.000Z</time>
      </trkpt>
      <trkpt lat="47.3575" lon="-2.36577">
        <ele>8.8000001907349</ele>
        <time>2022-02-03T10:11:28.000Z</time>
      </trkpt>
      <trkpt lat="47.35746" lon="-2.36583">
        <ele>9.1999998092651</ele>
        <time>2022-02-03T10:11:29.000Z</time>
      </trkpt>
      <trkpt lat="47.35732" lon="-2.36608">
        <ele>9.1999998092651</ele>
        <time>2022-02-03T10:11:33.000Z</time>
      </trkpt>
      <trkpt lat="47.35708" lon="-2.36654">
        <ele>9.1999998092651</ele>
        <time>2022-02-03T10:11:41.000Z</time>
      </trkpt>
      <trkpt lat="47.35704" lon="-2.36659">
        <ele>9.1999998092651</ele>
        <time>2022-02-03T10:11:42.000Z</time>
      </trkpt>
      <trkpt lat="47.35697" lon="-2.36668">
        <ele>9.6000003814697</ele>
        <time>2022-02-03T10:11:44.000Z</time>
      </trkpt>
      <trkpt lat="47.35693" lon="-2.36673">
        <ele>10</ele>
        <time>2022-02-03T10:11:45.000Z</time>
      </trkpt>
      <trkpt lat="47.35689" lon="-2.36677">
        <ele>10.39999961853</ele>
        <time>2022-02-03T10:11:46.000Z</time>
      </trkpt>
      <trkpt lat="47.35684" lon="-2.3668">
        <ele>11</ele>
        <time>2022-02-03T10:11:47.000Z</time>
      </trkpt>
      <trkpt lat="47.3568" lon="-2.36683">
        <ele>11.39999961853</ele>
        <time>2022-02-03T10:11:48.000Z</time>
      </trkpt>
      <trkpt lat="47.35667" lon="-2.36692">
        <ele>11.39999961853</ele>
        <time>2022-02-03T10:11:51.000Z</time>
      </trkpt>
      <trkpt lat="47.35662" lon="-2.36695">
        <ele>11.39999961853</ele>
        <time>2022-02-03T10:11:52.000Z</time>
      </trkpt>
      <trkpt lat="47.35632" lon="-2.36716">
        <ele>11.39999961853</ele>
        <time>2022-02-03T10:11:59.000Z</time>
      </trkpt>
      <trkpt lat="47.35629" lon="-2.36718">
        <ele>11.800000190735</ele>
        <time>2022-02-03T10:12:00.000Z</time>
      </trkpt>
      <trkpt lat="47.35625" lon="-2.3672">
        <ele>12.199999809265</ele>
        <time>2022-02-03T10:12:01.000Z</time>
      </trkpt>
      <trkpt lat="47.35622" lon="-2.36722">
        <ele>12.60000038147</ele>
        <time>2022-02-03T10:12:02.000Z</time>
      </trkpt>
      <trkpt lat="47.3562" lon="-2.36725">
        <ele>13</ele>
        <time>2022-02-03T10:12:03.000Z</time>
      </trkpt>
      <trkpt lat="47.35617" lon="-2.36727">
        <ele>13.39999961853</ele>
        <time>2022-02-03T10:12:04.000Z</time>
      </trkpt>
      <trkpt lat="47.35614" lon="-2.36729">
        <ele>13.39999961853</ele>
        <time>2022-02-03T10:12:05.000Z</time>
      </trkpt>
      <trkpt lat="47.356" lon="-2.3674">
        <ele>13.39999961853</ele>
        <time>2022-02-03T10:12:11.000Z</time>
      </trkpt>
      <trkpt lat="47.35576" lon="-2.3675">
        <ele>13.39999961853</ele>
        <time>2022-02-03T10:12:17.000Z</time>
      </trkpt>
      <trkpt lat="47.35567" lon="-2.36753">
        <ele>13.39999961853</ele>
        <time>2022-02-03T10:12:19.000Z</time>
      </trkpt>
      <trkpt lat="47.35549" lon="-2.36758">
        <ele>13.39999961853</ele>
        <time>2022-02-03T10:12:23.000Z</time>
      </trkpt>
      <trkpt lat="47.35544" lon="-2.3676">
        <ele>13.800000190735</ele>
        <time>2022-02-03T10:12:24.000Z</time>
      </trkpt>
      <trkpt lat="47.3554" lon="-2.36761">
        <ele>14.199999809265</ele>
        <time>2022-02-03T10:12:25.000Z</time>
      </trkpt>
      <trkpt lat="47.35535" lon="-2.36763">
        <ele>14.60000038147</ele>
        <time>2022-02-03T10:12:26.000Z</time>
      </trkpt>
      <trkpt lat="47.35531" lon="-2.36765">
        <ele>15</ele>
        <time>2022-02-03T10:12:27.000Z</time>
      </trkpt>
      <trkpt lat="47.35526" lon="-2.36767">
        <ele>15.39999961853</ele>
        <time>2022-02-03T10:12:28.000Z</time>
      </trkpt>
      <trkpt lat="47.35513" lon="-2.36773">
        <ele>15.39999961853</ele>
        <time>2022-02-03T10:12:31.000Z</time>
      </trkpt>
      <trkpt lat="47.35488" lon="-2.3678">
        <ele>15.39999961853</ele>
        <time>2022-02-03T10:12:37.000Z</time>
      </trkpt>
      <trkpt lat="47.35479" lon="-2.36788">
        <ele>15.39999961853</ele>
        <time>2022-02-03T10:12:40.000Z</time>
      </trkpt>
      <trkpt lat="47.35478" lon="-2.36793">
        <ele>15.39999961853</ele>
        <time>2022-02-03T10:12:41.000Z</time>
      </trkpt>
      <trkpt lat="47.3547" lon="-2.36805">
        <ele>15.39999961853</ele>
        <time>2022-02-03T10:12:44.000Z</time>
      </trkpt>
      <trkpt lat="47.35456" lon="-2.3681">
        <ele>15.39999961853</ele>
        <time>2022-02-03T10:12:47.000Z</time>
      </trkpt>
      <trkpt lat="47.35452" lon="-2.36811">
        <ele>15.39999961853</ele>
        <time>2022-02-03T10:12:48.000Z</time>
      </trkpt>
      <trkpt lat="47.35434" lon="-2.36817">
        <ele>15.39999961853</ele>
        <time>2022-02-03T10:12:53.000Z</time>
      </trkpt>
      <trkpt lat="47.35417" lon="-2.36824">
        <ele>15.39999961853</ele>
        <time>2022-02-03T10:12:58.000Z</time>
      </trkpt>
      <trkpt lat="47.35404" lon="-2.3684">
        <ele>15.39999961853</ele>
        <time>2022-02-03T10:13:03.000Z</time>
      </trkpt>
      <trkpt lat="47.35404" lon="-2.36869">
        <ele>15.39999961853</ele>
        <time>2022-02-03T10:13:08.000Z</time>
      </trkpt>
      <trkpt lat="47.35409" lon="-2.36901">
        <ele>15.39999961853</ele>
        <time>2022-02-03T10:13:15.000Z</time>
      </trkpt>
      <trkpt lat="47.3541" lon="-2.36905">
        <ele>15.800000190735</ele>
        <time>2022-02-03T10:13:16.000Z</time>
      </trkpt>
      <trkpt lat="47.3541" lon="-2.36909">
        <ele>16.200000762939</ele>
        <time>2022-02-03T10:13:17.000Z</time>
      </trkpt>
      <trkpt lat="47.35411" lon="-2.36912">
        <ele>16.60000038147</ele>
        <time>2022-02-03T10:13:18.000Z</time>
      </trkpt>
      <trkpt lat="47.35411" lon="-2.36915">
        <ele>17</ele>
        <time>2022-02-03T10:13:19.000Z</time>
      </trkpt>
      <trkpt lat="47.35412" lon="-2.36918">
        <ele>17.39999961853</ele>
        <time>2022-02-03T10:13:20.000Z</time>
      </trkpt>
      <trkpt lat="47.35413" lon="-2.36924">
        <ele>17.39999961853</ele>
        <time>2022-02-03T10:13:22.000Z</time>
      </trkpt>
      <trkpt lat="47.35412" lon="-2.36948">
        <ele>17.39999961853</ele>
        <time>2022-02-03T10:13:27.000Z</time>
      </trkpt>
      <trkpt lat="47.35407" lon="-2.36965">
        <ele>17.39999961853</ele>
        <time>2022-02-03T10:13:30.000Z</time>
      </trkpt>
      <trkpt lat="47.35403" lon="-2.36972">
        <ele>17.39999961853</ele>
        <time>2022-02-03T10:13:31.000Z</time>
      </trkpt>
      <trkpt lat="47.35391" lon="-2.36989">
        <ele>17.39999961853</ele>
        <time>2022-02-03T10:13:34.000Z</time>
      </trkpt>
      <trkpt lat="47.35381" lon="-2.37">
        <ele>17.39999961853</ele>
        <time>2022-02-03T10:13:36.000Z</time>
      </trkpt>
      <trkpt lat="47.3535" lon="-2.37042">
        <ele>17.39999961853</ele>
        <time>2022-02-03T10:13:43.000Z</time>
      </trkpt>
      <trkpt lat="47.35327" lon="-2.3708">
        <ele>17.799999237061</ele>
        <time>2022-02-03T10:13:49.000Z</time>
      </trkpt>
      <trkpt lat="47.35324" lon="-2.37087">
        <ele>18.200000762939</ele>
        <time>2022-02-03T10:13:50.000Z</time>
      </trkpt>
      <trkpt lat="47.3532" lon="-2.37094">
        <ele>18.60000038147</ele>
        <time>2022-02-03T10:13:51.000Z</time>
      </trkpt>
      <trkpt lat="47.35317" lon="-2.371">
        <ele>19.200000762939</ele>
        <time>2022-02-03T10:13:52.000Z</time>
      </trkpt>
      <trkpt lat="47.35314" lon="-2.37107">
        <ele>19.60000038147</ele>
        <time>2022-02-03T10:13:53.000Z</time>
      </trkpt>
      <trkpt lat="47.35296" lon="-2.3715">
        <ele>19.60000038147</ele>
        <time>2022-02-03T10:14:00.000Z</time>
      </trkpt>
      <trkpt lat="47.35288" lon="-2.37181">
        <ele>19.60000038147</ele>
        <time>2022-02-03T10:14:04.000Z</time>
      </trkpt>
      <trkpt lat="47.35286" lon="-2.37198">
        <ele>19.60000038147</ele>
        <time>2022-02-03T10:14:06.000Z</time>
      </trkpt>
      <trkpt lat="47.35285" lon="-2.37205">
        <ele>19.60000038147</ele>
        <time>2022-02-03T10:14:07.000Z</time>
      </trkpt>
      <trkpt lat="47.35283" lon="-2.37239">
        <ele>19.60000038147</ele>
        <time>2022-02-03T10:14:11.000Z</time>
      </trkpt>
      <trkpt lat="47.35284" lon="-2.37312">
        <ele>19.60000038147</ele>
        <time>2022-02-03T10:14:20.000Z</time>
      </trkpt>
      <trkpt lat="47.35286" lon="-2.37363">
        <ele>19.60000038147</ele>
        <time>2022-02-03T10:14:27.000Z</time>
      </trkpt>
      <trkpt lat="47.3529" lon="-2.37443">
        <ele>19.60000038147</ele>
        <time>2022-02-03T10:14:37.000Z</time>
      </trkpt>
      <trkpt lat="47.35298" lon="-2.375">
        <ele>19.60000038147</ele>
        <time>2022-02-03T10:14:43.000Z</time>
      </trkpt>
      <trkpt lat="47.35315" lon="-2.37581">
        <ele>19.60000038147</ele>
        <time>2022-02-03T10:14:51.000Z</time>
      </trkpt>
      <trkpt lat="47.35325" lon="-2.3762">
        <ele>19</ele>
        <time>2022-02-03T10:14:55.000Z</time>
      </trkpt>
      <trkpt lat="47.35328" lon="-2.3763">
        <ele>18.60000038147</ele>
        <time>2022-02-03T10:14:56.000Z</time>
      </trkpt>
      <trkpt lat="47.35331" lon="-2.3764">
        <ele>18.200000762939</ele>
        <time>2022-02-03T10:14:57.000Z</time>
      </trkpt>
      <trkpt lat="47.35333" lon="-2.3765">
        <ele>17.799999237061</ele>
        <time>2022-02-03T10:14:58.000Z</time>
      </trkpt>
      <trkpt lat="47.35336" lon="-2.37659">
        <ele>17.39999961853</ele>
        <time>2022-02-03T10:14:59.000Z</time>
      </trkpt>
      <trkpt lat="47.3535" lon="-2.37716">
        <ele>17.39999961853</ele>
        <time>2022-02-03T10:15:05.000Z</time>
      </trkpt>
      <trkpt lat="47.35363" lon="-2.37768">
        <ele>17.39999961853</ele>
        <time>2022-02-03T10:15:11.000Z</time>
      </trkpt>
      <trkpt lat="47.35364" lon="-2.37775">
        <ele>17.39999961853</ele>
        <time>2022-02-03T10:15:12.000Z</time>
      </trkpt>
      <trkpt lat="47.35354" lon="-2.3779">
        <ele>17.39999961853</ele>
        <time>2022-02-03T10:15:15.000Z</time>
      </trkpt>
      <trkpt lat="47.35336" lon="-2.37795">
        <ele>17.39999961853</ele>
        <time>2022-02-03T10:15:18.000Z</time>
      </trkpt>
      <trkpt lat="47.35329" lon="-2.37798">
        <ele>17.39999961853</ele>
        <time>2022-02-03T10:15:19.000Z</time>
      </trkpt>
      <trkpt lat="47.35309" lon="-2.37805">
        <ele>17</ele>
        <time>2022-02-03T10:15:22.000Z</time>
      </trkpt>
      <trkpt lat="47.35302" lon="-2.37808">
        <ele>16.60000038147</ele>
        <time>2022-02-03T10:15:23.000Z</time>
      </trkpt>
      <trkpt lat="47.35296" lon="-2.37811">
        <ele>16.200000762939</ele>
        <time>2022-02-03T10:15:24.000Z</time>
      </trkpt>
      <trkpt lat="47.3529" lon="-2.37814">
        <ele>15.800000190735</ele>
        <time>2022-02-03T10:15:25.000Z</time>
      </trkpt>
      <trkpt lat="47.35283" lon="-2.37817">
        <ele>15.199999809265</ele>
        <time>2022-02-03T10:15:26.000Z</time>
      </trkpt>
      <trkpt lat="47.35251" lon="-2.37839">
        <ele>15.199999809265</ele>
        <time>2022-02-03T10:15:31.000Z</time>
      </trkpt>
      <trkpt lat="47.35208" lon="-2.37875">
        <ele>15.199999809265</ele>
        <time>2022-02-03T10:15:38.000Z</time>
      </trkpt>
      <trkpt lat="47.35168" lon="-2.37904">
        <ele>15.199999809265</ele>
        <time>2022-02-03T10:15:44.000Z</time>
      </trkpt>
      <trkpt lat="47.35162" lon="-2.37908">
        <ele>15.199999809265</ele>
        <time>2022-02-03T10:15:45.000Z</time>
      </trkpt>
      <trkpt lat="47.35126" lon="-2.37936">
        <ele>15.199999809265</ele>
        <time>2022-02-03T10:15:51.000Z</time>
      </trkpt>
      <trkpt lat="47.35091" lon="-2.37964">
        <ele>15.199999809265</ele>
        <time>2022-02-03T10:15:57.000Z</time>
      </trkpt>
      <trkpt lat="47.3505" lon="-2.37996">
        <ele>15.199999809265</ele>
        <time>2022-02-03T10:16:04.000Z</time>
      </trkpt>
      <trkpt lat="47.35013" lon="-2.38026">
        <ele>15.199999809265</ele>
        <time>2022-02-03T10:16:11.000Z</time>
      </trkpt>
      <trkpt lat="47.34984" lon="-2.38051">
        <ele>15.199999809265</ele>
        <time>2022-02-03T10:16:17.000Z</time>
      </trkpt>
      <trkpt lat="47.3498" lon="-2.38057">
        <ele>15.199999809265</ele>
        <time>2022-02-03T10:16:18.000Z</time>
      </trkpt>
      <trkpt lat="47.3498" lon="-2.38079">
        <ele>15.199999809265</ele>
        <time>2022-02-03T10:16:21.000Z</time>
      </trkpt>
      <trkpt lat="47.3499" lon="-2.38099">
        <ele>15.199999809265</ele>
        <time>2022-02-03T10:16:24.000Z</time>
      </trkpt>
      <trkpt lat="47.34994" lon="-2.38107">
        <ele>15.199999809265</ele>
        <time>2022-02-03T10:16:25.000Z</time>
      </trkpt>
      <trkpt lat="47.35011" lon="-2.38137">
        <ele>15.199999809265</ele>
        <time>2022-02-03T10:16:29.000Z</time>
      </trkpt>
      <trkpt lat="47.35034" lon="-2.38175">
        <ele>15.199999809265</ele>
        <time>2022-02-03T10:16:34.000Z</time>
      </trkpt>
      <trkpt lat="47.3506" lon="-2.38221">
        <ele>15.199999809265</ele>
        <time>2022-02-03T10:16:40.000Z</time>
      </trkpt>
      <trkpt lat="47.35085" lon="-2.38268">
        <ele>15.199999809265</ele>
        <time>2022-02-03T10:16:46.000Z</time>
      </trkpt>
      <trkpt lat="47.35088" lon="-2.38277">
        <ele>15.199999809265</ele>
        <time>2022-02-03T10:16:47.000Z</time>
      </trkpt>
      <trkpt lat="47.3509" lon="-2.38287">
        <ele>15.199999809265</ele>
        <time>2022-02-03T10:16:48.000Z</time>
      </trkpt>
      <trkpt lat="47.35098" lon="-2.38325">
        <ele>15.199999809265</ele>
        <time>2022-02-03T10:16:52.000Z</time>
      </trkpt>
      <trkpt lat="47.35112" lon="-2.38392">
        <ele>15.199999809265</ele>
        <time>2022-02-03T10:16:59.000Z</time>
      </trkpt>
      <trkpt lat="47.35126" lon="-2.38471">
        <ele>15.199999809265</ele>
        <time>2022-02-03T10:17:07.000Z</time>
      </trkpt>
      <trkpt lat="47.35127" lon="-2.38481">
        <ele>15.199999809265</ele>
        <time>2022-02-03T10:17:08.000Z</time>
      </trkpt>
      <trkpt lat="47.35134" lon="-2.38518">
        <ele>14.39999961853</ele>
        <time>2022-02-03T10:17:12.000Z</time>
      </trkpt>
      <trkpt lat="47.35133" lon="-2.38528">
        <ele>14</ele>
        <time>2022-02-03T10:17:13.000Z</time>
      </trkpt>
      <trkpt lat="47.35131" lon="-2.38539">
        <ele>13.60000038147</ele>
        <time>2022-02-03T10:17:14.000Z</time>
      </trkpt>
      <trkpt lat="47.35128" lon="-2.38548">
        <ele>13.199999809265</ele>
        <time>2022-02-03T10:17:15.000Z</time>
      </trkpt>
      <trkpt lat="47.35119" lon="-2.38564">
        <ele>13.199999809265</ele>
        <time>2022-02-03T10:17:17.000Z</time>
      </trkpt>
      <trkpt lat="47.35115" lon="-2.38573">
        <ele>13.199999809265</ele>
        <time>2022-02-03T10:17:18.000Z</time>
      </trkpt>
      <trkpt lat="47.35106" lon="-2.3859">
        <ele>13.199999809265</ele>
        <time>2022-02-03T10:17:20.000Z</time>
      </trkpt>
      <trkpt lat="47.35095" lon="-2.38616">
        <ele>13.199999809265</ele>
        <time>2022-02-03T10:17:23.000Z</time>
      </trkpt>
      <trkpt lat="47.35071" lon="-2.38667">
        <ele>13.199999809265</ele>
        <time>2022-02-03T10:17:29.000Z</time>
      </trkpt>
      <trkpt lat="47.35052" lon="-2.38708">
        <ele>13.199999809265</ele>
        <time>2022-02-03T10:17:34.000Z</time>
      </trkpt>
      <trkpt lat="47.35024" lon="-2.38758">
        <ele>13.199999809265</ele>
        <time>2022-02-03T10:17:40.000Z</time>
      </trkpt>
      <trkpt lat="47.35002" lon="-2.38778">
        <ele>13.199999809265</ele>
        <time>2022-02-03T10:17:44.000Z</time>
      </trkpt>
      <trkpt lat="47.34981" lon="-2.38803">
        <ele>13.199999809265</ele>
        <time>2022-02-03T10:17:48.000Z</time>
      </trkpt>
      <trkpt lat="47.34977" lon="-2.3881">
        <ele>13.199999809265</ele>
        <time>2022-02-03T10:17:49.000Z</time>
      </trkpt>
      <trkpt lat="47.34951" lon="-2.38853">
        <ele>13.199999809265</ele>
        <time>2022-02-03T10:17:55.000Z</time>
      </trkpt>
      <trkpt lat="47.34923" lon="-2.389">
        <ele>13.199999809265</ele>
        <time>2022-02-03T10:18:02.000Z</time>
      </trkpt>
      <trkpt lat="47.34903" lon="-2.38932">
        <ele>13.199999809265</ele>
        <time>2022-02-03T10:18:07.000Z</time>
      </trkpt>
      <trkpt lat="47.349" lon="-2.38939">
        <ele>13.199999809265</ele>
        <time>2022-02-03T10:18:08.000Z</time>
      </trkpt>
      <trkpt lat="47.34879" lon="-2.38978">
        <ele>13.199999809265</ele>
        <time>2022-02-03T10:18:14.000Z</time>
      </trkpt>
      <trkpt lat="47.34876" lon="-2.38984">
        <ele>13.199999809265</ele>
        <time>2022-02-03T10:18:15.000Z</time>
      </trkpt>
      <trkpt lat="47.34854" lon="-2.39023">
        <ele>13.199999809265</ele>
        <time>2022-02-03T10:18:21.000Z</time>
      </trkpt>
      <trkpt lat="47.3484" lon="-2.3905">
        <ele>13.60000038147</ele>
        <time>2022-02-03T10:18:25.000Z</time>
      </trkpt>
      <trkpt lat="47.34836" lon="-2.39058">
        <ele>14.39999961853</ele>
        <time>2022-02-03T10:18:26.000Z</time>
      </trkpt>
      <trkpt lat="47.34832" lon="-2.39065">
        <ele>14.800000190735</ele>
        <time>2022-02-03T10:18:27.000Z</time>
      </trkpt>
      <trkpt lat="47.34828" lon="-2.39072">
        <ele>15.199999809265</ele>
        <time>2022-02-03T10:18:28.000Z</time>
      </trkpt>
      <trkpt lat="47.34811" lon="-2.39099">
        <ele>15.199999809265</ele>
        <time>2022-02-03T10:18:32.000Z</time>
      </trkpt>
      <trkpt lat="47.34784" lon="-2.3914">
        <ele>15.199999809265</ele>
        <time>2022-02-03T10:18:38.000Z</time>
      </trkpt>
      <trkpt lat="47.34755" lon="-2.39176">
        <ele>15.199999809265</ele>
        <time>2022-02-03T10:18:44.000Z</time>
      </trkpt>
      <trkpt lat="47.34726" lon="-2.39203">
        <ele>15.199999809265</ele>
        <time>2022-02-03T10:18:50.000Z</time>
      </trkpt>
      <trkpt lat="47.34715" lon="-2.39216">
        <ele>15.199999809265</ele>
        <time>2022-02-03T10:18:54.000Z</time>
      </trkpt>
      <trkpt lat="47.34702" lon="-2.39217">
        <ele>15.199999809265</ele>
        <time>2022-02-03T10:18:59.000Z</time>
      </trkpt>
      <trkpt lat="47.34693" lon="-2.39203">
        <ele>15.199999809265</ele>
        <time>2022-02-03T10:19:04.000Z</time>
      </trkpt>
      <trkpt lat="47.34691" lon="-2.39197">
        <ele>15.199999809265</ele>
        <time>2022-02-03T10:19:05.000Z</time>
      </trkpt>
      <trkpt lat="47.34687" lon="-2.39168">
        <ele>15.199999809265</ele>
        <time>2022-02-03T10:19:10.000Z</time>
      </trkpt>
      <trkpt lat="47.34689" lon="-2.39123">
        <ele>15.199999809265</ele>
        <time>2022-02-03T10:19:16.000Z</time>
      </trkpt>
      <trkpt lat="47.34691" lon="-2.39108">
        <ele>15.199999809265</ele>
        <time>2022-02-03T10:19:18.000Z</time>
      </trkpt>
      <trkpt lat="47.34696" lon="-2.39076">
        <ele>15.199999809265</ele>
        <time>2022-02-03T10:19:22.000Z</time>
      </trkpt>
      <trkpt lat="47.34703" lon="-2.39022">
        <ele>15.199999809265</ele>
        <time>2022-02-03T10:19:29.000Z</time>
      </trkpt>
      <trkpt lat="47.34706" lon="-2.38969">
        <ele>15.199999809265</ele>
        <time>2022-02-03T10:19:36.000Z</time>
      </trkpt>
      <trkpt lat="47.34707" lon="-2.38954">
        <ele>15.199999809265</ele>
        <time>2022-02-03T10:19:41.000Z</time>
      </trkpt>
      <trkpt lat="47.34707" lon="-2.38934">
        <ele>15.199999809265</ele>
        <time>2022-02-03T10:19:46.000Z</time>
      </trkpt>
      <trkpt lat="47.34707" lon="-2.38901">
        <ele>15.199999809265</ele>
        <time>2022-02-03T10:19:52.000Z</time>
      </trkpt>
      <trkpt lat="47.34706" lon="-2.38862">
        <ele>15.199999809265</ele>
        <time>2022-02-03T10:19:59.000Z</time>
      </trkpt>
      <trkpt lat="47.34704" lon="-2.38817">
        <ele>15.199999809265</ele>
        <time>2022-02-03T10:20:06.000Z</time>
      </trkpt>
      <trkpt lat="47.34702" lon="-2.38764">
        <ele>15.199999809265</ele>
        <time>2022-02-03T10:20:14.000Z</time>
      </trkpt>
      <trkpt lat="47.347" lon="-2.38726">
        <ele>15.199999809265</ele>
        <time>2022-02-03T10:20:20.000Z</time>
      </trkpt>
      <trkpt lat="47.34697" lon="-2.38689">
        <ele>15.199999809265</ele>
        <time>2022-02-03T10:20:26.000Z</time>
      </trkpt>
      <trkpt lat="47.3469" lon="-2.38638">
        <ele>15.199999809265</ele>
        <time>2022-02-03T10:20:33.000Z</time>
      </trkpt>
      <trkpt lat="47.34686" lon="-2.38575">
        <ele>15.199999809265</ele>
        <time>2022-02-03T10:20:41.000Z</time>
      </trkpt>
      <trkpt lat="47.34686" lon="-2.38536">
        <ele>15.199999809265</ele>
        <time>2022-02-03T10:20:46.000Z</time>
      </trkpt>
      <trkpt lat="47.34686" lon="-2.38528">
        <ele>15.199999809265</ele>
        <time>2022-02-03T10:20:47.000Z</time>
      </trkpt>
      <trkpt lat="47.3468" lon="-2.38483">
        <ele>15.199999809265</ele>
        <time>2022-02-03T10:20:53.000Z</time>
      </trkpt>
      <trkpt lat="47.34669" lon="-2.38433">
        <ele>15.199999809265</ele>
        <time>2022-02-03T10:21:00.000Z</time>
      </trkpt>
      <trkpt lat="47.34658" lon="-2.38384">
        <ele>15.199999809265</ele>
        <time>2022-02-03T10:21:07.000Z</time>
      </trkpt>
      <trkpt lat="47.34657" lon="-2.38377">
        <ele>15.199999809265</ele>
        <time>2022-02-03T10:21:08.000Z</time>
      </trkpt>
      <trkpt lat="47.34655" lon="-2.38342">
        <ele>15.60000038147</ele>
        <time>2022-02-03T10:21:13.000Z</time>
      </trkpt>
      <trkpt lat="47.34655" lon="-2.38335">
        <ele>16</ele>
        <time>2022-02-03T10:21:14.000Z</time>
      </trkpt>
      <trkpt lat="47.34654" lon="-2.38328">
        <ele>16.39999961853</ele>
        <time>2022-02-03T10:21:15.000Z</time>
      </trkpt>
      <trkpt lat="47.34654" lon="-2.38321">
        <ele>16.799999237061</ele>
        <time>2022-02-03T10:21:16.000Z</time>
      </trkpt>
      <trkpt lat="47.34654" lon="-2.38313">
        <ele>17.200000762939</ele>
        <time>2022-02-03T10:21:17.000Z</time>
      </trkpt>
      <trkpt lat="47.34654" lon="-2.3829">
        <ele>17.200000762939</ele>
        <time>2022-02-03T10:21:20.000Z</time>
      </trkpt>
      <trkpt lat="47.34652" lon="-2.38231">
        <ele>17.200000762939</ele>
        <time>2022-02-03T10:21:28.000Z</time>
      </trkpt>
      <trkpt lat="47.34651" lon="-2.38177">
        <ele>17.200000762939</ele>
        <time>2022-02-03T10:21:35.000Z</time>
      </trkpt>
      <trkpt lat="47.3465" lon="-2.38162">
        <ele>17.200000762939</ele>
        <time>2022-02-03T10:21:37.000Z</time>
      </trkpt>
      <trkpt lat="47.34647" lon="-2.38133">
        <ele>17.200000762939</ele>
        <time>2022-02-03T10:21:41.000Z</time>
      </trkpt>
      <trkpt lat="47.34643" lon="-2.3812">
        <ele>17.200000762939</ele>
        <time>2022-02-03T10:21:43.000Z</time>
      </trkpt>
      <trkpt lat="47.3464" lon="-2.38114">
        <ele>17.200000762939</ele>
        <time>2022-02-03T10:21:44.000Z</time>
      </trkpt>
      <trkpt lat="47.34628" lon="-2.38094">
        <ele>17.200000762939</ele>
        <time>2022-02-03T10:21:48.000Z</time>
      </trkpt>
      <trkpt lat="47.34611" lon="-2.38062">
        <ele>17.200000762939</ele>
        <time>2022-02-03T10:21:55.000Z</time>
      </trkpt>
      <trkpt lat="47.34598" lon="-2.38053">
        <ele>17.200000762939</ele>
        <time>2022-02-03T10:22:00.000Z</time>
      </trkpt>
      <trkpt lat="47.34586" lon="-2.38066">
        <ele>17.200000762939</ele>
        <time>2022-02-03T10:22:04.000Z</time>
      </trkpt>
      <trkpt lat="47.34566" lon="-2.38083">
        <ele>17.200000762939</ele>
        <time>2022-02-03T10:22:09.000Z</time>
      </trkpt>
      <trkpt lat="47.34561" lon="-2.38086">
        <ele>17.200000762939</ele>
        <time>2022-02-03T10:22:10.000Z</time>
      </trkpt>
      <trkpt lat="47.34557" lon="-2.38089">
        <ele>17.799999237061</ele>
        <time>2022-02-03T10:22:11.000Z</time>
      </trkpt>
      <trkpt lat="47.34552" lon="-2.38092">
        <ele>18.200000762939</ele>
        <time>2022-02-03T10:22:12.000Z</time>
      </trkpt>
      <trkpt lat="47.34548" lon="-2.38095">
        <ele>18.60000038147</ele>
        <time>2022-02-03T10:22:13.000Z</time>
      </trkpt>
      <trkpt lat="47.34544" lon="-2.38099">
        <ele>19</ele>
        <time>2022-02-03T10:22:14.000Z</time>
      </trkpt>
      <trkpt lat="47.34541" lon="-2.38105">
        <ele>19.39999961853</ele>
        <time>2022-02-03T10:22:15.000Z</time>
      </trkpt>
      <trkpt lat="47.34538" lon="-2.38128">
        <ele>19.39999961853</ele>
        <time>2022-02-03T10:22:18.000Z</time>
      </trkpt>
      <trkpt lat="47.34533" lon="-2.38185">
        <ele>19.39999961853</ele>
        <time>2022-02-03T10:22:25.000Z</time>
      </trkpt>
      <trkpt lat="47.34526" lon="-2.38242">
        <ele>19.39999961853</ele>
        <time>2022-02-03T10:22:32.000Z</time>
      </trkpt>
      <trkpt lat="47.34524" lon="-2.3825">
        <ele>19.39999961853</ele>
        <time>2022-02-03T10:22:33.000Z</time>
      </trkpt>
      <trkpt lat="47.34515" lon="-2.38264">
        <ele>19.39999961853</ele>
        <time>2022-02-03T10:22:35.000Z</time>
      </trkpt>
      <trkpt lat="47.34493" lon="-2.38282">
        <ele>19.39999961853</ele>
        <time>2022-02-03T10:22:39.000Z</time>
      </trkpt>
      <trkpt lat="47.34482" lon="-2.38289">
        <ele>19.799999237061</ele>
        <time>2022-02-03T10:22:41.000Z</time>
      </trkpt>
      <trkpt lat="47.34477" lon="-2.38293">
        <ele>20.200000762939</ele>
        <time>2022-02-03T10:22:42.000Z</time>
      </trkpt>
      <trkpt lat="47.34471" lon="-2.38296">
        <ele>20.60000038147</ele>
        <time>2022-02-03T10:22:43.000Z</time>
      </trkpt>
      <trkpt lat="47.34466" lon="-2.383">
        <ele>21</ele>
        <time>2022-02-03T10:22:44.000Z</time>
      </trkpt>
      <trkpt lat="47.34461" lon="-2.38304">
        <ele>21.39999961853</ele>
        <time>2022-02-03T10:22:45.000Z</time>
      </trkpt>
      <trkpt lat="47.34429" lon="-2.38323">
        <ele>21.39999961853</ele>
        <time>2022-02-03T10:22:51.000Z</time>
      </trkpt>
      <trkpt lat="47.34391" lon="-2.38349">
        <ele>21.39999961853</ele>
        <time>2022-02-03T10:22:58.000Z</time>
      </trkpt>
      <trkpt lat="47.34358" lon="-2.38379">
        <ele>21.39999961853</ele>
        <time>2022-02-03T10:23:04.000Z</time>
      </trkpt>
      <trkpt lat="47.34348" lon="-2.38392">
        <ele>21.39999961853</ele>
        <time>2022-02-03T10:23:06.000Z</time>
      </trkpt>
      <trkpt lat="47.34339" lon="-2.38409">
        <ele>21.39999961853</ele>
        <time>2022-02-03T10:23:08.000Z</time>
      </trkpt>
      <trkpt lat="47.34318" lon="-2.38464">
        <ele>21.39999961853</ele>
        <time>2022-02-03T10:23:14.000Z</time>
      </trkpt>
      <trkpt lat="47.34309" lon="-2.38487">
        <ele>21.39999961853</ele>
        <time>2022-02-03T10:23:17.000Z</time>
      </trkpt>
      <trkpt lat="47.343" lon="-2.38497">
        <ele>21.39999961853</ele>
        <time>2022-02-03T10:23:19.000Z</time>
      </trkpt>
      <trkpt lat="47.34284" lon="-2.38503">
        <ele>21.39999961853</ele>
        <time>2022-02-03T10:23:22.000Z</time>
      </trkpt>
      <trkpt lat="47.34278" lon="-2.38505">
        <ele>21.39999961853</ele>
        <time>2022-02-03T10:23:23.000Z</time>
      </trkpt>
      <trkpt lat="47.34228" lon="-2.38515">
        <ele>21.39999961853</ele>
        <time>2022-02-03T10:23:32.000Z</time>
      </trkpt>
      <trkpt lat="47.34217" lon="-2.38515">
        <ele>21.39999961853</ele>
        <time>2022-02-03T10:23:34.000Z</time>
      </trkpt>
      <trkpt lat="47.34195" lon="-2.38517">
        <ele>21.39999961853</ele>
        <time>2022-02-03T10:23:38.000Z</time>
      </trkpt>
      <trkpt lat="47.34184" lon="-2.38518">
        <ele>21.799999237061</ele>
        <time>2022-02-03T10:23:40.000Z</time>
      </trkpt>
      <trkpt lat="47.34178" lon="-2.38518">
        <ele>22.200000762939</ele>
        <time>2022-02-03T10:23:41.000Z</time>
      </trkpt>
      <trkpt lat="47.34173" lon="-2.38517">
        <ele>22.60000038147</ele>
        <time>2022-02-03T10:23:42.000Z</time>
      </trkpt>
      <trkpt lat="47.34168" lon="-2.38516">
        <ele>23</ele>
        <time>2022-02-03T10:23:43.000Z</time>
      </trkpt>
      <trkpt lat="47.34164" lon="-2.38515">
        <ele>23.39999961853</ele>
        <time>2022-02-03T10:23:44.000Z</time>
      </trkpt>
      <trkpt lat="47.34149" lon="-2.38515">
        <ele>23.39999961853</ele>
        <time>2022-02-03T10:23:47.000Z</time>
      </trkpt>
      <trkpt lat="47.34133" lon="-2.38521">
        <ele>23.39999961853</ele>
        <time>2022-02-03T10:23:50.000Z</time>
      </trkpt>
      <trkpt lat="47.34128" lon="-2.38524">
        <ele>23.39999961853</ele>
        <time>2022-02-03T10:23:51.000Z</time>
      </trkpt>
      <trkpt lat="47.34124" lon="-2.38526">
        <ele>24</ele>
        <time>2022-02-03T10:23:52.000Z</time>
      </trkpt>
      <trkpt lat="47.34119" lon="-2.38529">
        <ele>24.39999961853</ele>
        <time>2022-02-03T10:23:53.000Z</time>
      </trkpt>
      <trkpt lat="47.34114" lon="-2.38532">
        <ele>24.799999237061</ele>
        <time>2022-02-03T10:23:54.000Z</time>
      </trkpt>
      <trkpt lat="47.34109" lon="-2.38536">
        <ele>25.200000762939</ele>
        <time>2022-02-03T10:23:55.000Z</time>
      </trkpt>
      <trkpt lat="47.34104" lon="-2.38539">
        <ele>25.60000038147</ele>
        <time>2022-02-03T10:23:56.000Z</time>
      </trkpt>
      <trkpt lat="47.34092" lon="-2.38554">
        <ele>25.60000038147</ele>
        <time>2022-02-03T10:23:59.000Z</time>
      </trkpt>
      <trkpt lat="47.34087" lon="-2.38565">
        <ele>25.60000038147</ele>
        <time>2022-02-03T10:24:01.000Z</time>
      </trkpt>
      <trkpt lat="47.34079" lon="-2.38594">
        <ele>25.60000038147</ele>
        <time>2022-02-03T10:24:05.000Z</time>
      </trkpt>
      <trkpt lat="47.34077" lon="-2.38602">
        <ele>25.60000038147</ele>
        <time>2022-02-03T10:24:06.000Z</time>
      </trkpt>
      <trkpt lat="47.34075" lon="-2.38608">
        <ele>25.60000038147</ele>
        <time>2022-02-03T10:24:07.000Z</time>
      </trkpt>
      <trkpt lat="47.34064" lon="-2.38626">
        <ele>25.60000038147</ele>
        <time>2022-02-03T10:24:10.000Z</time>
      </trkpt>
      <trkpt lat="47.3406" lon="-2.38631">
        <ele>25.60000038147</ele>
        <time>2022-02-03T10:24:11.000Z</time>
      </trkpt>
      <trkpt lat="47.34057" lon="-2.38637">
        <ele>26</ele>
        <time>2022-02-03T10:24:12.000Z</time>
      </trkpt>
      <trkpt lat="47.34054" lon="-2.38642">
        <ele>26.39999961853</ele>
        <time>2022-02-03T10:24:13.000Z</time>
      </trkpt>
      <trkpt lat="47.34051" lon="-2.38648">
        <ele>26.799999237061</ele>
        <time>2022-02-03T10:24:14.000Z</time>
      </trkpt>
      <trkpt lat="47.34047" lon="-2.38653">
        <ele>27.200000762939</ele>
        <time>2022-02-03T10:24:15.000Z</time>
      </trkpt>
      <trkpt lat="47.34043" lon="-2.38658">
        <ele>27.60000038147</ele>
        <time>2022-02-03T10:24:16.000Z</time>
      </trkpt>
      <trkpt lat="47.34036" lon="-2.38666">
        <ele>27.60000038147</ele>
        <time>2022-02-03T10:24:18.000Z</time>
      </trkpt>
      <trkpt lat="47.34007" lon="-2.38694">
        <ele>27.60000038147</ele>
        <time>2022-02-03T10:24:25.000Z</time>
      </trkpt>
      <trkpt lat="47.34003" lon="-2.38697">
        <ele>28</ele>
        <time>2022-02-03T10:24:26.000Z</time>
      </trkpt>
      <trkpt lat="47.33999" lon="-2.387">
        <ele>28.39999961853</ele>
        <time>2022-02-03T10:24:27.000Z</time>
      </trkpt>
      <trkpt lat="47.33995" lon="-2.38704">
        <ele>28.799999237061</ele>
        <time>2022-02-03T10:24:28.000Z</time>
      </trkpt>
      <trkpt lat="47.33991" lon="-2.38708">
        <ele>29.200000762939</ele>
        <time>2022-02-03T10:24:29.000Z</time>
      </trkpt>
      <trkpt lat="47.33987" lon="-2.38712">
        <ele>29.60000038147</ele>
        <time>2022-02-03T10:24:30.000Z</time>
      </trkpt>
      <trkpt lat="47.33984" lon="-2.38716">
        <ele>29.60000038147</ele>
        <time>2022-02-03T10:24:31.000Z</time>
      </trkpt>
      <trkpt lat="47.3397" lon="-2.38737">
        <ele>29.60000038147</ele>
        <time>2022-02-03T10:24:35.000Z</time>
      </trkpt>
      <trkpt lat="47.33946" lon="-2.38767">
        <ele>29.60000038147</ele>
        <time>2022-02-03T10:24:41.000Z</time>
      </trkpt>
      <trkpt lat="47.33941" lon="-2.3877">
        <ele>29.60000038147</ele>
        <time>2022-02-03T10:24:42.000Z</time>
      </trkpt>
      <trkpt lat="47.33923" lon="-2.38788">
        <ele>29.60000038147</ele>
        <time>2022-02-03T10:24:46.000Z</time>
      </trkpt>
      <trkpt lat="47.33918" lon="-2.38792">
        <ele>29.60000038147</ele>
        <time>2022-02-03T10:24:47.000Z</time>
      </trkpt>
      <trkpt lat="47.33915" lon="-2.38796">
        <ele>30</ele>
        <time>2022-02-03T10:24:48.000Z</time>
      </trkpt>
      <trkpt lat="47.3391" lon="-2.38802">
        <ele>30.60000038147</ele>
        <time>2022-02-03T10:24:49.000Z</time>
      </trkpt>
      <trkpt lat="47.33906" lon="-2.38806">
        <ele>31</ele>
        <time>2022-02-03T10:24:50.000Z</time>
      </trkpt>
      <trkpt lat="47.33902" lon="-2.38811">
        <ele>31.39999961853</ele>
        <time>2022-02-03T10:24:51.000Z</time>
      </trkpt>
      <trkpt lat="47.33898" lon="-2.38815">
        <ele>31.799999237061</ele>
        <time>2022-02-03T10:24:52.000Z</time>
      </trkpt>
      <trkpt lat="47.33894" lon="-2.3882">
        <ele>31.799999237061</ele>
        <time>2022-02-03T10:24:53.000Z</time>
      </trkpt>
      <trkpt lat="47.33865" lon="-2.38849">
        <ele>31.799999237061</ele>
        <time>2022-02-03T10:25:00.000Z</time>
      </trkpt>
      <trkpt lat="47.33836" lon="-2.38876">
        <ele>31.799999237061</ele>
        <time>2022-02-03T10:25:07.000Z</time>
      </trkpt>
      <trkpt lat="47.33831" lon="-2.38881">
        <ele>32.200000762939</ele>
        <time>2022-02-03T10:25:08.000Z</time>
      </trkpt>
      <trkpt lat="47.33827" lon="-2.38885">
        <ele>32.599998474121</ele>
        <time>2022-02-03T10:25:09.000Z</time>
      </trkpt>
      <trkpt lat="47.33823" lon="-2.38889">
        <ele>33</ele>
        <time>2022-02-03T10:25:10.000Z</time>
      </trkpt>
      <trkpt lat="47.33819" lon="-2.38893">
        <ele>33.400001525879</ele>
        <time>2022-02-03T10:25:11.000Z</time>
      </trkpt>
      <trkpt lat="47.33815" lon="-2.38897">
        <ele>33.799999237061</ele>
        <time>2022-02-03T10:25:12.000Z</time>
      </trkpt>
      <trkpt lat="47.33807" lon="-2.38905">
        <ele>33.799999237061</ele>
        <time>2022-02-03T10:25:14.000Z</time>
      </trkpt>
      <trkpt lat="47.33784" lon="-2.38933">
        <ele>33.799999237061</ele>
        <time>2022-02-03T10:25:20.000Z</time>
      </trkpt>
      <trkpt lat="47.33777" lon="-2.38944">
        <ele>33.799999237061</ele>
        <time>2022-02-03T10:25:22.000Z</time>
      </trkpt>
      <trkpt lat="47.33771" lon="-2.38955">
        <ele>33.799999237061</ele>
        <time>2022-02-03T10:25:24.000Z</time>
      </trkpt>
      <trkpt lat="47.33758" lon="-2.38976">
        <ele>33.799999237061</ele>
        <time>2022-02-03T10:25:28.000Z</time>
      </trkpt>
      <trkpt lat="47.33753" lon="-2.38988">
        <ele>33.799999237061</ele>
        <time>2022-02-03T10:25:30.000Z</time>
      </trkpt>
      <trkpt lat="47.33748" lon="-2.39007">
        <ele>33.799999237061</ele>
        <time>2022-02-03T10:25:33.000Z</time>
      </trkpt>
      <trkpt lat="47.33746" lon="-2.39014">
        <ele>34.200000762939</ele>
        <time>2022-02-03T10:25:34.000Z</time>
      </trkpt>
      <trkpt lat="47.33745" lon="-2.39021">
        <ele>34.799999237061</ele>
        <time>2022-02-03T10:25:35.000Z</time>
      </trkpt>
      <trkpt lat="47.33744" lon="-2.39027">
        <ele>35.200000762939</ele>
        <time>2022-02-03T10:25:36.000Z</time>
      </trkpt>
      <trkpt lat="47.33743" lon="-2.39034">
        <ele>35.599998474121</ele>
        <time>2022-02-03T10:25:37.000Z</time>
      </trkpt>
      <trkpt lat="47.33743" lon="-2.3904">
        <ele>36</ele>
        <time>2022-02-03T10:25:38.000Z</time>
      </trkpt>
      <trkpt lat="47.33742" lon="-2.39047">
        <ele>36</ele>
        <time>2022-02-03T10:25:39.000Z</time>
      </trkpt>
      <trkpt lat="47.33738" lon="-2.391">
        <ele>36</ele>
        <time>2022-02-03T10:25:46.000Z</time>
      </trkpt>
      <trkpt lat="47.33737" lon="-2.3916">
        <ele>36</ele>
        <time>2022-02-03T10:25:53.000Z</time>
      </trkpt>
      <trkpt lat="47.33737" lon="-2.39178">
        <ele>36</ele>
        <time>2022-02-03T10:25:55.000Z</time>
      </trkpt>
      <trkpt lat="47.33735" lon="-2.39205">
        <ele>36</ele>
        <time>2022-02-03T10:25:58.000Z</time>
      </trkpt>
      <trkpt lat="47.33735" lon="-2.39213">
        <ele>36</ele>
        <time>2022-02-03T10:25:59.000Z</time>
      </trkpt>
      <trkpt lat="47.33731" lon="-2.39262">
        <ele>36</ele>
        <time>2022-02-03T10:26:05.000Z</time>
      </trkpt>
      <trkpt lat="47.33728" lon="-2.39291">
        <ele>36</ele>
        <time>2022-02-03T10:26:09.000Z</time>
      </trkpt>
      <trkpt lat="47.33723" lon="-2.39302">
        <ele>36</ele>
        <time>2022-02-03T10:26:11.000Z</time>
      </trkpt>
      <trkpt lat="47.33713" lon="-2.39321">
        <ele>36</ele>
        <time>2022-02-03T10:26:15.000Z</time>
      </trkpt>
      <trkpt lat="47.33713" lon="-2.39339">
        <ele>36</ele>
        <time>2022-02-03T10:26:18.000Z</time>
      </trkpt>
      <trkpt lat="47.33713" lon="-2.39345">
        <ele>36</ele>
        <time>2022-02-03T10:26:19.000Z</time>
      </trkpt>
      <trkpt lat="47.3371" lon="-2.39373">
        <ele>36</ele>
        <time>2022-02-03T10:26:24.000Z</time>
      </trkpt>
      <trkpt lat="47.33708" lon="-2.39395">
        <ele>36.400001525879</ele>
        <time>2022-02-03T10:26:28.000Z</time>
      </trkpt>
      <trkpt lat="47.33707" lon="-2.394">
        <ele>36.799999237061</ele>
        <time>2022-02-03T10:26:29.000Z</time>
      </trkpt>
      <trkpt lat="47.33707" lon="-2.39405">
        <ele>37.200000762939</ele>
        <time>2022-02-03T10:26:30.000Z</time>
      </trkpt>
      <trkpt lat="47.33707" lon="-2.39411">
        <ele>37.799999237061</ele>
        <time>2022-02-03T10:26:31.000Z</time>
      </trkpt>
      <trkpt lat="47.33707" lon="-2.39416">
        <ele>38.200000762939</ele>
        <time>2022-02-03T10:26:32.000Z</time>
      </trkpt>
      <trkpt lat="47.33704" lon="-2.39438">
        <ele>38.200000762939</ele>
        <time>2022-02-03T10:26:36.000Z</time>
      </trkpt>
      <trkpt lat="47.33695" lon="-2.39474">
        <ele>38.200000762939</ele>
        <time>2022-02-03T10:26:42.000Z</time>
      </trkpt>
      <trkpt lat="47.33692" lon="-2.39485">
        <ele>38.200000762939</ele>
        <time>2022-02-03T10:26:44.000Z</time>
      </trkpt>
      <trkpt lat="47.33685" lon="-2.39505">
        <ele>38.200000762939</ele>
        <time>2022-02-03T10:26:48.000Z</time>
      </trkpt>
      <trkpt lat="47.33675" lon="-2.39534">
        <ele>38.200000762939</ele>
        <time>2022-02-03T10:26:54.000Z</time>
      </trkpt>
      <trkpt lat="47.33668" lon="-2.39557">
        <ele>38.200000762939</ele>
        <time>2022-02-03T10:26:58.000Z</time>
      </trkpt>
      <trkpt lat="47.33663" lon="-2.39568">
        <ele>38.200000762939</ele>
        <time>2022-02-03T10:27:00.000Z</time>
      </trkpt>
      <trkpt lat="47.33655" lon="-2.39594">
        <ele>38.200000762939</ele>
        <time>2022-02-03T10:27:04.000Z</time>
      </trkpt>
      <trkpt lat="47.33652" lon="-2.39601">
        <ele>38.200000762939</ele>
        <time>2022-02-03T10:27:05.000Z</time>
      </trkpt>
      <trkpt lat="47.3364" lon="-2.39636">
        <ele>37.799999237061</ele>
        <time>2022-02-03T10:27:10.000Z</time>
      </trkpt>
      <trkpt lat="47.33637" lon="-2.39643">
        <ele>37.400001525879</ele>
        <time>2022-02-03T10:27:11.000Z</time>
      </trkpt>
      <trkpt lat="47.33634" lon="-2.39649">
        <ele>37</ele>
        <time>2022-02-03T10:27:12.000Z</time>
      </trkpt>
      <trkpt lat="47.3363" lon="-2.39656">
        <ele>36.599998474121</ele>
        <time>2022-02-03T10:27:13.000Z</time>
      </trkpt>
      <trkpt lat="47.33626" lon="-2.39662">
        <ele>36</ele>
        <time>2022-02-03T10:27:14.000Z</time>
      </trkpt>
      <trkpt lat="47.33622" lon="-2.39668">
        <ele>36</ele>
        <time>2022-02-03T10:27:15.000Z</time>
      </trkpt>
      <trkpt lat="47.33613" lon="-2.39679">
        <ele>36</ele>
        <time>2022-02-03T10:27:17.000Z</time>
      </trkpt>
      <trkpt lat="47.3361" lon="-2.39685">
        <ele>36</ele>
        <time>2022-02-03T10:27:18.000Z</time>
      </trkpt>
      <trkpt lat="47.33599" lon="-2.39706">
        <ele>36</ele>
        <time>2022-02-03T10:27:21.000Z</time>
      </trkpt>
      <trkpt lat="47.33584" lon="-2.3973">
        <ele>36</ele>
        <time>2022-02-03T10:27:25.000Z</time>
      </trkpt>
      <trkpt lat="47.33576" lon="-2.3974">
        <ele>36</ele>
        <time>2022-02-03T10:27:27.000Z</time>
      </trkpt>
      <trkpt lat="47.33558" lon="-2.39757">
        <ele>36</ele>
        <time>2022-02-03T10:27:31.000Z</time>
      </trkpt>
      <trkpt lat="47.33554" lon="-2.39762">
        <ele>36</ele>
        <time>2022-02-03T10:27:32.000Z</time>
      </trkpt>
      <trkpt lat="47.33524" lon="-2.39799">
        <ele>36</ele>
        <time>2022-02-03T10:27:39.000Z</time>
      </trkpt>
      <trkpt lat="47.33506" lon="-2.39825">
        <ele>36</ele>
        <time>2022-02-03T10:27:44.000Z</time>
      </trkpt>
      <trkpt lat="47.33499" lon="-2.39836">
        <ele>36</ele>
        <time>2022-02-03T10:27:46.000Z</time>
      </trkpt>
      <trkpt lat="47.33482" lon="-2.39862">
        <ele>36</ele>
        <time>2022-02-03T10:27:51.000Z</time>
      </trkpt>
      <trkpt lat="47.33478" lon="-2.39866">
        <ele>36</ele>
        <time>2022-02-03T10:27:52.000Z</time>
      </trkpt>
      <trkpt lat="47.33467" lon="-2.39881">
        <ele>37</ele>
        <time>2022-02-03T10:27:55.000Z</time>
      </trkpt>
      <trkpt lat="47.33464" lon="-2.39886">
        <ele>37.400001525879</ele>
        <time>2022-02-03T10:27:56.000Z</time>
      </trkpt>
      <trkpt lat="47.3346" lon="-2.39891">
        <ele>37.799999237061</ele>
        <time>2022-02-03T10:27:57.000Z</time>
      </trkpt>
      <trkpt lat="47.33456" lon="-2.39895">
        <ele>38.200000762939</ele>
        <time>2022-02-03T10:27:58.000Z</time>
      </trkpt>
      <trkpt lat="47.33443" lon="-2.39912">
        <ele>38.200000762939</ele>
        <time>2022-02-03T10:28:02.000Z</time>
      </trkpt>
      <trkpt lat="47.3344" lon="-2.39916">
        <ele>38.200000762939</ele>
        <time>2022-02-03T10:28:03.000Z</time>
      </trkpt>
      <trkpt lat="47.33438" lon="-2.39921">
        <ele>38.200000762939</ele>
        <time>2022-02-03T10:28:04.000Z</time>
      </trkpt>
      <trkpt lat="47.33426" lon="-2.39939">
        <ele>38.599998474121</ele>
        <time>2022-02-03T10:28:08.000Z</time>
      </trkpt>
      <trkpt lat="47.33424" lon="-2.39944">
        <ele>39</ele>
        <time>2022-02-03T10:28:09.000Z</time>
      </trkpt>
      <trkpt lat="47.3342" lon="-2.39949">
        <ele>39.400001525879</ele>
        <time>2022-02-03T10:28:10.000Z</time>
      </trkpt>
      <trkpt lat="47.33418" lon="-2.39954">
        <ele>39.799999237061</ele>
        <time>2022-02-03T10:28:11.000Z</time>
      </trkpt>
      <trkpt lat="47.33415" lon="-2.39959">
        <ele>40.200000762939</ele>
        <time>2022-02-03T10:28:12.000Z</time>
      </trkpt>
      <trkpt lat="47.33402" lon="-2.39978">
        <ele>40.200000762939</ele>
        <time>2022-02-03T10:28:16.000Z</time>
      </trkpt>
      <trkpt lat="47.3338" lon="-2.4001">
        <ele>40.200000762939</ele>
        <time>2022-02-03T10:28:23.000Z</time>
      </trkpt>
      <trkpt lat="47.33371" lon="-2.40029">
        <ele>40.599998474121</ele>
        <time>2022-02-03T10:28:27.000Z</time>
      </trkpt>
      <trkpt lat="47.33368" lon="-2.40034">
        <ele>41</ele>
        <time>2022-02-03T10:28:28.000Z</time>
      </trkpt>
      <trkpt lat="47.33366" lon="-2.40039">
        <ele>41.400001525879</ele>
        <time>2022-02-03T10:28:29.000Z</time>
      </trkpt>
      <trkpt lat="47.33365" lon="-2.40045">
        <ele>42</ele>
        <time>2022-02-03T10:28:30.000Z</time>
      </trkpt>
      <trkpt lat="47.33363" lon="-2.40049">
        <ele>42.400001525879</ele>
        <time>2022-02-03T10:28:31.000Z</time>
      </trkpt>
      <trkpt lat="47.3336" lon="-2.40066">
        <ele>42.400001525879</ele>
        <time>2022-02-03T10:28:34.000Z</time>
      </trkpt>
      <trkpt lat="47.33358" lon="-2.40105">
        <ele>42.400001525879</ele>
        <time>2022-02-03T10:28:40.000Z</time>
      </trkpt>
      <trkpt lat="47.33357" lon="-2.40145">
        <ele>42.400001525879</ele>
        <time>2022-02-03T10:28:46.000Z</time>
      </trkpt>
      <trkpt lat="47.33354" lon="-2.40176">
        <ele>42.400001525879</ele>
        <time>2022-02-03T10:28:51.000Z</time>
      </trkpt>
      <trkpt lat="47.33347" lon="-2.40222">
        <ele>42.400001525879</ele>
        <time>2022-02-03T10:28:57.000Z</time>
      </trkpt>
      <trkpt lat="47.33339" lon="-2.40285">
        <ele>42.400001525879</ele>
        <time>2022-02-03T10:29:05.000Z</time>
      </trkpt>
      <trkpt lat="47.3333" lon="-2.4033">
        <ele>42.400001525879</ele>
        <time>2022-02-03T10:29:11.000Z</time>
      </trkpt>
      <trkpt lat="47.33315" lon="-2.40377">
        <ele>42.400001525879</ele>
        <time>2022-02-03T10:29:16.000Z</time>
      </trkpt>
      <trkpt lat="47.33315" lon="-2.40387">
        <ele>41.799999237061</ele>
        <time>2022-02-03T10:29:17.000Z</time>
      </trkpt>
      <trkpt lat="47.33315" lon="-2.40398">
        <ele>41.400001525879</ele>
        <time>2022-02-03T10:29:18.000Z</time>
      </trkpt>
      <trkpt lat="47.33315" lon="-2.4041">
        <ele>41</ele>
        <time>2022-02-03T10:29:19.000Z</time>
      </trkpt>
      <trkpt lat="47.33315" lon="-2.4042">
        <ele>40.599998474121</ele>
        <time>2022-02-03T10:29:20.000Z</time>
      </trkpt>
      <trkpt lat="47.33314" lon="-2.40431">
        <ele>40</ele>
        <time>2022-02-03T10:29:21.000Z</time>
      </trkpt>
      <trkpt lat="47.33311" lon="-2.40453">
        <ele>39.599998474121</ele>
        <time>2022-02-03T10:29:23.000Z</time>
      </trkpt>
      <trkpt lat="47.3331" lon="-2.40464">
        <ele>39.200000762939</ele>
        <time>2022-02-03T10:29:24.000Z</time>
      </trkpt>
      <trkpt lat="47.33309" lon="-2.40475">
        <ele>38.799999237061</ele>
        <time>2022-02-03T10:29:25.000Z</time>
      </trkpt>
      <trkpt lat="47.33308" lon="-2.40485">
        <ele>38.400001525879</ele>
        <time>2022-02-03T10:29:26.000Z</time>
      </trkpt>
      <trkpt lat="47.33306" lon="-2.40495">
        <ele>38</ele>
        <time>2022-02-03T10:29:27.000Z</time>
      </trkpt>
      <trkpt lat="47.33303" lon="-2.40505">
        <ele>38</ele>
        <time>2022-02-03T10:29:28.000Z</time>
      </trkpt>
      <trkpt lat="47.33295" lon="-2.40521">
        <ele>38</ele>
        <time>2022-02-03T10:29:30.000Z</time>
      </trkpt>
      <trkpt lat="47.3328" lon="-2.4055">
        <ele>38</ele>
        <time>2022-02-03T10:29:34.000Z</time>
      </trkpt>
      <trkpt lat="47.33277" lon="-2.40558">
        <ele>38</ele>
        <time>2022-02-03T10:29:35.000Z</time>
      </trkpt>
      <trkpt lat="47.33275" lon="-2.40566">
        <ele>38</ele>
        <time>2022-02-03T10:29:36.000Z</time>
      </trkpt>
      <trkpt lat="47.33267" lon="-2.40599">
        <ele>38</ele>
        <time>2022-02-03T10:29:40.000Z</time>
      </trkpt>
      <trkpt lat="47.33255" lon="-2.4064">
        <ele>38</ele>
        <time>2022-02-03T10:29:46.000Z</time>
      </trkpt>
      <trkpt lat="47.33245" lon="-2.40675">
        <ele>38</ele>
        <time>2022-02-03T10:29:51.000Z</time>
      </trkpt>
      <trkpt lat="47.33242" lon="-2.40688">
        <ele>38</ele>
        <time>2022-02-03T10:29:53.000Z</time>
      </trkpt>
      <trkpt lat="47.33237" lon="-2.40734">
        <ele>38</ele>
        <time>2022-02-03T10:29:59.000Z</time>
      </trkpt>
      <trkpt lat="47.33231" lon="-2.40778">
        <ele>38.400001525879</ele>
        <time>2022-02-03T10:30:05.000Z</time>
      </trkpt>
      <trkpt lat="47.33229" lon="-2.40785">
        <ele>38.799999237061</ele>
        <time>2022-02-03T10:30:06.000Z</time>
      </trkpt>
      <trkpt lat="47.33226" lon="-2.40791">
        <ele>39.200000762939</ele>
        <time>2022-02-03T10:30:07.000Z</time>
      </trkpt>
      <trkpt lat="47.33224" lon="-2.40797">
        <ele>39.599998474121</ele>
        <time>2022-02-03T10:30:08.000Z</time>
      </trkpt>
      <trkpt lat="47.3322" lon="-2.40802">
        <ele>40</ele>
        <time>2022-02-03T10:30:09.000Z</time>
      </trkpt>
      <trkpt lat="47.33214" lon="-2.40811">
        <ele>40</ele>
        <time>2022-02-03T10:30:11.000Z</time>
      </trkpt>
      <trkpt lat="47.33201" lon="-2.4083">
        <ele>40.400001525879</ele>
        <time>2022-02-03T10:30:15.000Z</time>
      </trkpt>
      <trkpt lat="47.33198" lon="-2.40835">
        <ele>40.799999237061</ele>
        <time>2022-02-03T10:30:16.000Z</time>
      </trkpt>
      <trkpt lat="47.33194" lon="-2.4084">
        <ele>41.200000762939</ele>
        <time>2022-02-03T10:30:17.000Z</time>
      </trkpt>
      <trkpt lat="47.33191" lon="-2.40845">
        <ele>41.799999237061</ele>
        <time>2022-02-03T10:30:18.000Z</time>
      </trkpt>
      <trkpt lat="47.33188" lon="-2.4085">
        <ele>42.200000762939</ele>
        <time>2022-02-03T10:30:19.000Z</time>
      </trkpt>
      <trkpt lat="47.33179" lon="-2.40865">
        <ele>42.200000762939</ele>
        <time>2022-02-03T10:30:22.000Z</time>
      </trkpt>
      <trkpt lat="47.3317" lon="-2.4088">
        <ele>42.200000762939</ele>
        <time>2022-02-03T10:30:25.000Z</time>
      </trkpt>
      <trkpt lat="47.33161" lon="-2.40898">
        <ele>42.599998474121</ele>
        <time>2022-02-03T10:30:28.000Z</time>
      </trkpt>
      <trkpt lat="47.33158" lon="-2.40903">
        <ele>43</ele>
        <time>2022-02-03T10:30:29.000Z</time>
      </trkpt>
      <trkpt lat="47.33155" lon="-2.40909">
        <ele>43.400001525879</ele>
        <time>2022-02-03T10:30:30.000Z</time>
      </trkpt>
      <trkpt lat="47.33152" lon="-2.40914">
        <ele>43.799999237061</ele>
        <time>2022-02-03T10:30:31.000Z</time>
      </trkpt>
      <trkpt lat="47.33149" lon="-2.4092">
        <ele>44.200000762939</ele>
        <time>2022-02-03T10:30:32.000Z</time>
      </trkpt>
      <trkpt lat="47.33135" lon="-2.40949">
        <ele>44.200000762939</ele>
        <time>2022-02-03T10:30:37.000Z</time>
      </trkpt>
      <trkpt lat="47.33129" lon="-2.40961">
        <ele>44.200000762939</ele>
        <time>2022-02-03T10:30:39.000Z</time>
      </trkpt>
      <trkpt lat="47.33112" lon="-2.41002">
        <ele>44.200000762939</ele>
        <time>2022-02-03T10:30:46.000Z</time>
      </trkpt>
      <trkpt lat="47.3311" lon="-2.41009">
        <ele>44.200000762939</ele>
        <time>2022-02-03T10:30:47.000Z</time>
      </trkpt>
      <trkpt lat="47.33099" lon="-2.41042">
        <ele>44.200000762939</ele>
        <time>2022-02-03T10:30:52.000Z</time>
      </trkpt>
      <trkpt lat="47.33085" lon="-2.41081">
        <ele>44.200000762939</ele>
        <time>2022-02-03T10:30:58.000Z</time>
      </trkpt>
      <trkpt lat="47.33062" lon="-2.41136">
        <ele>44.200000762939</ele>
        <time>2022-02-03T10:31:07.000Z</time>
      </trkpt>
      <trkpt lat="47.33043" lon="-2.41175">
        <ele>44.200000762939</ele>
        <time>2022-02-03T10:31:14.000Z</time>
      </trkpt>
      <trkpt lat="47.33032" lon="-2.41196">
        <ele>44.200000762939</ele>
        <time>2022-02-03T10:31:18.000Z</time>
      </trkpt>
      <trkpt lat="47.33027" lon="-2.41206">
        <ele>44.200000762939</ele>
        <time>2022-02-03T10:31:20.000Z</time>
      </trkpt>
      <trkpt lat="47.33023" lon="-2.41209">
        <ele>44.599998474121</ele>
        <time>2022-02-03T10:31:21.000Z</time>
      </trkpt>
      <trkpt lat="47.33019" lon="-2.41213">
        <ele>45</ele>
        <time>2022-02-03T10:31:22.000Z</time>
      </trkpt>
      <trkpt lat="47.33017" lon="-2.41218">
        <ele>45.400001525879</ele>
        <time>2022-02-03T10:31:23.000Z</time>
      </trkpt>
      <trkpt lat="47.33014" lon="-2.41223">
        <ele>45.799999237061</ele>
        <time>2022-02-03T10:31:24.000Z</time>
      </trkpt>
      <trkpt lat="47.33012" lon="-2.41227">
        <ele>46.200000762939</ele>
        <time>2022-02-03T10:31:25.000Z</time>
      </trkpt>
      <trkpt lat="47.33002" lon="-2.41239">
        <ele>46.200000762939</ele>
        <time>2022-02-03T10:31:28.000Z</time>
      </trkpt>
      <trkpt lat="47.32995" lon="-2.41245">
        <ele>46.200000762939</ele>
        <time>2022-02-03T10:31:30.000Z</time>
      </trkpt>
      <trkpt lat="47.32986" lon="-2.4125">
        <ele>46.200000762939</ele>
        <time>2022-02-03T10:31:32.000Z</time>
      </trkpt>
      <trkpt lat="47.32963" lon="-2.41261">
        <ele>46.200000762939</ele>
        <time>2022-02-03T10:31:37.000Z</time>
      </trkpt>
      <trkpt lat="47.32935" lon="-2.41267">
        <ele>46.200000762939</ele>
        <time>2022-02-03T10:31:43.000Z</time>
      </trkpt>
      <trkpt lat="47.32927" lon="-2.4127">
        <ele>46.200000762939</ele>
        <time>2022-02-03T10:31:45.000Z</time>
      </trkpt>
      <trkpt lat="47.32922" lon="-2.41271">
        <ele>46.200000762939</ele>
        <time>2022-02-03T10:31:46.000Z</time>
      </trkpt>
      <trkpt lat="47.32907" lon="-2.4127">
        <ele>46.200000762939</ele>
        <time>2022-02-03T10:31:49.000Z</time>
      </trkpt>
      <trkpt lat="47.32875" lon="-2.41273">
        <ele>46.200000762939</ele>
        <time>2022-02-03T10:31:56.000Z</time>
      </trkpt>
      <trkpt lat="47.32847" lon="-2.41278">
        <ele>46.599998474121</ele>
        <time>2022-02-03T10:32:02.000Z</time>
      </trkpt>
      <trkpt lat="47.32842" lon="-2.41279">
        <ele>47</ele>
        <time>2022-02-03T10:32:03.000Z</time>
      </trkpt>
      <trkpt lat="47.32838" lon="-2.4128">
        <ele>47.400001525879</ele>
        <time>2022-02-03T10:32:04.000Z</time>
      </trkpt>
      <trkpt lat="47.32833" lon="-2.41282">
        <ele>47.799999237061</ele>
        <time>2022-02-03T10:32:05.000Z</time>
      </trkpt>
      <trkpt lat="47.32828" lon="-2.41282">
        <ele>48.200000762939</ele>
        <time>2022-02-03T10:32:06.000Z</time>
      </trkpt>
      <trkpt lat="47.32814" lon="-2.41284">
        <ele>48.200000762939</ele>
        <time>2022-02-03T10:32:09.000Z</time>
      </trkpt>
      <trkpt lat="47.32781" lon="-2.4129">
        <ele>48.200000762939</ele>
        <time>2022-02-03T10:32:16.000Z</time>
      </trkpt>
      <trkpt lat="47.32777" lon="-2.41291">
        <ele>48.200000762939</ele>
        <time>2022-02-03T10:32:17.000Z</time>
      </trkpt>
      <trkpt lat="47.32761" lon="-2.41297">
        <ele>48.200000762939</ele>
        <time>2022-02-03T10:32:21.000Z</time>
      </trkpt>
      <trkpt lat="47.32749" lon="-2.41305">
        <ele>48.200000762939</ele>
        <time>2022-02-03T10:32:24.000Z</time>
      </trkpt>
      <trkpt lat="47.32745" lon="-2.41315">
        <ele>48.200000762939</ele>
        <time>2022-02-03T10:32:26.000Z</time>
      </trkpt>
      <trkpt lat="47.32744" lon="-2.41327">
        <ele>48.200000762939</ele>
        <time>2022-02-03T10:32:28.000Z</time>
      </trkpt>
      <trkpt lat="47.32742" lon="-2.41332">
        <ele>48.200000762939</ele>
        <time>2022-02-03T10:32:29.000Z</time>
      </trkpt>
      <trkpt lat="47.32739" lon="-2.41336">
        <ele>48.200000762939</ele>
        <time>2022-02-03T10:32:30.000Z</time>
      </trkpt>
      <trkpt lat="47.32728" lon="-2.41337">
        <ele>48.200000762939</ele>
        <time>2022-02-03T10:32:33.000Z</time>
      </trkpt>
      <trkpt lat="47.32718" lon="-2.41328">
        <ele>48.200000762939</ele>
        <time>2022-02-03T10:32:36.000Z</time>
      </trkpt>
      <trkpt lat="47.32699" lon="-2.41326">
        <ele>48.200000762939</ele>
        <time>2022-02-03T10:32:40.000Z</time>
      </trkpt>
      <trkpt lat="47.3269" lon="-2.4133">
        <ele>48.200000762939</ele>
        <time>2022-02-03T10:32:42.000Z</time>
      </trkpt>
      <trkpt lat="47.32673" lon="-2.4134">
        <ele>48.200000762939</ele>
        <time>2022-02-03T10:32:46.000Z</time>
      </trkpt>
      <trkpt lat="47.32642" lon="-2.41358">
        <ele>48.599998474121</ele>
        <time>2022-02-03T10:32:53.000Z</time>
      </trkpt>
      <trkpt lat="47.32638" lon="-2.41361">
        <ele>49</ele>
        <time>2022-02-03T10:32:54.000Z</time>
      </trkpt>
      <trkpt lat="47.32633" lon="-2.41363">
        <ele>49.400001525879</ele>
        <time>2022-02-03T10:32:55.000Z</time>
      </trkpt>
      <trkpt lat="47.32629" lon="-2.41366">
        <ele>49.799999237061</ele>
        <time>2022-02-03T10:32:56.000Z</time>
      </trkpt>
      <trkpt lat="47.32625" lon="-2.41369">
        <ele>50.200000762939</ele>
        <time>2022-02-03T10:32:57.000Z</time>
      </trkpt>
      <trkpt lat="47.32616" lon="-2.41374">
        <ele>50.200000762939</ele>
        <time>2022-02-03T10:32:59.000Z</time>
      </trkpt>
      <trkpt lat="47.326" lon="-2.41384">
        <ele>50.200000762939</ele>
        <time>2022-02-03T10:33:03.000Z</time>
      </trkpt>
      <trkpt lat="47.32585" lon="-2.41394">
        <ele>50.200000762939</ele>
        <time>2022-02-03T10:33:07.000Z</time>
      </trkpt>
      <trkpt lat="47.32584" lon="-2.41399">
        <ele>50.200000762939</ele>
        <time>2022-02-03T10:33:08.000Z</time>
      </trkpt>
      <trkpt lat="47.32582" lon="-2.41417">
        <ele>50.200000762939</ele>
        <time>2022-02-03T10:33:11.000Z</time>
      </trkpt>
      <trkpt lat="47.32583" lon="-2.41429">
        <ele>50.200000762939</ele>
        <time>2022-02-03T10:33:13.000Z</time>
      </trkpt>
      <trkpt lat="47.32583" lon="-2.41441">
        <ele>50.599998474121</ele>
        <time>2022-02-03T10:33:15.000Z</time>
      </trkpt>
      <trkpt lat="47.32583" lon="-2.41447">
        <ele>51.599998474121</ele>
        <time>2022-02-03T10:33:16.000Z</time>
      </trkpt>
      <trkpt lat="47.32582" lon="-2.41453">
        <ele>52</ele>
        <time>2022-02-03T10:33:17.000Z</time>
      </trkpt>
      <trkpt lat="47.32581" lon="-2.41458">
        <ele>52.400001525879</ele>
        <time>2022-02-03T10:33:18.000Z</time>
      </trkpt>
      <trkpt lat="47.32579" lon="-2.41461">
        <ele>52.400001525879</ele>
        <time>2022-02-03T10:33:19.000Z</time>
      </trkpt>
      <trkpt lat="47.32571" lon="-2.4146">
        <ele>52.400001525879</ele>
        <time>2022-02-03T10:33:22.000Z</time>
      </trkpt>
      <trkpt lat="47.32569" lon="-2.41456">
        <ele>52.400001525879</ele>
        <time>2022-02-03T10:33:23.000Z</time>
      </trkpt>
      <trkpt lat="47.32567" lon="-2.41452">
        <ele>52.400001525879</ele>
        <time>2022-02-03T10:33:24.000Z</time>
      </trkpt>
      <trkpt lat="47.32562" lon="-2.41444">
        <ele>52.400001525879</ele>
        <time>2022-02-03T10:33:26.000Z</time>
      </trkpt>
      <trkpt lat="47.32544" lon="-2.41406">
        <ele>52.400001525879</ele>
        <time>2022-02-03T10:33:33.000Z</time>
      </trkpt>
      <trkpt lat="47.32526" lon="-2.4137">
        <ele>52.400001525879</ele>
        <time>2022-02-03T10:33:40.000Z</time>
      </trkpt>
      <trkpt lat="47.32509" lon="-2.41334">
        <ele>52.400001525879</ele>
        <time>2022-02-03T10:33:46.000Z</time>
      </trkpt>
      <trkpt lat="47.32487" lon="-2.41294">
        <ele>52.400001525879</ele>
        <time>2022-02-03T10:33:53.000Z</time>
      </trkpt>
      <trkpt lat="47.32484" lon="-2.41289">
        <ele>52.400001525879</ele>
        <time>2022-02-03T10:33:54.000Z</time>
      </trkpt>
      <trkpt lat="47.32481" lon="-2.41284">
        <ele>52.799999237061</ele>
        <time>2022-02-03T10:33:55.000Z</time>
      </trkpt>
      <trkpt lat="47.32478" lon="-2.41278">
        <ele>53.200000762939</ele>
        <time>2022-02-03T10:33:56.000Z</time>
      </trkpt>
      <trkpt lat="47.32475" lon="-2.41272">
        <ele>53.599998474121</ele>
        <time>2022-02-03T10:33:57.000Z</time>
      </trkpt>
      <trkpt lat="47.32472" lon="-2.41267">
        <ele>54</ele>
        <time>2022-02-03T10:33:58.000Z</time>
      </trkpt>
      <trkpt lat="47.3247" lon="-2.41261">
        <ele>54.400001525879</ele>
        <time>2022-02-03T10:33:59.000Z</time>
      </trkpt>
      <trkpt lat="47.32456" lon="-2.41232">
        <ele>54.400001525879</ele>
        <time>2022-02-03T10:34:04.000Z</time>
      </trkpt>
      <trkpt lat="47.32437" lon="-2.41196">
        <ele>54.400001525879</ele>
        <time>2022-02-03T10:34:11.000Z</time>
      </trkpt>
      <trkpt lat="47.3243" lon="-2.41185">
        <ele>54.400001525879</ele>
        <time>2022-02-03T10:34:14.000Z</time>
      </trkpt>
      <trkpt lat="47.32429" lon="-2.41184">
        <ele>54.400001525879</ele>
        <time>2022-02-03T10:34:15.000Z</time>
      </trkpt>
      <trkpt lat="47.32428" lon="-2.41182">
        <ele>54.400001525879</ele>
        <time>2022-02-03T10:34:16.000Z</time>
      </trkpt>
      <trkpt lat="47.32422" lon="-2.41174">
        <ele>54.400001525879</ele>
        <time>2022-02-03T10:34:20.000Z</time>
      </trkpt>
      <trkpt lat="47.32414" lon="-2.41156">
        <ele>54.400001525879</ele>
        <time>2022-02-03T10:34:25.000Z</time>
      </trkpt>
      <trkpt lat="47.32402" lon="-2.41133">
        <ele>54.400001525879</ele>
        <time>2022-02-03T10:34:31.000Z</time>
      </trkpt>
      <trkpt lat="47.324" lon="-2.41126">
        <ele>54.400001525879</ele>
        <time>2022-02-03T10:34:35.000Z</time>
      </trkpt>
      <trkpt lat="47.32399" lon="-2.41123">
        <ele>54.400001525879</ele>
        <time>2022-02-03T10:35:13.000Z</time>
      </trkpt>
      <trkpt lat="47.32396" lon="-2.41118">
        <ele>54.400001525879</ele>
        <time>2022-02-03T10:35:16.000Z</time>
      </trkpt>
      <trkpt lat="47.32388" lon="-2.41101">
        <ele>54.400001525879</ele>
        <time>2022-02-03T10:35:22.000Z</time>
      </trkpt>
      <trkpt lat="47.32376" lon="-2.41074">
        <ele>54.400001525879</ele>
        <time>2022-02-03T10:35:30.000Z</time>
      </trkpt>
      <trkpt lat="47.32361" lon="-2.41056">
        <ele>54.400001525879</ele>
        <time>2022-02-03T10:35:35.000Z</time>
      </trkpt>
      <trkpt lat="47.32341" lon="-2.41019">
        <ele>54.400001525879</ele>
        <time>2022-02-03T10:35:41.000Z</time>
      </trkpt>
      <trkpt lat="47.32339" lon="-2.41012">
        <ele>54.400001525879</ele>
        <time>2022-02-03T10:35:42.000Z</time>
      </trkpt>
      <trkpt lat="47.32331" lon="-2.40992">
        <ele>54.400001525879</ele>
        <time>2022-02-03T10:35:45.000Z</time>
      </trkpt>
      <trkpt lat="47.32309" lon="-2.40947">
        <ele>54.400001525879</ele>
        <time>2022-02-03T10:35:52.000Z</time>
      </trkpt>
      <trkpt lat="47.32304" lon="-2.4094">
        <ele>54.400001525879</ele>
        <time>2022-02-03T10:35:53.000Z</time>
      </trkpt>
      <trkpt lat="47.32276" lon="-2.40892">
        <ele>54.400001525879</ele>
        <time>2022-02-03T10:36:00.000Z</time>
      </trkpt>
      <trkpt lat="47.32258" lon="-2.4086">
        <ele>54</ele>
        <time>2022-02-03T10:36:05.000Z</time>
      </trkpt>
      <trkpt lat="47.32254" lon="-2.40853">
        <ele>53.599998474121</ele>
        <time>2022-02-03T10:36:06.000Z</time>
      </trkpt>
      <trkpt lat="47.32251" lon="-2.40847">
        <ele>53.200000762939</ele>
        <time>2022-02-03T10:36:07.000Z</time>
      </trkpt>
      <trkpt lat="47.32247" lon="-2.40841">
        <ele>52.799999237061</ele>
        <time>2022-02-03T10:36:08.000Z</time>
      </trkpt>
      <trkpt lat="47.32244" lon="-2.40835">
        <ele>52.400001525879</ele>
        <time>2022-02-03T10:36:09.000Z</time>
      </trkpt>
      <trkpt lat="47.32231" lon="-2.40814">
        <ele>52.400001525879</ele>
        <time>2022-02-03T10:36:13.000Z</time>
      </trkpt>
      <trkpt lat="47.32224" lon="-2.40809">
        <ele>52.400001525879</ele>
        <time>2022-02-03T10:36:15.000Z</time>
      </trkpt>
      <trkpt lat="47.32216" lon="-2.40797">
        <ele>52.400001525879</ele>
        <time>2022-02-03T10:36:18.000Z</time>
      </trkpt>
      <trkpt lat="47.32212" lon="-2.40789">
        <ele>52.400001525879</ele>
        <time>2022-02-03T10:36:20.000Z</time>
      </trkpt>
      <trkpt lat="47.32197" lon="-2.40768">
        <ele>52.400001525879</ele>
        <time>2022-02-03T10:36:25.000Z</time>
      </trkpt>
      <trkpt lat="47.32175" lon="-2.4074">
        <ele>52.400001525879</ele>
        <time>2022-02-03T10:36:30.000Z</time>
      </trkpt>
      <trkpt lat="47.32136" lon="-2.40697">
        <ele>52.400001525879</ele>
        <time>2022-02-03T10:36:38.000Z</time>
      </trkpt>
      <trkpt lat="47.32096" lon="-2.40652">
        <ele>52.400001525879</ele>
        <time>2022-02-03T10:36:46.000Z</time>
      </trkpt>
      <trkpt lat="47.32058" lon="-2.40615">
        <ele>52.400001525879</ele>
        <time>2022-02-03T10:36:53.000Z</time>
      </trkpt>
      <trkpt lat="47.32037" lon="-2.40595">
        <ele>52.400001525879</ele>
        <time>2022-02-03T10:36:57.000Z</time>
      </trkpt>
      <trkpt lat="47.32032" lon="-2.40589">
        <ele>52</ele>
        <time>2022-02-03T10:36:58.000Z</time>
      </trkpt>
      <trkpt lat="47.32026" lon="-2.40583">
        <ele>51.599998474121</ele>
        <time>2022-02-03T10:36:59.000Z</time>
      </trkpt>
      <trkpt lat="47.3202" lon="-2.40578">
        <ele>51.200000762939</ele>
        <time>2022-02-03T10:37:00.000Z</time>
      </trkpt>
      <trkpt lat="47.32015" lon="-2.40573">
        <ele>50.599998474121</ele>
        <time>2022-02-03T10:37:01.000Z</time>
      </trkpt>
      <trkpt lat="47.32009" lon="-2.40567">
        <ele>50.200000762939</ele>
        <time>2022-02-03T10:37:02.000Z</time>
      </trkpt>
      <trkpt lat="47.31972" lon="-2.40534">
        <ele>50.200000762939</ele>
        <time>2022-02-03T10:37:08.000Z</time>
      </trkpt>
      <trkpt lat="47.31948" lon="-2.40511">
        <ele>49.799999237061</ele>
        <time>2022-02-03T10:37:12.000Z</time>
      </trkpt>
      <trkpt lat="47.31941" lon="-2.40506">
        <ele>49.400001525879</ele>
        <time>2022-02-03T10:37:13.000Z</time>
      </trkpt>
      <trkpt lat="47.31934" lon="-2.40501">
        <ele>49</ele>
        <time>2022-02-03T10:37:14.000Z</time>
      </trkpt>
      <trkpt lat="47.31927" lon="-2.40495">
        <ele>48.599998474121</ele>
        <time>2022-02-03T10:37:15.000Z</time>
      </trkpt>
      <trkpt lat="47.31919" lon="-2.4049">
        <ele>48.200000762939</ele>
        <time>2022-02-03T10:37:16.000Z</time>
      </trkpt>
      <trkpt lat="47.31886" lon="-2.40465">
        <ele>48.200000762939</ele>
        <time>2022-02-03T10:37:21.000Z</time>
      </trkpt>
      <trkpt lat="47.31843" lon="-2.40435">
        <ele>48.200000762939</ele>
        <time>2022-02-03T10:37:27.000Z</time>
      </trkpt>
      <trkpt lat="47.31828" lon="-2.40424">
        <ele>47.799999237061</ele>
        <time>2022-02-03T10:37:29.000Z</time>
      </trkpt>
      <trkpt lat="47.3182" lon="-2.40419">
        <ele>47.400001525879</ele>
        <time>2022-02-03T10:37:30.000Z</time>
      </trkpt>
      <trkpt lat="47.31813" lon="-2.40414">
        <ele>47</ele>
        <time>2022-02-03T10:37:31.000Z</time>
      </trkpt>
      <trkpt lat="47.31806" lon="-2.40409">
        <ele>46.599998474121</ele>
        <time>2022-02-03T10:37:32.000Z</time>
      </trkpt>
      <trkpt lat="47.318" lon="-2.40404">
        <ele>46</ele>
        <time>2022-02-03T10:37:33.000Z</time>
      </trkpt>
      <trkpt lat="47.31785" lon="-2.40393">
        <ele>46</ele>
        <time>2022-02-03T10:37:35.000Z</time>
      </trkpt>
      <trkpt lat="47.31741" lon="-2.40362">
        <ele>46</ele>
        <time>2022-02-03T10:37:41.000Z</time>
      </trkpt>
      <trkpt lat="47.31725" lon="-2.40352">
        <ele>45.599998474121</ele>
        <time>2022-02-03T10:37:43.000Z</time>
      </trkpt>
      <trkpt lat="47.31717" lon="-2.40347">
        <ele>45.200000762939</ele>
        <time>2022-02-03T10:37:44.000Z</time>
      </trkpt>
      <trkpt lat="47.31711" lon="-2.40342">
        <ele>44.799999237061</ele>
        <time>2022-02-03T10:37:45.000Z</time>
      </trkpt>
      <trkpt lat="47.31705" lon="-2.40337">
        <ele>44.400001525879</ele>
        <time>2022-02-03T10:37:46.000Z</time>
      </trkpt>
      <trkpt lat="47.31696" lon="-2.40334">
        <ele>44</ele>
        <time>2022-02-03T10:37:47.000Z</time>
      </trkpt>
      <trkpt lat="47.31688" lon="-2.40331">
        <ele>44</ele>
        <time>2022-02-03T10:37:48.000Z</time>
      </trkpt>
      <trkpt lat="47.31671" lon="-2.4032">
        <ele>44</ele>
        <time>2022-02-03T10:37:51.000Z</time>
      </trkpt>
      <trkpt lat="47.31657" lon="-2.40304">
        <ele>44</ele>
        <time>2022-02-03T10:37:54.000Z</time>
      </trkpt>
      <trkpt lat="47.31645" lon="-2.40294">
        <ele>44</ele>
        <time>2022-02-03T10:37:56.000Z</time>
      </trkpt>
      <trkpt lat="47.31606" lon="-2.40263">
        <ele>44</ele>
        <time>2022-02-03T10:38:02.000Z</time>
      </trkpt>
      <trkpt lat="47.316" lon="-2.40259">
        <ele>43.599998474121</ele>
        <time>2022-02-03T10:38:03.000Z</time>
      </trkpt>
      <trkpt lat="47.31593" lon="-2.40254">
        <ele>43.200000762939</ele>
        <time>2022-02-03T10:38:04.000Z</time>
      </trkpt>
      <trkpt lat="47.31586" lon="-2.40249">
        <ele>42.599998474121</ele>
        <time>2022-02-03T10:38:05.000Z</time>
      </trkpt>
      <trkpt lat="47.31579" lon="-2.40244">
        <ele>42.200000762939</ele>
        <time>2022-02-03T10:38:06.000Z</time>
      </trkpt>
      <trkpt lat="47.31573" lon="-2.40239">
        <ele>41.799999237061</ele>
        <time>2022-02-03T10:38:07.000Z</time>
      </trkpt>
      <trkpt lat="47.31567" lon="-2.40234">
        <ele>41.799999237061</ele>
        <time>2022-02-03T10:38:08.000Z</time>
      </trkpt>
      <trkpt lat="47.31532" lon="-2.40209">
        <ele>41.799999237061</ele>
        <time>2022-02-03T10:38:14.000Z</time>
      </trkpt>
      <trkpt lat="47.31507" lon="-2.40186">
        <ele>41.400001525879</ele>
        <time>2022-02-03T10:38:19.000Z</time>
      </trkpt>
      <trkpt lat="47.31501" lon="-2.40182">
        <ele>41</ele>
        <time>2022-02-03T10:38:20.000Z</time>
      </trkpt>
      <trkpt lat="47.31496" lon="-2.40178">
        <ele>40.599998474121</ele>
        <time>2022-02-03T10:38:21.000Z</time>
      </trkpt>
      <trkpt lat="47.31491" lon="-2.40175">
        <ele>40.200000762939</ele>
        <time>2022-02-03T10:38:22.000Z</time>
      </trkpt>
      <trkpt lat="47.31486" lon="-2.40171">
        <ele>39.599998474121</ele>
        <time>2022-02-03T10:38:23.000Z</time>
      </trkpt>
      <trkpt lat="47.31467" lon="-2.40158">
        <ele>39.599998474121</ele>
        <time>2022-02-03T10:38:26.000Z</time>
      </trkpt>
      <trkpt lat="47.3142" lon="-2.40126">
        <ele>39.599998474121</ele>
        <time>2022-02-03T10:38:34.000Z</time>
      </trkpt>
      <trkpt lat="47.31415" lon="-2.40123">
        <ele>39.200000762939</ele>
        <time>2022-02-03T10:38:35.000Z</time>
      </trkpt>
      <trkpt lat="47.31409" lon="-2.40119">
        <ele>38.799999237061</ele>
        <time>2022-02-03T10:38:36.000Z</time>
      </trkpt>
      <trkpt lat="47.31402" lon="-2.40116">
        <ele>38.400001525879</ele>
        <time>2022-02-03T10:38:37.000Z</time>
      </trkpt>
      <trkpt lat="47.31396" lon="-2.40112">
        <ele>38</ele>
        <time>2022-02-03T10:38:38.000Z</time>
      </trkpt>
      <trkpt lat="47.3139" lon="-2.40108">
        <ele>37.599998474121</ele>
        <time>2022-02-03T10:38:39.000Z</time>
      </trkpt>
      <trkpt lat="47.31385" lon="-2.40105">
        <ele>37.599998474121</ele>
        <time>2022-02-03T10:38:40.000Z</time>
      </trkpt>
      <trkpt lat="47.31344" lon="-2.4008">
        <ele>37.599998474121</ele>
        <time>2022-02-03T10:38:47.000Z</time>
      </trkpt>
      <trkpt lat="47.31313" lon="-2.4007">
        <ele>37.200000762939</ele>
        <time>2022-02-03T10:38:52.000Z</time>
      </trkpt>
      <trkpt lat="47.31308" lon="-2.40069">
        <ele>36.799999237061</ele>
        <time>2022-02-03T10:38:53.000Z</time>
      </trkpt>
      <trkpt lat="47.31303" lon="-2.40068">
        <ele>36.400001525879</ele>
        <time>2022-02-03T10:38:54.000Z</time>
      </trkpt>
      <trkpt lat="47.31297" lon="-2.40068">
        <ele>36</ele>
        <time>2022-02-03T10:38:55.000Z</time>
      </trkpt>
      <trkpt lat="47.31292" lon="-2.40066">
        <ele>35.599998474121</ele>
        <time>2022-02-03T10:38:56.000Z</time>
      </trkpt>
      <trkpt lat="47.31268" lon="-2.40062">
        <ele>35.599998474121</ele>
        <time>2022-02-03T10:39:00.000Z</time>
      </trkpt>
      <trkpt lat="47.31262" lon="-2.40059">
        <ele>35.599998474121</ele>
        <time>2022-02-03T10:39:01.000Z</time>
      </trkpt>
      <trkpt lat="47.31252" lon="-2.40049">
        <ele>35.599998474121</ele>
        <time>2022-02-03T10:39:04.000Z</time>
      </trkpt>
      <trkpt lat="47.31246" lon="-2.40046">
        <ele>35.599998474121</ele>
        <time>2022-02-03T10:39:07.000Z</time>
      </trkpt>
      <trkpt lat="47.31245" lon="-2.40046">
        <ele>35.599998474121</ele>
        <time>2022-02-03T10:39:08.000Z</time>
      </trkpt>
      <trkpt lat="47.31238" lon="-2.40033">
        <ele>33.599998474121</ele>
        <time>2022-02-03T10:41:00.000Z</time>
      </trkpt>
      <trkpt lat="47.31237" lon="-2.40029">
        <ele>33.599998474121</ele>
        <time>2022-02-03T10:41:02.000Z</time>
      </trkpt>
      <trkpt lat="47.31236" lon="-2.40027">
        <ele>33.599998474121</ele>
        <time>2022-02-03T10:41:04.000Z</time>
      </trkpt>
      <trkpt lat="47.31235" lon="-2.40024">
        <ele>33.599998474121</ele>
        <time>2022-02-03T10:41:26.000Z</time>
      </trkpt>
      <trkpt lat="47.31235" lon="-2.40022">
        <ele>33.599998474121</ele>
        <time>2022-02-03T10:41:27.000Z</time>
      </trkpt>
      <trkpt lat="47.31232" lon="-2.40008">
        <ele>33.599998474121</ele>
        <time>2022-02-03T10:41:32.000Z</time>
      </trkpt>
      <trkpt lat="47.31228" lon="-2.39996">
        <ele>33.599998474121</ele>
        <time>2022-02-03T10:41:36.000Z</time>
      </trkpt>
      <trkpt lat="47.31226" lon="-2.39992">
        <ele>33.599998474121</ele>
        <time>2022-02-03T10:41:38.000Z</time>
      </trkpt>
      <trkpt lat="47.31223" lon="-2.39985">
        <ele>34</ele>
        <time>2022-02-03T10:41:41.000Z</time>
      </trkpt>
      <trkpt lat="47.31222" lon="-2.39982">
        <ele>35</ele>
        <time>2022-02-03T10:41:42.000Z</time>
      </trkpt>
      <trkpt lat="47.31221" lon="-2.39979">
        <ele>35.400001525879</ele>
        <time>2022-02-03T10:41:43.000Z</time>
      </trkpt>
      <trkpt lat="47.3122" lon="-2.39976">
        <ele>35.799999237061</ele>
        <time>2022-02-03T10:41:44.000Z</time>
      </trkpt>
      <trkpt lat="47.31217" lon="-2.39969">
        <ele>35.799999237061</ele>
        <time>2022-02-03T10:41:46.000Z</time>
      </trkpt>
      <trkpt lat="47.31209" lon="-2.39948">
        <ele>35.799999237061</ele>
        <time>2022-02-03T10:41:52.000Z</time>
      </trkpt>
      <trkpt lat="47.31206" lon="-2.3994">
        <ele>36.200000762939</ele>
        <time>2022-02-03T10:41:54.000Z</time>
      </trkpt>
      <trkpt lat="47.31205" lon="-2.39936">
        <ele>36.599998474121</ele>
        <time>2022-02-03T10:41:55.000Z</time>
      </trkpt>
      <trkpt lat="47.31203" lon="-2.39932">
        <ele>37</ele>
        <time>2022-02-03T10:41:56.000Z</time>
      </trkpt>
      <trkpt lat="47.31202" lon="-2.39928">
        <ele>37.400001525879</ele>
        <time>2022-02-03T10:41:57.000Z</time>
      </trkpt>
      <trkpt lat="47.312" lon="-2.39924">
        <ele>37.799999237061</ele>
        <time>2022-02-03T10:41:58.000Z</time>
      </trkpt>
      <trkpt lat="47.31199" lon="-2.3992">
        <ele>37.799999237061</ele>
        <time>2022-02-03T10:41:59.000Z</time>
      </trkpt>
      <trkpt lat="47.3119" lon="-2.39892">
        <ele>37.799999237061</ele>
        <time>2022-02-03T10:42:04.000Z</time>
      </trkpt>
      <trkpt lat="47.31189" lon="-2.39887">
        <ele>38.400001525879</ele>
        <time>2022-02-03T10:42:05.000Z</time>
      </trkpt>
      <trkpt lat="47.31187" lon="-2.39882">
        <ele>38.799999237061</ele>
        <time>2022-02-03T10:42:06.000Z</time>
      </trkpt>
      <trkpt lat="47.31186" lon="-2.39878">
        <ele>40</ele>
        <time>2022-02-03T10:42:07.000Z</time>
      </trkpt>
      <trkpt lat="47.31184" lon="-2.39871">
        <ele>40.400001525879</ele>
        <time>2022-02-03T10:42:08.000Z</time>
      </trkpt>
      <trkpt lat="47.31182" lon="-2.39862">
        <ele>40.400001525879</ele>
        <time>2022-02-03T10:42:09.000Z</time>
      </trkpt>
      <trkpt lat="47.31174" lon="-2.39831">
        <ele>40.400001525879</ele>
        <time>2022-02-03T10:42:14.000Z</time>
      </trkpt>
      <trkpt lat="47.31155" lon="-2.39791">
        <ele>40.400001525879</ele>
        <time>2022-02-03T10:42:21.000Z</time>
      </trkpt>
      <trkpt lat="47.31153" lon="-2.39785">
        <ele>40.400001525879</ele>
        <time>2022-02-03T10:42:22.000Z</time>
      </trkpt>
      <trkpt lat="47.31143" lon="-2.39756">
        <ele>40.400001525879</ele>
        <time>2022-02-03T10:42:27.000Z</time>
      </trkpt>
      <trkpt lat="47.3113" lon="-2.39722">
        <ele>40.400001525879</ele>
        <time>2022-02-03T10:42:33.000Z</time>
      </trkpt>
      <trkpt lat="47.31125" lon="-2.39705">
        <ele>40.799999237061</ele>
        <time>2022-02-03T10:42:36.000Z</time>
      </trkpt>
      <trkpt lat="47.31123" lon="-2.39699">
        <ele>41.200000762939</ele>
        <time>2022-02-03T10:42:37.000Z</time>
      </trkpt>
      <trkpt lat="47.3112" lon="-2.39693">
        <ele>41.599998474121</ele>
        <time>2022-02-03T10:42:38.000Z</time>
      </trkpt>
      <trkpt lat="47.31118" lon="-2.39687">
        <ele>42</ele>
        <time>2022-02-03T10:42:39.000Z</time>
      </trkpt>
      <trkpt lat="47.31116" lon="-2.39681">
        <ele>42.400001525879</ele>
        <time>2022-02-03T10:42:40.000Z</time>
      </trkpt>
      <trkpt lat="47.31097" lon="-2.39627">
        <ele>42.400001525879</ele>
        <time>2022-02-03T10:42:49.000Z</time>
      </trkpt>
      <trkpt lat="47.31078" lon="-2.39574">
        <ele>42.400001525879</ele>
        <time>2022-02-03T10:42:57.000Z</time>
      </trkpt>
      <trkpt lat="47.3106" lon="-2.39517">
        <ele>42.400001525879</ele>
        <time>2022-02-03T10:43:04.000Z</time>
      </trkpt>
      <trkpt lat="47.31036" lon="-2.39443">
        <ele>42.400001525879</ele>
        <time>2022-02-03T10:43:12.000Z</time>
      </trkpt>
      <trkpt lat="47.3102" lon="-2.39399">
        <ele>42.400001525879</ele>
        <time>2022-02-03T10:43:18.000Z</time>
      </trkpt>
      <trkpt lat="47.31002" lon="-2.39347">
        <ele>42.400001525879</ele>
        <time>2022-02-03T10:43:25.000Z</time>
      </trkpt>
      <trkpt lat="47.30981" lon="-2.39285">
        <ele>42.400001525879</ele>
        <time>2022-02-03T10:43:33.000Z</time>
      </trkpt>
      <trkpt lat="47.30952" lon="-2.39212">
        <ele>42.400001525879</ele>
        <time>2022-02-03T10:43:43.000Z</time>
      </trkpt>
      <trkpt lat="47.30932" lon="-2.39164">
        <ele>42.400001525879</ele>
        <time>2022-02-03T10:43:50.000Z</time>
      </trkpt>
      <trkpt lat="47.30908" lon="-2.39099">
        <ele>42.400001525879</ele>
        <time>2022-02-03T10:43:59.000Z</time>
      </trkpt>
      <trkpt lat="47.30902" lon="-2.39068">
        <ele>42.400001525879</ele>
        <time>2022-02-03T10:44:03.000Z</time>
      </trkpt>
      <trkpt lat="47.30902" lon="-2.3906">
        <ele>42.400001525879</ele>
        <time>2022-02-03T10:44:04.000Z</time>
      </trkpt>
      <trkpt lat="47.30904" lon="-2.39006">
        <ele>42.400001525879</ele>
        <time>2022-02-03T10:44:10.000Z</time>
      </trkpt>
      <trkpt lat="47.30913" lon="-2.38963">
        <ele>42.400001525879</ele>
        <time>2022-02-03T10:44:15.000Z</time>
      </trkpt>
      <trkpt lat="47.30916" lon="-2.38955">
        <ele>42.400001525879</ele>
        <time>2022-02-03T10:44:16.000Z</time>
      </trkpt>
      <trkpt lat="47.30929" lon="-2.38917">
        <ele>42.400001525879</ele>
        <time>2022-02-03T10:44:21.000Z</time>
      </trkpt>
      <trkpt lat="47.30928" lon="-2.38907">
        <ele>42.400001525879</ele>
        <time>2022-02-03T10:44:22.000Z</time>
      </trkpt>
      <trkpt lat="47.30917" lon="-2.38887">
        <ele>42.400001525879</ele>
        <time>2022-02-03T10:44:25.000Z</time>
      </trkpt>
      <trkpt lat="47.309" lon="-2.38881">
        <ele>42.400001525879</ele>
        <time>2022-02-03T10:44:28.000Z</time>
      </trkpt>
      <trkpt lat="47.30881" lon="-2.38885">
        <ele>42.400001525879</ele>
        <time>2022-02-03T10:44:31.000Z</time>
      </trkpt>
      <trkpt lat="47.30868" lon="-2.38886">
        <ele>42.400001525879</ele>
        <time>2022-02-03T10:44:33.000Z</time>
      </trkpt>
      <trkpt lat="47.30854" lon="-2.3889">
        <ele>42.400001525879</ele>
        <time>2022-02-03T10:44:35.000Z</time>
      </trkpt>
      <trkpt lat="47.30841" lon="-2.38899">
        <ele>42.400001525879</ele>
        <time>2022-02-03T10:44:37.000Z</time>
      </trkpt>
      <trkpt lat="47.30827" lon="-2.38911">
        <ele>42</ele>
        <time>2022-02-03T10:44:39.000Z</time>
      </trkpt>
      <trkpt lat="47.3082" lon="-2.38916">
        <ele>41.599998474121</ele>
        <time>2022-02-03T10:44:40.000Z</time>
      </trkpt>
      <trkpt lat="47.30813" lon="-2.38922">
        <ele>41.200000762939</ele>
        <time>2022-02-03T10:44:41.000Z</time>
      </trkpt>
      <trkpt lat="47.30805" lon="-2.38928">
        <ele>40.599998474121</ele>
        <time>2022-02-03T10:44:42.000Z</time>
      </trkpt>
      <trkpt lat="47.30798" lon="-2.38934">
        <ele>40.200000762939</ele>
        <time>2022-02-03T10:44:43.000Z</time>
      </trkpt>
      <trkpt lat="47.30791" lon="-2.3894">
        <ele>40.200000762939</ele>
        <time>2022-02-03T10:44:44.000Z</time>
      </trkpt>
      <trkpt lat="47.3076" lon="-2.38965">
        <ele>40.200000762939</ele>
        <time>2022-02-03T10:44:49.000Z</time>
      </trkpt>
      <trkpt lat="47.30756" lon="-2.38971">
        <ele>40.200000762939</ele>
        <time>2022-02-03T10:44:50.000Z</time>
      </trkpt>
      <trkpt lat="47.30749" lon="-2.38992">
        <ele>40.200000762939</ele>
        <time>2022-02-03T10:44:53.000Z</time>
      </trkpt>
      <trkpt lat="47.30747" lon="-2.38999">
        <ele>40.200000762939</ele>
        <time>2022-02-03T10:44:54.000Z</time>
      </trkpt>
      <trkpt lat="47.30744" lon="-2.39006">
        <ele>40.200000762939</ele>
        <time>2022-02-03T10:44:55.000Z</time>
      </trkpt>
      <trkpt lat="47.30739" lon="-2.39028">
        <ele>40.200000762939</ele>
        <time>2022-02-03T10:44:58.000Z</time>
      </trkpt>
      <trkpt lat="47.3073" lon="-2.3905">
        <ele>40.200000762939</ele>
        <time>2022-02-03T10:45:01.000Z</time>
      </trkpt>
      <trkpt lat="47.30711" lon="-2.3906">
        <ele>40.200000762939</ele>
        <time>2022-02-03T10:45:04.000Z</time>
      </trkpt>
      <trkpt lat="47.30705" lon="-2.39063">
        <ele>40.200000762939</ele>
        <time>2022-02-03T10:45:05.000Z</time>
      </trkpt>
      <trkpt lat="47.30659" lon="-2.39086">
        <ele>40.200000762939</ele>
        <time>2022-02-03T10:45:12.000Z</time>
      </trkpt>
      <trkpt lat="47.30615" lon="-2.39116">
        <ele>40.200000762939</ele>
        <time>2022-02-03T10:45:19.000Z</time>
      </trkpt>
      <trkpt lat="47.30609" lon="-2.3912">
        <ele>39.799999237061</ele>
        <time>2022-02-03T10:45:20.000Z</time>
      </trkpt>
      <trkpt lat="47.30602" lon="-2.39125">
        <ele>39.400001525879</ele>
        <time>2022-02-03T10:45:21.000Z</time>
      </trkpt>
      <trkpt lat="47.30595" lon="-2.3913">
        <ele>38.799999237061</ele>
        <time>2022-02-03T10:45:22.000Z</time>
      </trkpt>
      <trkpt lat="47.30588" lon="-2.39135">
        <ele>38.400001525879</ele>
        <time>2022-02-03T10:45:23.000Z</time>
      </trkpt>
      <trkpt lat="47.30581" lon="-2.39139">
        <ele>38</ele>
        <time>2022-02-03T10:45:24.000Z</time>
      </trkpt>
      <trkpt lat="47.30567" lon="-2.39148">
        <ele>38</ele>
        <time>2022-02-03T10:45:26.000Z</time>
      </trkpt>
      <trkpt lat="47.30559" lon="-2.39154">
        <ele>37.599998474121</ele>
        <time>2022-02-03T10:45:27.000Z</time>
      </trkpt>
      <trkpt lat="47.30552" lon="-2.39159">
        <ele>37</ele>
        <time>2022-02-03T10:45:28.000Z</time>
      </trkpt>
      <trkpt lat="47.30545" lon="-2.39163">
        <ele>36.599998474121</ele>
        <time>2022-02-03T10:45:29.000Z</time>
      </trkpt>
      <trkpt lat="47.30537" lon="-2.39168">
        <ele>36.200000762939</ele>
        <time>2022-02-03T10:45:30.000Z</time>
      </trkpt>
      <trkpt lat="47.3053" lon="-2.39173">
        <ele>35.799999237061</ele>
        <time>2022-02-03T10:45:31.000Z</time>
      </trkpt>
      <trkpt lat="47.30516" lon="-2.39182">
        <ele>35.799999237061</ele>
        <time>2022-02-03T10:45:33.000Z</time>
      </trkpt>
      <trkpt lat="47.30467" lon="-2.39214">
        <ele>35.799999237061</ele>
        <time>2022-02-03T10:45:40.000Z</time>
      </trkpt>
      <trkpt lat="47.30446" lon="-2.39227">
        <ele>35.200000762939</ele>
        <time>2022-02-03T10:45:43.000Z</time>
      </trkpt>
      <trkpt lat="47.30439" lon="-2.39231">
        <ele>34.799999237061</ele>
        <time>2022-02-03T10:45:44.000Z</time>
      </trkpt>
      <trkpt lat="47.30432" lon="-2.39236">
        <ele>34.400001525879</ele>
        <time>2022-02-03T10:45:45.000Z</time>
      </trkpt>
      <trkpt lat="47.30425" lon="-2.3924">
        <ele>34</ele>
        <time>2022-02-03T10:45:46.000Z</time>
      </trkpt>
      <trkpt lat="47.30417" lon="-2.39243">
        <ele>33.599998474121</ele>
        <time>2022-02-03T10:45:47.000Z</time>
      </trkpt>
      <trkpt lat="47.30394" lon="-2.39255">
        <ele>32.799999237061</ele>
        <time>2022-02-03T10:45:50.000Z</time>
      </trkpt>
      <trkpt lat="47.30387" lon="-2.3926">
        <ele>32.400001525879</ele>
        <time>2022-02-03T10:45:51.000Z</time>
      </trkpt>
      <trkpt lat="47.30379" lon="-2.39266">
        <ele>32</ele>
        <time>2022-02-03T10:45:52.000Z</time>
      </trkpt>
      <trkpt lat="47.30372" lon="-2.39273">
        <ele>31.60000038147</ele>
        <time>2022-02-03T10:45:53.000Z</time>
      </trkpt>
      <trkpt lat="47.30365" lon="-2.3928">
        <ele>31.200000762939</ele>
        <time>2022-02-03T10:45:54.000Z</time>
      </trkpt>
      <trkpt lat="47.30358" lon="-2.39288">
        <ele>30.799999237061</ele>
        <time>2022-02-03T10:45:55.000Z</time>
      </trkpt>
      <trkpt lat="47.30352" lon="-2.39296">
        <ele>30.39999961853</ele>
        <time>2022-02-03T10:45:56.000Z</time>
      </trkpt>
      <trkpt lat="47.30346" lon="-2.39304">
        <ele>30</ele>
        <time>2022-02-03T10:45:57.000Z</time>
      </trkpt>
      <trkpt lat="47.3034" lon="-2.39312">
        <ele>29.60000038147</ele>
        <time>2022-02-03T10:45:58.000Z</time>
      </trkpt>
      <trkpt lat="47.30329" lon="-2.39332">
        <ele>29</ele>
        <time>2022-02-03T10:46:00.000Z</time>
      </trkpt>
      <trkpt lat="47.30323" lon="-2.39342">
        <ele>28.60000038147</ele>
        <time>2022-02-03T10:46:01.000Z</time>
      </trkpt>
      <trkpt lat="47.30317" lon="-2.39352">
        <ele>28</ele>
        <time>2022-02-03T10:46:02.000Z</time>
      </trkpt>
      <trkpt lat="47.3031" lon="-2.39362">
        <ele>27.60000038147</ele>
        <time>2022-02-03T10:46:03.000Z</time>
      </trkpt>
      <trkpt lat="47.30302" lon="-2.39371">
        <ele>27</ele>
        <time>2022-02-03T10:46:04.000Z</time>
      </trkpt>
      <trkpt lat="47.30294" lon="-2.3938">
        <ele>26.39999961853</ele>
        <time>2022-02-03T10:46:05.000Z</time>
      </trkpt>
      <trkpt lat="47.30285" lon="-2.39387">
        <ele>26</ele>
        <time>2022-02-03T10:46:06.000Z</time>
      </trkpt>
      <trkpt lat="47.30276" lon="-2.39394">
        <ele>25.39999961853</ele>
        <time>2022-02-03T10:46:07.000Z</time>
      </trkpt>
      <trkpt lat="47.30266" lon="-2.394">
        <ele>24.799999237061</ele>
        <time>2022-02-03T10:46:08.000Z</time>
      </trkpt>
      <trkpt lat="47.30257" lon="-2.39405">
        <ele>24.200000762939</ele>
        <time>2022-02-03T10:46:09.000Z</time>
      </trkpt>
      <trkpt lat="47.30247" lon="-2.3941">
        <ele>23.39999961853</ele>
        <time>2022-02-03T10:46:10.000Z</time>
      </trkpt>
      <trkpt lat="47.30238" lon="-2.39416">
        <ele>22.799999237061</ele>
        <time>2022-02-03T10:46:11.000Z</time>
      </trkpt>
      <trkpt lat="47.30229" lon="-2.39421">
        <ele>22.200000762939</ele>
        <time>2022-02-03T10:46:12.000Z</time>
      </trkpt>
      <trkpt lat="47.3022" lon="-2.39425">
        <ele>21.799999237061</ele>
        <time>2022-02-03T10:46:13.000Z</time>
      </trkpt>
      <trkpt lat="47.30212" lon="-2.39429">
        <ele>21</ele>
        <time>2022-02-03T10:46:14.000Z</time>
      </trkpt>
      <trkpt lat="47.30203" lon="-2.39435">
        <ele>20.60000038147</ele>
        <time>2022-02-03T10:46:15.000Z</time>
      </trkpt>
      <trkpt lat="47.30195" lon="-2.3944">
        <ele>20.200000762939</ele>
        <time>2022-02-03T10:46:16.000Z</time>
      </trkpt>
      <trkpt lat="47.3017" lon="-2.39455">
        <ele>19.60000038147</ele>
        <time>2022-02-03T10:46:19.000Z</time>
      </trkpt>
      <trkpt lat="47.30162" lon="-2.39459">
        <ele>19.200000762939</ele>
        <time>2022-02-03T10:46:20.000Z</time>
      </trkpt>
      <trkpt lat="47.30154" lon="-2.39464">
        <ele>18.799999237061</ele>
        <time>2022-02-03T10:46:21.000Z</time>
      </trkpt>
      <trkpt lat="47.30146" lon="-2.39469">
        <ele>18.39999961853</ele>
        <time>2022-02-03T10:46:22.000Z</time>
      </trkpt>
      <trkpt lat="47.30138" lon="-2.39476">
        <ele>18</ele>
        <time>2022-02-03T10:46:23.000Z</time>
      </trkpt>
      <trkpt lat="47.30115" lon="-2.39494">
        <ele>18</ele>
        <time>2022-02-03T10:46:26.000Z</time>
      </trkpt>
      <trkpt lat="47.30092" lon="-2.39504">
        <ele>17.60000038147</ele>
        <time>2022-02-03T10:46:29.000Z</time>
      </trkpt>
      <trkpt lat="47.30084" lon="-2.39504">
        <ele>17.200000762939</ele>
        <time>2022-02-03T10:46:30.000Z</time>
      </trkpt>
      <trkpt lat="47.30077" lon="-2.39502">
        <ele>16.799999237061</ele>
        <time>2022-02-03T10:46:31.000Z</time>
      </trkpt>
      <trkpt lat="47.30069" lon="-2.39501">
        <ele>16.39999961853</ele>
        <time>2022-02-03T10:46:32.000Z</time>
      </trkpt>
      <trkpt lat="47.30061" lon="-2.395">
        <ele>15.800000190735</ele>
        <time>2022-02-03T10:46:33.000Z</time>
      </trkpt>
      <trkpt lat="47.30046" lon="-2.39501">
        <ele>15.800000190735</ele>
        <time>2022-02-03T10:46:35.000Z</time>
      </trkpt>
      <trkpt lat="47.30039" lon="-2.39504">
        <ele>15.800000190735</ele>
        <time>2022-02-03T10:46:36.000Z</time>
      </trkpt>
      <trkpt lat="47.30026" lon="-2.39512">
        <ele>15.800000190735</ele>
        <time>2022-02-03T10:46:38.000Z</time>
      </trkpt>
      <trkpt lat="47.3002" lon="-2.39517">
        <ele>15.39999961853</ele>
        <time>2022-02-03T10:46:39.000Z</time>
      </trkpt>
      <trkpt lat="47.30014" lon="-2.39523">
        <ele>15</ele>
        <time>2022-02-03T10:46:40.000Z</time>
      </trkpt>
      <trkpt lat="47.30009" lon="-2.39528">
        <ele>14.60000038147</ele>
        <time>2022-02-03T10:46:41.000Z</time>
      </trkpt>
      <trkpt lat="47.30004" lon="-2.39534">
        <ele>14.199999809265</ele>
        <time>2022-02-03T10:46:42.000Z</time>
      </trkpt>
      <trkpt lat="47.29999" lon="-2.39541">
        <ele>13.60000038147</ele>
        <time>2022-02-03T10:46:43.000Z</time>
      </trkpt>
      <trkpt lat="47.29974" lon="-2.39584">
        <ele>13.60000038147</ele>
        <time>2022-02-03T10:46:49.000Z</time>
      </trkpt>
      <trkpt lat="47.29957" lon="-2.39618">
        <ele>13.199999809265</ele>
        <time>2022-02-03T10:46:54.000Z</time>
      </trkpt>
      <trkpt lat="47.29953" lon="-2.3962">
        <ele>12.800000190735</ele>
        <time>2022-02-03T10:46:55.000Z</time>
      </trkpt>
      <trkpt lat="47.29949" lon="-2.39619">
        <ele>12.39999961853</ele>
        <time>2022-02-03T10:46:56.000Z</time>
      </trkpt>
      <trkpt lat="47.29945" lon="-2.39618">
        <ele>12</ele>
        <time>2022-02-03T10:46:57.000Z</time>
      </trkpt>
      <trkpt lat="47.29941" lon="-2.3962">
        <ele>11.39999961853</ele>
        <time>2022-02-03T10:46:58.000Z</time>
      </trkpt>
      <trkpt lat="47.29931" lon="-2.39617">
        <ele>11.39999961853</ele>
        <time>2022-02-03T10:47:00.000Z</time>
      </trkpt>
      <trkpt lat="47.29899" lon="-2.39609">
        <ele>11.39999961853</ele>
        <time>2022-02-03T10:47:05.000Z</time>
      </trkpt>
      <trkpt lat="47.29856" lon="-2.39601">
        <ele>11.39999961853</ele>
        <time>2022-02-03T10:47:11.000Z</time>
      </trkpt>
      <trkpt lat="47.29834" lon="-2.39597">
        <ele>11</ele>
        <time>2022-02-03T10:47:14.000Z</time>
      </trkpt>
      <trkpt lat="47.29827" lon="-2.39595">
        <ele>10.60000038147</ele>
        <time>2022-02-03T10:47:15.000Z</time>
      </trkpt>
      <trkpt lat="47.2982" lon="-2.39593">
        <ele>10.199999809265</ele>
        <time>2022-02-03T10:47:16.000Z</time>
      </trkpt>
      <trkpt lat="47.29813" lon="-2.39592">
        <ele>9.8000001907349</ele>
        <time>2022-02-03T10:47:17.000Z</time>
      </trkpt>
      <trkpt lat="47.29806" lon="-2.39589">
        <ele>9.3999996185303</ele>
        <time>2022-02-03T10:47:18.000Z</time>
      </trkpt>
      <trkpt lat="47.29791" lon="-2.39586">
        <ele>9.3999996185303</ele>
        <time>2022-02-03T10:47:20.000Z</time>
      </trkpt>
      <trkpt lat="47.2974" lon="-2.39578">
        <ele>8.6000003814697</ele>
        <time>2022-02-03T10:47:27.000Z</time>
      </trkpt>
      <trkpt lat="47.29733" lon="-2.39576">
        <ele>8.1999998092651</ele>
        <time>2022-02-03T10:47:28.000Z</time>
      </trkpt>
      <trkpt lat="47.29726" lon="-2.39575">
        <ele>7.8000001907349</ele>
        <time>2022-02-03T10:47:29.000Z</time>
      </trkpt>
      <trkpt lat="47.29719" lon="-2.39573">
        <ele>7.4000000953674</ele>
        <time>2022-02-03T10:47:30.000Z</time>
      </trkpt>
      <trkpt lat="47.2968" lon="-2.39566">
        <ele>7.4000000953674</ele>
        <time>2022-02-03T10:47:36.000Z</time>
      </trkpt>
      <trkpt lat="47.2964" lon="-2.39558">
        <ele>7.4000000953674</ele>
        <time>2022-02-03T10:47:43.000Z</time>
      </trkpt>
      <trkpt lat="47.29605" lon="-2.39552">
        <ele>7.4000000953674</ele>
        <time>2022-02-03T10:47:50.000Z</time>
      </trkpt>
      <trkpt lat="47.29588" lon="-2.39548">
        <ele>7.4000000953674</ele>
        <time>2022-02-03T10:47:55.000Z</time>
      </trkpt>
      <trkpt lat="47.29567" lon="-2.39544">
        <ele>7.4000000953674</ele>
        <time>2022-02-03T10:48:00.000Z</time>
      </trkpt>
      <trkpt lat="47.29556" lon="-2.39537">
        <ele>7</ele>
        <time>2022-02-03T10:48:04.000Z</time>
      </trkpt>
      <trkpt lat="47.29556" lon="-2.39534">
        <ele>6.5999999046326</ele>
        <time>2022-02-03T10:48:05.000Z</time>
      </trkpt>
      <trkpt lat="47.29556" lon="-2.3953">
        <ele>6.1999998092651</ele>
        <time>2022-02-03T10:48:06.000Z</time>
      </trkpt>
      <trkpt lat="47.29557" lon="-2.39526">
        <ele>5.8000001907349</ele>
        <time>2022-02-03T10:48:07.000Z</time>
      </trkpt>
      <trkpt lat="47.29557" lon="-2.39522">
        <ele>5.4000000953674</ele>
        <time>2022-02-03T10:48:08.000Z</time>
      </trkpt>
      <trkpt lat="47.29556" lon="-2.39507">
        <ele>5.4000000953674</ele>
        <time>2022-02-03T10:48:11.000Z</time>
      </trkpt>
      <trkpt lat="47.29557" lon="-2.395">
        <ele>4.8000001907349</ele>
        <time>2022-02-03T10:48:12.000Z</time>
      </trkpt>
      <trkpt lat="47.2956" lon="-2.39495">
        <ele>4.4000000953674</ele>
        <time>2022-02-03T10:48:13.000Z</time>
      </trkpt>
      <trkpt lat="47.29564" lon="-2.39492">
        <ele>4</ele>
        <time>2022-02-03T10:48:14.000Z</time>
      </trkpt>
      <trkpt lat="47.29568" lon="-2.3949">
        <ele>3.4000000953674</ele>
        <time>2022-02-03T10:48:15.000Z</time>
      </trkpt>
      <trkpt lat="47.29573" lon="-2.3949">
        <ele>3</ele>
        <time>2022-02-03T10:48:16.000Z</time>
      </trkpt>
      <trkpt lat="47.29582" lon="-2.39492">
        <ele>3</ele>
        <time>2022-02-03T10:48:18.000Z</time>
      </trkpt>
      <trkpt lat="47.29588" lon="-2.39491">
        <ele>3</ele>
        <time>2022-02-03T10:48:19.000Z</time>
      </trkpt>
      <trkpt lat="47.29597" lon="-2.39483">
        <ele>3</ele>
        <time>2022-02-03T10:48:21.000Z</time>
      </trkpt>
      <trkpt lat="47.29604" lon="-2.39471">
        <ele>3</ele>
        <time>2022-02-03T10:48:23.000Z</time>
      </trkpt>
      <trkpt lat="47.29608" lon="-2.39464">
        <ele>2.5999999046326</ele>
        <time>2022-02-03T10:48:24.000Z</time>
      </trkpt>
      <trkpt lat="47.29611" lon="-2.39458">
        <ele>2.2000000476837</ele>
        <time>2022-02-03T10:48:25.000Z</time>
      </trkpt>
      <trkpt lat="47.29614" lon="-2.39452">
        <ele>1.7999999523163</ele>
        <time>2022-02-03T10:48:26.000Z</time>
      </trkpt>
      <trkpt lat="47.29618" lon="-2.39446">
        <ele>1.3999999761581</ele>
        <time>2022-02-03T10:48:27.000Z</time>
      </trkpt>
      <trkpt lat="47.29621" lon="-2.39439">
        <ele>1</ele>
        <time>2022-02-03T10:48:28.000Z</time>
      </trkpt>
      <trkpt lat="47.29628" lon="-2.39425">
        <ele>1</ele>
        <time>2022-02-03T10:48:30.000Z</time>
      </trkpt>
      <trkpt lat="47.2963" lon="-2.39417">
        <ele>1</ele>
        <time>2022-02-03T10:48:31.000Z</time>
      </trkpt>
      <trkpt lat="47.29632" lon="-2.39375">
        <ele>1</ele>
        <time>2022-02-03T10:48:36.000Z</time>
      </trkpt>
      <trkpt lat="47.29636" lon="-2.39312">
        <ele>1</ele>
        <time>2022-02-03T10:48:43.000Z</time>
      </trkpt>
      <trkpt lat="47.29639" lon="-2.39286">
        <ele>1</ele>
        <time>2022-02-03T10:48:46.000Z</time>
      </trkpt>
      <trkpt lat="47.29642" lon="-2.39259">
        <ele>1</ele>
        <time>2022-02-03T10:48:49.000Z</time>
      </trkpt>
      <trkpt lat="47.29649" lon="-2.392">
        <ele>1</ele>
        <time>2022-02-03T10:48:56.000Z</time>
      </trkpt>
      <trkpt lat="47.2965" lon="-2.39192">
        <ele>1</ele>
        <time>2022-02-03T10:48:57.000Z</time>
      </trkpt>
      <trkpt lat="47.29646" lon="-2.39177">
        <ele>1.3999999761581</ele>
        <time>2022-02-03T10:48:59.000Z</time>
      </trkpt>
      <trkpt lat="47.29641" lon="-2.39173">
        <ele>1.7999999523163</ele>
        <time>2022-02-03T10:49:00.000Z</time>
      </trkpt>
      <trkpt lat="47.29636" lon="-2.3917">
        <ele>2.2000000476837</ele>
        <time>2022-02-03T10:49:01.000Z</time>
      </trkpt>
      <trkpt lat="47.2963" lon="-2.39169">
        <ele>2.5999999046326</ele>
        <time>2022-02-03T10:49:02.000Z</time>
      </trkpt>
      <trkpt lat="47.29624" lon="-2.39169">
        <ele>3</ele>
        <time>2022-02-03T10:49:03.000Z</time>
      </trkpt>
      <trkpt lat="47.2959" lon="-2.39164">
        <ele>3</ele>
        <time>2022-02-03T10:49:09.000Z</time>
      </trkpt>
      <trkpt lat="47.29585" lon="-2.39164">
        <ele>3</ele>
        <time>2022-02-03T10:49:10.000Z</time>
      </trkpt>
      <trkpt lat="47.29563" lon="-2.39166">
        <ele>3</ele>
        <time>2022-02-03T10:49:14.000Z</time>
      </trkpt>
      <trkpt lat="47.29519" lon="-2.39172">
        <ele>3</ele>
        <time>2022-02-03T10:49:22.000Z</time>
      </trkpt>
      <trkpt lat="47.29504" lon="-2.39172">
        <ele>3</ele>
        <time>2022-02-03T10:49:25.000Z</time>
      </trkpt>
      <trkpt lat="47.29489" lon="-2.39173">
        <ele>3</ele>
        <time>2022-02-03T10:49:28.000Z</time>
      </trkpt>
      <trkpt lat="47.29484" lon="-2.39173">
        <ele>3</ele>
        <time>2022-02-03T10:49:29.000Z</time>
      </trkpt>
      <trkpt lat="47.29473" lon="-2.39172">
        <ele>3.4000000953674</ele>
        <time>2022-02-03T10:49:31.000Z</time>
      </trkpt>
      <trkpt lat="47.29468" lon="-2.39172">
        <ele>4.1999998092651</ele>
        <time>2022-02-03T10:49:32.000Z</time>
      </trkpt>
      <trkpt lat="47.29462" lon="-2.39173">
        <ele>4.5999999046326</ele>
        <time>2022-02-03T10:49:33.000Z</time>
      </trkpt>
      <trkpt lat="47.29457" lon="-2.39174">
        <ele>5</ele>
        <time>2022-02-03T10:49:34.000Z</time>
      </trkpt>
      <trkpt lat="47.29436" lon="-2.39174">
        <ele>5</ele>
        <time>2022-02-03T10:49:38.000Z</time>
      </trkpt>
      <trkpt lat="47.29423" lon="-2.39174">
        <ele>5</ele>
        <time>2022-02-03T10:49:41.000Z</time>
      </trkpt>
      <trkpt lat="47.29414" lon="-2.39175">
        <ele>5</ele>
        <time>2022-02-03T10:49:43.000Z</time>
      </trkpt>
      <trkpt lat="47.29382" lon="-2.39169">
        <ele>5</ele>
        <time>2022-02-03T10:49:49.000Z</time>
      </trkpt>
      <trkpt lat="47.29377" lon="-2.39166">
        <ele>5</ele>
        <time>2022-02-03T10:49:50.000Z</time>
      </trkpt>
      <trkpt lat="47.29358" lon="-2.39162">
        <ele>4.5999999046326</ele>
        <time>2022-02-03T10:49:54.000Z</time>
      </trkpt>
      <trkpt lat="47.29353" lon="-2.39161">
        <ele>4.1999998092651</ele>
        <time>2022-02-03T10:49:55.000Z</time>
      </trkpt>
      <trkpt lat="47.29347" lon="-2.39159">
        <ele>3.4000000953674</ele>
        <time>2022-02-03T10:49:56.000Z</time>
      </trkpt>
      <trkpt lat="47.29342" lon="-2.39157">
        <ele>3</ele>
        <time>2022-02-03T10:49:57.000Z</time>
      </trkpt>
      <trkpt lat="47.29337" lon="-2.39155">
        <ele>3</ele>
        <time>2022-02-03T10:49:58.000Z</time>
      </trkpt>
      <trkpt lat="47.2931" lon="-2.39141">
        <ele>3</ele>
        <time>2022-02-03T10:50:03.000Z</time>
      </trkpt>
      <trkpt lat="47.29281" lon="-2.39117">
        <ele>2.5999999046326</ele>
        <time>2022-02-03T10:50:09.000Z</time>
      </trkpt>
      <trkpt lat="47.29276" lon="-2.39112">
        <ele>2.2000000476837</ele>
        <time>2022-02-03T10:50:10.000Z</time>
      </trkpt>
      <trkpt lat="47.29273" lon="-2.39108">
        <ele>1.6000000238419</ele>
        <time>2022-02-03T10:50:11.000Z</time>
      </trkpt>
      <trkpt lat="47.29271" lon="-2.39103">
        <ele>1.2000000476837</ele>
        <time>2022-02-03T10:50:12.000Z</time>
      </trkpt>
      <trkpt lat="47.29269" lon="-2.39097">
        <ele>0.80000001192093</ele>
        <time>2022-02-03T10:50:13.000Z</time>
      </trkpt>
      <trkpt lat="47.29268" lon="-2.39092">
        <ele>0.80000001192093</ele>
        <time>2022-02-03T10:50:14.000Z</time>
      </trkpt>
      <trkpt lat="47.29267" lon="-2.39086">
        <ele>0.80000001192093</ele>
        <time>2022-02-03T10:50:15.000Z</time>
      </trkpt>
      <trkpt lat="47.29265" lon="-2.39069">
        <ele>0.80000001192093</ele>
        <time>2022-02-03T10:50:18.000Z</time>
      </trkpt>
      <trkpt lat="47.29265" lon="-2.39056">
        <ele>0.80000001192093</ele>
        <time>2022-02-03T10:50:20.000Z</time>
      </trkpt>
      <trkpt lat="47.29267" lon="-2.39027">
        <ele>0.80000001192093</ele>
        <time>2022-02-03T10:50:24.000Z</time>
      </trkpt>
      <trkpt lat="47.29267" lon="-2.39013">
        <ele>0.80000001192093</ele>
        <time>2022-02-03T10:50:26.000Z</time>
      </trkpt>
      <trkpt lat="47.29256" lon="-2.39005">
        <ele>0.80000001192093</ele>
        <time>2022-02-03T10:50:29.000Z</time>
      </trkpt>
      <trkpt lat="47.29246" lon="-2.39009">
        <ele>0.80000001192093</ele>
        <time>2022-02-03T10:50:31.000Z</time>
      </trkpt>
      <trkpt lat="47.2923" lon="-2.39014">
        <ele>0.80000001192093</ele>
        <time>2022-02-03T10:50:34.000Z</time>
      </trkpt>
      <trkpt lat="47.29185" lon="-2.39016">
        <ele>0.80000001192093</ele>
        <time>2022-02-03T10:50:42.000Z</time>
      </trkpt>
      <trkpt lat="47.29142" lon="-2.39018">
        <ele>0.80000001192093</ele>
        <time>2022-02-03T10:50:50.000Z</time>
      </trkpt>
      <trkpt lat="47.29126" lon="-2.39019">
        <ele>0.80000001192093</ele>
        <time>2022-02-03T10:50:53.000Z</time>
      </trkpt>
      <trkpt lat="47.2911" lon="-2.39017">
        <ele>0.80000001192093</ele>
        <time>2022-02-03T10:50:56.000Z</time>
      </trkpt>
      <trkpt lat="47.29089" lon="-2.39016">
        <ele>0.80000001192093</ele>
        <time>2022-02-03T10:51:00.000Z</time>
      </trkpt>
      <trkpt lat="47.29077" lon="-2.39019">
        <ele>0.80000001192093</ele>
        <time>2022-02-03T10:51:02.000Z</time>
      </trkpt>
      <trkpt lat="47.29028" lon="-2.39029">
        <ele>0.80000001192093</ele>
        <time>2022-02-03T10:51:11.000Z</time>
      </trkpt>
      <trkpt lat="47.28992" lon="-2.39037">
        <ele>0.80000001192093</ele>
        <time>2022-02-03T10:51:18.000Z</time>
      </trkpt>
      <trkpt lat="47.28969" lon="-2.39047">
        <ele>0.80000001192093</ele>
        <time>2022-02-03T10:51:24.000Z</time>
      </trkpt>
      <trkpt lat="47.2896" lon="-2.39049">
        <ele>0.80000001192093</ele>
        <time>2022-02-03T10:51:28.000Z</time>
      </trkpt>
      <trkpt lat="47.28954" lon="-2.39046">
        <ele>0.80000001192093</ele>
        <time>2022-02-03T10:51:32.000Z</time>
      </trkpt>
      <trkpt lat="47.28953" lon="-2.39045">
        <ele>0.80000001192093</ele>
        <time>2022-02-03T10:51:33.000Z</time>
      </trkpt>
      <trkpt lat="47.28951" lon="-2.39035">
        <ele>0.80000001192093</ele>
        <time>2022-02-03T10:51:36.000Z</time>
      </trkpt>
      <trkpt lat="47.28951" lon="-2.39029">
        <ele>0.80000001192093</ele>
        <time>2022-02-03T10:51:37.000Z</time>
      </trkpt>
      <trkpt lat="47.2895" lon="-2.39023">
        <ele>0.80000001192093</ele>
        <time>2022-02-03T10:51:38.000Z</time>
      </trkpt>
      <trkpt lat="47.28951" lon="-2.38995">
        <ele>0.80000001192093</ele>
        <time>2022-02-03T10:51:42.000Z</time>
      </trkpt>
      <trkpt lat="47.28954" lon="-2.3895">
        <ele>0.80000001192093</ele>
        <time>2022-02-03T10:51:48.000Z</time>
      </trkpt>
      <trkpt lat="47.28959" lon="-2.38888">
        <ele>0.80000001192093</ele>
        <time>2022-02-03T10:51:56.000Z</time>
      </trkpt>
      <trkpt lat="47.28961" lon="-2.38855">
        <ele>0.80000001192093</ele>
        <time>2022-02-03T10:52:00.000Z</time>
      </trkpt>
      <trkpt lat="47.28961" lon="-2.38847">
        <ele>0.80000001192093</ele>
        <time>2022-02-03T10:52:01.000Z</time>
      </trkpt>
      <trkpt lat="47.28962" lon="-2.38795">
        <ele>0.80000001192093</ele>
        <time>2022-02-03T10:52:07.000Z</time>
      </trkpt>
      <trkpt lat="47.28961" lon="-2.38725">
        <ele>0.80000001192093</ele>
        <time>2022-02-03T10:52:15.000Z</time>
      </trkpt>
      <trkpt lat="47.28961" lon="-2.38653">
        <ele>0.80000001192093</ele>
        <time>2022-02-03T10:52:23.000Z</time>
      </trkpt>
      <trkpt lat="47.2896" lon="-2.38592">
        <ele>0.80000001192093</ele>
        <time>2022-02-03T10:52:30.000Z</time>
      </trkpt>
      <trkpt lat="47.28954" lon="-2.38522">
        <ele>0.80000001192093</ele>
        <time>2022-02-03T10:52:38.000Z</time>
      </trkpt>
      <trkpt lat="47.28947" lon="-2.38463">
        <ele>0.80000001192093</ele>
        <time>2022-02-03T10:52:45.000Z</time>
      </trkpt>
      <trkpt lat="47.28942" lon="-2.38397">
        <ele>0.80000001192093</ele>
        <time>2022-02-03T10:52:53.000Z</time>
      </trkpt>
      <trkpt lat="47.28938" lon="-2.38337">
        <ele>0.80000001192093</ele>
        <time>2022-02-03T10:53:00.000Z</time>
      </trkpt>
      <trkpt lat="47.28939" lon="-2.38276">
        <ele>0.80000001192093</ele>
        <time>2022-02-03T10:53:07.000Z</time>
      </trkpt>
      <trkpt lat="47.28941" lon="-2.38242">
        <ele>0.80000001192093</ele>
        <time>2022-02-03T10:53:11.000Z</time>
      </trkpt>
      <trkpt lat="47.28937" lon="-2.38228">
        <ele>0.80000001192093</ele>
        <time>2022-02-03T10:53:13.000Z</time>
      </trkpt>
      <trkpt lat="47.28921" lon="-2.38212">
        <ele>0.80000001192093</ele>
        <time>2022-02-03T10:53:17.000Z</time>
      </trkpt>
      <trkpt lat="47.28904" lon="-2.38196">
        <ele>0.80000001192093</ele>
        <time>2022-02-03T10:53:21.000Z</time>
      </trkpt>
      <trkpt lat="47.28902" lon="-2.38189">
        <ele>0.80000001192093</ele>
        <time>2022-02-03T10:53:22.000Z</time>
      </trkpt>
      <trkpt lat="47.28903" lon="-2.38164">
        <ele>0.80000001192093</ele>
        <time>2022-02-03T10:53:25.000Z</time>
      </trkpt>
      <trkpt lat="47.28908" lon="-2.38094">
        <ele>0.80000001192093</ele>
        <time>2022-02-03T10:53:33.000Z</time>
      </trkpt>
      <trkpt lat="47.28911" lon="-2.38026">
        <ele>0.80000001192093</ele>
        <time>2022-02-03T10:53:41.000Z</time>
      </trkpt>
      <trkpt lat="47.28915" lon="-2.37972">
        <ele>0.80000001192093</ele>
        <time>2022-02-03T10:53:48.000Z</time>
      </trkpt>
      <trkpt lat="47.28919" lon="-2.37913">
        <ele>0.80000001192093</ele>
        <time>2022-02-03T10:53:56.000Z</time>
      </trkpt>
      <trkpt lat="47.28923" lon="-2.37866">
        <ele>0.80000001192093</ele>
        <time>2022-02-03T10:54:02.000Z</time>
      </trkpt>
      <trkpt lat="47.28929" lon="-2.37797">
        <ele>0.80000001192093</ele>
        <time>2022-02-03T10:54:10.000Z</time>
      </trkpt>
      <trkpt lat="47.28932" lon="-2.37755">
        <ele>1.2000000476837</ele>
        <time>2022-02-03T10:54:15.000Z</time>
      </trkpt>
      <trkpt lat="47.28933" lon="-2.37747">
        <ele>1.6000000238419</ele>
        <time>2022-02-03T10:54:16.000Z</time>
      </trkpt>
      <trkpt lat="47.28933" lon="-2.37738">
        <ele>2</ele>
        <time>2022-02-03T10:54:17.000Z</time>
      </trkpt>
      <trkpt lat="47.28934" lon="-2.37729">
        <ele>2.4000000953674</ele>
        <time>2022-02-03T10:54:18.000Z</time>
      </trkpt>
      <trkpt lat="47.28935" lon="-2.3772">
        <ele>2.7999999523163</ele>
        <time>2022-02-03T10:54:19.000Z</time>
      </trkpt>
      <trkpt lat="47.28937" lon="-2.37681">
        <ele>2.7999999523163</ele>
        <time>2022-02-03T10:54:24.000Z</time>
      </trkpt>
      <trkpt lat="47.28937" lon="-2.37659">
        <ele>2.7999999523163</ele>
        <time>2022-02-03T10:54:27.000Z</time>
      </trkpt>
      <trkpt lat="47.28932" lon="-2.37647">
        <ele>2.7999999523163</ele>
        <time>2022-02-03T10:54:29.000Z</time>
      </trkpt>
      <trkpt lat="47.28918" lon="-2.37644">
        <ele>2.7999999523163</ele>
        <time>2022-02-03T10:54:32.000Z</time>
      </trkpt>
      <trkpt lat="47.28912" lon="-2.37646">
        <ele>2.7999999523163</ele>
        <time>2022-02-03T10:54:33.000Z</time>
      </trkpt>
      <trkpt lat="47.28907" lon="-2.37647">
        <ele>2.7999999523163</ele>
        <time>2022-02-03T10:54:34.000Z</time>
      </trkpt>
      <trkpt lat="47.28887" lon="-2.37654">
        <ele>2.7999999523163</ele>
        <time>2022-02-03T10:54:38.000Z</time>
      </trkpt>
      <trkpt lat="47.28874" lon="-2.37656">
        <ele>2.7999999523163</ele>
        <time>2022-02-03T10:54:41.000Z</time>
      </trkpt>
      <trkpt lat="47.28866" lon="-2.37653">
        <ele>2.7999999523163</ele>
        <time>2022-02-03T10:54:43.000Z</time>
      </trkpt>
      <trkpt lat="47.28861" lon="-2.37641">
        <ele>2.7999999523163</ele>
        <time>2022-02-03T10:54:46.000Z</time>
      </trkpt>
      <trkpt lat="47.2886" lon="-2.37632">
        <ele>2.7999999523163</ele>
        <time>2022-02-03T10:54:48.000Z</time>
      </trkpt>
      <trkpt lat="47.2886" lon="-2.37624">
        <ele>2.7999999523163</ele>
        <time>2022-02-03T10:54:51.000Z</time>
      </trkpt>
      <trkpt lat="47.28859" lon="-2.37615">
        <ele>2.7999999523163</ele>
        <time>2022-02-03T10:54:54.000Z</time>
      </trkpt>
      <trkpt lat="47.2886" lon="-2.3761">
        <ele>2.7999999523163</ele>
        <time>2022-02-03T10:54:56.000Z</time>
      </trkpt>
      <trkpt lat="47.28863" lon="-2.37597">
        <ele>2.7999999523163</ele>
        <time>2022-02-03T10:55:02.000Z</time>
      </trkpt>
      <trkpt lat="47.2887" lon="-2.37581">
        <ele>2.7999999523163</ele>
        <time>2022-02-03T10:55:09.000Z</time>
      </trkpt>
      <trkpt lat="47.28874" lon="-2.37561">
        <ele>2.7999999523163</ele>
        <time>2022-02-03T10:55:14.000Z</time>
      </trkpt>
      <trkpt lat="47.28881" lon="-2.37542">
        <ele>2.7999999523163</ele>
        <time>2022-02-03T10:55:18.000Z</time>
      </trkpt>
      <trkpt lat="47.28882" lon="-2.3752">
        <ele>2.7999999523163</ele>
        <time>2022-02-03T10:55:22.000Z</time>
      </trkpt>
      <trkpt lat="47.28877" lon="-2.37479">
        <ele>2.7999999523163</ele>
        <time>2022-02-03T10:55:29.000Z</time>
      </trkpt>
      <trkpt lat="47.28873" lon="-2.37449">
        <ele>2.7999999523163</ele>
        <time>2022-02-03T10:55:35.000Z</time>
      </trkpt>
      <trkpt lat="47.28869" lon="-2.37409">
        <ele>2.7999999523163</ele>
        <time>2022-02-03T10:55:42.000Z</time>
      </trkpt>
      <trkpt lat="47.28864" lon="-2.37374">
        <ele>2.7999999523163</ele>
        <time>2022-02-03T10:55:48.000Z</time>
      </trkpt>
      <trkpt lat="47.28861" lon="-2.37336">
        <ele>3.2000000476837</ele>
        <time>2022-02-03T10:55:54.000Z</time>
      </trkpt>
      <trkpt lat="47.28861" lon="-2.3733">
        <ele>3.5999999046326</ele>
        <time>2022-02-03T10:55:55.000Z</time>
      </trkpt>
      <trkpt lat="47.28861" lon="-2.37324">
        <ele>4</ele>
        <time>2022-02-03T10:55:56.000Z</time>
      </trkpt>
      <trkpt lat="47.28861" lon="-2.37318">
        <ele>4.4000000953674</ele>
        <time>2022-02-03T10:55:57.000Z</time>
      </trkpt>
      <trkpt lat="47.2886" lon="-2.37311">
        <ele>4.8000001907349</ele>
        <time>2022-02-03T10:55:58.000Z</time>
      </trkpt>
      <trkpt lat="47.28857" lon="-2.37293">
        <ele>4.8000001907349</ele>
        <time>2022-02-03T10:56:01.000Z</time>
      </trkpt>
      <trkpt lat="47.28854" lon="-2.37264">
        <ele>4.8000001907349</ele>
        <time>2022-02-03T10:56:07.000Z</time>
      </trkpt>
      <trkpt lat="47.28849" lon="-2.37243">
        <ele>4.8000001907349</ele>
        <time>2022-02-03T10:56:14.000Z</time>
      </trkpt>
      <trkpt lat="47.28843" lon="-2.37224">
        <ele>4.8000001907349</ele>
        <time>2022-02-03T10:56:19.000Z</time>
      </trkpt>
      <trkpt lat="47.28835" lon="-2.37191">
        <ele>4.8000001907349</ele>
        <time>2022-02-03T10:56:26.000Z</time>
      </trkpt>
      <trkpt lat="47.28828" lon="-2.37157">
        <ele>4.8000001907349</ele>
        <time>2022-02-03T10:56:33.000Z</time>
      </trkpt>
      <trkpt lat="47.28824" lon="-2.37125">
        <ele>4.8000001907349</ele>
        <time>2022-02-03T10:56:40.000Z</time>
      </trkpt>
      <trkpt lat="47.28824" lon="-2.37112">
        <ele>4.8000001907349</ele>
        <time>2022-02-03T10:56:44.000Z</time>
      </trkpt>
      <trkpt lat="47.28823" lon="-2.3711">
        <ele>4.8000001907349</ele>
        <time>2022-02-03T10:56:46.000Z</time>
      </trkpt>
      <trkpt lat="47.28822" lon="-2.37111">
        <ele>5.4000000953674</ele>
        <time>2022-02-03T10:56:48.000Z</time>
      </trkpt>
      <trkpt lat="47.28821" lon="-2.37113">
        <ele>5.8000001907349</ele>
        <time>2022-02-03T10:56:49.000Z</time>
      </trkpt>
      <trkpt lat="47.2882" lon="-2.37114">
        <ele>6.1999998092651</ele>
        <time>2022-02-03T10:56:50.000Z</time>
      </trkpt>
      <trkpt lat="47.28819" lon="-2.37116">
        <ele>6.5999999046326</ele>
        <time>2022-02-03T10:56:51.000Z</time>
      </trkpt>
      <trkpt lat="47.28817" lon="-2.37118">
        <ele>7.1999998092651</ele>
        <time>2022-02-03T10:56:52.000Z</time>
      </trkpt>
      <trkpt lat="47.28814" lon="-2.37119">
        <ele>7.5999999046326</ele>
        <time>2022-02-03T10:56:54.000Z</time>
      </trkpt>
      <trkpt lat="47.28811" lon="-2.3712">
        <ele>8</ele>
        <time>2022-02-03T10:56:55.000Z</time>
      </trkpt>
      <trkpt lat="47.28809" lon="-2.3712">
        <ele>8.8000001907349</ele>
        <time>2022-02-03T10:56:56.000Z</time>
      </trkpt>
      <trkpt lat="47.28806" lon="-2.3712">
        <ele>9.1999998092651</ele>
        <time>2022-02-03T10:56:57.000Z</time>
      </trkpt>
      <trkpt lat="47.28804" lon="-2.3712">
        <ele>9.6000003814697</ele>
        <time>2022-02-03T10:56:58.000Z</time>
      </trkpt>
      <trkpt lat="47.28802" lon="-2.3712">
        <ele>10</ele>
        <time>2022-02-03T10:56:59.000Z</time>
      </trkpt>
      <trkpt lat="47.28801" lon="-2.37119">
        <ele>10.39999961853</ele>
        <time>2022-02-03T10:57:00.000Z</time>
      </trkpt>
      <trkpt lat="47.28799" lon="-2.37117">
        <ele>10.800000190735</ele>
        <time>2022-02-03T10:57:01.000Z</time>
      </trkpt>
      <trkpt lat="47.28798" lon="-2.37115">
        <ele>11.39999961853</ele>
        <time>2022-02-03T10:57:02.000Z</time>
      </trkpt>
      <trkpt lat="47.28797" lon="-2.37113">
        <ele>11.39999961853</ele>
        <time>2022-02-03T10:57:03.000Z</time>
      </trkpt>
      <trkpt lat="47.28793" lon="-2.37107">
        <ele>11.39999961853</ele>
        <time>2022-02-03T10:57:06.000Z</time>
      </trkpt>
      <trkpt lat="47.28793" lon="-2.371">
        <ele>11.39999961853</ele>
        <time>2022-02-03T10:57:08.000Z</time>
      </trkpt>
      <trkpt lat="47.28793" lon="-2.3709">
        <ele>11.39999961853</ele>
        <time>2022-02-03T10:57:10.000Z</time>
      </trkpt>
      <trkpt lat="47.28792" lon="-2.37085">
        <ele>11.800000190735</ele>
        <time>2022-02-03T10:57:11.000Z</time>
      </trkpt>
      <trkpt lat="47.28792" lon="-2.37081">
        <ele>12.199999809265</ele>
        <time>2022-02-03T10:57:12.000Z</time>
      </trkpt>
      <trkpt lat="47.28791" lon="-2.37077">
        <ele>12.60000038147</ele>
        <time>2022-02-03T10:57:13.000Z</time>
      </trkpt>
      <trkpt lat="47.2879" lon="-2.37073">
        <ele>13.199999809265</ele>
        <time>2022-02-03T10:57:14.000Z</time>
      </trkpt>
      <trkpt lat="47.2879" lon="-2.37069">
        <ele>13.60000038147</ele>
        <time>2022-02-03T10:57:15.000Z</time>
      </trkpt>
      <trkpt lat="47.28787" lon="-2.37059">
        <ele>14</ele>
        <time>2022-02-03T10:57:18.000Z</time>
      </trkpt>
      <trkpt lat="47.28786" lon="-2.37056">
        <ele>14.39999961853</ele>
        <time>2022-02-03T10:57:19.000Z</time>
      </trkpt>
      <trkpt lat="47.28784" lon="-2.37053">
        <ele>15.199999809265</ele>
        <time>2022-02-03T10:57:20.000Z</time>
      </trkpt>
      <trkpt lat="47.28783" lon="-2.37049">
        <ele>15.60000038147</ele>
        <time>2022-02-03T10:57:21.000Z</time>
      </trkpt>
      <trkpt lat="47.28776" lon="-2.37019">
        <ele>15.60000038147</ele>
        <time>2022-02-03T10:57:29.000Z</time>
      </trkpt>
      <trkpt lat="47.28774" lon="-2.37011">
        <ele>16</ele>
        <time>2022-02-03T10:57:31.000Z</time>
      </trkpt>
      <trkpt lat="47.28772" lon="-2.37009">
        <ele>16.60000038147</ele>
        <time>2022-02-03T10:57:32.000Z</time>
      </trkpt>
      <trkpt lat="47.28771" lon="-2.37006">
        <ele>17</ele>
        <time>2022-02-03T10:57:33.000Z</time>
      </trkpt>
      <trkpt lat="47.28769" lon="-2.37003">
        <ele>17.39999961853</ele>
        <time>2022-02-03T10:57:34.000Z</time>
      </trkpt>
      <trkpt lat="47.28767" lon="-2.37">
        <ele>17.799999237061</ele>
        <time>2022-02-03T10:57:35.000Z</time>
      </trkpt>
      <trkpt lat="47.28758" lon="-2.36975">
        <ele>17.799999237061</ele>
        <time>2022-02-03T10:57:41.000Z</time>
      </trkpt>
      <trkpt lat="47.28754" lon="-2.36954">
        <ele>17.39999961853</ele>
        <time>2022-02-03T10:57:45.000Z</time>
      </trkpt>
      <trkpt lat="47.28753" lon="-2.36949">
        <ele>17</ele>
        <time>2022-02-03T10:57:46.000Z</time>
      </trkpt>
      <trkpt lat="47.28751" lon="-2.36944">
        <ele>16.39999961853</ele>
        <time>2022-02-03T10:57:47.000Z</time>
      </trkpt>
      <trkpt lat="47.28749" lon="-2.36939">
        <ele>16</ele>
        <time>2022-02-03T10:57:48.000Z</time>
      </trkpt>
      <trkpt lat="47.28746" lon="-2.36934">
        <ele>15.39999961853</ele>
        <time>2022-02-03T10:57:49.000Z</time>
      </trkpt>
      <trkpt lat="47.28743" lon="-2.36929">
        <ele>15</ele>
        <time>2022-02-03T10:57:50.000Z</time>
      </trkpt>
      <trkpt lat="47.28738" lon="-2.36924">
        <ele>14.39999961853</ele>
        <time>2022-02-03T10:57:51.000Z</time>
      </trkpt>
      <trkpt lat="47.28733" lon="-2.36919">
        <ele>13.800000190735</ele>
        <time>2022-02-03T10:57:52.000Z</time>
      </trkpt>
      <trkpt lat="47.28729" lon="-2.36915">
        <ele>13.39999961853</ele>
        <time>2022-02-03T10:57:53.000Z</time>
      </trkpt>
      <trkpt lat="47.28718" lon="-2.36899">
        <ele>13.800000190735</ele>
        <time>2022-02-03T10:57:57.000Z</time>
      </trkpt>
      <trkpt lat="47.28715" lon="-2.36895">
        <ele>14.199999809265</ele>
        <time>2022-02-03T10:57:58.000Z</time>
      </trkpt>
      <trkpt lat="47.28712" lon="-2.36891">
        <ele>14.60000038147</ele>
        <time>2022-02-03T10:57:59.000Z</time>
      </trkpt>
      <trkpt lat="47.2871" lon="-2.36887">
        <ele>15</ele>
        <time>2022-02-03T10:58:00.000Z</time>
      </trkpt>
      <trkpt lat="47.28707" lon="-2.36884">
        <ele>15.60000038147</ele>
        <time>2022-02-03T10:58:01.000Z</time>
      </trkpt>
      <trkpt lat="47.28697" lon="-2.36866">
        <ele>15.60000038147</ele>
        <time>2022-02-03T10:58:05.000Z</time>
      </trkpt>
      <trkpt lat="47.28682" lon="-2.36831">
        <ele>16</ele>
        <time>2022-02-03T10:58:12.000Z</time>
      </trkpt>
      <trkpt lat="47.2868" lon="-2.36826">
        <ele>16.39999961853</ele>
        <time>2022-02-03T10:58:13.000Z</time>
      </trkpt>
      <trkpt lat="47.28678" lon="-2.36821">
        <ele>16.799999237061</ele>
        <time>2022-02-03T10:58:14.000Z</time>
      </trkpt>
      <trkpt lat="47.28676" lon="-2.36817">
        <ele>17.200000762939</ele>
        <time>2022-02-03T10:58:15.000Z</time>
      </trkpt>
      <trkpt lat="47.28675" lon="-2.36813">
        <ele>17.60000038147</ele>
        <time>2022-02-03T10:58:16.000Z</time>
      </trkpt>
      <trkpt lat="47.28672" lon="-2.36806">
        <ele>17.60000038147</ele>
        <time>2022-02-03T10:58:18.000Z</time>
      </trkpt>
      <trkpt lat="47.28663" lon="-2.36797">
        <ele>17.60000038147</ele>
        <time>2022-02-03T10:58:22.000Z</time>
      </trkpt>
      <trkpt lat="47.28653" lon="-2.36805">
        <ele>17.60000038147</ele>
        <time>2022-02-03T10:58:26.000Z</time>
      </trkpt>
      <trkpt lat="47.28634" lon="-2.36829">
        <ele>17.60000038147</ele>
        <time>2022-02-03T10:58:31.000Z</time>
      </trkpt>
      <trkpt lat="47.28623" lon="-2.36838">
        <ele>17.60000038147</ele>
        <time>2022-02-03T10:58:33.000Z</time>
      </trkpt>
      <trkpt lat="47.28609" lon="-2.36841">
        <ele>17.60000038147</ele>
        <time>2022-02-03T10:58:35.000Z</time>
      </trkpt>
      <trkpt lat="47.28593" lon="-2.36831">
        <ele>17.60000038147</ele>
        <time>2022-02-03T10:58:38.000Z</time>
      </trkpt>
      <trkpt lat="47.28583" lon="-2.36813">
        <ele>17.60000038147</ele>
        <time>2022-02-03T10:58:41.000Z</time>
      </trkpt>
      <trkpt lat="47.28577" lon="-2.36801">
        <ele>17.60000038147</ele>
        <time>2022-02-03T10:58:43.000Z</time>
      </trkpt>
      <trkpt lat="47.28556" lon="-2.36762">
        <ele>17.60000038147</ele>
        <time>2022-02-03T10:58:50.000Z</time>
      </trkpt>
      <trkpt lat="47.28553" lon="-2.36757">
        <ele>17.60000038147</ele>
        <time>2022-02-03T10:58:51.000Z</time>
      </trkpt>
      <trkpt lat="47.28532" lon="-2.36719">
        <ele>17.60000038147</ele>
        <time>2022-02-03T10:58:59.000Z</time>
      </trkpt>
      <trkpt lat="47.28528" lon="-2.36711">
        <ele>18</ele>
        <time>2022-02-03T10:59:01.000Z</time>
      </trkpt>
      <trkpt lat="47.28526" lon="-2.36707">
        <ele>18.39999961853</ele>
        <time>2022-02-03T10:59:02.000Z</time>
      </trkpt>
      <trkpt lat="47.28524" lon="-2.36704">
        <ele>19</ele>
        <time>2022-02-03T10:59:03.000Z</time>
      </trkpt>
      <trkpt lat="47.28522" lon="-2.36701">
        <ele>19.39999961853</ele>
        <time>2022-02-03T10:59:04.000Z</time>
      </trkpt>
      <trkpt lat="47.2852" lon="-2.36698">
        <ele>19.799999237061</ele>
        <time>2022-02-03T10:59:05.000Z</time>
      </trkpt>
      <trkpt lat="47.28512" lon="-2.36684">
        <ele>20.200000762939</ele>
        <time>2022-02-03T10:59:10.000Z</time>
      </trkpt>
      <trkpt lat="47.2851" lon="-2.36681">
        <ele>20.60000038147</ele>
        <time>2022-02-03T10:59:11.000Z</time>
      </trkpt>
      <trkpt lat="47.28508" lon="-2.36677">
        <ele>21</ele>
        <time>2022-02-03T10:59:12.000Z</time>
      </trkpt>
      <trkpt lat="47.28506" lon="-2.36673">
        <ele>21.39999961853</ele>
        <time>2022-02-03T10:59:13.000Z</time>
      </trkpt>
      <trkpt lat="47.28503" lon="-2.36669">
        <ele>21.799999237061</ele>
        <time>2022-02-03T10:59:14.000Z</time>
      </trkpt>
      <trkpt lat="47.28496" lon="-2.36655">
        <ele>21.799999237061</ele>
        <time>2022-02-03T10:59:17.000Z</time>
      </trkpt>
      <trkpt lat="47.2849" lon="-2.36639">
        <ele>21.799999237061</ele>
        <time>2022-02-03T10:59:20.000Z</time>
      </trkpt>
      <trkpt lat="47.28486" lon="-2.36621">
        <ele>21.799999237061</ele>
        <time>2022-02-03T10:59:23.000Z</time>
      </trkpt>
      <trkpt lat="47.28473" lon="-2.36579">
        <ele>21.799999237061</ele>
        <time>2022-02-03T10:59:30.000Z</time>
      </trkpt>
      <trkpt lat="47.28472" lon="-2.36572">
        <ele>21.799999237061</ele>
        <time>2022-02-03T10:59:31.000Z</time>
      </trkpt>
      <trkpt lat="47.28474" lon="-2.3656">
        <ele>21.799999237061</ele>
        <time>2022-02-03T10:59:33.000Z</time>
      </trkpt>
      <trkpt lat="47.28489" lon="-2.36537">
        <ele>21.799999237061</ele>
        <time>2022-02-03T10:59:38.000Z</time>
      </trkpt>
      <trkpt lat="47.28495" lon="-2.3653">
        <ele>21.799999237061</ele>
        <time>2022-02-03T10:59:40.000Z</time>
      </trkpt>
      <trkpt lat="47.28502" lon="-2.36523">
        <ele>22.200000762939</ele>
        <time>2022-02-03T10:59:42.000Z</time>
      </trkpt>
      <trkpt lat="47.28505" lon="-2.36519">
        <ele>22.60000038147</ele>
        <time>2022-02-03T10:59:43.000Z</time>
      </trkpt>
      <trkpt lat="47.28507" lon="-2.36516">
        <ele>23</ele>
        <time>2022-02-03T10:59:44.000Z</time>
      </trkpt>
      <trkpt lat="47.2851" lon="-2.36512">
        <ele>23.39999961853</ele>
        <time>2022-02-03T10:59:45.000Z</time>
      </trkpt>
      <trkpt lat="47.28513" lon="-2.36509">
        <ele>24</ele>
        <time>2022-02-03T10:59:46.000Z</time>
      </trkpt>
      <trkpt lat="47.28519" lon="-2.36499">
        <ele>24.39999961853</ele>
        <time>2022-02-03T10:59:49.000Z</time>
      </trkpt>
      <trkpt lat="47.2852" lon="-2.36495">
        <ele>24.799999237061</ele>
        <time>2022-02-03T10:59:50.000Z</time>
      </trkpt>
      <trkpt lat="47.2852" lon="-2.36491">
        <ele>25.200000762939</ele>
        <time>2022-02-03T10:59:51.000Z</time>
      </trkpt>
      <trkpt lat="47.28519" lon="-2.36486">
        <ele>25.60000038147</ele>
        <time>2022-02-03T10:59:52.000Z</time>
      </trkpt>
      <trkpt lat="47.28519" lon="-2.36481">
        <ele>26</ele>
        <time>2022-02-03T10:59:53.000Z</time>
      </trkpt>
      <trkpt lat="47.28519" lon="-2.36476">
        <ele>26</ele>
        <time>2022-02-03T10:59:54.000Z</time>
      </trkpt>
      <trkpt lat="47.28516" lon="-2.36451">
        <ele>26</ele>
        <time>2022-02-03T10:59:59.000Z</time>
      </trkpt>
      <trkpt lat="47.28504" lon="-2.36432">
        <ele>26</ele>
        <time>2022-02-03T11:00:04.000Z</time>
      </trkpt>
      <trkpt lat="47.28491" lon="-2.36416">
        <ele>26</ele>
        <time>2022-02-03T11:00:09.000Z</time>
      </trkpt>
      <trkpt lat="47.28482" lon="-2.36416">
        <ele>26.39999961853</ele>
        <time>2022-02-03T11:00:11.000Z</time>
      </trkpt>
      <trkpt lat="47.28479" lon="-2.36415">
        <ele>27</ele>
        <time>2022-02-03T11:00:12.000Z</time>
      </trkpt>
      <trkpt lat="47.28477" lon="-2.36413">
        <ele>27.799999237061</ele>
        <time>2022-02-03T11:00:13.000Z</time>
      </trkpt>
      <trkpt lat="47.28475" lon="-2.3641">
        <ele>28.200000762939</ele>
        <time>2022-02-03T11:00:14.000Z</time>
      </trkpt>
      <trkpt lat="47.28463" lon="-2.36393">
        <ele>28.200000762939</ele>
        <time>2022-02-03T11:00:18.000Z</time>
      </trkpt>
      <trkpt lat="47.28451" lon="-2.36381">
        <ele>28.200000762939</ele>
        <time>2022-02-03T11:00:21.000Z</time>
      </trkpt>
      <trkpt lat="47.28437" lon="-2.36373">
        <ele>28.200000762939</ele>
        <time>2022-02-03T11:00:24.000Z</time>
      </trkpt>
      <trkpt lat="47.28433" lon="-2.36369">
        <ele>28.200000762939</ele>
        <time>2022-02-03T11:00:25.000Z</time>
      </trkpt>
      <trkpt lat="47.28425" lon="-2.36361">
        <ele>27.799999237061</ele>
        <time>2022-02-03T11:00:27.000Z</time>
      </trkpt>
      <trkpt lat="47.28422" lon="-2.36356">
        <ele>27.39999961853</ele>
        <time>2022-02-03T11:00:28.000Z</time>
      </trkpt>
      <trkpt lat="47.28418" lon="-2.36351">
        <ele>27</ele>
        <time>2022-02-03T11:00:29.000Z</time>
      </trkpt>
      <trkpt lat="47.28415" lon="-2.36347">
        <ele>26.60000038147</ele>
        <time>2022-02-03T11:00:30.000Z</time>
      </trkpt>
      <trkpt lat="47.28411" lon="-2.36343">
        <ele>26.200000762939</ele>
        <time>2022-02-03T11:00:31.000Z</time>
      </trkpt>
      <trkpt lat="47.28391" lon="-2.36326">
        <ele>26.200000762939</ele>
        <time>2022-02-03T11:00:36.000Z</time>
      </trkpt>
      <trkpt lat="47.28378" lon="-2.36317">
        <ele>25.799999237061</ele>
        <time>2022-02-03T11:00:39.000Z</time>
      </trkpt>
      <trkpt lat="47.28374" lon="-2.36314">
        <ele>25.39999961853</ele>
        <time>2022-02-03T11:00:40.000Z</time>
      </trkpt>
      <trkpt lat="47.2837" lon="-2.3631">
        <ele>25</ele>
        <time>2022-02-03T11:00:41.000Z</time>
      </trkpt>
      <trkpt lat="47.28368" lon="-2.36306">
        <ele>24.60000038147</ele>
        <time>2022-02-03T11:00:42.000Z</time>
      </trkpt>
      <trkpt lat="47.28367" lon="-2.36298">
        <ele>24.200000762939</ele>
        <time>2022-02-03T11:00:43.000Z</time>
      </trkpt>
      <trkpt lat="47.28367" lon="-2.36292">
        <ele>24.200000762939</ele>
        <time>2022-02-03T11:00:44.000Z</time>
      </trkpt>
      <trkpt lat="47.28366" lon="-2.36279">
        <ele>24.200000762939</ele>
        <time>2022-02-03T11:00:46.000Z</time>
      </trkpt>
      <trkpt lat="47.28358" lon="-2.36269">
        <ele>24.200000762939</ele>
        <time>2022-02-03T11:00:48.000Z</time>
      </trkpt>
      <trkpt lat="47.28337" lon="-2.36254">
        <ele>23.799999237061</ele>
        <time>2022-02-03T11:00:52.000Z</time>
      </trkpt>
      <trkpt lat="47.28331" lon="-2.3625">
        <ele>23.39999961853</ele>
        <time>2022-02-03T11:00:53.000Z</time>
      </trkpt>
      <trkpt lat="47.28325" lon="-2.36248">
        <ele>22.799999237061</ele>
        <time>2022-02-03T11:00:54.000Z</time>
      </trkpt>
      <trkpt lat="47.2832" lon="-2.36246">
        <ele>22.39999961853</ele>
        <time>2022-02-03T11:00:55.000Z</time>
      </trkpt>
      <trkpt lat="47.28314" lon="-2.36244">
        <ele>22</ele>
        <time>2022-02-03T11:00:56.000Z</time>
      </trkpt>
      <trkpt lat="47.28299" lon="-2.36243">
        <ele>22</ele>
        <time>2022-02-03T11:00:58.000Z</time>
      </trkpt>
      <trkpt lat="47.28288" lon="-2.3624">
        <ele>22</ele>
        <time>2022-02-03T11:01:00.000Z</time>
      </trkpt>
      <trkpt lat="47.28282" lon="-2.36237">
        <ele>21.60000038147</ele>
        <time>2022-02-03T11:01:01.000Z</time>
      </trkpt>
      <trkpt lat="47.28277" lon="-2.36232">
        <ele>20.799999237061</ele>
        <time>2022-02-03T11:01:02.000Z</time>
      </trkpt>
      <trkpt lat="47.28273" lon="-2.36226">
        <ele>20.39999961853</ele>
        <time>2022-02-03T11:01:03.000Z</time>
      </trkpt>
      <trkpt lat="47.2827" lon="-2.36219">
        <ele>20</ele>
        <time>2022-02-03T11:01:04.000Z</time>
      </trkpt>
      <trkpt lat="47.28267" lon="-2.36213">
        <ele>20</ele>
        <time>2022-02-03T11:01:05.000Z</time>
      </trkpt>
      <trkpt lat="47.2826" lon="-2.36193">
        <ele>20</ele>
        <time>2022-02-03T11:01:08.000Z</time>
      </trkpt>
      <trkpt lat="47.28256" lon="-2.36181">
        <ele>20</ele>
        <time>2022-02-03T11:01:10.000Z</time>
      </trkpt>
      <trkpt lat="47.2825" lon="-2.36165">
        <ele>20</ele>
        <time>2022-02-03T11:01:13.000Z</time>
      </trkpt>
      <trkpt lat="47.28243" lon="-2.36138">
        <ele>20</ele>
        <time>2022-02-03T11:01:19.000Z</time>
      </trkpt>
      <trkpt lat="47.28239" lon="-2.36129">
        <ele>20.39999961853</ele>
        <time>2022-02-03T11:01:22.000Z</time>
      </trkpt>
      <trkpt lat="47.28238" lon="-2.36124">
        <ele>20.799999237061</ele>
        <time>2022-02-03T11:01:23.000Z</time>
      </trkpt>
      <trkpt lat="47.28236" lon="-2.36119">
        <ele>21.200000762939</ele>
        <time>2022-02-03T11:01:24.000Z</time>
      </trkpt>
      <trkpt lat="47.28235" lon="-2.36115">
        <ele>21.60000038147</ele>
        <time>2022-02-03T11:01:25.000Z</time>
      </trkpt>
      <trkpt lat="47.28233" lon="-2.36111">
        <ele>22</ele>
        <time>2022-02-03T11:01:26.000Z</time>
      </trkpt>
      <trkpt lat="47.28224" lon="-2.3609">
        <ele>21.60000038147</ele>
        <time>2022-02-03T11:01:29.000Z</time>
      </trkpt>
      <trkpt lat="47.28221" lon="-2.36081">
        <ele>21.200000762939</ele>
        <time>2022-02-03T11:01:30.000Z</time>
      </trkpt>
      <trkpt lat="47.28219" lon="-2.36073">
        <ele>20.799999237061</ele>
        <time>2022-02-03T11:01:31.000Z</time>
      </trkpt>
      <trkpt lat="47.28217" lon="-2.36066">
        <ele>20.39999961853</ele>
        <time>2022-02-03T11:01:32.000Z</time>
      </trkpt>
      <trkpt lat="47.28215" lon="-2.36059">
        <ele>20</ele>
        <time>2022-02-03T11:01:33.000Z</time>
      </trkpt>
      <trkpt lat="47.2821" lon="-2.36048">
        <ele>20</ele>
        <time>2022-02-03T11:01:35.000Z</time>
      </trkpt>
      <trkpt lat="47.28192" lon="-2.36007">
        <ele>20</ele>
        <time>2022-02-03T11:01:42.000Z</time>
      </trkpt>
      <trkpt lat="47.28179" lon="-2.35976">
        <ele>20</ele>
        <time>2022-02-03T11:01:48.000Z</time>
      </trkpt>
      <trkpt lat="47.28178" lon="-2.35964">
        <ele>20</ele>
        <time>2022-02-03T11:01:50.000Z</time>
      </trkpt>
      <trkpt lat="47.28178" lon="-2.35949">
        <ele>20</ele>
        <time>2022-02-03T11:01:53.000Z</time>
      </trkpt>
      <trkpt lat="47.28175" lon="-2.3593">
        <ele>20</ele>
        <time>2022-02-03T11:01:57.000Z</time>
      </trkpt>
      <trkpt lat="47.28173" lon="-2.35924">
        <ele>20</ele>
        <time>2022-02-03T11:01:59.000Z</time>
      </trkpt>
      <trkpt lat="47.28172" lon="-2.35922">
        <ele>20.39999961853</ele>
        <time>2022-02-03T11:02:00.000Z</time>
      </trkpt>
      <trkpt lat="47.2817" lon="-2.35919">
        <ele>20.799999237061</ele>
        <time>2022-02-03T11:02:01.000Z</time>
      </trkpt>
      <trkpt lat="47.28169" lon="-2.35917">
        <ele>21.200000762939</ele>
        <time>2022-02-03T11:02:02.000Z</time>
      </trkpt>
      <trkpt lat="47.28167" lon="-2.35914">
        <ele>21.60000038147</ele>
        <time>2022-02-03T11:02:03.000Z</time>
      </trkpt>
      <trkpt lat="47.28165" lon="-2.35912">
        <ele>22.200000762939</ele>
        <time>2022-02-03T11:02:04.000Z</time>
      </trkpt>
      <trkpt lat="47.28164" lon="-2.35909">
        <ele>22.200000762939</ele>
        <time>2022-02-03T11:02:05.000Z</time>
      </trkpt>
      <trkpt lat="47.2815" lon="-2.35889">
        <ele>22.200000762939</ele>
        <time>2022-02-03T11:02:11.000Z</time>
      </trkpt>
      <trkpt lat="47.28137" lon="-2.35874">
        <ele>22.200000762939</ele>
        <time>2022-02-03T11:02:17.000Z</time>
      </trkpt>
      <trkpt lat="47.28132" lon="-2.35864">
        <ele>22.60000038147</ele>
        <time>2022-02-03T11:02:20.000Z</time>
      </trkpt>
      <trkpt lat="47.28131" lon="-2.35861">
        <ele>23</ele>
        <time>2022-02-03T11:02:21.000Z</time>
      </trkpt>
      <trkpt lat="47.28129" lon="-2.35859">
        <ele>23.39999961853</ele>
        <time>2022-02-03T11:02:22.000Z</time>
      </trkpt>
      <trkpt lat="47.28128" lon="-2.35858">
        <ele>24</ele>
        <time>2022-02-03T11:02:23.000Z</time>
      </trkpt>
      <trkpt lat="47.28126" lon="-2.35856">
        <ele>24.39999961853</ele>
        <time>2022-02-03T11:02:24.000Z</time>
      </trkpt>
      <trkpt lat="47.28124" lon="-2.35856">
        <ele>24.39999961853</ele>
        <time>2022-02-03T11:02:25.000Z</time>
      </trkpt>
      <trkpt lat="47.28119" lon="-2.35854">
        <ele>24.39999961853</ele>
        <time>2022-02-03T11:02:28.000Z</time>
      </trkpt>
      <trkpt lat="47.28116" lon="-2.35847">
        <ele>24.39999961853</ele>
        <time>2022-02-03T11:02:31.000Z</time>
      </trkpt>
      <trkpt lat="47.28115" lon="-2.35841">
        <ele>24.39999961853</ele>
        <time>2022-02-03T11:02:32.000Z</time>
      </trkpt>
      <trkpt lat="47.28111" lon="-2.35825">
        <ele>24</ele>
        <time>2022-02-03T11:02:34.000Z</time>
      </trkpt>
      <trkpt lat="47.28109" lon="-2.3582">
        <ele>23.60000038147</ele>
        <time>2022-02-03T11:02:35.000Z</time>
      </trkpt>
      <trkpt lat="47.28108" lon="-2.35816">
        <ele>23.200000762939</ele>
        <time>2022-02-03T11:02:36.000Z</time>
      </trkpt>
      <trkpt lat="47.28104" lon="-2.35814">
        <ele>22.799999237061</ele>
        <time>2022-02-03T11:02:37.000Z</time>
      </trkpt>
      <trkpt lat="47.28101" lon="-2.35813">
        <ele>22.200000762939</ele>
        <time>2022-02-03T11:02:38.000Z</time>
      </trkpt>
      <trkpt lat="47.28095" lon="-2.35812">
        <ele>22.200000762939</ele>
        <time>2022-02-03T11:02:40.000Z</time>
      </trkpt>
      <trkpt lat="47.28087" lon="-2.35811">
        <ele>22.200000762939</ele>
        <time>2022-02-03T11:02:43.000Z</time>
      </trkpt>
      <trkpt lat="47.28085" lon="-2.35809">
        <ele>22.200000762939</ele>
        <time>2022-02-03T11:02:44.000Z</time>
      </trkpt>
      <trkpt lat="47.2808" lon="-2.35796">
        <ele>22.200000762939</ele>
        <time>2022-02-03T11:02:47.000Z</time>
      </trkpt>
      <trkpt lat="47.28079" lon="-2.35785">
        <ele>22.799999237061</ele>
        <time>2022-02-03T11:02:50.000Z</time>
      </trkpt>
      <trkpt lat="47.28079" lon="-2.35783">
        <ele>23.200000762939</ele>
        <time>2022-02-03T11:02:51.000Z</time>
      </trkpt>
      <trkpt lat="47.2808" lon="-2.3578">
        <ele>23.60000038147</ele>
        <time>2022-02-03T11:02:52.000Z</time>
      </trkpt>
      <trkpt lat="47.28081" lon="-2.35776">
        <ele>24</ele>
        <time>2022-02-03T11:02:53.000Z</time>
      </trkpt>
      <trkpt lat="47.28081" lon="-2.35773">
        <ele>24.39999961853</ele>
        <time>2022-02-03T11:02:54.000Z</time>
      </trkpt>
      <trkpt lat="47.28083" lon="-2.35753">
        <ele>24.39999961853</ele>
        <time>2022-02-03T11:02:59.000Z</time>
      </trkpt>
      <trkpt lat="47.28085" lon="-2.35739">
        <ele>24.799999237061</ele>
        <time>2022-02-03T11:03:03.000Z</time>
      </trkpt>
      <trkpt lat="47.28087" lon="-2.35736">
        <ele>25.200000762939</ele>
        <time>2022-02-03T11:03:04.000Z</time>
      </trkpt>
      <trkpt lat="47.28088" lon="-2.35734">
        <ele>26.200000762939</ele>
        <time>2022-02-03T11:03:05.000Z</time>
      </trkpt>
      <trkpt lat="47.28089" lon="-2.35731">
        <ele>26.60000038147</ele>
        <time>2022-02-03T11:03:06.000Z</time>
      </trkpt>
      <trkpt lat="47.2809" lon="-2.35719">
        <ele>26.60000038147</ele>
        <time>2022-02-03T11:03:10.000Z</time>
      </trkpt>
      <trkpt lat="47.28091" lon="-2.35697">
        <ele>26.60000038147</ele>
        <time>2022-02-03T11:03:15.000Z</time>
      </trkpt>
      <trkpt lat="47.28086" lon="-2.35659">
        <ele>26.60000038147</ele>
        <time>2022-02-03T11:03:21.000Z</time>
      </trkpt>
      <trkpt lat="47.28081" lon="-2.35634">
        <ele>26.200000762939</ele>
        <time>2022-02-03T11:03:24.000Z</time>
      </trkpt>
      <trkpt lat="47.28079" lon="-2.35627">
        <ele>25.799999237061</ele>
        <time>2022-02-03T11:03:25.000Z</time>
      </trkpt>
      <trkpt lat="47.28078" lon="-2.35621">
        <ele>25.39999961853</ele>
        <time>2022-02-03T11:03:26.000Z</time>
      </trkpt>
      <trkpt lat="47.28079" lon="-2.35618">
        <ele>24.799999237061</ele>
        <time>2022-02-03T11:03:27.000Z</time>
      </trkpt>
      <trkpt lat="47.2808" lon="-2.35615">
        <ele>24.200000762939</ele>
        <time>2022-02-03T11:03:28.000Z</time>
      </trkpt>
      <trkpt lat="47.28081" lon="-2.35614">
        <ele>23.60000038147</ele>
        <time>2022-02-03T11:03:29.000Z</time>
      </trkpt>
      <trkpt lat="47.28083" lon="-2.35614">
        <ele>22.39999961853</ele>
        <time>2022-02-03T11:03:30.000Z</time>
      </trkpt>
      <trkpt lat="47.28086" lon="-2.35617">
        <ele>22.39999961853</ele>
        <time>2022-02-03T11:03:32.000Z</time>
      </trkpt>
      <trkpt lat="47.28087" lon="-2.35619">
        <ele>22.39999961853</ele>
        <time>2022-02-03T11:03:33.000Z</time>
      </trkpt>
      <trkpt lat="47.2809" lon="-2.35625">
        <ele>22.39999961853</ele>
        <time>2022-02-03T11:03:39.000Z</time>
      </trkpt>
      <trkpt lat="47.28082" lon="-2.35615">
        <ele>22.39999961853</ele>
        <time>2022-02-03T11:17:38.000Z</time>
      </trkpt>
      <trkpt lat="47.28078" lon="-2.3561">
        <ele>22.39999961853</ele>
        <time>2022-02-03T11:17:41.000Z</time>
      </trkpt>
      <trkpt lat="47.28076" lon="-2.35609">
        <ele>22.39999961853</ele>
        <time>2022-02-03T11:17:42.000Z</time>
      </trkpt>
      <trkpt lat="47.28067" lon="-2.35593">
        <ele>22.39999961853</ele>
        <time>2022-02-03T11:17:48.000Z</time>
      </trkpt>
      <trkpt lat="47.28056" lon="-2.3558">
        <ele>22.39999961853</ele>
        <time>2022-02-03T11:17:54.000Z</time>
      </trkpt>
      <trkpt lat="47.28047" lon="-2.35579">
        <ele>22.39999961853</ele>
        <time>2022-02-03T11:17:56.000Z</time>
      </trkpt>
      <trkpt lat="47.28038" lon="-2.35576">
        <ele>22.39999961853</ele>
        <time>2022-02-03T11:17:58.000Z</time>
      </trkpt>
      <trkpt lat="47.28029" lon="-2.35572">
        <ele>22.39999961853</ele>
        <time>2022-02-03T11:18:00.000Z</time>
      </trkpt>
      <trkpt lat="47.28021" lon="-2.35562">
        <ele>22.39999961853</ele>
        <time>2022-02-03T11:18:02.000Z</time>
      </trkpt>
      <trkpt lat="47.28017" lon="-2.35561">
        <ele>22.39999961853</ele>
        <time>2022-02-03T11:18:03.000Z</time>
      </trkpt>
      <trkpt lat="47.28008" lon="-2.35563">
        <ele>22.39999961853</ele>
        <time>2022-02-03T11:18:05.000Z</time>
      </trkpt>
      <trkpt lat="47.27999" lon="-2.35568">
        <ele>22.39999961853</ele>
        <time>2022-02-03T11:18:07.000Z</time>
      </trkpt>
      <trkpt lat="47.27977" lon="-2.35576">
        <ele>22.39999961853</ele>
        <time>2022-02-03T11:18:12.000Z</time>
      </trkpt>
      <trkpt lat="47.27961" lon="-2.3558">
        <ele>22.39999961853</ele>
        <time>2022-02-03T11:18:16.000Z</time>
      </trkpt>
      <trkpt lat="47.27951" lon="-2.3558">
        <ele>22.39999961853</ele>
        <time>2022-02-03T11:18:18.000Z</time>
      </trkpt>
      <trkpt lat="47.27947" lon="-2.35581">
        <ele>22</ele>
        <time>2022-02-03T11:18:19.000Z</time>
      </trkpt>
      <trkpt lat="47.27942" lon="-2.35582">
        <ele>21.60000038147</ele>
        <time>2022-02-03T11:18:20.000Z</time>
      </trkpt>
      <trkpt lat="47.27937" lon="-2.35583">
        <ele>20.799999237061</ele>
        <time>2022-02-03T11:18:21.000Z</time>
      </trkpt>
      <trkpt lat="47.27933" lon="-2.35585">
        <ele>20.39999961853</ele>
        <time>2022-02-03T11:18:22.000Z</time>
      </trkpt>
      <trkpt lat="47.27918" lon="-2.35589">
        <ele>20.39999961853</ele>
        <time>2022-02-03T11:18:25.000Z</time>
      </trkpt>
      <trkpt lat="47.2788" lon="-2.35599">
        <ele>20.39999961853</ele>
        <time>2022-02-03T11:18:32.000Z</time>
      </trkpt>
      <trkpt lat="47.2785" lon="-2.35607">
        <ele>20</ele>
        <time>2022-02-03T11:18:37.000Z</time>
      </trkpt>
      <trkpt lat="47.27844" lon="-2.35608">
        <ele>19.39999961853</ele>
        <time>2022-02-03T11:18:38.000Z</time>
      </trkpt>
      <trkpt lat="47.27837" lon="-2.3561">
        <ele>19</ele>
        <time>2022-02-03T11:18:39.000Z</time>
      </trkpt>
      <trkpt lat="47.27831" lon="-2.35612">
        <ele>18.60000038147</ele>
        <time>2022-02-03T11:18:40.000Z</time>
      </trkpt>
      <trkpt lat="47.27825" lon="-2.35614">
        <ele>18.200000762939</ele>
        <time>2022-02-03T11:18:41.000Z</time>
      </trkpt>
      <trkpt lat="47.27792" lon="-2.35624">
        <ele>18.200000762939</ele>
        <time>2022-02-03T11:18:46.000Z</time>
      </trkpt>
      <trkpt lat="47.27781" lon="-2.35632">
        <ele>17.799999237061</ele>
        <time>2022-02-03T11:18:48.000Z</time>
      </trkpt>
      <trkpt lat="47.27775" lon="-2.35636">
        <ele>17.39999961853</ele>
        <time>2022-02-03T11:18:49.000Z</time>
      </trkpt>
      <trkpt lat="47.2777" lon="-2.35641">
        <ele>17</ele>
        <time>2022-02-03T11:18:50.000Z</time>
      </trkpt>
      <trkpt lat="47.27765" lon="-2.35647">
        <ele>16.60000038147</ele>
        <time>2022-02-03T11:18:51.000Z</time>
      </trkpt>
      <trkpt lat="47.2776" lon="-2.35653">
        <ele>16.200000762939</ele>
        <time>2022-02-03T11:18:52.000Z</time>
      </trkpt>
      <trkpt lat="47.27751" lon="-2.35664">
        <ele>16.200000762939</ele>
        <time>2022-02-03T11:18:54.000Z</time>
      </trkpt>
      <trkpt lat="47.27744" lon="-2.35677">
        <ele>16.200000762939</ele>
        <time>2022-02-03T11:18:56.000Z</time>
      </trkpt>
      <trkpt lat="47.27726" lon="-2.35703">
        <ele>15.800000190735</ele>
        <time>2022-02-03T11:19:00.000Z</time>
      </trkpt>
      <trkpt lat="47.27721" lon="-2.35709">
        <ele>15.39999961853</ele>
        <time>2022-02-03T11:19:01.000Z</time>
      </trkpt>
      <trkpt lat="47.27715" lon="-2.35715">
        <ele>15</ele>
        <time>2022-02-03T11:19:02.000Z</time>
      </trkpt>
      <trkpt lat="47.2771" lon="-2.35721">
        <ele>14.60000038147</ele>
        <time>2022-02-03T11:19:03.000Z</time>
      </trkpt>
      <trkpt lat="47.27704" lon="-2.35726">
        <ele>14.199999809265</ele>
        <time>2022-02-03T11:19:04.000Z</time>
      </trkpt>
      <trkpt lat="47.27687" lon="-2.35741">
        <ele>14.199999809265</ele>
        <time>2022-02-03T11:19:07.000Z</time>
      </trkpt>
      <trkpt lat="47.27683" lon="-2.35746">
        <ele>14.199999809265</ele>
        <time>2022-02-03T11:19:08.000Z</time>
      </trkpt>
      <trkpt lat="47.27678" lon="-2.35748">
        <ele>14.199999809265</ele>
        <time>2022-02-03T11:19:09.000Z</time>
      </trkpt>
      <trkpt lat="47.27667" lon="-2.35743">
        <ele>13.199999809265</ele>
        <time>2022-02-03T11:19:11.000Z</time>
      </trkpt>
      <trkpt lat="47.27664" lon="-2.35737">
        <ele>12.800000190735</ele>
        <time>2022-02-03T11:19:12.000Z</time>
      </trkpt>
      <trkpt lat="47.27659" lon="-2.35732">
        <ele>12.39999961853</ele>
        <time>2022-02-03T11:19:13.000Z</time>
      </trkpt>
      <trkpt lat="47.27655" lon="-2.35726">
        <ele>11.800000190735</ele>
        <time>2022-02-03T11:19:14.000Z</time>
      </trkpt>
      <trkpt lat="47.27649" lon="-2.35724">
        <ele>11.800000190735</ele>
        <time>2022-02-03T11:19:15.000Z</time>
      </trkpt>
      <trkpt lat="47.27637" lon="-2.35718">
        <ele>11.800000190735</ele>
        <time>2022-02-03T11:19:17.000Z</time>
      </trkpt>
      <trkpt lat="47.27618" lon="-2.35713">
        <ele>11.800000190735</ele>
        <time>2022-02-03T11:19:20.000Z</time>
      </trkpt>
      <trkpt lat="47.27577" lon="-2.35702">
        <ele>11.800000190735</ele>
        <time>2022-02-03T11:19:26.000Z</time>
      </trkpt>
      <trkpt lat="47.27571" lon="-2.35701">
        <ele>11.39999961853</ele>
        <time>2022-02-03T11:19:27.000Z</time>
      </trkpt>
      <trkpt lat="47.27564" lon="-2.357">
        <ele>11</ele>
        <time>2022-02-03T11:19:28.000Z</time>
      </trkpt>
      <trkpt lat="47.27557" lon="-2.35699">
        <ele>10.60000038147</ele>
        <time>2022-02-03T11:19:29.000Z</time>
      </trkpt>
      <trkpt lat="47.27551" lon="-2.35697">
        <ele>10.199999809265</ele>
        <time>2022-02-03T11:19:30.000Z</time>
      </trkpt>
      <trkpt lat="47.27544" lon="-2.35695">
        <ele>9.8000001907349</ele>
        <time>2022-02-03T11:19:31.000Z</time>
      </trkpt>
      <trkpt lat="47.27532" lon="-2.35692">
        <ele>9.8000001907349</ele>
        <time>2022-02-03T11:19:33.000Z</time>
      </trkpt>
      <trkpt lat="47.27496" lon="-2.35684">
        <ele>9.8000001907349</ele>
        <time>2022-02-03T11:19:38.000Z</time>
      </trkpt>
      <trkpt lat="47.27463" lon="-2.35675">
        <ele>9.3999996185303</ele>
        <time>2022-02-03T11:19:43.000Z</time>
      </trkpt>
      <trkpt lat="47.27456" lon="-2.35674">
        <ele>9</ele>
        <time>2022-02-03T11:19:44.000Z</time>
      </trkpt>
      <trkpt lat="47.27449" lon="-2.35672">
        <ele>8.3999996185303</ele>
        <time>2022-02-03T11:19:45.000Z</time>
      </trkpt>
      <trkpt lat="47.27443" lon="-2.3567">
        <ele>8</ele>
        <time>2022-02-03T11:19:46.000Z</time>
      </trkpt>
      <trkpt lat="47.27436" lon="-2.35668">
        <ele>7.5999999046326</ele>
        <time>2022-02-03T11:19:47.000Z</time>
      </trkpt>
      <trkpt lat="47.27411" lon="-2.35665">
        <ele>7.5999999046326</ele>
        <time>2022-02-03T11:19:51.000Z</time>
      </trkpt>
      <trkpt lat="47.27405" lon="-2.35667">
        <ele>7.5999999046326</ele>
        <time>2022-02-03T11:19:52.000Z</time>
      </trkpt>
      <trkpt lat="47.2738" lon="-2.35682">
        <ele>7.5999999046326</ele>
        <time>2022-02-03T11:19:56.000Z</time>
      </trkpt>
      <trkpt lat="47.27344" lon="-2.3571">
        <ele>7.5999999046326</ele>
        <time>2022-02-03T11:20:03.000Z</time>
      </trkpt>
      <trkpt lat="47.27335" lon="-2.3572">
        <ele>7.5999999046326</ele>
        <time>2022-02-03T11:20:05.000Z</time>
      </trkpt>
      <trkpt lat="47.27327" lon="-2.35731">
        <ele>7.1999998092651</ele>
        <time>2022-02-03T11:20:07.000Z</time>
      </trkpt>
      <trkpt lat="47.27324" lon="-2.35736">
        <ele>6.8000001907349</ele>
        <time>2022-02-03T11:20:08.000Z</time>
      </trkpt>
      <trkpt lat="47.27321" lon="-2.3574">
        <ele>6.4000000953674</ele>
        <time>2022-02-03T11:20:09.000Z</time>
      </trkpt>
      <trkpt lat="47.27317" lon="-2.35743">
        <ele>6</ele>
        <time>2022-02-03T11:20:10.000Z</time>
      </trkpt>
      <trkpt lat="47.27312" lon="-2.35742">
        <ele>5.5999999046326</ele>
        <time>2022-02-03T11:20:11.000Z</time>
      </trkpt>
      <trkpt lat="47.27308" lon="-2.35738">
        <ele>5.5999999046326</ele>
        <time>2022-02-03T11:20:12.000Z</time>
      </trkpt>
      <trkpt lat="47.27299" lon="-2.35719">
        <ele>5.5999999046326</ele>
        <time>2022-02-03T11:20:15.000Z</time>
      </trkpt>
      <trkpt lat="47.27297" lon="-2.35712">
        <ele>5.5999999046326</ele>
        <time>2022-02-03T11:20:16.000Z</time>
      </trkpt>
      <trkpt lat="47.2728" lon="-2.35674">
        <ele>5.5999999046326</ele>
        <time>2022-02-03T11:20:22.000Z</time>
      </trkpt>
      <trkpt lat="47.27255" lon="-2.35619">
        <ele>6</ele>
        <time>2022-02-03T11:20:31.000Z</time>
      </trkpt>
      <trkpt lat="47.27252" lon="-2.35613">
        <ele>6.4000000953674</ele>
        <time>2022-02-03T11:20:32.000Z</time>
      </trkpt>
      <trkpt lat="47.2725" lon="-2.35607">
        <ele>6.8000001907349</ele>
        <time>2022-02-03T11:20:33.000Z</time>
      </trkpt>
      <trkpt lat="47.27247" lon="-2.35601">
        <ele>7.1999998092651</ele>
        <time>2022-02-03T11:20:34.000Z</time>
      </trkpt>
      <trkpt lat="47.27244" lon="-2.35594">
        <ele>7.5999999046326</ele>
        <time>2022-02-03T11:20:35.000Z</time>
      </trkpt>
      <trkpt lat="47.27228" lon="-2.35558">
        <ele>7.5999999046326</ele>
        <time>2022-02-03T11:20:41.000Z</time>
      </trkpt>
      <trkpt lat="47.27199" lon="-2.35494">
        <ele>7.5999999046326</ele>
        <time>2022-02-03T11:20:51.000Z</time>
      </trkpt>
      <trkpt lat="47.27173" lon="-2.35445">
        <ele>7.5999999046326</ele>
        <time>2022-02-03T11:20:59.000Z</time>
      </trkpt>
      <trkpt lat="47.27144" lon="-2.35389">
        <ele>7.5999999046326</ele>
        <time>2022-02-03T11:21:08.000Z</time>
      </trkpt>
      <trkpt lat="47.27113" lon="-2.35337">
        <ele>7.5999999046326</ele>
        <time>2022-02-03T11:21:17.000Z</time>
      </trkpt>
      <trkpt lat="47.27085" lon="-2.35292">
        <ele>7.5999999046326</ele>
        <time>2022-02-03T11:21:25.000Z</time>
      </trkpt>
      <trkpt lat="47.27059" lon="-2.35253">
        <ele>7.5999999046326</ele>
        <time>2022-02-03T11:21:32.000Z</time>
      </trkpt>
      <trkpt lat="47.27036" lon="-2.35217">
        <ele>7.5999999046326</ele>
        <time>2022-02-03T11:21:38.000Z</time>
      </trkpt>
      <trkpt lat="47.27004" lon="-2.35169">
        <ele>7.5999999046326</ele>
        <time>2022-02-03T11:21:46.000Z</time>
      </trkpt>
      <trkpt lat="47.26969" lon="-2.35116">
        <ele>7.5999999046326</ele>
        <time>2022-02-03T11:21:55.000Z</time>
      </trkpt>
      <trkpt lat="47.26943" lon="-2.35075">
        <ele>7.5999999046326</ele>
        <time>2022-02-03T11:22:02.000Z</time>
      </trkpt>
      <trkpt lat="47.26916" lon="-2.35034">
        <ele>7.5999999046326</ele>
        <time>2022-02-03T11:22:09.000Z</time>
      </trkpt>
      <trkpt lat="47.26889" lon="-2.34994">
        <ele>7.5999999046326</ele>
        <time>2022-02-03T11:22:16.000Z</time>
      </trkpt>
      <trkpt lat="47.26859" lon="-2.34948">
        <ele>7.5999999046326</ele>
        <time>2022-02-03T11:22:24.000Z</time>
      </trkpt>
      <trkpt lat="47.26833" lon="-2.34906">
        <ele>7.5999999046326</ele>
        <time>2022-02-03T11:22:31.000Z</time>
      </trkpt>
      <trkpt lat="47.26805" lon="-2.34866">
        <ele>7.5999999046326</ele>
        <time>2022-02-03T11:22:38.000Z</time>
      </trkpt>
      <trkpt lat="47.26776" lon="-2.34826">
        <ele>7.5999999046326</ele>
        <time>2022-02-03T11:22:45.000Z</time>
      </trkpt>
      <trkpt lat="47.26764" lon="-2.34811">
        <ele>7.5999999046326</ele>
        <time>2022-02-03T11:22:48.000Z</time>
      </trkpt>
      <trkpt lat="47.26756" lon="-2.348">
        <ele>7.5999999046326</ele>
        <time>2022-02-03T11:22:50.000Z</time>
      </trkpt>
      <trkpt lat="47.26723" lon="-2.34758">
        <ele>7.5999999046326</ele>
        <time>2022-02-03T11:22:58.000Z</time>
      </trkpt>
      <trkpt lat="47.26694" lon="-2.34723">
        <ele>7.5999999046326</ele>
        <time>2022-02-03T11:23:05.000Z</time>
      </trkpt>
      <trkpt lat="47.26658" lon="-2.34678">
        <ele>7.5999999046326</ele>
        <time>2022-02-03T11:23:14.000Z</time>
      </trkpt>
      <trkpt lat="47.26654" lon="-2.34673">
        <ele>7.5999999046326</ele>
        <time>2022-02-03T11:23:15.000Z</time>
      </trkpt>
      <trkpt lat="47.26633" lon="-2.34648">
        <ele>7.5999999046326</ele>
        <time>2022-02-03T11:23:20.000Z</time>
      </trkpt>
      <trkpt lat="47.2662" lon="-2.34633">
        <ele>7.5999999046326</ele>
        <time>2022-02-03T11:23:23.000Z</time>
      </trkpt>
      <trkpt lat="47.26591" lon="-2.34597">
        <ele>7.5999999046326</ele>
        <time>2022-02-03T11:23:30.000Z</time>
      </trkpt>
      <trkpt lat="47.26556" lon="-2.34559">
        <ele>7.5999999046326</ele>
        <time>2022-02-03T11:23:38.000Z</time>
      </trkpt>
      <trkpt lat="47.26523" lon="-2.34528">
        <ele>7.5999999046326</ele>
        <time>2022-02-03T11:23:45.000Z</time>
      </trkpt>
      <trkpt lat="47.26518" lon="-2.34524">
        <ele>7.5999999046326</ele>
        <time>2022-02-03T11:23:46.000Z</time>
      </trkpt>
      <trkpt lat="47.26495" lon="-2.34506">
        <ele>7.5999999046326</ele>
        <time>2022-02-03T11:23:51.000Z</time>
      </trkpt>
      <trkpt lat="47.2645" lon="-2.34474">
        <ele>7.5999999046326</ele>
        <time>2022-02-03T11:24:00.000Z</time>
      </trkpt>
      <trkpt lat="47.26417" lon="-2.34448">
        <ele>7.5999999046326</ele>
        <time>2022-02-03T11:24:07.000Z</time>
      </trkpt>
      <trkpt lat="47.26379" lon="-2.34417">
        <ele>7.5999999046326</ele>
        <time>2022-02-03T11:24:15.000Z</time>
      </trkpt>
      <trkpt lat="47.26343" lon="-2.34386">
        <ele>7.5999999046326</ele>
        <time>2022-02-03T11:24:23.000Z</time>
      </trkpt>
      <trkpt lat="47.26338" lon="-2.34383">
        <ele>7.5999999046326</ele>
        <time>2022-02-03T11:24:24.000Z</time>
      </trkpt>
      <trkpt lat="47.26328" lon="-2.34381">
        <ele>7.5999999046326</ele>
        <time>2022-02-03T11:24:26.000Z</time>
      </trkpt>
      <trkpt lat="47.26316" lon="-2.34368">
        <ele>7.5999999046326</ele>
        <time>2022-02-03T11:24:29.000Z</time>
      </trkpt>
      <trkpt lat="47.26313" lon="-2.34363">
        <ele>7.5999999046326</ele>
        <time>2022-02-03T11:24:30.000Z</time>
      </trkpt>
      <trkpt lat="47.26309" lon="-2.34357">
        <ele>7.5999999046326</ele>
        <time>2022-02-03T11:24:31.000Z</time>
      </trkpt>
      <trkpt lat="47.26296" lon="-2.34343">
        <ele>7.5999999046326</ele>
        <time>2022-02-03T11:24:34.000Z</time>
      </trkpt>
      <trkpt lat="47.26292" lon="-2.34339">
        <ele>7.5999999046326</ele>
        <time>2022-02-03T11:24:35.000Z</time>
      </trkpt>
      <trkpt lat="47.26275" lon="-2.3432">
        <ele>7.5999999046326</ele>
        <time>2022-02-03T11:24:39.000Z</time>
      </trkpt>
      <trkpt lat="47.26271" lon="-2.34316">
        <ele>7.5999999046326</ele>
        <time>2022-02-03T11:24:40.000Z</time>
      </trkpt>
      <trkpt lat="47.26249" lon="-2.34292">
        <ele>7.5999999046326</ele>
        <time>2022-02-03T11:24:45.000Z</time>
      </trkpt>
      <trkpt lat="47.2624" lon="-2.34283">
        <ele>7.5999999046326</ele>
        <time>2022-02-03T11:24:47.000Z</time>
      </trkpt>
      <trkpt lat="47.26206" lon="-2.34247">
        <ele>7.5999999046326</ele>
        <time>2022-02-03T11:24:55.000Z</time>
      </trkpt>
      <trkpt lat="47.26167" lon="-2.34207">
        <ele>7.5999999046326</ele>
        <time>2022-02-03T11:25:04.000Z</time>
      </trkpt>
      <trkpt lat="47.26146" lon="-2.34187">
        <ele>7.5999999046326</ele>
        <time>2022-02-03T11:25:09.000Z</time>
      </trkpt>
      <trkpt lat="47.26136" lon="-2.34183">
        <ele>7.5999999046326</ele>
        <time>2022-02-03T11:25:11.000Z</time>
      </trkpt>
      <trkpt lat="47.2612" lon="-2.34167">
        <ele>7.5999999046326</ele>
        <time>2022-02-03T11:25:15.000Z</time>
      </trkpt>
      <trkpt lat="47.26105" lon="-2.34157">
        <ele>7.5999999046326</ele>
        <time>2022-02-03T11:25:18.000Z</time>
      </trkpt>
      <trkpt lat="47.26094" lon="-2.34152">
        <ele>7.5999999046326</ele>
        <time>2022-02-03T11:25:20.000Z</time>
      </trkpt>
      <trkpt lat="47.26057" lon="-2.34132">
        <ele>7.5999999046326</ele>
        <time>2022-02-03T11:25:27.000Z</time>
      </trkpt>
      <trkpt lat="47.26015" lon="-2.34111">
        <ele>7.5999999046326</ele>
        <time>2022-02-03T11:25:35.000Z</time>
      </trkpt>
      <trkpt lat="47.25999" lon="-2.34103">
        <ele>7.1999998092651</ele>
        <time>2022-02-03T11:25:38.000Z</time>
      </trkpt>
      <trkpt lat="47.25993" lon="-2.341">
        <ele>6.8000001907349</ele>
        <time>2022-02-03T11:25:39.000Z</time>
      </trkpt>
      <trkpt lat="47.25988" lon="-2.34097">
        <ele>6.4000000953674</ele>
        <time>2022-02-03T11:25:40.000Z</time>
      </trkpt>
      <trkpt lat="47.25983" lon="-2.34095">
        <ele>6</ele>
        <time>2022-02-03T11:25:41.000Z</time>
      </trkpt>
      <trkpt lat="47.25979" lon="-2.34092">
        <ele>5.5999999046326</ele>
        <time>2022-02-03T11:25:42.000Z</time>
      </trkpt>
      <trkpt lat="47.25942" lon="-2.34076">
        <ele>5.5999999046326</ele>
        <time>2022-02-03T11:25:49.000Z</time>
      </trkpt>
      <trkpt lat="47.25927" lon="-2.3407">
        <ele>5.5999999046326</ele>
        <time>2022-02-03T11:25:52.000Z</time>
      </trkpt>
      <trkpt lat="47.25915" lon="-2.34068">
        <ele>5.5999999046326</ele>
        <time>2022-02-03T11:25:54.000Z</time>
      </trkpt>
      <trkpt lat="47.2591" lon="-2.34065">
        <ele>5.5999999046326</ele>
        <time>2022-02-03T11:25:55.000Z</time>
      </trkpt>
      <trkpt lat="47.25901" lon="-2.34048">
        <ele>5.5999999046326</ele>
        <time>2022-02-03T11:25:58.000Z</time>
      </trkpt>
      <trkpt lat="47.25903" lon="-2.34027">
        <ele>5.5999999046326</ele>
        <time>2022-02-03T11:26:01.000Z</time>
      </trkpt>
      <trkpt lat="47.2591" lon="-2.33999">
        <ele>5.5999999046326</ele>
        <time>2022-02-03T11:26:05.000Z</time>
      </trkpt>
      <trkpt lat="47.25912" lon="-2.33992">
        <ele>5.5999999046326</ele>
        <time>2022-02-03T11:26:06.000Z</time>
      </trkpt>
      <trkpt lat="47.25926" lon="-2.33952">
        <ele>5.5999999046326</ele>
        <time>2022-02-03T11:26:12.000Z</time>
      </trkpt>
      <trkpt lat="47.25936" lon="-2.33933">
        <ele>5.5999999046326</ele>
        <time>2022-02-03T11:26:15.000Z</time>
      </trkpt>
      <trkpt lat="47.25946" lon="-2.33917">
        <ele>5.5999999046326</ele>
        <time>2022-02-03T11:26:18.000Z</time>
      </trkpt>
      <trkpt lat="47.25958" lon="-2.33896">
        <ele>5.5999999046326</ele>
        <time>2022-02-03T11:26:22.000Z</time>
      </trkpt>
      <trkpt lat="47.25962" lon="-2.33891">
        <ele>5.5999999046326</ele>
        <time>2022-02-03T11:26:23.000Z</time>
      </trkpt>
      <trkpt lat="47.25966" lon="-2.33886">
        <ele>5.5999999046326</ele>
        <time>2022-02-03T11:26:24.000Z</time>
      </trkpt>
      <trkpt lat="47.25971" lon="-2.33873">
        <ele>5.5999999046326</ele>
        <time>2022-02-03T11:26:26.000Z</time>
      </trkpt>
      <trkpt lat="47.25991" lon="-2.33817">
        <ele>5.5999999046326</ele>
        <time>2022-02-03T11:26:33.000Z</time>
      </trkpt>
      <trkpt lat="47.26012" lon="-2.33762">
        <ele>5.5999999046326</ele>
        <time>2022-02-03T11:26:40.000Z</time>
      </trkpt>
      <trkpt lat="47.26015" lon="-2.33755">
        <ele>5.1999998092651</ele>
        <time>2022-02-03T11:26:41.000Z</time>
      </trkpt>
      <trkpt lat="47.26017" lon="-2.33747">
        <ele>4.8000001907349</ele>
        <time>2022-02-03T11:26:42.000Z</time>
      </trkpt>
      <trkpt lat="47.2602" lon="-2.3374">
        <ele>4.4000000953674</ele>
        <time>2022-02-03T11:26:43.000Z</time>
      </trkpt>
      <trkpt lat="47.26022" lon="-2.33733">
        <ele>4</ele>
        <time>2022-02-03T11:26:44.000Z</time>
      </trkpt>
      <trkpt lat="47.26025" lon="-2.33727">
        <ele>3.5999999046326</ele>
        <time>2022-02-03T11:26:45.000Z</time>
      </trkpt>
      <trkpt lat="47.26033" lon="-2.33707">
        <ele>3.5999999046326</ele>
        <time>2022-02-03T11:26:49.000Z</time>
      </trkpt>
      <trkpt lat="47.26035" lon="-2.33704">
        <ele>3.5999999046326</ele>
        <time>2022-02-03T11:26:50.000Z</time>
      </trkpt>
      <trkpt lat="47.26041" lon="-2.33702">
        <ele>3.5999999046326</ele>
        <time>2022-02-03T11:26:52.000Z</time>
      </trkpt>
      <trkpt lat="47.26048" lon="-2.33688">
        <ele>3.5999999046326</ele>
        <time>2022-02-03T11:26:55.000Z</time>
      </trkpt>
      <trkpt lat="47.2605" lon="-2.33681">
        <ele>3.5999999046326</ele>
        <time>2022-02-03T11:26:56.000Z</time>
      </trkpt>
      <trkpt lat="47.2606" lon="-2.33646">
        <ele>3.5999999046326</ele>
        <time>2022-02-03T11:27:01.000Z</time>
      </trkpt>
      <trkpt lat="47.26063" lon="-2.33638">
        <ele>3.5999999046326</ele>
        <time>2022-02-03T11:27:02.000Z</time>
      </trkpt>
      <trkpt lat="47.26074" lon="-2.33609">
        <ele>3.5999999046326</ele>
        <time>2022-02-03T11:27:06.000Z</time>
      </trkpt>
      <trkpt lat="47.26097" lon="-2.33543">
        <ele>3.5999999046326</ele>
        <time>2022-02-03T11:27:15.000Z</time>
      </trkpt>
      <trkpt lat="47.26116" lon="-2.33492">
        <ele>3.5999999046326</ele>
        <time>2022-02-03T11:27:22.000Z</time>
      </trkpt>
      <trkpt lat="47.26132" lon="-2.33444">
        <ele>3.5999999046326</ele>
        <time>2022-02-03T11:27:29.000Z</time>
      </trkpt>
      <trkpt lat="47.26134" lon="-2.33437">
        <ele>3.5999999046326</ele>
        <time>2022-02-03T11:27:30.000Z</time>
      </trkpt>
      <trkpt lat="47.26132" lon="-2.33423">
        <ele>3.5999999046326</ele>
        <time>2022-02-03T11:27:32.000Z</time>
      </trkpt>
      <trkpt lat="47.26121" lon="-2.33409">
        <ele>3.5999999046326</ele>
        <time>2022-02-03T11:27:35.000Z</time>
      </trkpt>
      <trkpt lat="47.26116" lon="-2.33405">
        <ele>3.5999999046326</ele>
        <time>2022-02-03T11:27:36.000Z</time>
      </trkpt>
      <trkpt lat="47.26112" lon="-2.33399">
        <ele>3.5999999046326</ele>
        <time>2022-02-03T11:27:37.000Z</time>
      </trkpt>
      <trkpt lat="47.26094" lon="-2.33378">
        <ele>3.5999999046326</ele>
        <time>2022-02-03T11:27:41.000Z</time>
      </trkpt>
      <trkpt lat="47.26085" lon="-2.33366">
        <ele>3.5999999046326</ele>
        <time>2022-02-03T11:27:43.000Z</time>
      </trkpt>
      <trkpt lat="47.26074" lon="-2.33346">
        <ele>3.5999999046326</ele>
        <time>2022-02-03T11:27:46.000Z</time>
      </trkpt>
      <trkpt lat="47.26055" lon="-2.33291">
        <ele>3.5999999046326</ele>
        <time>2022-02-03T11:27:53.000Z</time>
      </trkpt>
      <trkpt lat="47.26044" lon="-2.33261">
        <ele>3.5999999046326</ele>
        <time>2022-02-03T11:27:57.000Z</time>
      </trkpt>
      <trkpt lat="47.26036" lon="-2.3324">
        <ele>3.5999999046326</ele>
        <time>2022-02-03T11:28:00.000Z</time>
      </trkpt>
      <trkpt lat="47.26017" lon="-2.33186">
        <ele>3.5999999046326</ele>
        <time>2022-02-03T11:28:07.000Z</time>
      </trkpt>
      <trkpt lat="47.25992" lon="-2.33111">
        <ele>3.5999999046326</ele>
        <time>2022-02-03T11:28:17.000Z</time>
      </trkpt>
      <trkpt lat="47.25983" lon="-2.33081">
        <ele>3.5999999046326</ele>
        <time>2022-02-03T11:28:21.000Z</time>
      </trkpt>
      <trkpt lat="47.2598" lon="-2.33074">
        <ele>3.5999999046326</ele>
        <time>2022-02-03T11:28:22.000Z</time>
      </trkpt>
      <trkpt lat="47.25967" lon="-2.33045">
        <ele>3.5999999046326</ele>
        <time>2022-02-03T11:28:26.000Z</time>
      </trkpt>
      <trkpt lat="47.25962" lon="-2.3303">
        <ele>3.5999999046326</ele>
        <time>2022-02-03T11:28:28.000Z</time>
      </trkpt>
      <trkpt lat="47.25947" lon="-2.32985">
        <ele>3.5999999046326</ele>
        <time>2022-02-03T11:28:34.000Z</time>
      </trkpt>
      <trkpt lat="47.25933" lon="-2.32949">
        <ele>3.5999999046326</ele>
        <time>2022-02-03T11:28:39.000Z</time>
      </trkpt>
      <trkpt lat="47.25917" lon="-2.32902">
        <ele>3.5999999046326</ele>
        <time>2022-02-03T11:28:45.000Z</time>
      </trkpt>
      <trkpt lat="47.259" lon="-2.32857">
        <ele>3.5999999046326</ele>
        <time>2022-02-03T11:28:51.000Z</time>
      </trkpt>
      <trkpt lat="47.25877" lon="-2.32791">
        <ele>3.5999999046326</ele>
        <time>2022-02-03T11:29:00.000Z</time>
      </trkpt>
      <trkpt lat="47.25861" lon="-2.32731">
        <ele>3.5999999046326</ele>
        <time>2022-02-03T11:29:08.000Z</time>
      </trkpt>
      <trkpt lat="47.25859" lon="-2.32708">
        <ele>3.5999999046326</ele>
        <time>2022-02-03T11:29:11.000Z</time>
      </trkpt>
      <trkpt lat="47.2585" lon="-2.3269">
        <ele>3.5999999046326</ele>
        <time>2022-02-03T11:29:14.000Z</time>
      </trkpt>
      <trkpt lat="47.25848" lon="-2.32683">
        <ele>3.5999999046326</ele>
        <time>2022-02-03T11:29:15.000Z</time>
      </trkpt>
      <trkpt lat="47.25835" lon="-2.32637">
        <ele>3.5999999046326</ele>
        <time>2022-02-03T11:29:21.000Z</time>
      </trkpt>
      <trkpt lat="47.25822" lon="-2.32586">
        <ele>3.5999999046326</ele>
        <time>2022-02-03T11:29:28.000Z</time>
      </trkpt>
      <trkpt lat="47.25809" lon="-2.32534">
        <ele>3.5999999046326</ele>
        <time>2022-02-03T11:29:35.000Z</time>
      </trkpt>
      <trkpt lat="47.25799" lon="-2.32491">
        <ele>3.5999999046326</ele>
        <time>2022-02-03T11:29:41.000Z</time>
      </trkpt>
      <trkpt lat="47.25798" lon="-2.32486">
        <ele>3.5999999046326</ele>
        <time>2022-02-03T11:29:42.000Z</time>
      </trkpt>
      <trkpt lat="47.258" lon="-2.32469">
        <ele>3.5999999046326</ele>
        <time>2022-02-03T11:29:45.000Z</time>
      </trkpt>
      <trkpt lat="47.25811" lon="-2.3246">
        <ele>3.5999999046326</ele>
        <time>2022-02-03T11:29:48.000Z</time>
      </trkpt>
      <trkpt lat="47.25826" lon="-2.32465">
        <ele>3.5999999046326</ele>
        <time>2022-02-03T11:29:51.000Z</time>
      </trkpt>
      <trkpt lat="47.25836" lon="-2.32469">
        <ele>3.5999999046326</ele>
        <time>2022-02-03T11:29:53.000Z</time>
      </trkpt>
      <trkpt lat="47.25851" lon="-2.32473">
        <ele>3.5999999046326</ele>
        <time>2022-02-03T11:29:56.000Z</time>
      </trkpt>
      <trkpt lat="47.25856" lon="-2.32474">
        <ele>3.5999999046326</ele>
        <time>2022-02-03T11:29:57.000Z</time>
      </trkpt>
      <trkpt lat="47.25866" lon="-2.32473">
        <ele>3.5999999046326</ele>
        <time>2022-02-03T11:29:59.000Z</time>
      </trkpt>
      <trkpt lat="47.25881" lon="-2.32471">
        <ele>3.5999999046326</ele>
        <time>2022-02-03T11:30:02.000Z</time>
      </trkpt>
      <trkpt lat="47.25892" lon="-2.32467">
        <ele>3.5999999046326</ele>
        <time>2022-02-03T11:30:04.000Z</time>
      </trkpt>
      <trkpt lat="47.25901" lon="-2.32457">
        <ele>3.5999999046326</ele>
        <time>2022-02-03T11:30:06.000Z</time>
      </trkpt>
      <trkpt lat="47.25918" lon="-2.32437">
        <ele>3.5999999046326</ele>
        <time>2022-02-03T11:30:10.000Z</time>
      </trkpt>
      <trkpt lat="47.25925" lon="-2.32425">
        <ele>3.5999999046326</ele>
        <time>2022-02-03T11:30:12.000Z</time>
      </trkpt>
      <trkpt lat="47.25933" lon="-2.32415">
        <ele>3.5999999046326</ele>
        <time>2022-02-03T11:30:14.000Z</time>
      </trkpt>
      <trkpt lat="47.25953" lon="-2.32388">
        <ele>3.5999999046326</ele>
        <time>2022-02-03T11:30:19.000Z</time>
      </trkpt>
      <trkpt lat="47.25978" lon="-2.32354">
        <ele>3.5999999046326</ele>
        <time>2022-02-03T11:30:25.000Z</time>
      </trkpt>
      <trkpt lat="47.25983" lon="-2.32349">
        <ele>3.5999999046326</ele>
        <time>2022-02-03T11:30:26.000Z</time>
      </trkpt>
      <trkpt lat="47.26004" lon="-2.32322">
        <ele>3.5999999046326</ele>
        <time>2022-02-03T11:30:31.000Z</time>
      </trkpt>
      <trkpt lat="47.26017" lon="-2.32308">
        <ele>3.2000000476837</ele>
        <time>2022-02-03T11:30:34.000Z</time>
      </trkpt>
      <trkpt lat="47.26021" lon="-2.32303">
        <ele>2.7999999523163</ele>
        <time>2022-02-03T11:30:35.000Z</time>
      </trkpt>
      <trkpt lat="47.26025" lon="-2.32298">
        <ele>2.4000000953674</ele>
        <time>2022-02-03T11:30:36.000Z</time>
      </trkpt>
      <trkpt lat="47.26029" lon="-2.32293">
        <ele>2</ele>
        <time>2022-02-03T11:30:37.000Z</time>
      </trkpt>
      <trkpt lat="47.26034" lon="-2.32288">
        <ele>1.6000000238419</ele>
        <time>2022-02-03T11:30:38.000Z</time>
      </trkpt>
      <trkpt lat="47.26039" lon="-2.32283">
        <ele>1.6000000238419</ele>
        <time>2022-02-03T11:30:39.000Z</time>
      </trkpt>
      <trkpt lat="47.26068" lon="-2.32251">
        <ele>1.6000000238419</ele>
        <time>2022-02-03T11:30:46.000Z</time>
      </trkpt>
      <trkpt lat="47.26088" lon="-2.32225">
        <ele>1.6000000238419</ele>
        <time>2022-02-03T11:30:51.000Z</time>
      </trkpt>
      <trkpt lat="47.26107" lon="-2.32187">
        <ele>1.6000000238419</ele>
        <time>2022-02-03T11:30:57.000Z</time>
      </trkpt>
      <trkpt lat="47.26125" lon="-2.32138">
        <ele>1.6000000238419</ele>
        <time>2022-02-03T11:31:04.000Z</time>
      </trkpt>
      <trkpt lat="47.2614" lon="-2.32087">
        <ele>1.6000000238419</ele>
        <time>2022-02-03T11:31:11.000Z</time>
      </trkpt>
      <trkpt lat="47.26154" lon="-2.32036">
        <ele>1.6000000238419</ele>
        <time>2022-02-03T11:31:18.000Z</time>
      </trkpt>
      <trkpt lat="47.26158" lon="-2.32004">
        <ele>1.6000000238419</ele>
        <time>2022-02-03T11:31:22.000Z</time>
      </trkpt>
      <trkpt lat="47.26157" lon="-2.31989">
        <ele>1.6000000238419</ele>
        <time>2022-02-03T11:31:24.000Z</time>
      </trkpt>
      <trkpt lat="47.2615" lon="-2.31936">
        <ele>1.6000000238419</ele>
        <time>2022-02-03T11:31:31.000Z</time>
      </trkpt>
      <trkpt lat="47.26143" lon="-2.31884">
        <ele>1.6000000238419</ele>
        <time>2022-02-03T11:31:38.000Z</time>
      </trkpt>
      <trkpt lat="47.26138" lon="-2.31842">
        <ele>1.6000000238419</ele>
        <time>2022-02-03T11:31:44.000Z</time>
      </trkpt>
      <trkpt lat="47.26133" lon="-2.31792">
        <ele>1.6000000238419</ele>
        <time>2022-02-03T11:31:50.000Z</time>
      </trkpt>
      <trkpt lat="47.26125" lon="-2.31729">
        <ele>1.6000000238419</ele>
        <time>2022-02-03T11:31:58.000Z</time>
      </trkpt>
      <trkpt lat="47.26122" lon="-2.317">
        <ele>1.6000000238419</ele>
        <time>2022-02-03T11:32:02.000Z</time>
      </trkpt>
      <trkpt lat="47.2612" lon="-2.31686">
        <ele>1.6000000238419</ele>
        <time>2022-02-03T11:32:04.000Z</time>
      </trkpt>
      <trkpt lat="47.26115" lon="-2.31646">
        <ele>1.6000000238419</ele>
        <time>2022-02-03T11:32:10.000Z</time>
      </trkpt>
      <trkpt lat="47.26117" lon="-2.31627">
        <ele>1.6000000238419</ele>
        <time>2022-02-03T11:32:13.000Z</time>
      </trkpt>
      <trkpt lat="47.26123" lon="-2.31618">
        <ele>1.6000000238419</ele>
        <time>2022-02-03T11:32:15.000Z</time>
      </trkpt>
      <trkpt lat="47.2614" lon="-2.31613">
        <ele>1.6000000238419</ele>
        <time>2022-02-03T11:32:19.000Z</time>
      </trkpt>
      <trkpt lat="47.26145" lon="-2.31612">
        <ele>1.6000000238419</ele>
        <time>2022-02-03T11:32:20.000Z</time>
      </trkpt>
      <trkpt lat="47.2617" lon="-2.31602">
        <ele>1.6000000238419</ele>
        <time>2022-02-03T11:32:25.000Z</time>
      </trkpt>
      <trkpt lat="47.26204" lon="-2.31591">
        <ele>1.6000000238419</ele>
        <time>2022-02-03T11:32:32.000Z</time>
      </trkpt>
      <trkpt lat="47.26219" lon="-2.31592">
        <ele>1.6000000238419</ele>
        <time>2022-02-03T11:32:35.000Z</time>
      </trkpt>
      <trkpt lat="47.26228" lon="-2.31596">
        <ele>1.6000000238419</ele>
        <time>2022-02-03T11:32:37.000Z</time>
      </trkpt>
      <trkpt lat="47.26247" lon="-2.31611">
        <ele>1.6000000238419</ele>
        <time>2022-02-03T11:32:42.000Z</time>
      </trkpt>
      <trkpt lat="47.2625" lon="-2.31616">
        <ele>1.6000000238419</ele>
        <time>2022-02-03T11:32:43.000Z</time>
      </trkpt>
      <trkpt lat="47.26258" lon="-2.3163">
        <ele>1.6000000238419</ele>
        <time>2022-02-03T11:32:46.000Z</time>
      </trkpt>
      <trkpt lat="47.26261" lon="-2.31636">
        <ele>1.6000000238419</ele>
        <time>2022-02-03T11:32:47.000Z</time>
      </trkpt>
      <trkpt lat="47.26268" lon="-2.31657">
        <ele>1.6000000238419</ele>
        <time>2022-02-03T11:32:51.000Z</time>
      </trkpt>
      <trkpt lat="47.26282" lon="-2.31685">
        <ele>1.6000000238419</ele>
        <time>2022-02-03T11:32:56.000Z</time>
      </trkpt>
      <trkpt lat="47.26296" lon="-2.31707">
        <ele>1.6000000238419</ele>
        <time>2022-02-03T11:33:00.000Z</time>
      </trkpt>
      <trkpt lat="47.263" lon="-2.31709">
        <ele>1.6000000238419</ele>
        <time>2022-02-03T11:33:01.000Z</time>
      </trkpt>
      <trkpt lat="47.26318" lon="-2.31705">
        <ele>1.6000000238419</ele>
        <time>2022-02-03T11:33:05.000Z</time>
      </trkpt>
      <trkpt lat="47.26328" lon="-2.31699">
        <ele>1.6000000238419</ele>
        <time>2022-02-03T11:33:08.000Z</time>
      </trkpt>
      <trkpt lat="47.2633" lon="-2.31695">
        <ele>1.6000000238419</ele>
        <time>2022-02-03T11:33:09.000Z</time>
      </trkpt>
      <trkpt lat="47.26332" lon="-2.31691">
        <ele>2</ele>
        <time>2022-02-03T11:33:10.000Z</time>
      </trkpt>
      <trkpt lat="47.26335" lon="-2.31688">
        <ele>2.4000000953674</ele>
        <time>2022-02-03T11:33:11.000Z</time>
      </trkpt>
      <trkpt lat="47.26338" lon="-2.31687">
        <ele>3.2000000476837</ele>
        <time>2022-02-03T11:33:12.000Z</time>
      </trkpt>
      <trkpt lat="47.26341" lon="-2.31686">
        <ele>3.5999999046326</ele>
        <time>2022-02-03T11:33:13.000Z</time>
      </trkpt>
      <trkpt lat="47.26357" lon="-2.31677">
        <ele>3.5999999046326</ele>
        <time>2022-02-03T11:33:18.000Z</time>
      </trkpt>
      <trkpt lat="47.26375" lon="-2.3167">
        <ele>4</ele>
        <time>2022-02-03T11:33:23.000Z</time>
      </trkpt>
      <trkpt lat="47.26379" lon="-2.31668">
        <ele>4.4000000953674</ele>
        <time>2022-02-03T11:33:24.000Z</time>
      </trkpt>
      <trkpt lat="47.26382" lon="-2.31666">
        <ele>4.8000001907349</ele>
        <time>2022-02-03T11:33:25.000Z</time>
      </trkpt>
      <trkpt lat="47.26386" lon="-2.31664">
        <ele>5.1999998092651</ele>
        <time>2022-02-03T11:33:26.000Z</time>
      </trkpt>
      <trkpt lat="47.2639" lon="-2.31662">
        <ele>5.5999999046326</ele>
        <time>2022-02-03T11:33:27.000Z</time>
      </trkpt>
      <trkpt lat="47.26398" lon="-2.31658">
        <ele>5.5999999046326</ele>
        <time>2022-02-03T11:33:29.000Z</time>
      </trkpt>
      <trkpt lat="47.26408" lon="-2.3165">
        <ele>5.5999999046326</ele>
        <time>2022-02-03T11:33:32.000Z</time>
      </trkpt>
      <trkpt lat="47.26409" lon="-2.31646">
        <ele>5.5999999046326</ele>
        <time>2022-02-03T11:33:33.000Z</time>
      </trkpt>
      <trkpt lat="47.26409" lon="-2.3163">
        <ele>5.5999999046326</ele>
        <time>2022-02-03T11:33:36.000Z</time>
      </trkpt>
      <trkpt lat="47.26409" lon="-2.31624">
        <ele>5.5999999046326</ele>
        <time>2022-02-03T11:33:37.000Z</time>
      </trkpt>
      <trkpt lat="47.26409" lon="-2.31581">
        <ele>5.5999999046326</ele>
        <time>2022-02-03T11:33:44.000Z</time>
      </trkpt>
      <trkpt lat="47.26411" lon="-2.31553">
        <ele>5.5999999046326</ele>
        <time>2022-02-03T11:33:50.000Z</time>
      </trkpt>
      <trkpt lat="47.26417" lon="-2.31552">
        <ele>6</ele>
        <time>2022-02-03T11:33:54.000Z</time>
      </trkpt>
      <trkpt lat="47.26418" lon="-2.31552">
        <ele>6.5999999046326</ele>
        <time>2022-02-03T11:33:55.000Z</time>
      </trkpt>
    </trkseg>
  </trk>
</gpx>